<?xml version="1.0" encoding="UTF-8" standalone="no" ?>
<gpx xmlns="http://www.topografix.com/GPX/1/1" xmlns:xsi="http://www.w3.org/2001/XMLSchema-instance" xsi:schemaLocation="http://www.topografix.com/GPX/1/1 http://www.topografix.com/GPX/1/1/gpx.xsd" version="1.1" creator="VisuGPX - https://www.visugpx.com">
  <metadata>
    <name>2018-07-25 Bike ride-Amberieux-Savigneux O 33k</name>
    <desc><![CDATA[2018-07-25 Bike ride-Amberieux-Savigneux O 33k]]></desc>
  </metadata>
  <wpt lat="45.92441" lon="4.73696">
    <ele>174</ele>
    <name><![CDATA[2018-07-25 10:15 (Start)]]></name>
  </wpt>
  <wpt lat="45.92461" lon="4.73706">
    <ele>174</ele>
    <name><![CDATA[2018-07-25 10:15 (End)]]></name>
  </wpt>
  <trk>
    <name><![CDATA[2018-07-25 10:15]]></name>
    <trkseg>
      <trkpt lat="45.92441" lon="4.73696">
        <ele>174</ele>
        <time>2018-07-25T08:15:02.961Z</time>
      </trkpt>
      <trkpt lat="45.92439" lon="4.73695">
        <ele>174</ele>
        <time>2018-07-25T08:15:09.707Z</time>
      </trkpt>
      <trkpt lat="45.92442" lon="4.73717">
        <ele>174</ele>
        <time>2018-07-25T08:15:07.897Z</time>
      </trkpt>
      <trkpt lat="45.9245" lon="4.73713">
        <ele>174</ele>
        <time>2018-07-25T08:15:09Z</time>
      </trkpt>
      <trkpt lat="45.92451" lon="4.73713">
        <ele>174</ele>
        <time>2018-07-25T08:15:10Z</time>
      </trkpt>
      <trkpt lat="45.92458" lon="4.73709">
        <ele>174</ele>
        <time>2018-07-25T08:15:20Z</time>
      </trkpt>
      <trkpt lat="45.92459" lon="4.73708">
        <ele>174</ele>
        <time>2018-07-25T08:15:21Z</time>
      </trkpt>
      <trkpt lat="45.92464" lon="4.73698">
        <ele>174</ele>
        <time>2018-07-25T08:15:32Z</time>
      </trkpt>
      <trkpt lat="45.92465" lon="4.73696">
        <ele>174</ele>
        <time>2018-07-25T08:15:33Z</time>
      </trkpt>
      <trkpt lat="45.92466" lon="4.73683">
        <ele>174</ele>
        <time>2018-07-25T08:15:37Z</time>
      </trkpt>
      <trkpt lat="45.92466" lon="4.7368">
        <ele>174</ele>
        <time>2018-07-25T08:15:38Z</time>
      </trkpt>
      <trkpt lat="45.92468" lon="4.73667">
        <ele>174</ele>
        <time>2018-07-25T08:15:41Z</time>
      </trkpt>
      <trkpt lat="45.92469" lon="4.73662">
        <ele>174</ele>
        <time>2018-07-25T08:15:42Z</time>
      </trkpt>
      <trkpt lat="45.92471" lon="4.73649">
        <ele>174</ele>
        <time>2018-07-25T08:15:43Z</time>
      </trkpt>
      <trkpt lat="45.92471" lon="4.73638">
        <ele>174</ele>
        <time>2018-07-25T08:15:45Z</time>
      </trkpt>
      <trkpt lat="45.92472" lon="4.73632">
        <ele>174</ele>
        <time>2018-07-25T08:15:46Z</time>
      </trkpt>
      <trkpt lat="45.92471" lon="4.7362">
        <ele>174</ele>
        <time>2018-07-25T08:15:48Z</time>
      </trkpt>
      <trkpt lat="45.9247" lon="4.73613">
        <ele>174</ele>
        <time>2018-07-25T08:15:49Z</time>
      </trkpt>
      <trkpt lat="45.92471" lon="4.73601">
        <ele>174</ele>
        <time>2018-07-25T08:15:51Z</time>
      </trkpt>
      <trkpt lat="45.92469" lon="4.73594">
        <ele>174</ele>
        <time>2018-07-25T08:15:52Z</time>
      </trkpt>
      <trkpt lat="45.92468" lon="4.73582">
        <ele>173</ele>
        <time>2018-07-25T08:15:54Z</time>
      </trkpt>
      <trkpt lat="45.92467" lon="4.73576">
        <ele>173</ele>
        <time>2018-07-25T08:15:55Z</time>
      </trkpt>
      <trkpt lat="45.92467" lon="4.73565">
        <ele>173</ele>
        <time>2018-07-25T08:15:57Z</time>
      </trkpt>
      <trkpt lat="45.92465" lon="4.73558">
        <ele>173</ele>
        <time>2018-07-25T08:15:58Z</time>
      </trkpt>
      <trkpt lat="45.92466" lon="4.73548">
        <ele>173</ele>
        <time>2018-07-25T08:16:01Z</time>
      </trkpt>
      <trkpt lat="45.92466" lon="4.73545">
        <ele>173</ele>
        <time>2018-07-25T08:16:02Z</time>
      </trkpt>
      <trkpt lat="45.92465" lon="4.73541">
        <ele>174</ele>
        <time>2018-07-25T08:16:03Z</time>
      </trkpt>
      <trkpt lat="45.92463" lon="4.73528">
        <ele>174</ele>
        <time>2018-07-25T08:16:04Z</time>
      </trkpt>
      <trkpt lat="45.92462" lon="4.73521">
        <ele>174</ele>
        <time>2018-07-25T08:16:05Z</time>
      </trkpt>
      <trkpt lat="45.92461" lon="4.73511">
        <ele>174</ele>
        <time>2018-07-25T08:16:06Z</time>
      </trkpt>
      <trkpt lat="45.92461" lon="4.73504">
        <ele>174</ele>
        <time>2018-07-25T08:16:07Z</time>
      </trkpt>
      <trkpt lat="45.92457" lon="4.73496">
        <ele>173</ele>
        <time>2018-07-25T08:16:08Z</time>
      </trkpt>
      <trkpt lat="45.92457" lon="4.73488">
        <ele>173</ele>
        <time>2018-07-25T08:16:09Z</time>
      </trkpt>
      <trkpt lat="45.92458" lon="4.7348">
        <ele>173</ele>
        <time>2018-07-25T08:16:10Z</time>
      </trkpt>
      <trkpt lat="45.92458" lon="4.73473">
        <ele>173</ele>
        <time>2018-07-25T08:16:11Z</time>
      </trkpt>
      <trkpt lat="45.92457" lon="4.73465">
        <ele>173</ele>
        <time>2018-07-25T08:16:12Z</time>
      </trkpt>
      <trkpt lat="45.92455" lon="4.73457">
        <ele>173</ele>
        <time>2018-07-25T08:16:13Z</time>
      </trkpt>
      <trkpt lat="45.92457" lon="4.7345">
        <ele>173</ele>
        <time>2018-07-25T08:16:14Z</time>
      </trkpt>
      <trkpt lat="45.92456" lon="4.73443">
        <ele>173</ele>
        <time>2018-07-25T08:16:15Z</time>
      </trkpt>
      <trkpt lat="45.92454" lon="4.73437">
        <ele>173</ele>
        <time>2018-07-25T08:16:16Z</time>
      </trkpt>
      <trkpt lat="45.92451" lon="4.73426">
        <ele>173</ele>
        <time>2018-07-25T08:16:18Z</time>
      </trkpt>
      <trkpt lat="45.92449" lon="4.73422">
        <ele>173</ele>
        <time>2018-07-25T08:16:19Z</time>
      </trkpt>
      <trkpt lat="45.92443" lon="4.73416">
        <ele>172</ele>
        <time>2018-07-25T08:16:21Z</time>
      </trkpt>
      <trkpt lat="45.92439" lon="4.73413">
        <ele>172</ele>
        <time>2018-07-25T08:16:22Z</time>
      </trkpt>
      <trkpt lat="45.92431" lon="4.73408">
        <ele>172</ele>
        <time>2018-07-25T08:16:24Z</time>
      </trkpt>
      <trkpt lat="45.92427" lon="4.73403">
        <ele>172</ele>
        <time>2018-07-25T08:16:25Z</time>
      </trkpt>
      <trkpt lat="45.92423" lon="4.73398">
        <ele>172</ele>
        <time>2018-07-25T08:16:26Z</time>
      </trkpt>
      <trkpt lat="45.92421" lon="4.73391">
        <ele>172</ele>
        <time>2018-07-25T08:16:27Z</time>
      </trkpt>
      <trkpt lat="45.92419" lon="4.73379">
        <ele>172</ele>
        <time>2018-07-25T08:16:29Z</time>
      </trkpt>
      <trkpt lat="45.92419" lon="4.73372">
        <ele>172</ele>
        <time>2018-07-25T08:16:30Z</time>
      </trkpt>
      <trkpt lat="45.92418" lon="4.73365">
        <ele>172</ele>
        <time>2018-07-25T08:16:31Z</time>
      </trkpt>
      <trkpt lat="45.92417" lon="4.73357">
        <ele>171</ele>
        <time>2018-07-25T08:16:32Z</time>
      </trkpt>
      <trkpt lat="45.92414" lon="4.73347">
        <ele>171</ele>
        <time>2018-07-25T08:16:33Z</time>
      </trkpt>
      <trkpt lat="45.92413" lon="4.7334">
        <ele>171</ele>
        <time>2018-07-25T08:16:34Z</time>
      </trkpt>
      <trkpt lat="45.92412" lon="4.73332">
        <ele>171</ele>
        <time>2018-07-25T08:16:35Z</time>
      </trkpt>
      <trkpt lat="45.92412" lon="4.73324">
        <ele>171</ele>
        <time>2018-07-25T08:16:36Z</time>
      </trkpt>
      <trkpt lat="45.92412" lon="4.73318">
        <ele>171</ele>
        <time>2018-07-25T08:16:37Z</time>
      </trkpt>
      <trkpt lat="45.9241" lon="4.7331">
        <ele>171</ele>
        <time>2018-07-25T08:16:38Z</time>
      </trkpt>
      <trkpt lat="45.9241" lon="4.73303">
        <ele>171</ele>
        <time>2018-07-25T08:16:39Z</time>
      </trkpt>
      <trkpt lat="45.92412" lon="4.73297">
        <ele>171</ele>
        <time>2018-07-25T08:16:40Z</time>
      </trkpt>
      <trkpt lat="45.9241" lon="4.73291">
        <ele>171</ele>
        <time>2018-07-25T08:16:41Z</time>
      </trkpt>
      <trkpt lat="45.9241" lon="4.73284">
        <ele>171</ele>
        <time>2018-07-25T08:16:42Z</time>
      </trkpt>
      <trkpt lat="45.9241" lon="4.73276">
        <ele>171</ele>
        <time>2018-07-25T08:16:43Z</time>
      </trkpt>
      <trkpt lat="45.92409" lon="4.73269">
        <ele>171</ele>
        <time>2018-07-25T08:16:44Z</time>
      </trkpt>
      <trkpt lat="45.92407" lon="4.73261">
        <ele>171</ele>
        <time>2018-07-25T08:16:45Z</time>
      </trkpt>
      <trkpt lat="45.92407" lon="4.73253">
        <ele>171</ele>
        <time>2018-07-25T08:16:46Z</time>
      </trkpt>
      <trkpt lat="45.92406" lon="4.73245">
        <ele>171</ele>
        <time>2018-07-25T08:16:47Z</time>
      </trkpt>
      <trkpt lat="45.92405" lon="4.73237">
        <ele>171</ele>
        <time>2018-07-25T08:16:48Z</time>
      </trkpt>
      <trkpt lat="45.92405" lon="4.73229">
        <ele>171</ele>
        <time>2018-07-25T08:16:49Z</time>
      </trkpt>
      <trkpt lat="45.92405" lon="4.73222">
        <ele>171</ele>
        <time>2018-07-25T08:16:50Z</time>
      </trkpt>
      <trkpt lat="45.92404" lon="4.73214">
        <ele>171</ele>
        <time>2018-07-25T08:16:51Z</time>
      </trkpt>
      <trkpt lat="45.92405" lon="4.73206">
        <ele>171</ele>
        <time>2018-07-25T08:16:52Z</time>
      </trkpt>
      <trkpt lat="45.92406" lon="4.732">
        <ele>171</ele>
        <time>2018-07-25T08:16:53Z</time>
      </trkpt>
      <trkpt lat="45.92405" lon="4.73191">
        <ele>171</ele>
        <time>2018-07-25T08:16:54Z</time>
      </trkpt>
      <trkpt lat="45.92404" lon="4.73183">
        <ele>171</ele>
        <time>2018-07-25T08:16:55Z</time>
      </trkpt>
      <trkpt lat="45.92403" lon="4.73176">
        <ele>171</ele>
        <time>2018-07-25T08:16:56Z</time>
      </trkpt>
      <trkpt lat="45.92403" lon="4.73169">
        <ele>171</ele>
        <time>2018-07-25T08:16:57Z</time>
      </trkpt>
      <trkpt lat="45.92404" lon="4.73161">
        <ele>170</ele>
        <time>2018-07-25T08:16:58Z</time>
      </trkpt>
      <trkpt lat="45.92404" lon="4.73155">
        <ele>171</ele>
        <time>2018-07-25T08:16:59Z</time>
      </trkpt>
      <trkpt lat="45.92403" lon="4.73147">
        <ele>171</ele>
        <time>2018-07-25T08:17:00Z</time>
      </trkpt>
      <trkpt lat="45.92404" lon="4.7314">
        <ele>171</ele>
        <time>2018-07-25T08:17:01Z</time>
      </trkpt>
      <trkpt lat="45.92403" lon="4.73133">
        <ele>171</ele>
        <time>2018-07-25T08:17:02Z</time>
      </trkpt>
      <trkpt lat="45.92406" lon="4.73122">
        <ele>171</ele>
        <time>2018-07-25T08:17:04Z</time>
      </trkpt>
      <trkpt lat="45.92406" lon="4.73117">
        <ele>171</ele>
        <time>2018-07-25T08:17:05Z</time>
      </trkpt>
      <trkpt lat="45.9241" lon="4.73113">
        <ele>171</ele>
        <time>2018-07-25T08:17:06Z</time>
      </trkpt>
      <trkpt lat="45.92414" lon="4.7311">
        <ele>171</ele>
        <time>2018-07-25T08:17:07Z</time>
      </trkpt>
      <trkpt lat="45.92419" lon="4.73107">
        <ele>171</ele>
        <time>2018-07-25T08:17:08Z</time>
      </trkpt>
      <trkpt lat="45.92423" lon="4.73104">
        <ele>171</ele>
        <time>2018-07-25T08:17:09Z</time>
      </trkpt>
      <trkpt lat="45.92427" lon="4.73099">
        <ele>171</ele>
        <time>2018-07-25T08:17:10Z</time>
      </trkpt>
      <trkpt lat="45.92435" lon="4.73095">
        <ele>171</ele>
        <time>2018-07-25T08:17:11Z</time>
      </trkpt>
      <trkpt lat="45.92439" lon="4.73091">
        <ele>171</ele>
        <time>2018-07-25T08:17:12Z</time>
      </trkpt>
      <trkpt lat="45.92444" lon="4.73087">
        <ele>170</ele>
        <time>2018-07-25T08:17:13Z</time>
      </trkpt>
      <trkpt lat="45.92448" lon="4.73084">
        <ele>170</ele>
        <time>2018-07-25T08:17:14Z</time>
      </trkpt>
      <trkpt lat="45.92453" lon="4.7308">
        <ele>170</ele>
        <time>2018-07-25T08:17:15Z</time>
      </trkpt>
      <trkpt lat="45.92458" lon="4.73076">
        <ele>170</ele>
        <time>2018-07-25T08:17:16Z</time>
      </trkpt>
      <trkpt lat="45.92463" lon="4.73072">
        <ele>170</ele>
        <time>2018-07-25T08:17:17Z</time>
      </trkpt>
      <trkpt lat="45.9247" lon="4.73066">
        <ele>170</ele>
        <time>2018-07-25T08:17:18Z</time>
      </trkpt>
      <trkpt lat="45.92474" lon="4.7306">
        <ele>170</ele>
        <time>2018-07-25T08:17:19Z</time>
      </trkpt>
      <trkpt lat="45.92478" lon="4.73056">
        <ele>170</ele>
        <time>2018-07-25T08:17:20Z</time>
      </trkpt>
      <trkpt lat="45.92483" lon="4.73052">
        <ele>170</ele>
        <time>2018-07-25T08:17:21Z</time>
      </trkpt>
      <trkpt lat="45.92488" lon="4.73048">
        <ele>170</ele>
        <time>2018-07-25T08:17:22Z</time>
      </trkpt>
      <trkpt lat="45.92494" lon="4.73043">
        <ele>170</ele>
        <time>2018-07-25T08:17:23Z</time>
      </trkpt>
      <trkpt lat="45.925" lon="4.73039">
        <ele>170</ele>
        <time>2018-07-25T08:17:24Z</time>
      </trkpt>
      <trkpt lat="45.92503" lon="4.73033">
        <ele>169</ele>
        <time>2018-07-25T08:17:25Z</time>
      </trkpt>
      <trkpt lat="45.92508" lon="4.73029">
        <ele>169</ele>
        <time>2018-07-25T08:17:26Z</time>
      </trkpt>
      <trkpt lat="45.92513" lon="4.73025">
        <ele>169</ele>
        <time>2018-07-25T08:17:27Z</time>
      </trkpt>
      <trkpt lat="45.92517" lon="4.73019">
        <ele>169</ele>
        <time>2018-07-25T08:17:28Z</time>
      </trkpt>
      <trkpt lat="45.92522" lon="4.73015">
        <ele>169</ele>
        <time>2018-07-25T08:17:29Z</time>
      </trkpt>
      <trkpt lat="45.92527" lon="4.7301">
        <ele>169</ele>
        <time>2018-07-25T08:17:30Z</time>
      </trkpt>
      <trkpt lat="45.92532" lon="4.73007">
        <ele>169</ele>
        <time>2018-07-25T08:17:31Z</time>
      </trkpt>
      <trkpt lat="45.92536" lon="4.73003">
        <ele>169</ele>
        <time>2018-07-25T08:17:32Z</time>
      </trkpt>
      <trkpt lat="45.92541" lon="4.72998">
        <ele>169</ele>
        <time>2018-07-25T08:17:33Z</time>
      </trkpt>
      <trkpt lat="45.92546" lon="4.72993">
        <ele>169</ele>
        <time>2018-07-25T08:17:34Z</time>
      </trkpt>
      <trkpt lat="45.9255" lon="4.72988">
        <ele>169</ele>
        <time>2018-07-25T08:17:35Z</time>
      </trkpt>
      <trkpt lat="45.92553" lon="4.72984">
        <ele>169</ele>
        <time>2018-07-25T08:17:36Z</time>
      </trkpt>
      <trkpt lat="45.92558" lon="4.72979">
        <ele>169</ele>
        <time>2018-07-25T08:17:37Z</time>
      </trkpt>
      <trkpt lat="45.92562" lon="4.72975">
        <ele>169</ele>
        <time>2018-07-25T08:17:38Z</time>
      </trkpt>
      <trkpt lat="45.92566" lon="4.72971">
        <ele>169</ele>
        <time>2018-07-25T08:17:39Z</time>
      </trkpt>
      <trkpt lat="45.92569" lon="4.72964">
        <ele>169</ele>
        <time>2018-07-25T08:17:40Z</time>
      </trkpt>
      <trkpt lat="45.92573" lon="4.72957">
        <ele>169</ele>
        <time>2018-07-25T08:17:41Z</time>
      </trkpt>
      <trkpt lat="45.92578" lon="4.72951">
        <ele>169</ele>
        <time>2018-07-25T08:17:42Z</time>
      </trkpt>
      <trkpt lat="45.92583" lon="4.72945">
        <ele>169</ele>
        <time>2018-07-25T08:17:43Z</time>
      </trkpt>
      <trkpt lat="45.92587" lon="4.72939">
        <ele>169</ele>
        <time>2018-07-25T08:17:44Z</time>
      </trkpt>
      <trkpt lat="45.92592" lon="4.72934">
        <ele>169</ele>
        <time>2018-07-25T08:17:45Z</time>
      </trkpt>
      <trkpt lat="45.92597" lon="4.72927">
        <ele>169</ele>
        <time>2018-07-25T08:17:46Z</time>
      </trkpt>
      <trkpt lat="45.92602" lon="4.72922">
        <ele>169</ele>
        <time>2018-07-25T08:17:47Z</time>
      </trkpt>
      <trkpt lat="45.92605" lon="4.72918">
        <ele>169</ele>
        <time>2018-07-25T08:17:48Z</time>
      </trkpt>
      <trkpt lat="45.9261" lon="4.72914">
        <ele>169</ele>
        <time>2018-07-25T08:17:49Z</time>
      </trkpt>
      <trkpt lat="45.92614" lon="4.72911">
        <ele>169</ele>
        <time>2018-07-25T08:17:50Z</time>
      </trkpt>
      <trkpt lat="45.92618" lon="4.72907">
        <ele>169</ele>
        <time>2018-07-25T08:17:51Z</time>
      </trkpt>
      <trkpt lat="45.92624" lon="4.72903">
        <ele>169</ele>
        <time>2018-07-25T08:17:52Z</time>
      </trkpt>
      <trkpt lat="45.92629" lon="4.729">
        <ele>169</ele>
        <time>2018-07-25T08:17:53Z</time>
      </trkpt>
      <trkpt lat="45.92635" lon="4.72896">
        <ele>169</ele>
        <time>2018-07-25T08:17:54Z</time>
      </trkpt>
      <trkpt lat="45.92639" lon="4.72892">
        <ele>169</ele>
        <time>2018-07-25T08:17:55Z</time>
      </trkpt>
      <trkpt lat="45.92644" lon="4.72889">
        <ele>169</ele>
        <time>2018-07-25T08:17:56Z</time>
      </trkpt>
      <trkpt lat="45.92648" lon="4.72885">
        <ele>169</ele>
        <time>2018-07-25T08:17:57Z</time>
      </trkpt>
      <trkpt lat="45.92653" lon="4.72881">
        <ele>169</ele>
        <time>2018-07-25T08:17:58Z</time>
      </trkpt>
      <trkpt lat="45.92658" lon="4.72878">
        <ele>169</ele>
        <time>2018-07-25T08:17:59Z</time>
      </trkpt>
      <trkpt lat="45.92663" lon="4.72875">
        <ele>169</ele>
        <time>2018-07-25T08:18:00Z</time>
      </trkpt>
      <trkpt lat="45.92668" lon="4.72871">
        <ele>169</ele>
        <time>2018-07-25T08:18:01Z</time>
      </trkpt>
      <trkpt lat="45.92672" lon="4.7287">
        <ele>169</ele>
        <time>2018-07-25T08:18:02Z</time>
      </trkpt>
      <trkpt lat="45.92677" lon="4.72866">
        <ele>169</ele>
        <time>2018-07-25T08:18:03Z</time>
      </trkpt>
      <trkpt lat="45.92682" lon="4.72862">
        <ele>169</ele>
        <time>2018-07-25T08:18:04Z</time>
      </trkpt>
      <trkpt lat="45.92686" lon="4.72859">
        <ele>169</ele>
        <time>2018-07-25T08:18:05Z</time>
      </trkpt>
      <trkpt lat="45.92691" lon="4.72855">
        <ele>169</ele>
        <time>2018-07-25T08:18:06Z</time>
      </trkpt>
      <trkpt lat="45.92694" lon="4.7285">
        <ele>169</ele>
        <time>2018-07-25T08:18:07Z</time>
      </trkpt>
      <trkpt lat="45.92699" lon="4.72846">
        <ele>169</ele>
        <time>2018-07-25T08:18:08Z</time>
      </trkpt>
      <trkpt lat="45.92703" lon="4.72843">
        <ele>169</ele>
        <time>2018-07-25T08:18:09Z</time>
      </trkpt>
      <trkpt lat="45.92708" lon="4.7284">
        <ele>169</ele>
        <time>2018-07-25T08:18:10Z</time>
      </trkpt>
      <trkpt lat="45.92711" lon="4.72836">
        <ele>169</ele>
        <time>2018-07-25T08:18:11Z</time>
      </trkpt>
      <trkpt lat="45.92716" lon="4.72833">
        <ele>170</ele>
        <time>2018-07-25T08:18:12Z</time>
      </trkpt>
      <trkpt lat="45.92722" lon="4.72829">
        <ele>170</ele>
        <time>2018-07-25T08:18:13Z</time>
      </trkpt>
      <trkpt lat="45.92727" lon="4.72824">
        <ele>170</ele>
        <time>2018-07-25T08:18:14Z</time>
      </trkpt>
      <trkpt lat="45.92733" lon="4.7282">
        <ele>170</ele>
        <time>2018-07-25T08:18:15Z</time>
      </trkpt>
      <trkpt lat="45.92738" lon="4.72816">
        <ele>170</ele>
        <time>2018-07-25T08:18:16Z</time>
      </trkpt>
      <trkpt lat="45.92743" lon="4.72812">
        <ele>170</ele>
        <time>2018-07-25T08:18:17Z</time>
      </trkpt>
      <trkpt lat="45.92747" lon="4.72809">
        <ele>170</ele>
        <time>2018-07-25T08:18:18Z</time>
      </trkpt>
      <trkpt lat="45.92752" lon="4.72805">
        <ele>170</ele>
        <time>2018-07-25T08:18:19Z</time>
      </trkpt>
      <trkpt lat="45.9276" lon="4.72803">
        <ele>170</ele>
        <time>2018-07-25T08:18:20Z</time>
      </trkpt>
      <trkpt lat="45.92764" lon="4.728">
        <ele>170</ele>
        <time>2018-07-25T08:18:21Z</time>
      </trkpt>
      <trkpt lat="45.92768" lon="4.72797">
        <ele>170</ele>
        <time>2018-07-25T08:18:22Z</time>
      </trkpt>
      <trkpt lat="45.92773" lon="4.72794">
        <ele>170</ele>
        <time>2018-07-25T08:18:23Z</time>
      </trkpt>
      <trkpt lat="45.9278" lon="4.72788">
        <ele>170</ele>
        <time>2018-07-25T08:18:25Z</time>
      </trkpt>
      <trkpt lat="45.92782" lon="4.72787">
        <ele>170</ele>
        <time>2018-07-25T08:18:26Z</time>
      </trkpt>
      <trkpt lat="45.92788" lon="4.72787">
        <ele>171</ele>
        <time>2018-07-25T08:18:28Z</time>
      </trkpt>
      <trkpt lat="45.92791" lon="4.72792">
        <ele>170</ele>
        <time>2018-07-25T08:18:29Z</time>
      </trkpt>
      <trkpt lat="45.92794" lon="4.72798">
        <ele>170</ele>
        <time>2018-07-25T08:18:30Z</time>
      </trkpt>
      <trkpt lat="45.92794" lon="4.72806">
        <ele>170</ele>
        <time>2018-07-25T08:18:31Z</time>
      </trkpt>
      <trkpt lat="45.92795" lon="4.72812">
        <ele>170</ele>
        <time>2018-07-25T08:18:32Z</time>
      </trkpt>
      <trkpt lat="45.92797" lon="4.72819">
        <ele>170</ele>
        <time>2018-07-25T08:18:33Z</time>
      </trkpt>
      <trkpt lat="45.92798" lon="4.72827">
        <ele>170</ele>
        <time>2018-07-25T08:18:34Z</time>
      </trkpt>
      <trkpt lat="45.928" lon="4.72834">
        <ele>170</ele>
        <time>2018-07-25T08:18:35Z</time>
      </trkpt>
      <trkpt lat="45.92803" lon="4.72841">
        <ele>170</ele>
        <time>2018-07-25T08:18:36Z</time>
      </trkpt>
      <trkpt lat="45.92807" lon="4.72848">
        <ele>170</ele>
        <time>2018-07-25T08:18:37Z</time>
      </trkpt>
      <trkpt lat="45.92809" lon="4.72854">
        <ele>170</ele>
        <time>2018-07-25T08:18:38Z</time>
      </trkpt>
      <trkpt lat="45.9281" lon="4.72861">
        <ele>170</ele>
        <time>2018-07-25T08:18:39Z</time>
      </trkpt>
      <trkpt lat="45.92811" lon="4.72868">
        <ele>170</ele>
        <time>2018-07-25T08:18:40Z</time>
      </trkpt>
      <trkpt lat="45.92812" lon="4.72875">
        <ele>170</ele>
        <time>2018-07-25T08:18:41Z</time>
      </trkpt>
      <trkpt lat="45.92816" lon="4.72883">
        <ele>170</ele>
        <time>2018-07-25T08:18:42Z</time>
      </trkpt>
      <trkpt lat="45.92816" lon="4.7289">
        <ele>170</ele>
        <time>2018-07-25T08:18:43Z</time>
      </trkpt>
      <trkpt lat="45.92818" lon="4.72899">
        <ele>170</ele>
        <time>2018-07-25T08:18:44Z</time>
      </trkpt>
      <trkpt lat="45.92818" lon="4.72906">
        <ele>170</ele>
        <time>2018-07-25T08:18:45Z</time>
      </trkpt>
      <trkpt lat="45.9282" lon="4.72914">
        <ele>170</ele>
        <time>2018-07-25T08:18:46Z</time>
      </trkpt>
      <trkpt lat="45.92822" lon="4.7292">
        <ele>170</ele>
        <time>2018-07-25T08:18:47Z</time>
      </trkpt>
      <trkpt lat="45.92823" lon="4.72928">
        <ele>170</ele>
        <time>2018-07-25T08:18:48Z</time>
      </trkpt>
      <trkpt lat="45.92824" lon="4.72937">
        <ele>170</ele>
        <time>2018-07-25T08:18:49Z</time>
      </trkpt>
      <trkpt lat="45.92825" lon="4.72945">
        <ele>170</ele>
        <time>2018-07-25T08:18:50Z</time>
      </trkpt>
      <trkpt lat="45.92825" lon="4.72954">
        <ele>170</ele>
        <time>2018-07-25T08:18:51Z</time>
      </trkpt>
      <trkpt lat="45.92826" lon="4.72962">
        <ele>170</ele>
        <time>2018-07-25T08:18:52Z</time>
      </trkpt>
      <trkpt lat="45.92826" lon="4.72971">
        <ele>170</ele>
        <time>2018-07-25T08:18:53Z</time>
      </trkpt>
      <trkpt lat="45.92826" lon="4.7298">
        <ele>170</ele>
        <time>2018-07-25T08:18:54Z</time>
      </trkpt>
      <trkpt lat="45.92827" lon="4.72988">
        <ele>170</ele>
        <time>2018-07-25T08:18:55Z</time>
      </trkpt>
      <trkpt lat="45.92828" lon="4.72995">
        <ele>170</ele>
        <time>2018-07-25T08:18:56Z</time>
      </trkpt>
      <trkpt lat="45.92829" lon="4.73003">
        <ele>170</ele>
        <time>2018-07-25T08:18:57Z</time>
      </trkpt>
      <trkpt lat="45.92829" lon="4.73011">
        <ele>170</ele>
        <time>2018-07-25T08:18:58Z</time>
      </trkpt>
      <trkpt lat="45.92831" lon="4.7302">
        <ele>170</ele>
        <time>2018-07-25T08:18:59Z</time>
      </trkpt>
      <trkpt lat="45.92831" lon="4.73027">
        <ele>170</ele>
        <time>2018-07-25T08:19:00Z</time>
      </trkpt>
      <trkpt lat="45.92834" lon="4.73033">
        <ele>171</ele>
        <time>2018-07-25T08:19:01Z</time>
      </trkpt>
      <trkpt lat="45.92835" lon="4.73041">
        <ele>171</ele>
        <time>2018-07-25T08:19:02Z</time>
      </trkpt>
      <trkpt lat="45.92839" lon="4.73048">
        <ele>171</ele>
        <time>2018-07-25T08:19:03Z</time>
      </trkpt>
      <trkpt lat="45.9284" lon="4.73058">
        <ele>171</ele>
        <time>2018-07-25T08:19:04Z</time>
      </trkpt>
      <trkpt lat="45.92841" lon="4.73065">
        <ele>171</ele>
        <time>2018-07-25T08:19:05Z</time>
      </trkpt>
      <trkpt lat="45.92842" lon="4.73072">
        <ele>171</ele>
        <time>2018-07-25T08:19:06Z</time>
      </trkpt>
      <trkpt lat="45.92844" lon="4.73078">
        <ele>171</ele>
        <time>2018-07-25T08:19:07Z</time>
      </trkpt>
      <trkpt lat="45.92845" lon="4.73085">
        <ele>171</ele>
        <time>2018-07-25T08:19:08Z</time>
      </trkpt>
      <trkpt lat="45.92846" lon="4.73091">
        <ele>171</ele>
        <time>2018-07-25T08:19:09Z</time>
      </trkpt>
      <trkpt lat="45.9285" lon="4.73099">
        <ele>171</ele>
        <time>2018-07-25T08:19:11Z</time>
      </trkpt>
      <trkpt lat="45.92852" lon="4.731">
        <ele>171</ele>
        <time>2018-07-25T08:19:12Z</time>
      </trkpt>
      <trkpt lat="45.92857" lon="4.73099">
        <ele>171</ele>
        <time>2018-07-25T08:19:14Z</time>
      </trkpt>
      <trkpt lat="45.92863" lon="4.73093">
        <ele>171</ele>
        <time>2018-07-25T08:19:15Z</time>
      </trkpt>
      <trkpt lat="45.92869" lon="4.73084">
        <ele>172</ele>
        <time>2018-07-25T08:19:18Z</time>
      </trkpt>
      <trkpt lat="45.92872" lon="4.7308">
        <ele>172</ele>
        <time>2018-07-25T08:19:19Z</time>
      </trkpt>
      <trkpt lat="45.92879" lon="4.73074">
        <ele>172</ele>
        <time>2018-07-25T08:19:21Z</time>
      </trkpt>
      <trkpt lat="45.92882" lon="4.7307">
        <ele>172</ele>
        <time>2018-07-25T08:19:22Z</time>
      </trkpt>
      <trkpt lat="45.92886" lon="4.73065">
        <ele>172</ele>
        <time>2018-07-25T08:19:23Z</time>
      </trkpt>
      <trkpt lat="45.9289" lon="4.73057">
        <ele>172</ele>
        <time>2018-07-25T08:19:24Z</time>
      </trkpt>
      <trkpt lat="45.92895" lon="4.73052">
        <ele>172</ele>
        <time>2018-07-25T08:19:25Z</time>
      </trkpt>
      <trkpt lat="45.92898" lon="4.73046">
        <ele>172</ele>
        <time>2018-07-25T08:19:26Z</time>
      </trkpt>
      <trkpt lat="45.929" lon="4.73038">
        <ele>172</ele>
        <time>2018-07-25T08:19:27Z</time>
      </trkpt>
      <trkpt lat="45.92904" lon="4.73032">
        <ele>172</ele>
        <time>2018-07-25T08:19:28Z</time>
      </trkpt>
      <trkpt lat="45.92906" lon="4.73029">
        <ele>172</ele>
        <time>2018-07-25T08:19:29Z</time>
      </trkpt>
      <trkpt lat="45.92913" lon="4.73021">
        <ele>172</ele>
        <time>2018-07-25T08:19:30Z</time>
      </trkpt>
      <trkpt lat="45.92916" lon="4.73017">
        <ele>172</ele>
        <time>2018-07-25T08:19:31Z</time>
      </trkpt>
      <trkpt lat="45.92921" lon="4.73012">
        <ele>172</ele>
        <time>2018-07-25T08:19:32Z</time>
      </trkpt>
      <trkpt lat="45.92926" lon="4.73005">
        <ele>172</ele>
        <time>2018-07-25T08:19:33Z</time>
      </trkpt>
      <trkpt lat="45.9293" lon="4.73">
        <ele>172</ele>
        <time>2018-07-25T08:19:34Z</time>
      </trkpt>
      <trkpt lat="45.92935" lon="4.72994">
        <ele>172</ele>
        <time>2018-07-25T08:19:35Z</time>
      </trkpt>
      <trkpt lat="45.92939" lon="4.72989">
        <ele>171</ele>
        <time>2018-07-25T08:19:36Z</time>
      </trkpt>
      <trkpt lat="45.92944" lon="4.72986">
        <ele>171</ele>
        <time>2018-07-25T08:19:37Z</time>
      </trkpt>
      <trkpt lat="45.92948" lon="4.7298">
        <ele>171</ele>
        <time>2018-07-25T08:19:38Z</time>
      </trkpt>
      <trkpt lat="45.92952" lon="4.72976">
        <ele>171</ele>
        <time>2018-07-25T08:19:39Z</time>
      </trkpt>
      <trkpt lat="45.92957" lon="4.72969">
        <ele>171</ele>
        <time>2018-07-25T08:19:40Z</time>
      </trkpt>
      <trkpt lat="45.9296" lon="4.72964">
        <ele>171</ele>
        <time>2018-07-25T08:19:41Z</time>
      </trkpt>
      <trkpt lat="45.92964" lon="4.72958">
        <ele>171</ele>
        <time>2018-07-25T08:19:42Z</time>
      </trkpt>
      <trkpt lat="45.92968" lon="4.72953">
        <ele>171</ele>
        <time>2018-07-25T08:19:43Z</time>
      </trkpt>
      <trkpt lat="45.92973" lon="4.72948">
        <ele>171</ele>
        <time>2018-07-25T08:19:44Z</time>
      </trkpt>
      <trkpt lat="45.92977" lon="4.72944">
        <ele>171</ele>
        <time>2018-07-25T08:19:45Z</time>
      </trkpt>
      <trkpt lat="45.92982" lon="4.72937">
        <ele>171</ele>
        <time>2018-07-25T08:19:46Z</time>
      </trkpt>
      <trkpt lat="45.92989" lon="4.72928">
        <ele>171</ele>
        <time>2018-07-25T08:19:48Z</time>
      </trkpt>
      <trkpt lat="45.92993" lon="4.72924">
        <ele>171</ele>
        <time>2018-07-25T08:19:49Z</time>
      </trkpt>
      <trkpt lat="45.92998" lon="4.72919">
        <ele>171</ele>
        <time>2018-07-25T08:19:50Z</time>
      </trkpt>
      <trkpt lat="45.93003" lon="4.72915">
        <ele>171</ele>
        <time>2018-07-25T08:19:51Z</time>
      </trkpt>
      <trkpt lat="45.93008" lon="4.72911">
        <ele>171</ele>
        <time>2018-07-25T08:19:52Z</time>
      </trkpt>
      <trkpt lat="45.93013" lon="4.72906">
        <ele>171</ele>
        <time>2018-07-25T08:19:53Z</time>
      </trkpt>
      <trkpt lat="45.93017" lon="4.72901">
        <ele>172</ele>
        <time>2018-07-25T08:19:54Z</time>
      </trkpt>
      <trkpt lat="45.93023" lon="4.72894">
        <ele>172</ele>
        <time>2018-07-25T08:19:55Z</time>
      </trkpt>
      <trkpt lat="45.93027" lon="4.72887">
        <ele>172</ele>
        <time>2018-07-25T08:19:56Z</time>
      </trkpt>
      <trkpt lat="45.93031" lon="4.72882">
        <ele>172</ele>
        <time>2018-07-25T08:19:57Z</time>
      </trkpt>
      <trkpt lat="45.93036" lon="4.72877">
        <ele>172</ele>
        <time>2018-07-25T08:19:58Z</time>
      </trkpt>
      <trkpt lat="45.93041" lon="4.72872">
        <ele>172</ele>
        <time>2018-07-25T08:19:59Z</time>
      </trkpt>
      <trkpt lat="45.93046" lon="4.72866">
        <ele>172</ele>
        <time>2018-07-25T08:20:00Z</time>
      </trkpt>
      <trkpt lat="45.93047" lon="4.7286">
        <ele>172</ele>
        <time>2018-07-25T08:20:01Z</time>
      </trkpt>
      <trkpt lat="45.93053" lon="4.72854">
        <ele>172</ele>
        <time>2018-07-25T08:20:02Z</time>
      </trkpt>
      <trkpt lat="45.93058" lon="4.72849">
        <ele>172</ele>
        <time>2018-07-25T08:20:03Z</time>
      </trkpt>
      <trkpt lat="45.93062" lon="4.72844">
        <ele>172</ele>
        <time>2018-07-25T08:20:04Z</time>
      </trkpt>
      <trkpt lat="45.93067" lon="4.72838">
        <ele>173</ele>
        <time>2018-07-25T08:20:05Z</time>
      </trkpt>
      <trkpt lat="45.93105" lon="4.72796">
        <ele>171</ele>
        <time>2018-07-25T08:20:12Z</time>
      </trkpt>
      <trkpt lat="45.93113" lon="4.7279">
        <ele>171</ele>
        <time>2018-07-25T08:20:13Z</time>
      </trkpt>
      <trkpt lat="45.93119" lon="4.72781">
        <ele>171</ele>
        <time>2018-07-25T08:20:15Z</time>
      </trkpt>
      <trkpt lat="45.93125" lon="4.72777">
        <ele>171</ele>
        <time>2018-07-25T08:20:16Z</time>
      </trkpt>
      <trkpt lat="45.93131" lon="4.72774">
        <ele>171</ele>
        <time>2018-07-25T08:20:17Z</time>
      </trkpt>
      <trkpt lat="45.93136" lon="4.72768">
        <ele>171</ele>
        <time>2018-07-25T08:20:18Z</time>
      </trkpt>
      <trkpt lat="45.9314" lon="4.72765">
        <ele>171</ele>
        <time>2018-07-25T08:20:19Z</time>
      </trkpt>
      <trkpt lat="45.93144" lon="4.72759">
        <ele>171</ele>
        <time>2018-07-25T08:20:20Z</time>
      </trkpt>
      <trkpt lat="45.93147" lon="4.72754">
        <ele>170</ele>
        <time>2018-07-25T08:20:21Z</time>
      </trkpt>
      <trkpt lat="45.93154" lon="4.72748">
        <ele>170</ele>
        <time>2018-07-25T08:20:22Z</time>
      </trkpt>
      <trkpt lat="45.93159" lon="4.72742">
        <ele>170</ele>
        <time>2018-07-25T08:20:23Z</time>
      </trkpt>
      <trkpt lat="45.93163" lon="4.72736">
        <ele>170</ele>
        <time>2018-07-25T08:20:24Z</time>
      </trkpt>
      <trkpt lat="45.93168" lon="4.72729">
        <ele>170</ele>
        <time>2018-07-25T08:20:25Z</time>
      </trkpt>
      <trkpt lat="45.93173" lon="4.72724">
        <ele>170</ele>
        <time>2018-07-25T08:20:26Z</time>
      </trkpt>
      <trkpt lat="45.93177" lon="4.72718">
        <ele>169</ele>
        <time>2018-07-25T08:20:27Z</time>
      </trkpt>
      <trkpt lat="45.93182" lon="4.7271">
        <ele>169</ele>
        <time>2018-07-25T08:20:28Z</time>
      </trkpt>
      <trkpt lat="45.93188" lon="4.72706">
        <ele>169</ele>
        <time>2018-07-25T08:20:29Z</time>
      </trkpt>
      <trkpt lat="45.93193" lon="4.72701">
        <ele>169</ele>
        <time>2018-07-25T08:20:30Z</time>
      </trkpt>
      <trkpt lat="45.93197" lon="4.72696">
        <ele>169</ele>
        <time>2018-07-25T08:20:31Z</time>
      </trkpt>
      <trkpt lat="45.93202" lon="4.7269">
        <ele>169</ele>
        <time>2018-07-25T08:20:32Z</time>
      </trkpt>
      <trkpt lat="45.93213" lon="4.72681">
        <ele>169</ele>
        <time>2018-07-25T08:20:34Z</time>
      </trkpt>
      <trkpt lat="45.93216" lon="4.72676">
        <ele>169</ele>
        <time>2018-07-25T08:20:35Z</time>
      </trkpt>
      <trkpt lat="45.93219" lon="4.72671">
        <ele>169</ele>
        <time>2018-07-25T08:20:36Z</time>
      </trkpt>
      <trkpt lat="45.93224" lon="4.72664">
        <ele>170</ele>
        <time>2018-07-25T08:20:37Z</time>
      </trkpt>
      <trkpt lat="45.93227" lon="4.72658">
        <ele>170</ele>
        <time>2018-07-25T08:20:38Z</time>
      </trkpt>
      <trkpt lat="45.93231" lon="4.72653">
        <ele>170</ele>
        <time>2018-07-25T08:20:39Z</time>
      </trkpt>
      <trkpt lat="45.93238" lon="4.72647">
        <ele>170</ele>
        <time>2018-07-25T08:20:40Z</time>
      </trkpt>
      <trkpt lat="45.93242" lon="4.72641">
        <ele>170</ele>
        <time>2018-07-25T08:20:41Z</time>
      </trkpt>
      <trkpt lat="45.93247" lon="4.72632">
        <ele>170</ele>
        <time>2018-07-25T08:20:42Z</time>
      </trkpt>
      <trkpt lat="45.9325" lon="4.72624">
        <ele>170</ele>
        <time>2018-07-25T08:20:43Z</time>
      </trkpt>
      <trkpt lat="45.93256" lon="4.72618">
        <ele>170</ele>
        <time>2018-07-25T08:20:44Z</time>
      </trkpt>
      <trkpt lat="45.9326" lon="4.72612">
        <ele>170</ele>
        <time>2018-07-25T08:20:45Z</time>
      </trkpt>
      <trkpt lat="45.93266" lon="4.72609">
        <ele>170</ele>
        <time>2018-07-25T08:20:46Z</time>
      </trkpt>
      <trkpt lat="45.9327" lon="4.72604">
        <ele>170</ele>
        <time>2018-07-25T08:20:47Z</time>
      </trkpt>
      <trkpt lat="45.93275" lon="4.72598">
        <ele>170</ele>
        <time>2018-07-25T08:20:48Z</time>
      </trkpt>
      <trkpt lat="45.93278" lon="4.72594">
        <ele>170</ele>
        <time>2018-07-25T08:20:49Z</time>
      </trkpt>
      <trkpt lat="45.93284" lon="4.72588">
        <ele>170</ele>
        <time>2018-07-25T08:20:50Z</time>
      </trkpt>
      <trkpt lat="45.93289" lon="4.72583">
        <ele>171</ele>
        <time>2018-07-25T08:20:51Z</time>
      </trkpt>
      <trkpt lat="45.93292" lon="4.72576">
        <ele>171</ele>
        <time>2018-07-25T08:20:52Z</time>
      </trkpt>
      <trkpt lat="45.93297" lon="4.72571">
        <ele>171</ele>
        <time>2018-07-25T08:20:53Z</time>
      </trkpt>
      <trkpt lat="45.93301" lon="4.72567">
        <ele>171</ele>
        <time>2018-07-25T08:20:54Z</time>
      </trkpt>
      <trkpt lat="45.93305" lon="4.72561">
        <ele>172</ele>
        <time>2018-07-25T08:20:55Z</time>
      </trkpt>
      <trkpt lat="45.9331" lon="4.72554">
        <ele>172</ele>
        <time>2018-07-25T08:20:56Z</time>
      </trkpt>
      <trkpt lat="45.93314" lon="4.7255">
        <ele>172</ele>
        <time>2018-07-25T08:20:57Z</time>
      </trkpt>
      <trkpt lat="45.93319" lon="4.72545">
        <ele>172</ele>
        <time>2018-07-25T08:20:58Z</time>
      </trkpt>
      <trkpt lat="45.93324" lon="4.72539">
        <ele>172</ele>
        <time>2018-07-25T08:20:59Z</time>
      </trkpt>
      <trkpt lat="45.93329" lon="4.72534">
        <ele>172</ele>
        <time>2018-07-25T08:21:00Z</time>
      </trkpt>
      <trkpt lat="45.93334" lon="4.72529">
        <ele>172</ele>
        <time>2018-07-25T08:21:01Z</time>
      </trkpt>
      <trkpt lat="45.93336" lon="4.72524">
        <ele>172</ele>
        <time>2018-07-25T08:21:02Z</time>
      </trkpt>
      <trkpt lat="45.9334" lon="4.7252">
        <ele>172</ele>
        <time>2018-07-25T08:21:03Z</time>
      </trkpt>
      <trkpt lat="45.93345" lon="4.72516">
        <ele>172</ele>
        <time>2018-07-25T08:21:04Z</time>
      </trkpt>
      <trkpt lat="45.93349" lon="4.7251">
        <ele>172</ele>
        <time>2018-07-25T08:21:05Z</time>
      </trkpt>
      <trkpt lat="45.93353" lon="4.72505">
        <ele>172</ele>
        <time>2018-07-25T08:21:06Z</time>
      </trkpt>
      <trkpt lat="45.93358" lon="4.72498">
        <ele>173</ele>
        <time>2018-07-25T08:21:07Z</time>
      </trkpt>
      <trkpt lat="45.93363" lon="4.72491">
        <ele>173</ele>
        <time>2018-07-25T08:21:08Z</time>
      </trkpt>
      <trkpt lat="45.93367" lon="4.72486">
        <ele>173</ele>
        <time>2018-07-25T08:21:09Z</time>
      </trkpt>
      <trkpt lat="45.93375" lon="4.7248">
        <ele>173</ele>
        <time>2018-07-25T08:21:10Z</time>
      </trkpt>
      <trkpt lat="45.9338" lon="4.72475">
        <ele>173</ele>
        <time>2018-07-25T08:21:11Z</time>
      </trkpt>
      <trkpt lat="45.93382" lon="4.7247">
        <ele>173</ele>
        <time>2018-07-25T08:21:12Z</time>
      </trkpt>
      <trkpt lat="45.93386" lon="4.72465">
        <ele>173</ele>
        <time>2018-07-25T08:21:13Z</time>
      </trkpt>
      <trkpt lat="45.9339" lon="4.72459">
        <ele>173</ele>
        <time>2018-07-25T08:21:14Z</time>
      </trkpt>
      <trkpt lat="45.93393" lon="4.72448">
        <ele>173</ele>
        <time>2018-07-25T08:21:16Z</time>
      </trkpt>
      <trkpt lat="45.93395" lon="4.72442">
        <ele>173</ele>
        <time>2018-07-25T08:21:17Z</time>
      </trkpt>
      <trkpt lat="45.93398" lon="4.72435">
        <ele>173</ele>
        <time>2018-07-25T08:21:18Z</time>
      </trkpt>
      <trkpt lat="45.934" lon="4.72429">
        <ele>173</ele>
        <time>2018-07-25T08:21:19Z</time>
      </trkpt>
      <trkpt lat="45.93403" lon="4.72423">
        <ele>174</ele>
        <time>2018-07-25T08:21:20Z</time>
      </trkpt>
      <trkpt lat="45.93407" lon="4.72419">
        <ele>174</ele>
        <time>2018-07-25T08:21:21Z</time>
      </trkpt>
      <trkpt lat="45.93412" lon="4.72415">
        <ele>174</ele>
        <time>2018-07-25T08:21:22Z</time>
      </trkpt>
      <trkpt lat="45.93418" lon="4.72412">
        <ele>174</ele>
        <time>2018-07-25T08:21:23Z</time>
      </trkpt>
      <trkpt lat="45.93425" lon="4.72407">
        <ele>174</ele>
        <time>2018-07-25T08:21:25Z</time>
      </trkpt>
      <trkpt lat="45.93431" lon="4.72403">
        <ele>174</ele>
        <time>2018-07-25T08:21:26Z</time>
      </trkpt>
      <trkpt lat="45.93437" lon="4.72399">
        <ele>173</ele>
        <time>2018-07-25T08:21:27Z</time>
      </trkpt>
      <trkpt lat="45.93443" lon="4.72393">
        <ele>173</ele>
        <time>2018-07-25T08:21:28Z</time>
      </trkpt>
      <trkpt lat="45.93447" lon="4.72389">
        <ele>173</ele>
        <time>2018-07-25T08:21:29Z</time>
      </trkpt>
      <trkpt lat="45.93452" lon="4.72383">
        <ele>173</ele>
        <time>2018-07-25T08:21:30Z</time>
      </trkpt>
      <trkpt lat="45.93458" lon="4.72377">
        <ele>173</ele>
        <time>2018-07-25T08:21:31Z</time>
      </trkpt>
      <trkpt lat="45.93462" lon="4.72373">
        <ele>173</ele>
        <time>2018-07-25T08:21:32Z</time>
      </trkpt>
      <trkpt lat="45.93467" lon="4.72367">
        <ele>173</ele>
        <time>2018-07-25T08:21:33Z</time>
      </trkpt>
      <trkpt lat="45.93471" lon="4.72363">
        <ele>173</ele>
        <time>2018-07-25T08:21:34Z</time>
      </trkpt>
      <trkpt lat="45.93476" lon="4.72358">
        <ele>173</ele>
        <time>2018-07-25T08:21:35Z</time>
      </trkpt>
      <trkpt lat="45.9348" lon="4.72352">
        <ele>173</ele>
        <time>2018-07-25T08:21:36Z</time>
      </trkpt>
      <trkpt lat="45.93483" lon="4.72346">
        <ele>173</ele>
        <time>2018-07-25T08:21:37Z</time>
      </trkpt>
      <trkpt lat="45.93488" lon="4.7234">
        <ele>173</ele>
        <time>2018-07-25T08:21:38Z</time>
      </trkpt>
      <trkpt lat="45.93489" lon="4.72334">
        <ele>173</ele>
        <time>2018-07-25T08:21:39Z</time>
      </trkpt>
      <trkpt lat="45.93493" lon="4.72329">
        <ele>173</ele>
        <time>2018-07-25T08:21:40Z</time>
      </trkpt>
      <trkpt lat="45.93495" lon="4.72323">
        <ele>173</ele>
        <time>2018-07-25T08:21:41Z</time>
      </trkpt>
      <trkpt lat="45.93501" lon="4.72318">
        <ele>173</ele>
        <time>2018-07-25T08:21:42Z</time>
      </trkpt>
      <trkpt lat="45.93505" lon="4.72314">
        <ele>173</ele>
        <time>2018-07-25T08:21:43Z</time>
      </trkpt>
      <trkpt lat="45.93509" lon="4.72307">
        <ele>173</ele>
        <time>2018-07-25T08:21:44Z</time>
      </trkpt>
      <trkpt lat="45.93513" lon="4.72301">
        <ele>172</ele>
        <time>2018-07-25T08:21:45Z</time>
      </trkpt>
      <trkpt lat="45.93518" lon="4.72295">
        <ele>172</ele>
        <time>2018-07-25T08:21:46Z</time>
      </trkpt>
      <trkpt lat="45.93522" lon="4.72288">
        <ele>172</ele>
        <time>2018-07-25T08:21:47Z</time>
      </trkpt>
      <trkpt lat="45.93526" lon="4.7228">
        <ele>172</ele>
        <time>2018-07-25T08:21:48Z</time>
      </trkpt>
      <trkpt lat="45.93526" lon="4.72272">
        <ele>172</ele>
        <time>2018-07-25T08:21:49Z</time>
      </trkpt>
      <trkpt lat="45.93528" lon="4.72265">
        <ele>172</ele>
        <time>2018-07-25T08:21:50Z</time>
      </trkpt>
      <trkpt lat="45.93531" lon="4.72259">
        <ele>172</ele>
        <time>2018-07-25T08:21:51Z</time>
      </trkpt>
      <trkpt lat="45.93532" lon="4.7225">
        <ele>172</ele>
        <time>2018-07-25T08:21:52Z</time>
      </trkpt>
      <trkpt lat="45.93534" lon="4.72244">
        <ele>172</ele>
        <time>2018-07-25T08:21:53Z</time>
      </trkpt>
      <trkpt lat="45.93537" lon="4.72237">
        <ele>172</ele>
        <time>2018-07-25T08:21:54Z</time>
      </trkpt>
      <trkpt lat="45.93538" lon="4.72231">
        <ele>172</ele>
        <time>2018-07-25T08:21:55Z</time>
      </trkpt>
      <trkpt lat="45.93541" lon="4.72225">
        <ele>172</ele>
        <time>2018-07-25T08:21:56Z</time>
      </trkpt>
      <trkpt lat="45.93543" lon="4.7222">
        <ele>172</ele>
        <time>2018-07-25T08:21:57Z</time>
      </trkpt>
      <trkpt lat="45.93547" lon="4.72215">
        <ele>173</ele>
        <time>2018-07-25T08:21:58Z</time>
      </trkpt>
      <trkpt lat="45.93553" lon="4.72219">
        <ele>173</ele>
        <time>2018-07-25T08:21:59Z</time>
      </trkpt>
      <trkpt lat="45.93557" lon="4.72224">
        <ele>173</ele>
        <time>2018-07-25T08:22:00Z</time>
      </trkpt>
      <trkpt lat="45.93563" lon="4.72226">
        <ele>173</ele>
        <time>2018-07-25T08:22:01Z</time>
      </trkpt>
      <trkpt lat="45.93567" lon="4.72232">
        <ele>173</ele>
        <time>2018-07-25T08:22:02Z</time>
      </trkpt>
      <trkpt lat="45.93573" lon="4.72238">
        <ele>173</ele>
        <time>2018-07-25T08:22:03Z</time>
      </trkpt>
      <trkpt lat="45.93577" lon="4.72244">
        <ele>173</ele>
        <time>2018-07-25T08:22:04Z</time>
      </trkpt>
      <trkpt lat="45.93583" lon="4.72249">
        <ele>173</ele>
        <time>2018-07-25T08:22:05Z</time>
      </trkpt>
      <trkpt lat="45.93588" lon="4.72253">
        <ele>173</ele>
        <time>2018-07-25T08:22:06Z</time>
      </trkpt>
      <trkpt lat="45.93593" lon="4.72259">
        <ele>173</ele>
        <time>2018-07-25T08:22:07Z</time>
      </trkpt>
      <trkpt lat="45.93598" lon="4.72264">
        <ele>173</ele>
        <time>2018-07-25T08:22:08Z</time>
      </trkpt>
      <trkpt lat="45.93606" lon="4.72266">
        <ele>173</ele>
        <time>2018-07-25T08:22:09Z</time>
      </trkpt>
      <trkpt lat="45.93611" lon="4.72271">
        <ele>172</ele>
        <time>2018-07-25T08:22:10Z</time>
      </trkpt>
      <trkpt lat="45.93615" lon="4.72276">
        <ele>172</ele>
        <time>2018-07-25T08:22:11Z</time>
      </trkpt>
      <trkpt lat="45.9362" lon="4.72281">
        <ele>172</ele>
        <time>2018-07-25T08:22:12Z</time>
      </trkpt>
      <trkpt lat="45.93625" lon="4.72287">
        <ele>172</ele>
        <time>2018-07-25T08:22:13Z</time>
      </trkpt>
      <trkpt lat="45.93628" lon="4.72292">
        <ele>172</ele>
        <time>2018-07-25T08:22:14Z</time>
      </trkpt>
      <trkpt lat="45.9363" lon="4.72297">
        <ele>172</ele>
        <time>2018-07-25T08:22:15Z</time>
      </trkpt>
      <trkpt lat="45.93635" lon="4.72301">
        <ele>172</ele>
        <time>2018-07-25T08:22:16Z</time>
      </trkpt>
      <trkpt lat="45.93638" lon="4.72305">
        <ele>172</ele>
        <time>2018-07-25T08:22:17Z</time>
      </trkpt>
      <trkpt lat="45.93642" lon="4.7231">
        <ele>172</ele>
        <time>2018-07-25T08:22:18Z</time>
      </trkpt>
      <trkpt lat="45.93646" lon="4.72312">
        <ele>172</ele>
        <time>2018-07-25T08:22:19Z</time>
      </trkpt>
      <trkpt lat="45.9365" lon="4.72317">
        <ele>172</ele>
        <time>2018-07-25T08:22:20Z</time>
      </trkpt>
      <trkpt lat="45.93656" lon="4.72323">
        <ele>172</ele>
        <time>2018-07-25T08:22:21Z</time>
      </trkpt>
      <trkpt lat="45.93663" lon="4.72326">
        <ele>171</ele>
        <time>2018-07-25T08:22:22Z</time>
      </trkpt>
      <trkpt lat="45.93668" lon="4.72331">
        <ele>171</ele>
        <time>2018-07-25T08:22:23Z</time>
      </trkpt>
      <trkpt lat="45.93672" lon="4.72335">
        <ele>171</ele>
        <time>2018-07-25T08:22:24Z</time>
      </trkpt>
      <trkpt lat="45.93677" lon="4.7234">
        <ele>171</ele>
        <time>2018-07-25T08:22:25Z</time>
      </trkpt>
      <trkpt lat="45.93681" lon="4.72345">
        <ele>171</ele>
        <time>2018-07-25T08:22:26Z</time>
      </trkpt>
      <trkpt lat="45.93686" lon="4.72349">
        <ele>171</ele>
        <time>2018-07-25T08:22:27Z</time>
      </trkpt>
      <trkpt lat="45.93691" lon="4.72353">
        <ele>171</ele>
        <time>2018-07-25T08:22:28Z</time>
      </trkpt>
      <trkpt lat="45.93695" lon="4.72357">
        <ele>171</ele>
        <time>2018-07-25T08:22:29Z</time>
      </trkpt>
      <trkpt lat="45.93701" lon="4.7236">
        <ele>171</ele>
        <time>2018-07-25T08:22:30Z</time>
      </trkpt>
      <trkpt lat="45.93701" lon="4.72365">
        <ele>171</ele>
        <time>2018-07-25T08:22:31Z</time>
      </trkpt>
      <trkpt lat="45.9371" lon="4.72369">
        <ele>172</ele>
        <time>2018-07-25T08:22:32Z</time>
      </trkpt>
      <trkpt lat="45.93713" lon="4.72377">
        <ele>171</ele>
        <time>2018-07-25T08:22:34Z</time>
      </trkpt>
      <trkpt lat="45.93723" lon="4.72381">
        <ele>171</ele>
        <time>2018-07-25T08:22:35Z</time>
      </trkpt>
      <trkpt lat="45.93727" lon="4.72387">
        <ele>171</ele>
        <time>2018-07-25T08:22:36Z</time>
      </trkpt>
      <trkpt lat="45.93736" lon="4.72391">
        <ele>171</ele>
        <time>2018-07-25T08:22:37Z</time>
      </trkpt>
      <trkpt lat="45.93741" lon="4.72395">
        <ele>171</ele>
        <time>2018-07-25T08:22:38Z</time>
      </trkpt>
      <trkpt lat="45.93745" lon="4.72399">
        <ele>171</ele>
        <time>2018-07-25T08:22:39Z</time>
      </trkpt>
      <trkpt lat="45.93747" lon="4.72405">
        <ele>171</ele>
        <time>2018-07-25T08:22:40Z</time>
      </trkpt>
      <trkpt lat="45.93752" lon="4.7241">
        <ele>171</ele>
        <time>2018-07-25T08:22:41Z</time>
      </trkpt>
      <trkpt lat="45.93756" lon="4.72414">
        <ele>171</ele>
        <time>2018-07-25T08:22:42Z</time>
      </trkpt>
      <trkpt lat="45.93761" lon="4.72418">
        <ele>171</ele>
        <time>2018-07-25T08:22:43Z</time>
      </trkpt>
      <trkpt lat="45.93766" lon="4.72422">
        <ele>171</ele>
        <time>2018-07-25T08:22:44Z</time>
      </trkpt>
      <trkpt lat="45.93769" lon="4.72427">
        <ele>171</ele>
        <time>2018-07-25T08:22:45Z</time>
      </trkpt>
      <trkpt lat="45.93774" lon="4.72435">
        <ele>171</ele>
        <time>2018-07-25T08:22:47Z</time>
      </trkpt>
      <trkpt lat="45.93778" lon="4.72438">
        <ele>172</ele>
        <time>2018-07-25T08:22:48Z</time>
      </trkpt>
      <trkpt lat="45.93784" lon="4.72446">
        <ele>172</ele>
        <time>2018-07-25T08:22:50Z</time>
      </trkpt>
      <trkpt lat="45.93788" lon="4.7245">
        <ele>172</ele>
        <time>2018-07-25T08:22:51Z</time>
      </trkpt>
      <trkpt lat="45.93795" lon="4.72457">
        <ele>172</ele>
        <time>2018-07-25T08:22:53Z</time>
      </trkpt>
      <trkpt lat="45.93798" lon="4.72461">
        <ele>172</ele>
        <time>2018-07-25T08:22:54Z</time>
      </trkpt>
      <trkpt lat="45.93802" lon="4.72464">
        <ele>172</ele>
        <time>2018-07-25T08:22:55Z</time>
      </trkpt>
      <trkpt lat="45.93806" lon="4.72469">
        <ele>172</ele>
        <time>2018-07-25T08:22:56Z</time>
      </trkpt>
      <trkpt lat="45.93807" lon="4.72475">
        <ele>172</ele>
        <time>2018-07-25T08:22:57Z</time>
      </trkpt>
      <trkpt lat="45.93814" lon="4.72477">
        <ele>172</ele>
        <time>2018-07-25T08:22:58Z</time>
      </trkpt>
      <trkpt lat="45.93821" lon="4.72486">
        <ele>173</ele>
        <time>2018-07-25T08:23:00Z</time>
      </trkpt>
      <trkpt lat="45.93825" lon="4.72489">
        <ele>173</ele>
        <time>2018-07-25T08:23:01Z</time>
      </trkpt>
      <trkpt lat="45.93828" lon="4.72493">
        <ele>173</ele>
        <time>2018-07-25T08:23:02Z</time>
      </trkpt>
      <trkpt lat="45.93832" lon="4.72497">
        <ele>174</ele>
        <time>2018-07-25T08:23:03Z</time>
      </trkpt>
      <trkpt lat="45.93836" lon="4.72501">
        <ele>174</ele>
        <time>2018-07-25T08:23:04Z</time>
      </trkpt>
      <trkpt lat="45.93841" lon="4.72509">
        <ele>174</ele>
        <time>2018-07-25T08:23:05Z</time>
      </trkpt>
      <trkpt lat="45.93844" lon="4.72517">
        <ele>174</ele>
        <time>2018-07-25T08:23:06Z</time>
      </trkpt>
      <trkpt lat="45.93851" lon="4.72518">
        <ele>173</ele>
        <time>2018-07-25T08:23:07Z</time>
      </trkpt>
      <trkpt lat="45.93857" lon="4.7252">
        <ele>173</ele>
        <time>2018-07-25T08:23:08Z</time>
      </trkpt>
      <trkpt lat="45.93867" lon="4.72519">
        <ele>173</ele>
        <time>2018-07-25T08:23:09Z</time>
      </trkpt>
      <trkpt lat="45.93872" lon="4.72516">
        <ele>173</ele>
        <time>2018-07-25T08:23:10Z</time>
      </trkpt>
      <trkpt lat="45.93875" lon="4.72512">
        <ele>173</ele>
        <time>2018-07-25T08:23:11Z</time>
      </trkpt>
      <trkpt lat="45.93877" lon="4.72506">
        <ele>173</ele>
        <time>2018-07-25T08:23:12Z</time>
      </trkpt>
      <trkpt lat="45.93881" lon="4.72501">
        <ele>173</ele>
        <time>2018-07-25T08:23:13Z</time>
      </trkpt>
      <trkpt lat="45.93886" lon="4.72495">
        <ele>172</ele>
        <time>2018-07-25T08:23:14Z</time>
      </trkpt>
      <trkpt lat="45.93891" lon="4.7249">
        <ele>172</ele>
        <time>2018-07-25T08:23:15Z</time>
      </trkpt>
      <trkpt lat="45.93896" lon="4.72485">
        <ele>172</ele>
        <time>2018-07-25T08:23:16Z</time>
      </trkpt>
      <trkpt lat="45.93901" lon="4.72479">
        <ele>172</ele>
        <time>2018-07-25T08:23:17Z</time>
      </trkpt>
      <trkpt lat="45.93905" lon="4.72474">
        <ele>172</ele>
        <time>2018-07-25T08:23:18Z</time>
      </trkpt>
      <trkpt lat="45.9391" lon="4.72469">
        <ele>172</ele>
        <time>2018-07-25T08:23:19Z</time>
      </trkpt>
      <trkpt lat="45.93916" lon="4.72464">
        <ele>172</ele>
        <time>2018-07-25T08:23:20Z</time>
      </trkpt>
      <trkpt lat="45.9392" lon="4.72458">
        <ele>171</ele>
        <time>2018-07-25T08:23:21Z</time>
      </trkpt>
      <trkpt lat="45.93924" lon="4.7245">
        <ele>171</ele>
        <time>2018-07-25T08:23:22Z</time>
      </trkpt>
      <trkpt lat="45.93928" lon="4.72445">
        <ele>171</ele>
        <time>2018-07-25T08:23:23Z</time>
      </trkpt>
      <trkpt lat="45.93932" lon="4.72439">
        <ele>171</ele>
        <time>2018-07-25T08:23:24Z</time>
      </trkpt>
      <trkpt lat="45.93938" lon="4.72434">
        <ele>171</ele>
        <time>2018-07-25T08:23:25Z</time>
      </trkpt>
      <trkpt lat="45.93943" lon="4.72429">
        <ele>171</ele>
        <time>2018-07-25T08:23:26Z</time>
      </trkpt>
      <trkpt lat="45.93947" lon="4.72424">
        <ele>171</ele>
        <time>2018-07-25T08:23:27Z</time>
      </trkpt>
      <trkpt lat="45.93952" lon="4.72416">
        <ele>171</ele>
        <time>2018-07-25T08:23:28Z</time>
      </trkpt>
      <trkpt lat="45.93957" lon="4.72411">
        <ele>171</ele>
        <time>2018-07-25T08:23:29Z</time>
      </trkpt>
      <trkpt lat="45.93962" lon="4.72405">
        <ele>171</ele>
        <time>2018-07-25T08:23:30Z</time>
      </trkpt>
      <trkpt lat="45.93967" lon="4.724">
        <ele>171</ele>
        <time>2018-07-25T08:23:31Z</time>
      </trkpt>
      <trkpt lat="45.93972" lon="4.72395">
        <ele>171</ele>
        <time>2018-07-25T08:23:32Z</time>
      </trkpt>
      <trkpt lat="45.93976" lon="4.72388">
        <ele>171</ele>
        <time>2018-07-25T08:23:33Z</time>
      </trkpt>
      <trkpt lat="45.93981" lon="4.72382">
        <ele>171</ele>
        <time>2018-07-25T08:23:34Z</time>
      </trkpt>
      <trkpt lat="45.93985" lon="4.72379">
        <ele>171</ele>
        <time>2018-07-25T08:23:35Z</time>
      </trkpt>
      <trkpt lat="45.93991" lon="4.72376">
        <ele>171</ele>
        <time>2018-07-25T08:23:36Z</time>
      </trkpt>
      <trkpt lat="45.93996" lon="4.72367">
        <ele>171</ele>
        <time>2018-07-25T08:23:37Z</time>
      </trkpt>
      <trkpt lat="45.94" lon="4.72362">
        <ele>171</ele>
        <time>2018-07-25T08:23:38Z</time>
      </trkpt>
      <trkpt lat="45.94006" lon="4.72354">
        <ele>171</ele>
        <time>2018-07-25T08:23:39Z</time>
      </trkpt>
      <trkpt lat="45.94011" lon="4.72349">
        <ele>171</ele>
        <time>2018-07-25T08:23:40Z</time>
      </trkpt>
      <trkpt lat="45.94018" lon="4.72343">
        <ele>171</ele>
        <time>2018-07-25T08:23:41Z</time>
      </trkpt>
      <trkpt lat="45.94022" lon="4.72338">
        <ele>171</ele>
        <time>2018-07-25T08:23:42Z</time>
      </trkpt>
      <trkpt lat="45.94024" lon="4.72332">
        <ele>171</ele>
        <time>2018-07-25T08:23:43Z</time>
      </trkpt>
      <trkpt lat="45.9403" lon="4.72329">
        <ele>171</ele>
        <time>2018-07-25T08:23:44Z</time>
      </trkpt>
      <trkpt lat="45.94035" lon="4.72321">
        <ele>171</ele>
        <time>2018-07-25T08:23:45Z</time>
      </trkpt>
      <trkpt lat="45.94038" lon="4.72317">
        <ele>171</ele>
        <time>2018-07-25T08:23:46Z</time>
      </trkpt>
      <trkpt lat="45.94045" lon="4.72311">
        <ele>171</ele>
        <time>2018-07-25T08:23:47Z</time>
      </trkpt>
      <trkpt lat="45.94049" lon="4.72305">
        <ele>171</ele>
        <time>2018-07-25T08:23:48Z</time>
      </trkpt>
      <trkpt lat="45.94054" lon="4.72299">
        <ele>171</ele>
        <time>2018-07-25T08:23:49Z</time>
      </trkpt>
      <trkpt lat="45.94061" lon="4.72292">
        <ele>171</ele>
        <time>2018-07-25T08:23:51Z</time>
      </trkpt>
      <trkpt lat="45.94064" lon="4.72289">
        <ele>171</ele>
        <time>2018-07-25T08:23:52Z</time>
      </trkpt>
      <trkpt lat="45.94068" lon="4.72285">
        <ele>171</ele>
        <time>2018-07-25T08:23:53Z</time>
      </trkpt>
      <trkpt lat="45.94073" lon="4.72279">
        <ele>171</ele>
        <time>2018-07-25T08:23:54Z</time>
      </trkpt>
      <trkpt lat="45.94079" lon="4.72274">
        <ele>171</ele>
        <time>2018-07-25T08:23:55Z</time>
      </trkpt>
      <trkpt lat="45.94084" lon="4.7227">
        <ele>171</ele>
        <time>2018-07-25T08:23:56Z</time>
      </trkpt>
      <trkpt lat="45.94089" lon="4.72267">
        <ele>171</ele>
        <time>2018-07-25T08:23:57Z</time>
      </trkpt>
      <trkpt lat="45.94093" lon="4.72265">
        <ele>171</ele>
        <time>2018-07-25T08:23:58Z</time>
      </trkpt>
      <trkpt lat="45.94098" lon="4.72266">
        <ele>171</ele>
        <time>2018-07-25T08:23:59Z</time>
      </trkpt>
      <trkpt lat="45.94103" lon="4.72263">
        <ele>171</ele>
        <time>2018-07-25T08:24:00Z</time>
      </trkpt>
      <trkpt lat="45.94108" lon="4.72265">
        <ele>171</ele>
        <time>2018-07-25T08:24:01Z</time>
      </trkpt>
      <trkpt lat="45.94113" lon="4.72266">
        <ele>171</ele>
        <time>2018-07-25T08:24:02Z</time>
      </trkpt>
      <trkpt lat="45.94119" lon="4.72268">
        <ele>171</ele>
        <time>2018-07-25T08:24:03Z</time>
      </trkpt>
      <trkpt lat="45.94126" lon="4.72269">
        <ele>171</ele>
        <time>2018-07-25T08:24:04Z</time>
      </trkpt>
      <trkpt lat="45.94131" lon="4.72271">
        <ele>171</ele>
        <time>2018-07-25T08:24:05Z</time>
      </trkpt>
      <trkpt lat="45.94136" lon="4.72276">
        <ele>171</ele>
        <time>2018-07-25T08:24:06Z</time>
      </trkpt>
      <trkpt lat="45.94141" lon="4.72279">
        <ele>171</ele>
        <time>2018-07-25T08:24:07Z</time>
      </trkpt>
      <trkpt lat="45.94145" lon="4.72282">
        <ele>171</ele>
        <time>2018-07-25T08:24:08Z</time>
      </trkpt>
      <trkpt lat="45.9415" lon="4.72286">
        <ele>171</ele>
        <time>2018-07-25T08:24:09Z</time>
      </trkpt>
      <trkpt lat="45.94156" lon="4.72289">
        <ele>171</ele>
        <time>2018-07-25T08:24:10Z</time>
      </trkpt>
      <trkpt lat="45.94162" lon="4.7229">
        <ele>171</ele>
        <time>2018-07-25T08:24:11Z</time>
      </trkpt>
      <trkpt lat="45.94168" lon="4.72291">
        <ele>171</ele>
        <time>2018-07-25T08:24:12Z</time>
      </trkpt>
      <trkpt lat="45.94174" lon="4.72292">
        <ele>171</ele>
        <time>2018-07-25T08:24:13Z</time>
      </trkpt>
      <trkpt lat="45.94177" lon="4.72293">
        <ele>171</ele>
        <time>2018-07-25T08:24:14Z</time>
      </trkpt>
      <trkpt lat="45.94183" lon="4.72294">
        <ele>171</ele>
        <time>2018-07-25T08:24:15Z</time>
      </trkpt>
      <trkpt lat="45.94186" lon="4.72296">
        <ele>171</ele>
        <time>2018-07-25T08:24:16Z</time>
      </trkpt>
      <trkpt lat="45.94192" lon="4.72296">
        <ele>171</ele>
        <time>2018-07-25T08:24:17Z</time>
      </trkpt>
      <trkpt lat="45.94196" lon="4.72299">
        <ele>171</ele>
        <time>2018-07-25T08:24:18Z</time>
      </trkpt>
      <trkpt lat="45.94204" lon="4.72296">
        <ele>171</ele>
        <time>2018-07-25T08:24:20Z</time>
      </trkpt>
      <trkpt lat="45.94209" lon="4.72295">
        <ele>171</ele>
        <time>2018-07-25T08:24:21Z</time>
      </trkpt>
      <trkpt lat="45.94213" lon="4.72297">
        <ele>171</ele>
        <time>2018-07-25T08:24:22Z</time>
      </trkpt>
      <trkpt lat="45.94221" lon="4.72292">
        <ele>171</ele>
        <time>2018-07-25T08:24:23Z</time>
      </trkpt>
      <trkpt lat="45.94226" lon="4.7229">
        <ele>171</ele>
        <time>2018-07-25T08:24:24Z</time>
      </trkpt>
      <trkpt lat="45.9423" lon="4.72287">
        <ele>171</ele>
        <time>2018-07-25T08:24:25Z</time>
      </trkpt>
      <trkpt lat="45.94238" lon="4.72284">
        <ele>171</ele>
        <time>2018-07-25T08:24:27Z</time>
      </trkpt>
      <trkpt lat="45.94243" lon="4.72282">
        <ele>171</ele>
        <time>2018-07-25T08:24:28Z</time>
      </trkpt>
      <trkpt lat="45.94247" lon="4.72279">
        <ele>171</ele>
        <time>2018-07-25T08:24:29Z</time>
      </trkpt>
      <trkpt lat="45.94251" lon="4.72276">
        <ele>171</ele>
        <time>2018-07-25T08:24:30Z</time>
      </trkpt>
      <trkpt lat="45.94258" lon="4.72274">
        <ele>171</ele>
        <time>2018-07-25T08:24:32Z</time>
      </trkpt>
      <trkpt lat="45.94261" lon="4.72273">
        <ele>171</ele>
        <time>2018-07-25T08:24:33Z</time>
      </trkpt>
      <trkpt lat="45.94268" lon="4.72272">
        <ele>171</ele>
        <time>2018-07-25T08:24:34Z</time>
      </trkpt>
      <trkpt lat="45.9427" lon="4.72276">
        <ele>171</ele>
        <time>2018-07-25T08:24:35Z</time>
      </trkpt>
      <trkpt lat="45.94275" lon="4.72285">
        <ele>171</ele>
        <time>2018-07-25T08:24:37Z</time>
      </trkpt>
      <trkpt lat="45.94278" lon="4.72292">
        <ele>171</ele>
        <time>2018-07-25T08:24:38Z</time>
      </trkpt>
      <trkpt lat="45.9428" lon="4.72296">
        <ele>171</ele>
        <time>2018-07-25T08:24:39Z</time>
      </trkpt>
      <trkpt lat="45.94283" lon="4.72302">
        <ele>171</ele>
        <time>2018-07-25T08:24:40Z</time>
      </trkpt>
      <trkpt lat="45.94287" lon="4.72308">
        <ele>171</ele>
        <time>2018-07-25T08:24:41Z</time>
      </trkpt>
      <trkpt lat="45.94289" lon="4.72314">
        <ele>171</ele>
        <time>2018-07-25T08:24:42Z</time>
      </trkpt>
      <trkpt lat="45.94293" lon="4.7232">
        <ele>171</ele>
        <time>2018-07-25T08:24:43Z</time>
      </trkpt>
      <trkpt lat="45.94295" lon="4.72326">
        <ele>171</ele>
        <time>2018-07-25T08:24:44Z</time>
      </trkpt>
      <trkpt lat="45.94298" lon="4.72333">
        <ele>171</ele>
        <time>2018-07-25T08:24:45Z</time>
      </trkpt>
      <trkpt lat="45.94303" lon="4.72339">
        <ele>172</ele>
        <time>2018-07-25T08:24:46Z</time>
      </trkpt>
      <trkpt lat="45.94306" lon="4.72346">
        <ele>172</ele>
        <time>2018-07-25T08:24:47Z</time>
      </trkpt>
      <trkpt lat="45.94308" lon="4.72353">
        <ele>172</ele>
        <time>2018-07-25T08:24:48Z</time>
      </trkpt>
      <trkpt lat="45.94312" lon="4.7236">
        <ele>172</ele>
        <time>2018-07-25T08:24:49Z</time>
      </trkpt>
      <trkpt lat="45.94314" lon="4.72366">
        <ele>172</ele>
        <time>2018-07-25T08:24:50Z</time>
      </trkpt>
      <trkpt lat="45.94317" lon="4.72373">
        <ele>172</ele>
        <time>2018-07-25T08:24:51Z</time>
      </trkpt>
      <trkpt lat="45.9432" lon="4.72379">
        <ele>172</ele>
        <time>2018-07-25T08:24:52Z</time>
      </trkpt>
      <trkpt lat="45.94322" lon="4.72385">
        <ele>172</ele>
        <time>2018-07-25T08:24:53Z</time>
      </trkpt>
      <trkpt lat="45.94326" lon="4.7239">
        <ele>172</ele>
        <time>2018-07-25T08:24:54Z</time>
      </trkpt>
      <trkpt lat="45.94329" lon="4.72399">
        <ele>172</ele>
        <time>2018-07-25T08:24:55Z</time>
      </trkpt>
      <trkpt lat="45.94332" lon="4.72404">
        <ele>173</ele>
        <time>2018-07-25T08:24:56Z</time>
      </trkpt>
      <trkpt lat="45.94335" lon="4.7241">
        <ele>173</ele>
        <time>2018-07-25T08:24:57Z</time>
      </trkpt>
      <trkpt lat="45.94339" lon="4.72417">
        <ele>173</ele>
        <time>2018-07-25T08:24:58Z</time>
      </trkpt>
      <trkpt lat="45.94341" lon="4.72424">
        <ele>173</ele>
        <time>2018-07-25T08:24:59Z</time>
      </trkpt>
      <trkpt lat="45.94344" lon="4.72431">
        <ele>173</ele>
        <time>2018-07-25T08:25:00Z</time>
      </trkpt>
      <trkpt lat="45.94347" lon="4.72439">
        <ele>173</ele>
        <time>2018-07-25T08:25:01Z</time>
      </trkpt>
      <trkpt lat="45.94349" lon="4.72446">
        <ele>173</ele>
        <time>2018-07-25T08:25:02Z</time>
      </trkpt>
      <trkpt lat="45.94353" lon="4.72454">
        <ele>173</ele>
        <time>2018-07-25T08:25:03Z</time>
      </trkpt>
      <trkpt lat="45.94358" lon="4.72461">
        <ele>173</ele>
        <time>2018-07-25T08:25:04Z</time>
      </trkpt>
      <trkpt lat="45.94362" lon="4.72468">
        <ele>173</ele>
        <time>2018-07-25T08:25:05Z</time>
      </trkpt>
      <trkpt lat="45.94364" lon="4.72476">
        <ele>173</ele>
        <time>2018-07-25T08:25:06Z</time>
      </trkpt>
      <trkpt lat="45.94364" lon="4.72484">
        <ele>173</ele>
        <time>2018-07-25T08:25:07Z</time>
      </trkpt>
      <trkpt lat="45.94368" lon="4.72492">
        <ele>173</ele>
        <time>2018-07-25T08:25:08Z</time>
      </trkpt>
      <trkpt lat="45.94368" lon="4.725">
        <ele>173</ele>
        <time>2018-07-25T08:25:09Z</time>
      </trkpt>
      <trkpt lat="45.94374" lon="4.72507">
        <ele>173</ele>
        <time>2018-07-25T08:25:10Z</time>
      </trkpt>
      <trkpt lat="45.94377" lon="4.72515">
        <ele>174</ele>
        <time>2018-07-25T08:25:11Z</time>
      </trkpt>
      <trkpt lat="45.9438" lon="4.72522">
        <ele>174</ele>
        <time>2018-07-25T08:25:12Z</time>
      </trkpt>
      <trkpt lat="45.94382" lon="4.72529">
        <ele>174</ele>
        <time>2018-07-25T08:25:13Z</time>
      </trkpt>
      <trkpt lat="45.94384" lon="4.72537">
        <ele>174</ele>
        <time>2018-07-25T08:25:14Z</time>
      </trkpt>
      <trkpt lat="45.94385" lon="4.72544">
        <ele>173</ele>
        <time>2018-07-25T08:25:15Z</time>
      </trkpt>
      <trkpt lat="45.94386" lon="4.72551">
        <ele>173</ele>
        <time>2018-07-25T08:25:16Z</time>
      </trkpt>
      <trkpt lat="45.94386" lon="4.72558">
        <ele>173</ele>
        <time>2018-07-25T08:25:17Z</time>
      </trkpt>
      <trkpt lat="45.94388" lon="4.72566">
        <ele>173</ele>
        <time>2018-07-25T08:25:18Z</time>
      </trkpt>
      <trkpt lat="45.94388" lon="4.72574">
        <ele>173</ele>
        <time>2018-07-25T08:25:19Z</time>
      </trkpt>
      <trkpt lat="45.9439" lon="4.72583">
        <ele>173</ele>
        <time>2018-07-25T08:25:20Z</time>
      </trkpt>
      <trkpt lat="45.94391" lon="4.72591">
        <ele>173</ele>
        <time>2018-07-25T08:25:21Z</time>
      </trkpt>
      <trkpt lat="45.94392" lon="4.72599">
        <ele>173</ele>
        <time>2018-07-25T08:25:22Z</time>
      </trkpt>
      <trkpt lat="45.94394" lon="4.72608">
        <ele>173</ele>
        <time>2018-07-25T08:25:23Z</time>
      </trkpt>
      <trkpt lat="45.94395" lon="4.72616">
        <ele>173</ele>
        <time>2018-07-25T08:25:24Z</time>
      </trkpt>
      <trkpt lat="45.94396" lon="4.72624">
        <ele>173</ele>
        <time>2018-07-25T08:25:25Z</time>
      </trkpt>
      <trkpt lat="45.94398" lon="4.72632">
        <ele>174</ele>
        <time>2018-07-25T08:25:26Z</time>
      </trkpt>
      <trkpt lat="45.94399" lon="4.7264">
        <ele>174</ele>
        <time>2018-07-25T08:25:27Z</time>
      </trkpt>
      <trkpt lat="45.944" lon="4.72648">
        <ele>174</ele>
        <time>2018-07-25T08:25:28Z</time>
      </trkpt>
      <trkpt lat="45.94403" lon="4.72656">
        <ele>174</ele>
        <time>2018-07-25T08:25:29Z</time>
      </trkpt>
      <trkpt lat="45.94405" lon="4.72665">
        <ele>174</ele>
        <time>2018-07-25T08:25:30Z</time>
      </trkpt>
      <trkpt lat="45.94405" lon="4.72673">
        <ele>173</ele>
        <time>2018-07-25T08:25:31Z</time>
      </trkpt>
      <trkpt lat="45.94406" lon="4.72682">
        <ele>173</ele>
        <time>2018-07-25T08:25:32Z</time>
      </trkpt>
      <trkpt lat="45.94406" lon="4.72688">
        <ele>173</ele>
        <time>2018-07-25T08:25:33Z</time>
      </trkpt>
      <trkpt lat="45.94407" lon="4.72695">
        <ele>173</ele>
        <time>2018-07-25T08:25:34Z</time>
      </trkpt>
      <trkpt lat="45.94409" lon="4.72705">
        <ele>172</ele>
        <time>2018-07-25T08:25:35Z</time>
      </trkpt>
      <trkpt lat="45.9441" lon="4.72714">
        <ele>172</ele>
        <time>2018-07-25T08:25:36Z</time>
      </trkpt>
      <trkpt lat="45.94411" lon="4.72723">
        <ele>172</ele>
        <time>2018-07-25T08:25:37Z</time>
      </trkpt>
      <trkpt lat="45.94411" lon="4.7273">
        <ele>172</ele>
        <time>2018-07-25T08:25:38Z</time>
      </trkpt>
      <trkpt lat="45.94412" lon="4.72739">
        <ele>171</ele>
        <time>2018-07-25T08:25:39Z</time>
      </trkpt>
      <trkpt lat="45.94413" lon="4.72748">
        <ele>171</ele>
        <time>2018-07-25T08:25:40Z</time>
      </trkpt>
      <trkpt lat="45.94414" lon="4.72756">
        <ele>170</ele>
        <time>2018-07-25T08:25:41Z</time>
      </trkpt>
      <trkpt lat="45.94415" lon="4.72764">
        <ele>170</ele>
        <time>2018-07-25T08:25:42Z</time>
      </trkpt>
      <trkpt lat="45.94418" lon="4.72772">
        <ele>169</ele>
        <time>2018-07-25T08:25:43Z</time>
      </trkpt>
      <trkpt lat="45.94419" lon="4.7278">
        <ele>168</ele>
        <time>2018-07-25T08:25:44Z</time>
      </trkpt>
      <trkpt lat="45.9442" lon="4.72787">
        <ele>168</ele>
        <time>2018-07-25T08:25:45Z</time>
      </trkpt>
      <trkpt lat="45.94421" lon="4.72793">
        <ele>168</ele>
        <time>2018-07-25T08:25:46Z</time>
      </trkpt>
      <trkpt lat="45.94421" lon="4.728">
        <ele>167</ele>
        <time>2018-07-25T08:25:47Z</time>
      </trkpt>
      <trkpt lat="45.94423" lon="4.72806">
        <ele>167</ele>
        <time>2018-07-25T08:25:48Z</time>
      </trkpt>
      <trkpt lat="45.94424" lon="4.72812">
        <ele>167</ele>
        <time>2018-07-25T08:25:49Z</time>
      </trkpt>
      <trkpt lat="45.94424" lon="4.72819">
        <ele>167</ele>
        <time>2018-07-25T08:25:50Z</time>
      </trkpt>
      <trkpt lat="45.94426" lon="4.72832">
        <ele>166</ele>
        <time>2018-07-25T08:25:52Z</time>
      </trkpt>
      <trkpt lat="45.94426" lon="4.72838">
        <ele>166</ele>
        <time>2018-07-25T08:25:53Z</time>
      </trkpt>
      <trkpt lat="45.94429" lon="4.7285">
        <ele>166</ele>
        <time>2018-07-25T08:25:55Z</time>
      </trkpt>
      <trkpt lat="45.9443" lon="4.72855">
        <ele>166</ele>
        <time>2018-07-25T08:25:56Z</time>
      </trkpt>
      <trkpt lat="45.94431" lon="4.72865">
        <ele>166</ele>
        <time>2018-07-25T08:25:58Z</time>
      </trkpt>
      <trkpt lat="45.94433" lon="4.72871">
        <ele>166</ele>
        <time>2018-07-25T08:25:59Z</time>
      </trkpt>
      <trkpt lat="45.94434" lon="4.72878">
        <ele>166</ele>
        <time>2018-07-25T08:26:00Z</time>
      </trkpt>
      <trkpt lat="45.94434" lon="4.72884">
        <ele>166</ele>
        <time>2018-07-25T08:26:01Z</time>
      </trkpt>
      <trkpt lat="45.94436" lon="4.72891">
        <ele>166</ele>
        <time>2018-07-25T08:26:02Z</time>
      </trkpt>
      <trkpt lat="45.94437" lon="4.72897">
        <ele>166</ele>
        <time>2018-07-25T08:26:03Z</time>
      </trkpt>
      <trkpt lat="45.94438" lon="4.72904">
        <ele>166</ele>
        <time>2018-07-25T08:26:04Z</time>
      </trkpt>
      <trkpt lat="45.94439" lon="4.72911">
        <ele>166</ele>
        <time>2018-07-25T08:26:05Z</time>
      </trkpt>
      <trkpt lat="45.9444" lon="4.72918">
        <ele>167</ele>
        <time>2018-07-25T08:26:06Z</time>
      </trkpt>
      <trkpt lat="45.9444" lon="4.72926">
        <ele>167</ele>
        <time>2018-07-25T08:26:07Z</time>
      </trkpt>
      <trkpt lat="45.94442" lon="4.72937">
        <ele>167</ele>
        <time>2018-07-25T08:26:08Z</time>
      </trkpt>
      <trkpt lat="45.94444" lon="4.72945">
        <ele>167</ele>
        <time>2018-07-25T08:26:09Z</time>
      </trkpt>
      <trkpt lat="45.94445" lon="4.72952">
        <ele>167</ele>
        <time>2018-07-25T08:26:10Z</time>
      </trkpt>
      <trkpt lat="45.94447" lon="4.72962">
        <ele>167</ele>
        <time>2018-07-25T08:26:11Z</time>
      </trkpt>
      <trkpt lat="45.94447" lon="4.72971">
        <ele>167</ele>
        <time>2018-07-25T08:26:12Z</time>
      </trkpt>
      <trkpt lat="45.9445" lon="4.72979">
        <ele>167</ele>
        <time>2018-07-25T08:26:13Z</time>
      </trkpt>
      <trkpt lat="45.94452" lon="4.72988">
        <ele>167</ele>
        <time>2018-07-25T08:26:14Z</time>
      </trkpt>
      <trkpt lat="45.94452" lon="4.73001">
        <ele>169</ele>
        <time>2018-07-25T08:26:15Z</time>
      </trkpt>
      <trkpt lat="45.94452" lon="4.73014">
        <ele>169</ele>
        <time>2018-07-25T08:26:16Z</time>
      </trkpt>
      <trkpt lat="45.94453" lon="4.73026">
        <ele>169</ele>
        <time>2018-07-25T08:26:17Z</time>
      </trkpt>
      <trkpt lat="45.94451" lon="4.7303">
        <ele>169</ele>
        <time>2018-07-25T08:26:18Z</time>
      </trkpt>
      <trkpt lat="45.94452" lon="4.73042">
        <ele>169</ele>
        <time>2018-07-25T08:26:19Z</time>
      </trkpt>
      <trkpt lat="45.94453" lon="4.73053">
        <ele>169</ele>
        <time>2018-07-25T08:26:20Z</time>
      </trkpt>
      <trkpt lat="45.94455" lon="4.73062">
        <ele>170</ele>
        <time>2018-07-25T08:26:21Z</time>
      </trkpt>
      <trkpt lat="45.94457" lon="4.73072">
        <ele>170</ele>
        <time>2018-07-25T08:26:22Z</time>
      </trkpt>
      <trkpt lat="45.94457" lon="4.73085">
        <ele>171</ele>
        <time>2018-07-25T08:26:23Z</time>
      </trkpt>
      <trkpt lat="45.94458" lon="4.73096">
        <ele>171</ele>
        <time>2018-07-25T08:26:24Z</time>
      </trkpt>
      <trkpt lat="45.94461" lon="4.73107">
        <ele>172</ele>
        <time>2018-07-25T08:26:25Z</time>
      </trkpt>
      <trkpt lat="45.94465" lon="4.73117">
        <ele>172</ele>
        <time>2018-07-25T08:26:26Z</time>
      </trkpt>
      <trkpt lat="45.94462" lon="4.73126">
        <ele>172</ele>
        <time>2018-07-25T08:26:27Z</time>
      </trkpt>
      <trkpt lat="45.94466" lon="4.73135">
        <ele>172</ele>
        <time>2018-07-25T08:26:28Z</time>
      </trkpt>
      <trkpt lat="45.94469" lon="4.73145">
        <ele>172</ele>
        <time>2018-07-25T08:26:29Z</time>
      </trkpt>
      <trkpt lat="45.94473" lon="4.73157">
        <ele>172</ele>
        <time>2018-07-25T08:26:30Z</time>
      </trkpt>
      <trkpt lat="45.94474" lon="4.73165">
        <ele>173</ele>
        <time>2018-07-25T08:26:31Z</time>
      </trkpt>
      <trkpt lat="45.94475" lon="4.73174">
        <ele>174</ele>
        <time>2018-07-25T08:26:32Z</time>
      </trkpt>
      <trkpt lat="45.94476" lon="4.73182">
        <ele>174</ele>
        <time>2018-07-25T08:26:33Z</time>
      </trkpt>
      <trkpt lat="45.94477" lon="4.73192">
        <ele>174</ele>
        <time>2018-07-25T08:26:34Z</time>
      </trkpt>
      <trkpt lat="45.94478" lon="4.732">
        <ele>174</ele>
        <time>2018-07-25T08:26:35Z</time>
      </trkpt>
      <trkpt lat="45.94481" lon="4.7321">
        <ele>175</ele>
        <time>2018-07-25T08:26:36Z</time>
      </trkpt>
      <trkpt lat="45.94483" lon="4.73218">
        <ele>175</ele>
        <time>2018-07-25T08:26:37Z</time>
      </trkpt>
      <trkpt lat="45.94481" lon="4.73225">
        <ele>175</ele>
        <time>2018-07-25T08:26:38Z</time>
      </trkpt>
      <trkpt lat="45.94481" lon="4.73232">
        <ele>175</ele>
        <time>2018-07-25T08:26:39Z</time>
      </trkpt>
      <trkpt lat="45.94482" lon="4.73239">
        <ele>175</ele>
        <time>2018-07-25T08:26:40Z</time>
      </trkpt>
      <trkpt lat="45.94483" lon="4.73246">
        <ele>175</ele>
        <time>2018-07-25T08:26:41Z</time>
      </trkpt>
      <trkpt lat="45.94484" lon="4.73252">
        <ele>176</ele>
        <time>2018-07-25T08:26:42Z</time>
      </trkpt>
      <trkpt lat="45.94485" lon="4.73263">
        <ele>177</ele>
        <time>2018-07-25T08:26:44Z</time>
      </trkpt>
      <trkpt lat="45.94485" lon="4.73269">
        <ele>177</ele>
        <time>2018-07-25T08:26:45Z</time>
      </trkpt>
      <trkpt lat="45.94487" lon="4.73282">
        <ele>177</ele>
        <time>2018-07-25T08:26:47Z</time>
      </trkpt>
      <trkpt lat="45.94488" lon="4.73288">
        <ele>177</ele>
        <time>2018-07-25T08:26:48Z</time>
      </trkpt>
      <trkpt lat="45.9449" lon="4.73294">
        <ele>177</ele>
        <time>2018-07-25T08:26:49Z</time>
      </trkpt>
      <trkpt lat="45.94491" lon="4.73301">
        <ele>177</ele>
        <time>2018-07-25T08:26:50Z</time>
      </trkpt>
      <trkpt lat="45.94491" lon="4.73313">
        <ele>177</ele>
        <time>2018-07-25T08:26:52Z</time>
      </trkpt>
      <trkpt lat="45.94492" lon="4.73318">
        <ele>177</ele>
        <time>2018-07-25T08:26:53Z</time>
      </trkpt>
      <trkpt lat="45.94493" lon="4.73325">
        <ele>177</ele>
        <time>2018-07-25T08:26:54Z</time>
      </trkpt>
      <trkpt lat="45.94495" lon="4.73331">
        <ele>177</ele>
        <time>2018-07-25T08:26:55Z</time>
      </trkpt>
      <trkpt lat="45.94492" lon="4.73341">
        <ele>178</ele>
        <time>2018-07-25T08:26:57Z</time>
      </trkpt>
      <trkpt lat="45.94492" lon="4.73348">
        <ele>178</ele>
        <time>2018-07-25T08:26:58Z</time>
      </trkpt>
      <trkpt lat="45.94494" lon="4.73355">
        <ele>178</ele>
        <time>2018-07-25T08:26:59Z</time>
      </trkpt>
      <trkpt lat="45.94497" lon="4.7336">
        <ele>179</ele>
        <time>2018-07-25T08:27:00Z</time>
      </trkpt>
      <trkpt lat="45.94497" lon="4.73369">
        <ele>179</ele>
        <time>2018-07-25T08:27:02Z</time>
      </trkpt>
      <trkpt lat="45.94494" lon="4.73374">
        <ele>179</ele>
        <time>2018-07-25T08:27:03Z</time>
      </trkpt>
      <trkpt lat="45.94497" lon="4.73379">
        <ele>179</ele>
        <time>2018-07-25T08:27:04Z</time>
      </trkpt>
      <trkpt lat="45.94498" lon="4.73386">
        <ele>179</ele>
        <time>2018-07-25T08:27:05Z</time>
      </trkpt>
      <trkpt lat="45.94499" lon="4.73393">
        <ele>179</ele>
        <time>2018-07-25T08:27:06Z</time>
      </trkpt>
      <trkpt lat="45.94501" lon="4.73402">
        <ele>179</ele>
        <time>2018-07-25T08:27:07Z</time>
      </trkpt>
      <trkpt lat="45.94502" lon="4.73409">
        <ele>179</ele>
        <time>2018-07-25T08:27:08Z</time>
      </trkpt>
      <trkpt lat="45.94502" lon="4.73415">
        <ele>180</ele>
        <time>2018-07-25T08:27:09Z</time>
      </trkpt>
      <trkpt lat="45.94502" lon="4.73424">
        <ele>180</ele>
        <time>2018-07-25T08:27:10Z</time>
      </trkpt>
      <trkpt lat="45.94503" lon="4.73432">
        <ele>181</ele>
        <time>2018-07-25T08:27:11Z</time>
      </trkpt>
      <trkpt lat="45.94502" lon="4.73439">
        <ele>181</ele>
        <time>2018-07-25T08:27:12Z</time>
      </trkpt>
      <trkpt lat="45.94501" lon="4.73447">
        <ele>181</ele>
        <time>2018-07-25T08:27:13Z</time>
      </trkpt>
      <trkpt lat="45.945" lon="4.7346">
        <ele>181</ele>
        <time>2018-07-25T08:27:15Z</time>
      </trkpt>
      <trkpt lat="45.94498" lon="4.73467">
        <ele>182</ele>
        <time>2018-07-25T08:27:16Z</time>
      </trkpt>
      <trkpt lat="45.94499" lon="4.73474">
        <ele>182</ele>
        <time>2018-07-25T08:27:17Z</time>
      </trkpt>
      <trkpt lat="45.945" lon="4.73481">
        <ele>182</ele>
        <time>2018-07-25T08:27:18Z</time>
      </trkpt>
      <trkpt lat="45.94501" lon="4.73487">
        <ele>182</ele>
        <time>2018-07-25T08:27:19Z</time>
      </trkpt>
      <trkpt lat="45.94502" lon="4.73495">
        <ele>183</ele>
        <time>2018-07-25T08:27:20Z</time>
      </trkpt>
      <trkpt lat="45.945" lon="4.73507">
        <ele>183</ele>
        <time>2018-07-25T08:27:22Z</time>
      </trkpt>
      <trkpt lat="45.94502" lon="4.73514">
        <ele>183</ele>
        <time>2018-07-25T08:27:23Z</time>
      </trkpt>
      <trkpt lat="45.94504" lon="4.7352">
        <ele>183</ele>
        <time>2018-07-25T08:27:24Z</time>
      </trkpt>
      <trkpt lat="45.94504" lon="4.73528">
        <ele>183</ele>
        <time>2018-07-25T08:27:25Z</time>
      </trkpt>
      <trkpt lat="45.94504" lon="4.73541">
        <ele>183</ele>
        <time>2018-07-25T08:27:27Z</time>
      </trkpt>
      <trkpt lat="45.94505" lon="4.73549">
        <ele>183</ele>
        <time>2018-07-25T08:27:28Z</time>
      </trkpt>
      <trkpt lat="45.94502" lon="4.73555">
        <ele>183</ele>
        <time>2018-07-25T08:27:29Z</time>
      </trkpt>
      <trkpt lat="45.94502" lon="4.73563">
        <ele>184</ele>
        <time>2018-07-25T08:27:30Z</time>
      </trkpt>
      <trkpt lat="45.94499" lon="4.7357">
        <ele>185</ele>
        <time>2018-07-25T08:27:31Z</time>
      </trkpt>
      <trkpt lat="45.94498" lon="4.73577">
        <ele>185</ele>
        <time>2018-07-25T08:27:32Z</time>
      </trkpt>
      <trkpt lat="45.94498" lon="4.73585">
        <ele>185</ele>
        <time>2018-07-25T08:27:33Z</time>
      </trkpt>
      <trkpt lat="45.94496" lon="4.7359">
        <ele>185</ele>
        <time>2018-07-25T08:27:34Z</time>
      </trkpt>
      <trkpt lat="45.94497" lon="4.73598">
        <ele>185</ele>
        <time>2018-07-25T08:27:35Z</time>
      </trkpt>
      <trkpt lat="45.94496" lon="4.73606">
        <ele>186</ele>
        <time>2018-07-25T08:27:36Z</time>
      </trkpt>
      <trkpt lat="45.94496" lon="4.73614">
        <ele>186</ele>
        <time>2018-07-25T08:27:37Z</time>
      </trkpt>
      <trkpt lat="45.94497" lon="4.73621">
        <ele>186</ele>
        <time>2018-07-25T08:27:38Z</time>
      </trkpt>
      <trkpt lat="45.94495" lon="4.73628">
        <ele>186</ele>
        <time>2018-07-25T08:27:39Z</time>
      </trkpt>
      <trkpt lat="45.94494" lon="4.73635">
        <ele>186</ele>
        <time>2018-07-25T08:27:40Z</time>
      </trkpt>
      <trkpt lat="45.94493" lon="4.73643">
        <ele>186</ele>
        <time>2018-07-25T08:27:41Z</time>
      </trkpt>
      <trkpt lat="45.94494" lon="4.73651">
        <ele>185</ele>
        <time>2018-07-25T08:27:42Z</time>
      </trkpt>
      <trkpt lat="45.94493" lon="4.7366">
        <ele>185</ele>
        <time>2018-07-25T08:27:43Z</time>
      </trkpt>
      <trkpt lat="45.94493" lon="4.73668">
        <ele>185</ele>
        <time>2018-07-25T08:27:44Z</time>
      </trkpt>
      <trkpt lat="45.94491" lon="4.73676">
        <ele>185</ele>
        <time>2018-07-25T08:27:45Z</time>
      </trkpt>
      <trkpt lat="45.9449" lon="4.73682">
        <ele>186</ele>
        <time>2018-07-25T08:27:46Z</time>
      </trkpt>
      <trkpt lat="45.94489" lon="4.73689">
        <ele>186</ele>
        <time>2018-07-25T08:27:47Z</time>
      </trkpt>
      <trkpt lat="45.94488" lon="4.73699">
        <ele>186</ele>
        <time>2018-07-25T08:27:48Z</time>
      </trkpt>
      <trkpt lat="45.94485" lon="4.73705">
        <ele>186</ele>
        <time>2018-07-25T08:27:49Z</time>
      </trkpt>
      <trkpt lat="45.94481" lon="4.73711">
        <ele>186</ele>
        <time>2018-07-25T08:27:50Z</time>
      </trkpt>
      <trkpt lat="45.94477" lon="4.73719">
        <ele>186</ele>
        <time>2018-07-25T08:27:51Z</time>
      </trkpt>
      <trkpt lat="45.94475" lon="4.73727">
        <ele>186</ele>
        <time>2018-07-25T08:27:52Z</time>
      </trkpt>
      <trkpt lat="45.94478" lon="4.73735">
        <ele>186</ele>
        <time>2018-07-25T08:27:53Z</time>
      </trkpt>
      <trkpt lat="45.94477" lon="4.73743">
        <ele>186</ele>
        <time>2018-07-25T08:27:54Z</time>
      </trkpt>
      <trkpt lat="45.94477" lon="4.73751">
        <ele>186</ele>
        <time>2018-07-25T08:27:55Z</time>
      </trkpt>
      <trkpt lat="45.94477" lon="4.73758">
        <ele>186</ele>
        <time>2018-07-25T08:27:56Z</time>
      </trkpt>
      <trkpt lat="45.94477" lon="4.73765">
        <ele>186</ele>
        <time>2018-07-25T08:27:57Z</time>
      </trkpt>
      <trkpt lat="45.94478" lon="4.73773">
        <ele>186</ele>
        <time>2018-07-25T08:27:58Z</time>
      </trkpt>
      <trkpt lat="45.94486" lon="4.73776">
        <ele>186</ele>
        <time>2018-07-25T08:28:00Z</time>
      </trkpt>
      <trkpt lat="45.94492" lon="4.73782">
        <ele>186</ele>
        <time>2018-07-25T08:28:01Z</time>
      </trkpt>
      <trkpt lat="45.94496" lon="4.73787">
        <ele>186</ele>
        <time>2018-07-25T08:28:02Z</time>
      </trkpt>
      <trkpt lat="45.94501" lon="4.73792">
        <ele>186</ele>
        <time>2018-07-25T08:28:03Z</time>
      </trkpt>
      <trkpt lat="45.94505" lon="4.73794">
        <ele>186</ele>
        <time>2018-07-25T08:28:04Z</time>
      </trkpt>
      <trkpt lat="45.94509" lon="4.73798">
        <ele>186</ele>
        <time>2018-07-25T08:28:05Z</time>
      </trkpt>
      <trkpt lat="45.94513" lon="4.73803">
        <ele>186</ele>
        <time>2018-07-25T08:28:06Z</time>
      </trkpt>
      <trkpt lat="45.94518" lon="4.73807">
        <ele>186</ele>
        <time>2018-07-25T08:28:07Z</time>
      </trkpt>
      <trkpt lat="45.94526" lon="4.73812">
        <ele>186</ele>
        <time>2018-07-25T08:28:08Z</time>
      </trkpt>
      <trkpt lat="45.9453" lon="4.73816">
        <ele>186</ele>
        <time>2018-07-25T08:28:09Z</time>
      </trkpt>
      <trkpt lat="45.94535" lon="4.73821">
        <ele>186</ele>
        <time>2018-07-25T08:28:10Z</time>
      </trkpt>
      <trkpt lat="45.94539" lon="4.73826">
        <ele>186</ele>
        <time>2018-07-25T08:28:11Z</time>
      </trkpt>
      <trkpt lat="45.94543" lon="4.7383">
        <ele>186</ele>
        <time>2018-07-25T08:28:12Z</time>
      </trkpt>
      <trkpt lat="45.94548" lon="4.73834">
        <ele>186</ele>
        <time>2018-07-25T08:28:13Z</time>
      </trkpt>
      <trkpt lat="45.94552" lon="4.7384">
        <ele>186</ele>
        <time>2018-07-25T08:28:14Z</time>
      </trkpt>
      <trkpt lat="45.94556" lon="4.73844">
        <ele>186</ele>
        <time>2018-07-25T08:28:15Z</time>
      </trkpt>
      <trkpt lat="45.94562" lon="4.73849">
        <ele>186</ele>
        <time>2018-07-25T08:28:16Z</time>
      </trkpt>
      <trkpt lat="45.94566" lon="4.73853">
        <ele>186</ele>
        <time>2018-07-25T08:28:17Z</time>
      </trkpt>
      <trkpt lat="45.9457" lon="4.73858">
        <ele>186</ele>
        <time>2018-07-25T08:28:18Z</time>
      </trkpt>
      <trkpt lat="45.94575" lon="4.73862">
        <ele>186</ele>
        <time>2018-07-25T08:28:19Z</time>
      </trkpt>
      <trkpt lat="45.94581" lon="4.73865">
        <ele>186</ele>
        <time>2018-07-25T08:28:20Z</time>
      </trkpt>
      <trkpt lat="45.94586" lon="4.73869">
        <ele>187</ele>
        <time>2018-07-25T08:28:21Z</time>
      </trkpt>
      <trkpt lat="45.94592" lon="4.73874">
        <ele>187</ele>
        <time>2018-07-25T08:28:22Z</time>
      </trkpt>
      <trkpt lat="45.94596" lon="4.73879">
        <ele>187</ele>
        <time>2018-07-25T08:28:23Z</time>
      </trkpt>
      <trkpt lat="45.94601" lon="4.73884">
        <ele>187</ele>
        <time>2018-07-25T08:28:24Z</time>
      </trkpt>
      <trkpt lat="45.94605" lon="4.73894">
        <ele>187</ele>
        <time>2018-07-25T08:28:26Z</time>
      </trkpt>
      <trkpt lat="45.94609" lon="4.73898">
        <ele>187</ele>
        <time>2018-07-25T08:28:27Z</time>
      </trkpt>
      <trkpt lat="45.94615" lon="4.73903">
        <ele>187</ele>
        <time>2018-07-25T08:28:28Z</time>
      </trkpt>
      <trkpt lat="45.94619" lon="4.73909">
        <ele>187</ele>
        <time>2018-07-25T08:28:29Z</time>
      </trkpt>
      <trkpt lat="45.94622" lon="4.73915">
        <ele>187</ele>
        <time>2018-07-25T08:28:30Z</time>
      </trkpt>
      <trkpt lat="45.94626" lon="4.73921">
        <ele>187</ele>
        <time>2018-07-25T08:28:31Z</time>
      </trkpt>
      <trkpt lat="45.9463" lon="4.73926">
        <ele>187</ele>
        <time>2018-07-25T08:28:32Z</time>
      </trkpt>
      <trkpt lat="45.94633" lon="4.7393">
        <ele>187</ele>
        <time>2018-07-25T08:28:33Z</time>
      </trkpt>
      <trkpt lat="45.94637" lon="4.73934">
        <ele>187</ele>
        <time>2018-07-25T08:28:34Z</time>
      </trkpt>
      <trkpt lat="45.94643" lon="4.73938">
        <ele>187</ele>
        <time>2018-07-25T08:28:35Z</time>
      </trkpt>
      <trkpt lat="45.94649" lon="4.73947">
        <ele>187</ele>
        <time>2018-07-25T08:28:37Z</time>
      </trkpt>
      <trkpt lat="45.94653" lon="4.73952">
        <ele>187</ele>
        <time>2018-07-25T08:28:38Z</time>
      </trkpt>
      <trkpt lat="45.94657" lon="4.73958">
        <ele>187</ele>
        <time>2018-07-25T08:28:39Z</time>
      </trkpt>
      <trkpt lat="45.94662" lon="4.73962">
        <ele>187</ele>
        <time>2018-07-25T08:28:40Z</time>
      </trkpt>
      <trkpt lat="45.94666" lon="4.73968">
        <ele>187</ele>
        <time>2018-07-25T08:28:41Z</time>
      </trkpt>
      <trkpt lat="45.94669" lon="4.73973">
        <ele>187</ele>
        <time>2018-07-25T08:28:42Z</time>
      </trkpt>
      <trkpt lat="45.94674" lon="4.73978">
        <ele>187</ele>
        <time>2018-07-25T08:28:43Z</time>
      </trkpt>
      <trkpt lat="45.94678" lon="4.73983">
        <ele>187</ele>
        <time>2018-07-25T08:28:44Z</time>
      </trkpt>
      <trkpt lat="45.94682" lon="4.73989">
        <ele>187</ele>
        <time>2018-07-25T08:28:45Z</time>
      </trkpt>
      <trkpt lat="45.94684" lon="4.73995">
        <ele>187</ele>
        <time>2018-07-25T08:28:46Z</time>
      </trkpt>
      <trkpt lat="45.94688" lon="4.74">
        <ele>187</ele>
        <time>2018-07-25T08:28:47Z</time>
      </trkpt>
      <trkpt lat="45.94691" lon="4.74006">
        <ele>187</ele>
        <time>2018-07-25T08:28:48Z</time>
      </trkpt>
      <trkpt lat="45.94696" lon="4.74016">
        <ele>187</ele>
        <time>2018-07-25T08:28:50Z</time>
      </trkpt>
      <trkpt lat="45.94699" lon="4.7402">
        <ele>187</ele>
        <time>2018-07-25T08:28:51Z</time>
      </trkpt>
      <trkpt lat="45.94703" lon="4.74026">
        <ele>187</ele>
        <time>2018-07-25T08:28:52Z</time>
      </trkpt>
      <trkpt lat="45.94706" lon="4.7403">
        <ele>187</ele>
        <time>2018-07-25T08:28:53Z</time>
      </trkpt>
      <trkpt lat="45.94711" lon="4.74041">
        <ele>187</ele>
        <time>2018-07-25T08:28:55Z</time>
      </trkpt>
      <trkpt lat="45.94715" lon="4.74045">
        <ele>187</ele>
        <time>2018-07-25T08:28:56Z</time>
      </trkpt>
      <trkpt lat="45.94719" lon="4.74049">
        <ele>187</ele>
        <time>2018-07-25T08:28:57Z</time>
      </trkpt>
      <trkpt lat="45.94723" lon="4.74055">
        <ele>188</ele>
        <time>2018-07-25T08:28:58Z</time>
      </trkpt>
      <trkpt lat="45.94727" lon="4.7406">
        <ele>188</ele>
        <time>2018-07-25T08:28:59Z</time>
      </trkpt>
      <trkpt lat="45.9473" lon="4.74065">
        <ele>188</ele>
        <time>2018-07-25T08:29:00Z</time>
      </trkpt>
      <trkpt lat="45.94735" lon="4.74071">
        <ele>188</ele>
        <time>2018-07-25T08:29:01Z</time>
      </trkpt>
      <trkpt lat="45.9474" lon="4.74076">
        <ele>188</ele>
        <time>2018-07-25T08:29:02Z</time>
      </trkpt>
      <trkpt lat="45.94744" lon="4.74082">
        <ele>189</ele>
        <time>2018-07-25T08:29:03Z</time>
      </trkpt>
      <trkpt lat="45.94749" lon="4.74086">
        <ele>189</ele>
        <time>2018-07-25T08:29:04Z</time>
      </trkpt>
      <trkpt lat="45.94753" lon="4.74092">
        <ele>189</ele>
        <time>2018-07-25T08:29:05Z</time>
      </trkpt>
      <trkpt lat="45.94756" lon="4.74098">
        <ele>189</ele>
        <time>2018-07-25T08:29:06Z</time>
      </trkpt>
      <trkpt lat="45.9476" lon="4.74103">
        <ele>189</ele>
        <time>2018-07-25T08:29:07Z</time>
      </trkpt>
      <trkpt lat="45.94764" lon="4.74108">
        <ele>189</ele>
        <time>2018-07-25T08:29:08Z</time>
      </trkpt>
      <trkpt lat="45.94765" lon="4.74115">
        <ele>189</ele>
        <time>2018-07-25T08:29:09Z</time>
      </trkpt>
      <trkpt lat="45.9477" lon="4.74118">
        <ele>189</ele>
        <time>2018-07-25T08:29:10Z</time>
      </trkpt>
      <trkpt lat="45.94776" lon="4.74124">
        <ele>189</ele>
        <time>2018-07-25T08:29:11Z</time>
      </trkpt>
      <trkpt lat="45.94778" lon="4.7413">
        <ele>189</ele>
        <time>2018-07-25T08:29:12Z</time>
      </trkpt>
      <trkpt lat="45.94781" lon="4.74135">
        <ele>189</ele>
        <time>2018-07-25T08:29:13Z</time>
      </trkpt>
      <trkpt lat="45.94786" lon="4.74142">
        <ele>189</ele>
        <time>2018-07-25T08:29:14Z</time>
      </trkpt>
      <trkpt lat="45.94792" lon="4.74145">
        <ele>189</ele>
        <time>2018-07-25T08:29:15Z</time>
      </trkpt>
      <trkpt lat="45.94798" lon="4.7415">
        <ele>189</ele>
        <time>2018-07-25T08:29:16Z</time>
      </trkpt>
      <trkpt lat="45.94802" lon="4.74155">
        <ele>189</ele>
        <time>2018-07-25T08:29:17Z</time>
      </trkpt>
      <trkpt lat="45.94805" lon="4.7416">
        <ele>189</ele>
        <time>2018-07-25T08:29:18Z</time>
      </trkpt>
      <trkpt lat="45.94809" lon="4.74165">
        <ele>189</ele>
        <time>2018-07-25T08:29:19Z</time>
      </trkpt>
      <trkpt lat="45.94812" lon="4.74171">
        <ele>189</ele>
        <time>2018-07-25T08:29:20Z</time>
      </trkpt>
      <trkpt lat="45.94815" lon="4.74177">
        <ele>189</ele>
        <time>2018-07-25T08:29:21Z</time>
      </trkpt>
      <trkpt lat="45.94819" lon="4.74183">
        <ele>189</ele>
        <time>2018-07-25T08:29:22Z</time>
      </trkpt>
      <trkpt lat="45.94819" lon="4.7419">
        <ele>189</ele>
        <time>2018-07-25T08:29:23Z</time>
      </trkpt>
      <trkpt lat="45.94822" lon="4.74197">
        <ele>189</ele>
        <time>2018-07-25T08:29:24Z</time>
      </trkpt>
      <trkpt lat="45.94825" lon="4.74203">
        <ele>189</ele>
        <time>2018-07-25T08:29:25Z</time>
      </trkpt>
      <trkpt lat="45.94828" lon="4.74209">
        <ele>189</ele>
        <time>2018-07-25T08:29:26Z</time>
      </trkpt>
      <trkpt lat="45.94831" lon="4.74216">
        <ele>188</ele>
        <time>2018-07-25T08:29:27Z</time>
      </trkpt>
      <trkpt lat="45.94837" lon="4.74225">
        <ele>190</ele>
        <time>2018-07-25T08:29:28Z</time>
      </trkpt>
      <trkpt lat="45.94841" lon="4.74232">
        <ele>190</ele>
        <time>2018-07-25T08:29:29Z</time>
      </trkpt>
      <trkpt lat="45.94841" lon="4.74239">
        <ele>190</ele>
        <time>2018-07-25T08:29:30Z</time>
      </trkpt>
      <trkpt lat="45.94844" lon="4.74245">
        <ele>190</ele>
        <time>2018-07-25T08:29:31Z</time>
      </trkpt>
      <trkpt lat="45.94848" lon="4.74252">
        <ele>190</ele>
        <time>2018-07-25T08:29:32Z</time>
      </trkpt>
      <trkpt lat="45.94852" lon="4.74258">
        <ele>190</ele>
        <time>2018-07-25T08:29:33Z</time>
      </trkpt>
      <trkpt lat="45.94855" lon="4.74265">
        <ele>190</ele>
        <time>2018-07-25T08:29:34Z</time>
      </trkpt>
      <trkpt lat="45.94859" lon="4.74276">
        <ele>190</ele>
        <time>2018-07-25T08:29:36Z</time>
      </trkpt>
      <trkpt lat="45.94862" lon="4.74281">
        <ele>190</ele>
        <time>2018-07-25T08:29:37Z</time>
      </trkpt>
      <trkpt lat="45.94866" lon="4.74287">
        <ele>191</ele>
        <time>2018-07-25T08:29:38Z</time>
      </trkpt>
      <trkpt lat="45.94868" lon="4.74293">
        <ele>191</ele>
        <time>2018-07-25T08:29:39Z</time>
      </trkpt>
      <trkpt lat="45.9487" lon="4.74299">
        <ele>191</ele>
        <time>2018-07-25T08:29:40Z</time>
      </trkpt>
      <trkpt lat="45.94872" lon="4.74305">
        <ele>191</ele>
        <time>2018-07-25T08:29:41Z</time>
      </trkpt>
      <trkpt lat="45.94875" lon="4.74311">
        <ele>191</ele>
        <time>2018-07-25T08:29:42Z</time>
      </trkpt>
      <trkpt lat="45.94877" lon="4.74318">
        <ele>191</ele>
        <time>2018-07-25T08:29:43Z</time>
      </trkpt>
      <trkpt lat="45.9488" lon="4.74322">
        <ele>191</ele>
        <time>2018-07-25T08:29:44Z</time>
      </trkpt>
      <trkpt lat="45.94885" lon="4.74329">
        <ele>191</ele>
        <time>2018-07-25T08:29:45Z</time>
      </trkpt>
      <trkpt lat="45.94887" lon="4.74335">
        <ele>191</ele>
        <time>2018-07-25T08:29:46Z</time>
      </trkpt>
      <trkpt lat="45.94891" lon="4.74342">
        <ele>191</ele>
        <time>2018-07-25T08:29:47Z</time>
      </trkpt>
      <trkpt lat="45.94893" lon="4.74349">
        <ele>191</ele>
        <time>2018-07-25T08:29:48Z</time>
      </trkpt>
      <trkpt lat="45.94896" lon="4.74355">
        <ele>191</ele>
        <time>2018-07-25T08:29:49Z</time>
      </trkpt>
      <trkpt lat="45.94899" lon="4.74361">
        <ele>191</ele>
        <time>2018-07-25T08:29:50Z</time>
      </trkpt>
      <trkpt lat="45.94903" lon="4.74366">
        <ele>191</ele>
        <time>2018-07-25T08:29:51Z</time>
      </trkpt>
      <trkpt lat="45.94906" lon="4.74371">
        <ele>191</ele>
        <time>2018-07-25T08:29:52Z</time>
      </trkpt>
      <trkpt lat="45.94909" lon="4.74377">
        <ele>191</ele>
        <time>2018-07-25T08:29:53Z</time>
      </trkpt>
      <trkpt lat="45.94913" lon="4.74387">
        <ele>191</ele>
        <time>2018-07-25T08:29:55Z</time>
      </trkpt>
      <trkpt lat="45.94914" lon="4.74392">
        <ele>191</ele>
        <time>2018-07-25T08:29:56Z</time>
      </trkpt>
      <trkpt lat="45.94918" lon="4.74395">
        <ele>192</ele>
        <time>2018-07-25T08:29:57Z</time>
      </trkpt>
      <trkpt lat="45.94921" lon="4.74401">
        <ele>192</ele>
        <time>2018-07-25T08:29:58Z</time>
      </trkpt>
      <trkpt lat="45.94926" lon="4.74412">
        <ele>192</ele>
        <time>2018-07-25T08:30:00Z</time>
      </trkpt>
      <trkpt lat="45.94929" lon="4.74417">
        <ele>192</ele>
        <time>2018-07-25T08:30:01Z</time>
      </trkpt>
      <trkpt lat="45.94933" lon="4.74423">
        <ele>192</ele>
        <time>2018-07-25T08:30:02Z</time>
      </trkpt>
      <trkpt lat="45.94936" lon="4.74429">
        <ele>192</ele>
        <time>2018-07-25T08:30:03Z</time>
      </trkpt>
      <trkpt lat="45.94939" lon="4.74435">
        <ele>192</ele>
        <time>2018-07-25T08:30:04Z</time>
      </trkpt>
      <trkpt lat="45.94943" lon="4.74441">
        <ele>192</ele>
        <time>2018-07-25T08:30:05Z</time>
      </trkpt>
      <trkpt lat="45.94945" lon="4.74447">
        <ele>192</ele>
        <time>2018-07-25T08:30:06Z</time>
      </trkpt>
      <trkpt lat="45.94948" lon="4.74452">
        <ele>192</ele>
        <time>2018-07-25T08:30:07Z</time>
      </trkpt>
      <trkpt lat="45.94952" lon="4.74463">
        <ele>193</ele>
        <time>2018-07-25T08:30:09Z</time>
      </trkpt>
      <trkpt lat="45.94954" lon="4.7447">
        <ele>193</ele>
        <time>2018-07-25T08:30:10Z</time>
      </trkpt>
      <trkpt lat="45.94958" lon="4.74477">
        <ele>193</ele>
        <time>2018-07-25T08:30:11Z</time>
      </trkpt>
      <trkpt lat="45.94964" lon="4.74481">
        <ele>193</ele>
        <time>2018-07-25T08:30:12Z</time>
      </trkpt>
      <trkpt lat="45.94969" lon="4.74486">
        <ele>193</ele>
        <time>2018-07-25T08:30:13Z</time>
      </trkpt>
      <trkpt lat="45.94974" lon="4.74492">
        <ele>193</ele>
        <time>2018-07-25T08:30:14Z</time>
      </trkpt>
      <trkpt lat="45.94978" lon="4.74498">
        <ele>193</ele>
        <time>2018-07-25T08:30:15Z</time>
      </trkpt>
      <trkpt lat="45.9498" lon="4.74504">
        <ele>193</ele>
        <time>2018-07-25T08:30:16Z</time>
      </trkpt>
      <trkpt lat="45.94984" lon="4.7451">
        <ele>193</ele>
        <time>2018-07-25T08:30:17Z</time>
      </trkpt>
      <trkpt lat="45.94986" lon="4.74516">
        <ele>193</ele>
        <time>2018-07-25T08:30:18Z</time>
      </trkpt>
      <trkpt lat="45.9499" lon="4.74522">
        <ele>193</ele>
        <time>2018-07-25T08:30:19Z</time>
      </trkpt>
      <trkpt lat="45.94993" lon="4.74527">
        <ele>193</ele>
        <time>2018-07-25T08:30:20Z</time>
      </trkpt>
      <trkpt lat="45.94996" lon="4.74533">
        <ele>193</ele>
        <time>2018-07-25T08:30:21Z</time>
      </trkpt>
      <trkpt lat="45.94999" lon="4.74539">
        <ele>193</ele>
        <time>2018-07-25T08:30:22Z</time>
      </trkpt>
      <trkpt lat="45.95002" lon="4.74545">
        <ele>194</ele>
        <time>2018-07-25T08:30:23Z</time>
      </trkpt>
      <trkpt lat="45.95005" lon="4.7455">
        <ele>194</ele>
        <time>2018-07-25T08:30:24Z</time>
      </trkpt>
      <trkpt lat="45.95009" lon="4.74556">
        <ele>194</ele>
        <time>2018-07-25T08:30:25Z</time>
      </trkpt>
      <trkpt lat="45.95012" lon="4.74562">
        <ele>194</ele>
        <time>2018-07-25T08:30:26Z</time>
      </trkpt>
      <trkpt lat="45.95013" lon="4.74569">
        <ele>194</ele>
        <time>2018-07-25T08:30:27Z</time>
      </trkpt>
      <trkpt lat="45.95015" lon="4.74576">
        <ele>194</ele>
        <time>2018-07-25T08:30:28Z</time>
      </trkpt>
      <trkpt lat="45.95018" lon="4.74582">
        <ele>194</ele>
        <time>2018-07-25T08:30:29Z</time>
      </trkpt>
      <trkpt lat="45.95021" lon="4.74588">
        <ele>194</ele>
        <time>2018-07-25T08:30:30Z</time>
      </trkpt>
      <trkpt lat="45.95024" lon="4.74593">
        <ele>194</ele>
        <time>2018-07-25T08:30:31Z</time>
      </trkpt>
      <trkpt lat="45.95027" lon="4.746">
        <ele>194</ele>
        <time>2018-07-25T08:30:32Z</time>
      </trkpt>
      <trkpt lat="45.95029" lon="4.74607">
        <ele>194</ele>
        <time>2018-07-25T08:30:33Z</time>
      </trkpt>
      <trkpt lat="45.95032" lon="4.74613">
        <ele>194</ele>
        <time>2018-07-25T08:30:34Z</time>
      </trkpt>
      <trkpt lat="45.95036" lon="4.74618">
        <ele>194</ele>
        <time>2018-07-25T08:30:35Z</time>
      </trkpt>
      <trkpt lat="45.95039" lon="4.74624">
        <ele>194</ele>
        <time>2018-07-25T08:30:36Z</time>
      </trkpt>
      <trkpt lat="45.95042" lon="4.7463">
        <ele>194</ele>
        <time>2018-07-25T08:30:37Z</time>
      </trkpt>
      <trkpt lat="45.95046" lon="4.74637">
        <ele>194</ele>
        <time>2018-07-25T08:30:38Z</time>
      </trkpt>
      <trkpt lat="45.95049" lon="4.74642">
        <ele>194</ele>
        <time>2018-07-25T08:30:39Z</time>
      </trkpt>
      <trkpt lat="45.95054" lon="4.74648">
        <ele>194</ele>
        <time>2018-07-25T08:30:40Z</time>
      </trkpt>
      <trkpt lat="45.95057" lon="4.74655">
        <ele>194</ele>
        <time>2018-07-25T08:30:41Z</time>
      </trkpt>
      <trkpt lat="45.95062" lon="4.7466">
        <ele>195</ele>
        <time>2018-07-25T08:30:42Z</time>
      </trkpt>
      <trkpt lat="45.95065" lon="4.74666">
        <ele>195</ele>
        <time>2018-07-25T08:30:43Z</time>
      </trkpt>
      <trkpt lat="45.95069" lon="4.74672">
        <ele>194</ele>
        <time>2018-07-25T08:30:44Z</time>
      </trkpt>
      <trkpt lat="45.95072" lon="4.74677">
        <ele>194</ele>
        <time>2018-07-25T08:30:45Z</time>
      </trkpt>
      <trkpt lat="45.95076" lon="4.74683">
        <ele>194</ele>
        <time>2018-07-25T08:30:46Z</time>
      </trkpt>
      <trkpt lat="45.95079" lon="4.74691">
        <ele>194</ele>
        <time>2018-07-25T08:30:47Z</time>
      </trkpt>
      <trkpt lat="45.95083" lon="4.74697">
        <ele>194</ele>
        <time>2018-07-25T08:30:48Z</time>
      </trkpt>
      <trkpt lat="45.95087" lon="4.74703">
        <ele>194</ele>
        <time>2018-07-25T08:30:49Z</time>
      </trkpt>
      <trkpt lat="45.95091" lon="4.74711">
        <ele>194</ele>
        <time>2018-07-25T08:30:50Z</time>
      </trkpt>
      <trkpt lat="45.95094" lon="4.74717">
        <ele>194</ele>
        <time>2018-07-25T08:30:51Z</time>
      </trkpt>
      <trkpt lat="45.95098" lon="4.74724">
        <ele>194</ele>
        <time>2018-07-25T08:30:52Z</time>
      </trkpt>
      <trkpt lat="45.95102" lon="4.7473">
        <ele>194</ele>
        <time>2018-07-25T08:30:53Z</time>
      </trkpt>
      <trkpt lat="45.95106" lon="4.74736">
        <ele>194</ele>
        <time>2018-07-25T08:30:54Z</time>
      </trkpt>
      <trkpt lat="45.95109" lon="4.74743">
        <ele>194</ele>
        <time>2018-07-25T08:30:55Z</time>
      </trkpt>
      <trkpt lat="45.9511" lon="4.7475">
        <ele>194</ele>
        <time>2018-07-25T08:30:56Z</time>
      </trkpt>
      <trkpt lat="45.95115" lon="4.74757">
        <ele>194</ele>
        <time>2018-07-25T08:30:57Z</time>
      </trkpt>
      <trkpt lat="45.95119" lon="4.74763">
        <ele>194</ele>
        <time>2018-07-25T08:30:58Z</time>
      </trkpt>
      <trkpt lat="45.95123" lon="4.74769">
        <ele>194</ele>
        <time>2018-07-25T08:30:59Z</time>
      </trkpt>
      <trkpt lat="45.95128" lon="4.74776">
        <ele>194</ele>
        <time>2018-07-25T08:31:00Z</time>
      </trkpt>
      <trkpt lat="45.95131" lon="4.74783">
        <ele>194</ele>
        <time>2018-07-25T08:31:01Z</time>
      </trkpt>
      <trkpt lat="45.95134" lon="4.74788">
        <ele>194</ele>
        <time>2018-07-25T08:31:02Z</time>
      </trkpt>
      <trkpt lat="45.95138" lon="4.74793">
        <ele>194</ele>
        <time>2018-07-25T08:31:03Z</time>
      </trkpt>
      <trkpt lat="45.95141" lon="4.748">
        <ele>194</ele>
        <time>2018-07-25T08:31:04Z</time>
      </trkpt>
      <trkpt lat="45.95147" lon="4.74809">
        <ele>194</ele>
        <time>2018-07-25T08:31:06Z</time>
      </trkpt>
      <trkpt lat="45.95149" lon="4.74814">
        <ele>194</ele>
        <time>2018-07-25T08:31:07Z</time>
      </trkpt>
      <trkpt lat="45.95152" lon="4.74819">
        <ele>194</ele>
        <time>2018-07-25T08:31:08Z</time>
      </trkpt>
      <trkpt lat="45.95158" lon="4.74824">
        <ele>194</ele>
        <time>2018-07-25T08:31:09Z</time>
      </trkpt>
      <trkpt lat="45.95163" lon="4.74829">
        <ele>194</ele>
        <time>2018-07-25T08:31:10Z</time>
      </trkpt>
      <trkpt lat="45.95164" lon="4.74833">
        <ele>194</ele>
        <time>2018-07-25T08:31:11Z</time>
      </trkpt>
      <trkpt lat="45.95165" lon="4.74835">
        <ele>194</ele>
        <time>2018-07-25T08:31:12Z</time>
      </trkpt>
      <trkpt lat="45.9517" lon="4.74843">
        <ele>194</ele>
        <time>2018-07-25T08:31:13Z</time>
      </trkpt>
      <trkpt lat="45.95176" lon="4.74852">
        <ele>194</ele>
        <time>2018-07-25T08:31:15Z</time>
      </trkpt>
      <trkpt lat="45.95178" lon="4.74857">
        <ele>194</ele>
        <time>2018-07-25T08:31:16Z</time>
      </trkpt>
      <trkpt lat="45.95182" lon="4.74862">
        <ele>194</ele>
        <time>2018-07-25T08:31:17Z</time>
      </trkpt>
      <trkpt lat="45.95185" lon="4.74868">
        <ele>194</ele>
        <time>2018-07-25T08:31:18Z</time>
      </trkpt>
      <trkpt lat="45.95188" lon="4.74873">
        <ele>194</ele>
        <time>2018-07-25T08:31:19Z</time>
      </trkpt>
      <trkpt lat="45.95193" lon="4.74879">
        <ele>194</ele>
        <time>2018-07-25T08:31:20Z</time>
      </trkpt>
      <trkpt lat="45.95196" lon="4.74886">
        <ele>194</ele>
        <time>2018-07-25T08:31:21Z</time>
      </trkpt>
      <trkpt lat="45.952" lon="4.74892">
        <ele>194</ele>
        <time>2018-07-25T08:31:22Z</time>
      </trkpt>
      <trkpt lat="45.95204" lon="4.74898">
        <ele>194</ele>
        <time>2018-07-25T08:31:23Z</time>
      </trkpt>
      <trkpt lat="45.95208" lon="4.74903">
        <ele>194</ele>
        <time>2018-07-25T08:31:24Z</time>
      </trkpt>
      <trkpt lat="45.95211" lon="4.74909">
        <ele>193</ele>
        <time>2018-07-25T08:31:25Z</time>
      </trkpt>
      <trkpt lat="45.95215" lon="4.74914">
        <ele>193</ele>
        <time>2018-07-25T08:31:26Z</time>
      </trkpt>
      <trkpt lat="45.95222" lon="4.7492">
        <ele>192</ele>
        <time>2018-07-25T08:31:27Z</time>
      </trkpt>
      <trkpt lat="45.95226" lon="4.74926">
        <ele>192</ele>
        <time>2018-07-25T08:31:28Z</time>
      </trkpt>
      <trkpt lat="45.95229" lon="4.74931">
        <ele>192</ele>
        <time>2018-07-25T08:31:29Z</time>
      </trkpt>
      <trkpt lat="45.95232" lon="4.74937">
        <ele>192</ele>
        <time>2018-07-25T08:31:30Z</time>
      </trkpt>
      <trkpt lat="45.95237" lon="4.74942">
        <ele>192</ele>
        <time>2018-07-25T08:31:31Z</time>
      </trkpt>
      <trkpt lat="45.95241" lon="4.74947">
        <ele>192</ele>
        <time>2018-07-25T08:31:32Z</time>
      </trkpt>
      <trkpt lat="45.95244" lon="4.74953">
        <ele>192</ele>
        <time>2018-07-25T08:31:33Z</time>
      </trkpt>
      <trkpt lat="45.95246" lon="4.74958">
        <ele>192</ele>
        <time>2018-07-25T08:31:34Z</time>
      </trkpt>
      <trkpt lat="45.95249" lon="4.74965">
        <ele>191</ele>
        <time>2018-07-25T08:31:35Z</time>
      </trkpt>
      <trkpt lat="45.95253" lon="4.74971">
        <ele>192</ele>
        <time>2018-07-25T08:31:36Z</time>
      </trkpt>
      <trkpt lat="45.95256" lon="4.74977">
        <ele>192</ele>
        <time>2018-07-25T08:31:37Z</time>
      </trkpt>
      <trkpt lat="45.9526" lon="4.74983">
        <ele>192</ele>
        <time>2018-07-25T08:31:38Z</time>
      </trkpt>
      <trkpt lat="45.95265" lon="4.74989">
        <ele>192</ele>
        <time>2018-07-25T08:31:39Z</time>
      </trkpt>
      <trkpt lat="45.95269" lon="4.74995">
        <ele>192</ele>
        <time>2018-07-25T08:31:40Z</time>
      </trkpt>
      <trkpt lat="45.95275" lon="4.75002">
        <ele>191</ele>
        <time>2018-07-25T08:31:41Z</time>
      </trkpt>
      <trkpt lat="45.9528" lon="4.75008">
        <ele>191</ele>
        <time>2018-07-25T08:31:42Z</time>
      </trkpt>
      <trkpt lat="45.95283" lon="4.75015">
        <ele>191</ele>
        <time>2018-07-25T08:31:43Z</time>
      </trkpt>
      <trkpt lat="45.95287" lon="4.75021">
        <ele>191</ele>
        <time>2018-07-25T08:31:44Z</time>
      </trkpt>
      <trkpt lat="45.95291" lon="4.75027">
        <ele>191</ele>
        <time>2018-07-25T08:31:45Z</time>
      </trkpt>
      <trkpt lat="45.95294" lon="4.75034">
        <ele>191</ele>
        <time>2018-07-25T08:31:46Z</time>
      </trkpt>
      <trkpt lat="45.95298" lon="4.75041">
        <ele>191</ele>
        <time>2018-07-25T08:31:47Z</time>
      </trkpt>
      <trkpt lat="45.95302" lon="4.75047">
        <ele>191</ele>
        <time>2018-07-25T08:31:48Z</time>
      </trkpt>
      <trkpt lat="45.95306" lon="4.75054">
        <ele>192</ele>
        <time>2018-07-25T08:31:49Z</time>
      </trkpt>
      <trkpt lat="45.9531" lon="4.7506">
        <ele>192</ele>
        <time>2018-07-25T08:31:50Z</time>
      </trkpt>
      <trkpt lat="45.95315" lon="4.75065">
        <ele>192</ele>
        <time>2018-07-25T08:31:51Z</time>
      </trkpt>
      <trkpt lat="45.95319" lon="4.75072">
        <ele>192</ele>
        <time>2018-07-25T08:31:52Z</time>
      </trkpt>
      <trkpt lat="45.95323" lon="4.75079">
        <ele>192</ele>
        <time>2018-07-25T08:31:53Z</time>
      </trkpt>
      <trkpt lat="45.95327" lon="4.75085">
        <ele>192</ele>
        <time>2018-07-25T08:31:54Z</time>
      </trkpt>
      <trkpt lat="45.95331" lon="4.75092">
        <ele>191</ele>
        <time>2018-07-25T08:31:55Z</time>
      </trkpt>
      <trkpt lat="45.95335" lon="4.75099">
        <ele>192</ele>
        <time>2018-07-25T08:31:56Z</time>
      </trkpt>
      <trkpt lat="45.9534" lon="4.75105">
        <ele>192</ele>
        <time>2018-07-25T08:31:57Z</time>
      </trkpt>
      <trkpt lat="45.95343" lon="4.75111">
        <ele>192</ele>
        <time>2018-07-25T08:31:58Z</time>
      </trkpt>
      <trkpt lat="45.95347" lon="4.75117">
        <ele>191</ele>
        <time>2018-07-25T08:31:59Z</time>
      </trkpt>
      <trkpt lat="45.95352" lon="4.75123">
        <ele>191</ele>
        <time>2018-07-25T08:32:00Z</time>
      </trkpt>
      <trkpt lat="45.95356" lon="4.7513">
        <ele>191</ele>
        <time>2018-07-25T08:32:01Z</time>
      </trkpt>
      <trkpt lat="45.95361" lon="4.75137">
        <ele>191</ele>
        <time>2018-07-25T08:32:02Z</time>
      </trkpt>
      <trkpt lat="45.95364" lon="4.75144">
        <ele>191</ele>
        <time>2018-07-25T08:32:03Z</time>
      </trkpt>
      <trkpt lat="45.95367" lon="4.7515">
        <ele>191</ele>
        <time>2018-07-25T08:32:04Z</time>
      </trkpt>
      <trkpt lat="45.95371" lon="4.75156">
        <ele>191</ele>
        <time>2018-07-25T08:32:05Z</time>
      </trkpt>
      <trkpt lat="45.95375" lon="4.75161">
        <ele>191</ele>
        <time>2018-07-25T08:32:06Z</time>
      </trkpt>
      <trkpt lat="45.95379" lon="4.75168">
        <ele>189</ele>
        <time>2018-07-25T08:32:07Z</time>
      </trkpt>
      <trkpt lat="45.95382" lon="4.75174">
        <ele>189</ele>
        <time>2018-07-25T08:32:08Z</time>
      </trkpt>
      <trkpt lat="45.95386" lon="4.7518">
        <ele>189</ele>
        <time>2018-07-25T08:32:09Z</time>
      </trkpt>
      <trkpt lat="45.95389" lon="4.75188">
        <ele>189</ele>
        <time>2018-07-25T08:32:10Z</time>
      </trkpt>
      <trkpt lat="45.95393" lon="4.75195">
        <ele>189</ele>
        <time>2018-07-25T08:32:11Z</time>
      </trkpt>
      <trkpt lat="45.95397" lon="4.75201">
        <ele>189</ele>
        <time>2018-07-25T08:32:12Z</time>
      </trkpt>
      <trkpt lat="45.95401" lon="4.75208">
        <ele>189</ele>
        <time>2018-07-25T08:32:13Z</time>
      </trkpt>
      <trkpt lat="45.95404" lon="4.75215">
        <ele>189</ele>
        <time>2018-07-25T08:32:14Z</time>
      </trkpt>
      <trkpt lat="45.95408" lon="4.75223">
        <ele>188</ele>
        <time>2018-07-25T08:32:15Z</time>
      </trkpt>
      <trkpt lat="45.95412" lon="4.7523">
        <ele>189</ele>
        <time>2018-07-25T08:32:16Z</time>
      </trkpt>
      <trkpt lat="45.95416" lon="4.75238">
        <ele>189</ele>
        <time>2018-07-25T08:32:17Z</time>
      </trkpt>
      <trkpt lat="45.9542" lon="4.75245">
        <ele>190</ele>
        <time>2018-07-25T08:32:18Z</time>
      </trkpt>
      <trkpt lat="45.95423" lon="4.75254">
        <ele>189</ele>
        <time>2018-07-25T08:32:19Z</time>
      </trkpt>
      <trkpt lat="45.95427" lon="4.75262">
        <ele>189</ele>
        <time>2018-07-25T08:32:20Z</time>
      </trkpt>
      <trkpt lat="45.95431" lon="4.75268">
        <ele>189</ele>
        <time>2018-07-25T08:32:21Z</time>
      </trkpt>
      <trkpt lat="45.95436" lon="4.75276">
        <ele>188</ele>
        <time>2018-07-25T08:32:22Z</time>
      </trkpt>
      <trkpt lat="45.9544" lon="4.75284">
        <ele>188</ele>
        <time>2018-07-25T08:32:23Z</time>
      </trkpt>
      <trkpt lat="45.95445" lon="4.75292">
        <ele>188</ele>
        <time>2018-07-25T08:32:24Z</time>
      </trkpt>
      <trkpt lat="45.95449" lon="4.753">
        <ele>188</ele>
        <time>2018-07-25T08:32:25Z</time>
      </trkpt>
      <trkpt lat="45.95455" lon="4.75306">
        <ele>188</ele>
        <time>2018-07-25T08:32:26Z</time>
      </trkpt>
      <trkpt lat="45.95459" lon="4.75313">
        <ele>188</ele>
        <time>2018-07-25T08:32:27Z</time>
      </trkpt>
      <trkpt lat="45.95465" lon="4.75321">
        <ele>188</ele>
        <time>2018-07-25T08:32:28Z</time>
      </trkpt>
      <trkpt lat="45.95469" lon="4.75329">
        <ele>188</ele>
        <time>2018-07-25T08:32:29Z</time>
      </trkpt>
      <trkpt lat="45.95473" lon="4.75337">
        <ele>186</ele>
        <time>2018-07-25T08:32:30Z</time>
      </trkpt>
      <trkpt lat="45.95476" lon="4.75346">
        <ele>186</ele>
        <time>2018-07-25T08:32:31Z</time>
      </trkpt>
      <trkpt lat="45.9548" lon="4.75353">
        <ele>186</ele>
        <time>2018-07-25T08:32:32Z</time>
      </trkpt>
      <trkpt lat="45.95485" lon="4.75361">
        <ele>186</ele>
        <time>2018-07-25T08:32:33Z</time>
      </trkpt>
      <trkpt lat="45.95488" lon="4.75369">
        <ele>185</ele>
        <time>2018-07-25T08:32:34Z</time>
      </trkpt>
      <trkpt lat="45.95492" lon="4.75377">
        <ele>185</ele>
        <time>2018-07-25T08:32:35Z</time>
      </trkpt>
      <trkpt lat="45.95496" lon="4.75386">
        <ele>185</ele>
        <time>2018-07-25T08:32:36Z</time>
      </trkpt>
      <trkpt lat="45.95499" lon="4.75395">
        <ele>185</ele>
        <time>2018-07-25T08:32:37Z</time>
      </trkpt>
      <trkpt lat="45.95502" lon="4.75404">
        <ele>187</ele>
        <time>2018-07-25T08:32:38Z</time>
      </trkpt>
      <trkpt lat="45.95504" lon="4.75413">
        <ele>186</ele>
        <time>2018-07-25T08:32:39Z</time>
      </trkpt>
      <trkpt lat="45.95506" lon="4.75422">
        <ele>186</ele>
        <time>2018-07-25T08:32:40Z</time>
      </trkpt>
      <trkpt lat="45.95508" lon="4.75432">
        <ele>186</ele>
        <time>2018-07-25T08:32:41Z</time>
      </trkpt>
      <trkpt lat="45.95509" lon="4.75443">
        <ele>186</ele>
        <time>2018-07-25T08:32:42Z</time>
      </trkpt>
      <trkpt lat="45.95509" lon="4.75452">
        <ele>187</ele>
        <time>2018-07-25T08:32:43Z</time>
      </trkpt>
      <trkpt lat="45.95508" lon="4.75463">
        <ele>186</ele>
        <time>2018-07-25T08:32:44Z</time>
      </trkpt>
      <trkpt lat="45.95508" lon="4.75473">
        <ele>186</ele>
        <time>2018-07-25T08:32:45Z</time>
      </trkpt>
      <trkpt lat="45.95508" lon="4.75483">
        <ele>186</ele>
        <time>2018-07-25T08:32:46Z</time>
      </trkpt>
      <trkpt lat="45.95509" lon="4.75494">
        <ele>185</ele>
        <time>2018-07-25T08:32:47Z</time>
      </trkpt>
      <trkpt lat="45.95515" lon="4.75496">
        <ele>186</ele>
        <time>2018-07-25T08:32:48Z</time>
      </trkpt>
      <trkpt lat="45.95522" lon="4.755">
        <ele>186</ele>
        <time>2018-07-25T08:32:49Z</time>
      </trkpt>
      <trkpt lat="45.95525" lon="4.75505">
        <ele>185</ele>
        <time>2018-07-25T08:32:50Z</time>
      </trkpt>
      <trkpt lat="45.9553" lon="4.75509">
        <ele>185</ele>
        <time>2018-07-25T08:32:51Z</time>
      </trkpt>
      <trkpt lat="45.95534" lon="4.75516">
        <ele>186</ele>
        <time>2018-07-25T08:32:52Z</time>
      </trkpt>
      <trkpt lat="45.95539" lon="4.75521">
        <ele>186</ele>
        <time>2018-07-25T08:32:53Z</time>
      </trkpt>
      <trkpt lat="45.95545" lon="4.75526">
        <ele>186</ele>
        <time>2018-07-25T08:32:54Z</time>
      </trkpt>
      <trkpt lat="45.95551" lon="4.75531">
        <ele>186</ele>
        <time>2018-07-25T08:32:55Z</time>
      </trkpt>
      <trkpt lat="45.95556" lon="4.75536">
        <ele>186</ele>
        <time>2018-07-25T08:32:56Z</time>
      </trkpt>
      <trkpt lat="45.95561" lon="4.75541">
        <ele>186</ele>
        <time>2018-07-25T08:32:57Z</time>
      </trkpt>
      <trkpt lat="45.95567" lon="4.75547">
        <ele>186</ele>
        <time>2018-07-25T08:32:58Z</time>
      </trkpt>
      <trkpt lat="45.95571" lon="4.75552">
        <ele>186</ele>
        <time>2018-07-25T08:32:59Z</time>
      </trkpt>
      <trkpt lat="45.95577" lon="4.75557">
        <ele>186</ele>
        <time>2018-07-25T08:33:00Z</time>
      </trkpt>
      <trkpt lat="45.95582" lon="4.75564">
        <ele>186</ele>
        <time>2018-07-25T08:33:01Z</time>
      </trkpt>
      <trkpt lat="45.95587" lon="4.75569">
        <ele>188</ele>
        <time>2018-07-25T08:33:02Z</time>
      </trkpt>
      <trkpt lat="45.95591" lon="4.75576">
        <ele>187</ele>
        <time>2018-07-25T08:33:03Z</time>
      </trkpt>
      <trkpt lat="45.95594" lon="4.75583">
        <ele>187</ele>
        <time>2018-07-25T08:33:04Z</time>
      </trkpt>
      <trkpt lat="45.95596" lon="4.7559">
        <ele>187</ele>
        <time>2018-07-25T08:33:05Z</time>
      </trkpt>
      <trkpt lat="45.95599" lon="4.75596">
        <ele>187</ele>
        <time>2018-07-25T08:33:06Z</time>
      </trkpt>
      <trkpt lat="45.95601" lon="4.75603">
        <ele>187</ele>
        <time>2018-07-25T08:33:07Z</time>
      </trkpt>
      <trkpt lat="45.95604" lon="4.75608">
        <ele>187</ele>
        <time>2018-07-25T08:33:08Z</time>
      </trkpt>
      <trkpt lat="45.95606" lon="4.75615">
        <ele>188</ele>
        <time>2018-07-25T08:33:09Z</time>
      </trkpt>
      <trkpt lat="45.9561" lon="4.75623">
        <ele>188</ele>
        <time>2018-07-25T08:33:10Z</time>
      </trkpt>
      <trkpt lat="45.95611" lon="4.7563">
        <ele>188</ele>
        <time>2018-07-25T08:33:11Z</time>
      </trkpt>
      <trkpt lat="45.95614" lon="4.75637">
        <ele>188</ele>
        <time>2018-07-25T08:33:12Z</time>
      </trkpt>
      <trkpt lat="45.95616" lon="4.75644">
        <ele>188</ele>
        <time>2018-07-25T08:33:13Z</time>
      </trkpt>
      <trkpt lat="45.95618" lon="4.75652">
        <ele>188</ele>
        <time>2018-07-25T08:33:14Z</time>
      </trkpt>
      <trkpt lat="45.95619" lon="4.75661">
        <ele>188</ele>
        <time>2018-07-25T08:33:15Z</time>
      </trkpt>
      <trkpt lat="45.9562" lon="4.7567">
        <ele>187</ele>
        <time>2018-07-25T08:33:16Z</time>
      </trkpt>
      <trkpt lat="45.95624" lon="4.75676">
        <ele>187</ele>
        <time>2018-07-25T08:33:17Z</time>
      </trkpt>
      <trkpt lat="45.95626" lon="4.75684">
        <ele>187</ele>
        <time>2018-07-25T08:33:18Z</time>
      </trkpt>
      <trkpt lat="45.95627" lon="4.75692">
        <ele>187</ele>
        <time>2018-07-25T08:33:19Z</time>
      </trkpt>
      <trkpt lat="45.95628" lon="4.75701">
        <ele>187</ele>
        <time>2018-07-25T08:33:20Z</time>
      </trkpt>
      <trkpt lat="45.95628" lon="4.7571">
        <ele>187</ele>
        <time>2018-07-25T08:33:21Z</time>
      </trkpt>
      <trkpt lat="45.9563" lon="4.75719">
        <ele>187</ele>
        <time>2018-07-25T08:33:22Z</time>
      </trkpt>
      <trkpt lat="45.95631" lon="4.75727">
        <ele>187</ele>
        <time>2018-07-25T08:33:23Z</time>
      </trkpt>
      <trkpt lat="45.95631" lon="4.75737">
        <ele>187</ele>
        <time>2018-07-25T08:33:24Z</time>
      </trkpt>
      <trkpt lat="45.95632" lon="4.75748">
        <ele>187</ele>
        <time>2018-07-25T08:33:25Z</time>
      </trkpt>
      <trkpt lat="45.95633" lon="4.75757">
        <ele>186</ele>
        <time>2018-07-25T08:33:26Z</time>
      </trkpt>
      <trkpt lat="45.95634" lon="4.75767">
        <ele>186</ele>
        <time>2018-07-25T08:33:27Z</time>
      </trkpt>
      <trkpt lat="45.95636" lon="4.75776">
        <ele>185</ele>
        <time>2018-07-25T08:33:28Z</time>
      </trkpt>
      <trkpt lat="45.95637" lon="4.75786">
        <ele>185</ele>
        <time>2018-07-25T08:33:29Z</time>
      </trkpt>
      <trkpt lat="45.95638" lon="4.75794">
        <ele>185</ele>
        <time>2018-07-25T08:33:30Z</time>
      </trkpt>
      <trkpt lat="45.95639" lon="4.75803">
        <ele>185</ele>
        <time>2018-07-25T08:33:31Z</time>
      </trkpt>
      <trkpt lat="45.95641" lon="4.75811">
        <ele>185</ele>
        <time>2018-07-25T08:33:32Z</time>
      </trkpt>
      <trkpt lat="45.95644" lon="4.75819">
        <ele>185</ele>
        <time>2018-07-25T08:33:33Z</time>
      </trkpt>
      <trkpt lat="45.95646" lon="4.75828">
        <ele>185</ele>
        <time>2018-07-25T08:33:34Z</time>
      </trkpt>
      <trkpt lat="45.95648" lon="4.75836">
        <ele>185</ele>
        <time>2018-07-25T08:33:35Z</time>
      </trkpt>
      <trkpt lat="45.9565" lon="4.75845">
        <ele>185</ele>
        <time>2018-07-25T08:33:36Z</time>
      </trkpt>
      <trkpt lat="45.95654" lon="4.75853">
        <ele>184</ele>
        <time>2018-07-25T08:33:37Z</time>
      </trkpt>
      <trkpt lat="45.95657" lon="4.75862">
        <ele>184</ele>
        <time>2018-07-25T08:33:38Z</time>
      </trkpt>
      <trkpt lat="45.95659" lon="4.75871">
        <ele>184</ele>
        <time>2018-07-25T08:33:39Z</time>
      </trkpt>
      <trkpt lat="45.95661" lon="4.7588">
        <ele>184</ele>
        <time>2018-07-25T08:33:40Z</time>
      </trkpt>
      <trkpt lat="45.95666" lon="4.75887">
        <ele>184</ele>
        <time>2018-07-25T08:33:41Z</time>
      </trkpt>
      <trkpt lat="45.95669" lon="4.75896">
        <ele>186</ele>
        <time>2018-07-25T08:33:42Z</time>
      </trkpt>
      <trkpt lat="45.95672" lon="4.75904">
        <ele>185</ele>
        <time>2018-07-25T08:33:43Z</time>
      </trkpt>
      <trkpt lat="45.95675" lon="4.75913">
        <ele>185</ele>
        <time>2018-07-25T08:33:44Z</time>
      </trkpt>
      <trkpt lat="45.95679" lon="4.75921">
        <ele>185</ele>
        <time>2018-07-25T08:33:45Z</time>
      </trkpt>
      <trkpt lat="45.95682" lon="4.75928">
        <ele>185</ele>
        <time>2018-07-25T08:33:46Z</time>
      </trkpt>
      <trkpt lat="45.95686" lon="4.75935">
        <ele>185</ele>
        <time>2018-07-25T08:33:47Z</time>
      </trkpt>
      <trkpt lat="45.95689" lon="4.75943">
        <ele>185</ele>
        <time>2018-07-25T08:33:48Z</time>
      </trkpt>
      <trkpt lat="45.95693" lon="4.75951">
        <ele>185</ele>
        <time>2018-07-25T08:33:49Z</time>
      </trkpt>
      <trkpt lat="45.95697" lon="4.75958">
        <ele>185</ele>
        <time>2018-07-25T08:33:50Z</time>
      </trkpt>
      <trkpt lat="45.95701" lon="4.75966">
        <ele>185</ele>
        <time>2018-07-25T08:33:51Z</time>
      </trkpt>
      <trkpt lat="45.95704" lon="4.75975">
        <ele>185</ele>
        <time>2018-07-25T08:33:52Z</time>
      </trkpt>
      <trkpt lat="45.95707" lon="4.75983">
        <ele>185</ele>
        <time>2018-07-25T08:33:53Z</time>
      </trkpt>
      <trkpt lat="45.95711" lon="4.7599">
        <ele>185</ele>
        <time>2018-07-25T08:33:54Z</time>
      </trkpt>
      <trkpt lat="45.95715" lon="4.75997">
        <ele>185</ele>
        <time>2018-07-25T08:33:55Z</time>
      </trkpt>
      <trkpt lat="45.95719" lon="4.76004">
        <ele>184</ele>
        <time>2018-07-25T08:33:56Z</time>
      </trkpt>
      <trkpt lat="45.95722" lon="4.76011">
        <ele>185</ele>
        <time>2018-07-25T08:33:57Z</time>
      </trkpt>
      <trkpt lat="45.95725" lon="4.7602">
        <ele>185</ele>
        <time>2018-07-25T08:33:58Z</time>
      </trkpt>
      <trkpt lat="45.95729" lon="4.76027">
        <ele>185</ele>
        <time>2018-07-25T08:33:59Z</time>
      </trkpt>
      <trkpt lat="45.95733" lon="4.76034">
        <ele>184</ele>
        <time>2018-07-25T08:34:00Z</time>
      </trkpt>
      <trkpt lat="45.95737" lon="4.7604">
        <ele>184</ele>
        <time>2018-07-25T08:34:01Z</time>
      </trkpt>
      <trkpt lat="45.9574" lon="4.76046">
        <ele>184</ele>
        <time>2018-07-25T08:34:02Z</time>
      </trkpt>
      <trkpt lat="45.95744" lon="4.76054">
        <ele>184</ele>
        <time>2018-07-25T08:34:03Z</time>
      </trkpt>
      <trkpt lat="45.95747" lon="4.76061">
        <ele>185</ele>
        <time>2018-07-25T08:34:04Z</time>
      </trkpt>
      <trkpt lat="45.95749" lon="4.76069">
        <ele>185</ele>
        <time>2018-07-25T08:34:05Z</time>
      </trkpt>
      <trkpt lat="45.95751" lon="4.76077">
        <ele>186</ele>
        <time>2018-07-25T08:34:06Z</time>
      </trkpt>
      <trkpt lat="45.95752" lon="4.76084">
        <ele>185</ele>
        <time>2018-07-25T08:34:07Z</time>
      </trkpt>
      <trkpt lat="45.95756" lon="4.76091">
        <ele>185</ele>
        <time>2018-07-25T08:34:08Z</time>
      </trkpt>
      <trkpt lat="45.95757" lon="4.76099">
        <ele>186</ele>
        <time>2018-07-25T08:34:09Z</time>
      </trkpt>
      <trkpt lat="45.95759" lon="4.76107">
        <ele>186</ele>
        <time>2018-07-25T08:34:10Z</time>
      </trkpt>
      <trkpt lat="45.95759" lon="4.76116">
        <ele>186</ele>
        <time>2018-07-25T08:34:11Z</time>
      </trkpt>
      <trkpt lat="45.95761" lon="4.76124">
        <ele>186</ele>
        <time>2018-07-25T08:34:12Z</time>
      </trkpt>
      <trkpt lat="45.95761" lon="4.76133">
        <ele>186</ele>
        <time>2018-07-25T08:34:13Z</time>
      </trkpt>
      <trkpt lat="45.95762" lon="4.76142">
        <ele>186</ele>
        <time>2018-07-25T08:34:14Z</time>
      </trkpt>
      <trkpt lat="45.95762" lon="4.7615">
        <ele>186</ele>
        <time>2018-07-25T08:34:15Z</time>
      </trkpt>
      <trkpt lat="45.95762" lon="4.76159">
        <ele>186</ele>
        <time>2018-07-25T08:34:16Z</time>
      </trkpt>
      <trkpt lat="45.95762" lon="4.76167">
        <ele>185</ele>
        <time>2018-07-25T08:34:17Z</time>
      </trkpt>
      <trkpt lat="45.95762" lon="4.76175">
        <ele>185</ele>
        <time>2018-07-25T08:34:18Z</time>
      </trkpt>
      <trkpt lat="45.95763" lon="4.76183">
        <ele>186</ele>
        <time>2018-07-25T08:34:19Z</time>
      </trkpt>
      <trkpt lat="45.95763" lon="4.7619">
        <ele>186</ele>
        <time>2018-07-25T08:34:20Z</time>
      </trkpt>
      <trkpt lat="45.95763" lon="4.76199">
        <ele>186</ele>
        <time>2018-07-25T08:34:21Z</time>
      </trkpt>
      <trkpt lat="45.95763" lon="4.76206">
        <ele>186</ele>
        <time>2018-07-25T08:34:22Z</time>
      </trkpt>
      <trkpt lat="45.95764" lon="4.76214">
        <ele>186</ele>
        <time>2018-07-25T08:34:23Z</time>
      </trkpt>
      <trkpt lat="45.95763" lon="4.76222">
        <ele>186</ele>
        <time>2018-07-25T08:34:24Z</time>
      </trkpt>
      <trkpt lat="45.95763" lon="4.76229">
        <ele>186</ele>
        <time>2018-07-25T08:34:25Z</time>
      </trkpt>
      <trkpt lat="45.95762" lon="4.76237">
        <ele>186</ele>
        <time>2018-07-25T08:34:26Z</time>
      </trkpt>
      <trkpt lat="45.95764" lon="4.76242">
        <ele>185</ele>
        <time>2018-07-25T08:34:27Z</time>
      </trkpt>
      <trkpt lat="45.95765" lon="4.7625">
        <ele>185</ele>
        <time>2018-07-25T08:34:28Z</time>
      </trkpt>
      <trkpt lat="45.95766" lon="4.76257">
        <ele>185</ele>
        <time>2018-07-25T08:34:29Z</time>
      </trkpt>
      <trkpt lat="45.95767" lon="4.76266">
        <ele>185</ele>
        <time>2018-07-25T08:34:30Z</time>
      </trkpt>
      <trkpt lat="45.95766" lon="4.76274">
        <ele>186</ele>
        <time>2018-07-25T08:34:31Z</time>
      </trkpt>
      <trkpt lat="45.95767" lon="4.76281">
        <ele>186</ele>
        <time>2018-07-25T08:34:32Z</time>
      </trkpt>
      <trkpt lat="45.95768" lon="4.76289">
        <ele>186</ele>
        <time>2018-07-25T08:34:33Z</time>
      </trkpt>
      <trkpt lat="45.95767" lon="4.76296">
        <ele>186</ele>
        <time>2018-07-25T08:34:34Z</time>
      </trkpt>
      <trkpt lat="45.95768" lon="4.76304">
        <ele>186</ele>
        <time>2018-07-25T08:34:35Z</time>
      </trkpt>
      <trkpt lat="45.95768" lon="4.76312">
        <ele>185</ele>
        <time>2018-07-25T08:34:36Z</time>
      </trkpt>
      <trkpt lat="45.95769" lon="4.76322">
        <ele>185</ele>
        <time>2018-07-25T08:34:37Z</time>
      </trkpt>
      <trkpt lat="45.95769" lon="4.7633">
        <ele>185</ele>
        <time>2018-07-25T08:34:38Z</time>
      </trkpt>
      <trkpt lat="45.9577" lon="4.76338">
        <ele>186</ele>
        <time>2018-07-25T08:34:39Z</time>
      </trkpt>
      <trkpt lat="45.9577" lon="4.76346">
        <ele>186</ele>
        <time>2018-07-25T08:34:40Z</time>
      </trkpt>
      <trkpt lat="45.95772" lon="4.76353">
        <ele>186</ele>
        <time>2018-07-25T08:34:41Z</time>
      </trkpt>
      <trkpt lat="45.95772" lon="4.76362">
        <ele>186</ele>
        <time>2018-07-25T08:34:42Z</time>
      </trkpt>
      <trkpt lat="45.95773" lon="4.7637">
        <ele>186</ele>
        <time>2018-07-25T08:34:43Z</time>
      </trkpt>
      <trkpt lat="45.95774" lon="4.76378">
        <ele>186</ele>
        <time>2018-07-25T08:34:44Z</time>
      </trkpt>
      <trkpt lat="45.95774" lon="4.76387">
        <ele>186</ele>
        <time>2018-07-25T08:34:45Z</time>
      </trkpt>
      <trkpt lat="45.95774" lon="4.76394">
        <ele>186</ele>
        <time>2018-07-25T08:34:46Z</time>
      </trkpt>
      <trkpt lat="45.95774" lon="4.76402">
        <ele>186</ele>
        <time>2018-07-25T08:34:47Z</time>
      </trkpt>
      <trkpt lat="45.95776" lon="4.76411">
        <ele>186</ele>
        <time>2018-07-25T08:34:48Z</time>
      </trkpt>
      <trkpt lat="45.95777" lon="4.76419">
        <ele>186</ele>
        <time>2018-07-25T08:34:49Z</time>
      </trkpt>
      <trkpt lat="45.95777" lon="4.76428">
        <ele>186</ele>
        <time>2018-07-25T08:34:50Z</time>
      </trkpt>
      <trkpt lat="45.95778" lon="4.76436">
        <ele>186</ele>
        <time>2018-07-25T08:34:51Z</time>
      </trkpt>
      <trkpt lat="45.95779" lon="4.76444">
        <ele>186</ele>
        <time>2018-07-25T08:34:52Z</time>
      </trkpt>
      <trkpt lat="45.95781" lon="4.76452">
        <ele>186</ele>
        <time>2018-07-25T08:34:53Z</time>
      </trkpt>
      <trkpt lat="45.95781" lon="4.76459">
        <ele>186</ele>
        <time>2018-07-25T08:34:54Z</time>
      </trkpt>
      <trkpt lat="45.95782" lon="4.76467">
        <ele>186</ele>
        <time>2018-07-25T08:34:55Z</time>
      </trkpt>
      <trkpt lat="45.95783" lon="4.76474">
        <ele>186</ele>
        <time>2018-07-25T08:34:56Z</time>
      </trkpt>
      <trkpt lat="45.95784" lon="4.76482">
        <ele>186</ele>
        <time>2018-07-25T08:34:57Z</time>
      </trkpt>
      <trkpt lat="45.95785" lon="4.76489">
        <ele>186</ele>
        <time>2018-07-25T08:34:58Z</time>
      </trkpt>
      <trkpt lat="45.95786" lon="4.76497">
        <ele>186</ele>
        <time>2018-07-25T08:34:59Z</time>
      </trkpt>
      <trkpt lat="45.95788" lon="4.76505">
        <ele>187</ele>
        <time>2018-07-25T08:35:00Z</time>
      </trkpt>
      <trkpt lat="45.95789" lon="4.76513">
        <ele>187</ele>
        <time>2018-07-25T08:35:01Z</time>
      </trkpt>
      <trkpt lat="45.95791" lon="4.76521">
        <ele>187</ele>
        <time>2018-07-25T08:35:02Z</time>
      </trkpt>
      <trkpt lat="45.95792" lon="4.7653">
        <ele>187</ele>
        <time>2018-07-25T08:35:03Z</time>
      </trkpt>
      <trkpt lat="45.95794" lon="4.76537">
        <ele>187</ele>
        <time>2018-07-25T08:35:04Z</time>
      </trkpt>
      <trkpt lat="45.95795" lon="4.76544">
        <ele>187</ele>
        <time>2018-07-25T08:35:05Z</time>
      </trkpt>
      <trkpt lat="45.95796" lon="4.76552">
        <ele>187</ele>
        <time>2018-07-25T08:35:06Z</time>
      </trkpt>
      <trkpt lat="45.95795" lon="4.76562">
        <ele>187</ele>
        <time>2018-07-25T08:35:07Z</time>
      </trkpt>
      <trkpt lat="45.95797" lon="4.7657">
        <ele>187</ele>
        <time>2018-07-25T08:35:08Z</time>
      </trkpt>
      <trkpt lat="45.958" lon="4.76576">
        <ele>187</ele>
        <time>2018-07-25T08:35:09Z</time>
      </trkpt>
      <trkpt lat="45.95801" lon="4.76584">
        <ele>187</ele>
        <time>2018-07-25T08:35:10Z</time>
      </trkpt>
      <trkpt lat="45.95802" lon="4.76591">
        <ele>187</ele>
        <time>2018-07-25T08:35:11Z</time>
      </trkpt>
      <trkpt lat="45.95803" lon="4.76599">
        <ele>187</ele>
        <time>2018-07-25T08:35:12Z</time>
      </trkpt>
      <trkpt lat="45.95804" lon="4.76607">
        <ele>188</ele>
        <time>2018-07-25T08:35:13Z</time>
      </trkpt>
      <trkpt lat="45.95805" lon="4.76615">
        <ele>188</ele>
        <time>2018-07-25T08:35:14Z</time>
      </trkpt>
      <trkpt lat="45.95807" lon="4.76621">
        <ele>188</ele>
        <time>2018-07-25T08:35:15Z</time>
      </trkpt>
      <trkpt lat="45.95808" lon="4.76629">
        <ele>188</ele>
        <time>2018-07-25T08:35:16Z</time>
      </trkpt>
      <trkpt lat="45.9581" lon="4.76638">
        <ele>188</ele>
        <time>2018-07-25T08:35:17Z</time>
      </trkpt>
      <trkpt lat="45.95811" lon="4.76647">
        <ele>188</ele>
        <time>2018-07-25T08:35:18Z</time>
      </trkpt>
      <trkpt lat="45.95812" lon="4.76655">
        <ele>188</ele>
        <time>2018-07-25T08:35:19Z</time>
      </trkpt>
      <trkpt lat="45.95814" lon="4.76662">
        <ele>188</ele>
        <time>2018-07-25T08:35:20Z</time>
      </trkpt>
      <trkpt lat="45.95816" lon="4.7667">
        <ele>188</ele>
        <time>2018-07-25T08:35:21Z</time>
      </trkpt>
      <trkpt lat="45.95818" lon="4.76679">
        <ele>189</ele>
        <time>2018-07-25T08:35:22Z</time>
      </trkpt>
      <trkpt lat="45.95819" lon="4.76687">
        <ele>189</ele>
        <time>2018-07-25T08:35:23Z</time>
      </trkpt>
      <trkpt lat="45.95819" lon="4.76694">
        <ele>189</ele>
        <time>2018-07-25T08:35:24Z</time>
      </trkpt>
      <trkpt lat="45.9582" lon="4.76701">
        <ele>189</ele>
        <time>2018-07-25T08:35:25Z</time>
      </trkpt>
      <trkpt lat="45.95822" lon="4.76709">
        <ele>189</ele>
        <time>2018-07-25T08:35:26Z</time>
      </trkpt>
      <trkpt lat="45.95821" lon="4.76718">
        <ele>189</ele>
        <time>2018-07-25T08:35:27Z</time>
      </trkpt>
      <trkpt lat="45.95823" lon="4.76726">
        <ele>190</ele>
        <time>2018-07-25T08:35:28Z</time>
      </trkpt>
      <trkpt lat="45.95823" lon="4.76734">
        <ele>190</ele>
        <time>2018-07-25T08:35:29Z</time>
      </trkpt>
      <trkpt lat="45.95825" lon="4.76742">
        <ele>190</ele>
        <time>2018-07-25T08:35:30Z</time>
      </trkpt>
      <trkpt lat="45.95826" lon="4.76748">
        <ele>190</ele>
        <time>2018-07-25T08:35:31Z</time>
      </trkpt>
      <trkpt lat="45.95827" lon="4.76756">
        <ele>191</ele>
        <time>2018-07-25T08:35:32Z</time>
      </trkpt>
      <trkpt lat="45.95827" lon="4.76765">
        <ele>190</ele>
        <time>2018-07-25T08:35:33Z</time>
      </trkpt>
      <trkpt lat="45.95828" lon="4.76771">
        <ele>190</ele>
        <time>2018-07-25T08:35:34Z</time>
      </trkpt>
      <trkpt lat="45.95829" lon="4.76779">
        <ele>190</ele>
        <time>2018-07-25T08:35:35Z</time>
      </trkpt>
      <trkpt lat="45.95829" lon="4.76787">
        <ele>190</ele>
        <time>2018-07-25T08:35:36Z</time>
      </trkpt>
      <trkpt lat="45.95829" lon="4.76795">
        <ele>190</ele>
        <time>2018-07-25T08:35:37Z</time>
      </trkpt>
      <trkpt lat="45.9583" lon="4.76803">
        <ele>190</ele>
        <time>2018-07-25T08:35:38Z</time>
      </trkpt>
      <trkpt lat="45.9583" lon="4.76812">
        <ele>190</ele>
        <time>2018-07-25T08:35:39Z</time>
      </trkpt>
      <trkpt lat="45.95829" lon="4.7682">
        <ele>190</ele>
        <time>2018-07-25T08:35:40Z</time>
      </trkpt>
      <trkpt lat="45.95828" lon="4.76829">
        <ele>190</ele>
        <time>2018-07-25T08:35:41Z</time>
      </trkpt>
      <trkpt lat="45.95828" lon="4.76836">
        <ele>190</ele>
        <time>2018-07-25T08:35:42Z</time>
      </trkpt>
      <trkpt lat="45.95827" lon="4.76845">
        <ele>190</ele>
        <time>2018-07-25T08:35:43Z</time>
      </trkpt>
      <trkpt lat="45.95824" lon="4.76853">
        <ele>189</ele>
        <time>2018-07-25T08:35:44Z</time>
      </trkpt>
      <trkpt lat="45.95823" lon="4.7686">
        <ele>189</ele>
        <time>2018-07-25T08:35:45Z</time>
      </trkpt>
      <trkpt lat="45.9582" lon="4.76866">
        <ele>189</ele>
        <time>2018-07-25T08:35:46Z</time>
      </trkpt>
      <trkpt lat="45.95817" lon="4.76876">
        <ele>189</ele>
        <time>2018-07-25T08:35:50Z</time>
      </trkpt>
      <trkpt lat="45.95818" lon="4.76878">
        <ele>189</ele>
        <time>2018-07-25T08:35:51Z</time>
      </trkpt>
      <trkpt lat="45.95824" lon="4.76879">
        <ele>189</ele>
        <time>2018-07-25T08:35:56Z</time>
      </trkpt>
      <trkpt lat="45.95826" lon="4.76871">
        <ele>189</ele>
        <time>2018-07-25T08:35:57Z</time>
      </trkpt>
      <trkpt lat="45.95827" lon="4.7686">
        <ele>189</ele>
        <time>2018-07-25T08:35:59Z</time>
      </trkpt>
      <trkpt lat="45.95828" lon="4.76854">
        <ele>189</ele>
        <time>2018-07-25T08:36:00Z</time>
      </trkpt>
      <trkpt lat="45.9583" lon="4.76844">
        <ele>190</ele>
        <time>2018-07-25T08:36:01Z</time>
      </trkpt>
      <trkpt lat="45.95831" lon="4.76838">
        <ele>190</ele>
        <time>2018-07-25T08:36:02Z</time>
      </trkpt>
      <trkpt lat="45.95832" lon="4.76832">
        <ele>190</ele>
        <time>2018-07-25T08:36:03Z</time>
      </trkpt>
      <trkpt lat="45.95834" lon="4.76824">
        <ele>190</ele>
        <time>2018-07-25T08:36:04Z</time>
      </trkpt>
      <trkpt lat="45.95836" lon="4.76813">
        <ele>190</ele>
        <time>2018-07-25T08:36:06Z</time>
      </trkpt>
      <trkpt lat="45.95837" lon="4.76806">
        <ele>191</ele>
        <time>2018-07-25T08:36:07Z</time>
      </trkpt>
      <trkpt lat="45.95844" lon="4.768">
        <ele>191</ele>
        <time>2018-07-25T08:36:10Z</time>
      </trkpt>
      <trkpt lat="45.95846" lon="4.768">
        <ele>191</ele>
        <time>2018-07-25T08:36:11Z</time>
      </trkpt>
      <trkpt lat="45.95848" lon="4.76801">
        <ele>191</ele>
        <time>2018-07-25T08:36:12Z</time>
      </trkpt>
      <trkpt lat="45.95855" lon="4.76805">
        <ele>191</ele>
        <time>2018-07-25T08:36:13Z</time>
      </trkpt>
      <trkpt lat="45.95862" lon="4.76813">
        <ele>191</ele>
        <time>2018-07-25T08:36:15Z</time>
      </trkpt>
      <trkpt lat="45.95865" lon="4.76817">
        <ele>191</ele>
        <time>2018-07-25T08:36:16Z</time>
      </trkpt>
      <trkpt lat="45.95869" lon="4.76821">
        <ele>191</ele>
        <time>2018-07-25T08:36:17Z</time>
      </trkpt>
      <trkpt lat="45.95873" lon="4.76823">
        <ele>191</ele>
        <time>2018-07-25T08:36:18Z</time>
      </trkpt>
      <trkpt lat="45.9588" lon="4.76831">
        <ele>191</ele>
        <time>2018-07-25T08:36:20Z</time>
      </trkpt>
      <trkpt lat="45.95884" lon="4.76835">
        <ele>191</ele>
        <time>2018-07-25T08:36:21Z</time>
      </trkpt>
      <trkpt lat="45.95888" lon="4.76839">
        <ele>191</ele>
        <time>2018-07-25T08:36:22Z</time>
      </trkpt>
      <trkpt lat="45.95892" lon="4.76844">
        <ele>191</ele>
        <time>2018-07-25T08:36:23Z</time>
      </trkpt>
      <trkpt lat="45.95896" lon="4.76847">
        <ele>191</ele>
        <time>2018-07-25T08:36:24Z</time>
      </trkpt>
      <trkpt lat="45.959" lon="4.76851">
        <ele>191</ele>
        <time>2018-07-25T08:36:25Z</time>
      </trkpt>
      <trkpt lat="45.95904" lon="4.76855">
        <ele>191</ele>
        <time>2018-07-25T08:36:26Z</time>
      </trkpt>
      <trkpt lat="45.95907" lon="4.76861">
        <ele>191</ele>
        <time>2018-07-25T08:36:27Z</time>
      </trkpt>
      <trkpt lat="45.95911" lon="4.76866">
        <ele>191</ele>
        <time>2018-07-25T08:36:28Z</time>
      </trkpt>
      <trkpt lat="45.95916" lon="4.76869">
        <ele>191</ele>
        <time>2018-07-25T08:36:29Z</time>
      </trkpt>
      <trkpt lat="45.95922" lon="4.76875">
        <ele>192</ele>
        <time>2018-07-25T08:36:30Z</time>
      </trkpt>
      <trkpt lat="45.95927" lon="4.76881">
        <ele>192</ele>
        <time>2018-07-25T08:36:31Z</time>
      </trkpt>
      <trkpt lat="45.95933" lon="4.76888">
        <ele>192</ele>
        <time>2018-07-25T08:36:33Z</time>
      </trkpt>
      <trkpt lat="45.95933" lon="4.7689">
        <ele>192</ele>
        <time>2018-07-25T08:36:34Z</time>
      </trkpt>
      <trkpt lat="45.95938" lon="4.76895">
        <ele>192</ele>
        <time>2018-07-25T08:36:35Z</time>
      </trkpt>
      <trkpt lat="45.95942" lon="4.76899">
        <ele>192</ele>
        <time>2018-07-25T08:36:36Z</time>
      </trkpt>
      <trkpt lat="45.95948" lon="4.76906">
        <ele>193</ele>
        <time>2018-07-25T08:36:38Z</time>
      </trkpt>
      <trkpt lat="45.95952" lon="4.76909">
        <ele>193</ele>
        <time>2018-07-25T08:36:39Z</time>
      </trkpt>
      <trkpt lat="45.95958" lon="4.76917">
        <ele>195</ele>
        <time>2018-07-25T08:36:42Z</time>
      </trkpt>
      <trkpt lat="45.95964" lon="4.76923">
        <ele>195</ele>
        <time>2018-07-25T08:36:43Z</time>
      </trkpt>
      <trkpt lat="45.9597" lon="4.76931">
        <ele>195</ele>
        <time>2018-07-25T08:36:46Z</time>
      </trkpt>
      <trkpt lat="45.95974" lon="4.76937">
        <ele>196</ele>
        <time>2018-07-25T08:36:47Z</time>
      </trkpt>
      <trkpt lat="45.95977" lon="4.76943">
        <ele>196</ele>
        <time>2018-07-25T08:36:49Z</time>
      </trkpt>
      <trkpt lat="45.9598" lon="4.7695">
        <ele>196</ele>
        <time>2018-07-25T08:36:50Z</time>
      </trkpt>
      <trkpt lat="45.95981" lon="4.76961">
        <ele>196</ele>
        <time>2018-07-25T08:36:52Z</time>
      </trkpt>
      <trkpt lat="45.95982" lon="4.76966">
        <ele>197</ele>
        <time>2018-07-25T08:36:53Z</time>
      </trkpt>
      <trkpt lat="45.95982" lon="4.76976">
        <ele>197</ele>
        <time>2018-07-25T08:36:56Z</time>
      </trkpt>
      <trkpt lat="45.95981" lon="4.76979">
        <ele>197</ele>
        <time>2018-07-25T08:36:57Z</time>
      </trkpt>
      <trkpt lat="45.95979" lon="4.76991">
        <ele>198</ele>
        <time>2018-07-25T08:37:00Z</time>
      </trkpt>
      <trkpt lat="45.95978" lon="4.76995">
        <ele>198</ele>
        <time>2018-07-25T08:37:01Z</time>
      </trkpt>
      <trkpt lat="45.95974" lon="4.77005">
        <ele>200</ele>
        <time>2018-07-25T08:37:04Z</time>
      </trkpt>
      <trkpt lat="45.95973" lon="4.77009">
        <ele>200</ele>
        <time>2018-07-25T08:37:05Z</time>
      </trkpt>
      <trkpt lat="45.95971" lon="4.77013">
        <ele>200</ele>
        <time>2018-07-25T08:37:06Z</time>
      </trkpt>
      <trkpt lat="45.95966" lon="4.77024">
        <ele>200</ele>
        <time>2018-07-25T08:37:07Z</time>
      </trkpt>
      <trkpt lat="45.95965" lon="4.77029">
        <ele>200</ele>
        <time>2018-07-25T08:37:09Z</time>
      </trkpt>
      <trkpt lat="45.95962" lon="4.77037">
        <ele>200</ele>
        <time>2018-07-25T08:37:10Z</time>
      </trkpt>
      <trkpt lat="45.9596" lon="4.77042">
        <ele>200</ele>
        <time>2018-07-25T08:37:12Z</time>
      </trkpt>
      <trkpt lat="45.95957" lon="4.7705">
        <ele>200</ele>
        <time>2018-07-25T08:37:13Z</time>
      </trkpt>
      <trkpt lat="45.95953" lon="4.7706">
        <ele>200</ele>
        <time>2018-07-25T08:37:17Z</time>
      </trkpt>
      <trkpt lat="45.95952" lon="4.77064">
        <ele>200</ele>
        <time>2018-07-25T08:37:18Z</time>
      </trkpt>
      <trkpt lat="45.95947" lon="4.77075">
        <ele>200</ele>
        <time>2018-07-25T08:37:21Z</time>
      </trkpt>
      <trkpt lat="45.95946" lon="4.77079">
        <ele>200</ele>
        <time>2018-07-25T08:37:22Z</time>
      </trkpt>
      <trkpt lat="45.95944" lon="4.77087">
        <ele>201</ele>
        <time>2018-07-25T08:37:24Z</time>
      </trkpt>
      <trkpt lat="45.95943" lon="4.77091">
        <ele>201</ele>
        <time>2018-07-25T08:37:25Z</time>
      </trkpt>
      <trkpt lat="45.95941" lon="4.771">
        <ele>201</ele>
        <time>2018-07-25T08:37:27Z</time>
      </trkpt>
      <trkpt lat="45.9594" lon="4.77105">
        <ele>201</ele>
        <time>2018-07-25T08:37:28Z</time>
      </trkpt>
      <trkpt lat="45.95939" lon="4.77115">
        <ele>201</ele>
        <time>2018-07-25T08:37:30Z</time>
      </trkpt>
      <trkpt lat="45.95939" lon="4.7712">
        <ele>201</ele>
        <time>2018-07-25T08:37:31Z</time>
      </trkpt>
      <trkpt lat="45.95939" lon="4.7713">
        <ele>201</ele>
        <time>2018-07-25T08:37:33Z</time>
      </trkpt>
      <trkpt lat="45.9594" lon="4.77146">
        <ele>201</ele>
        <time>2018-07-25T08:37:34Z</time>
      </trkpt>
      <trkpt lat="45.95941" lon="4.77156">
        <ele>201</ele>
        <time>2018-07-25T08:37:37Z</time>
      </trkpt>
      <trkpt lat="45.95942" lon="4.7716">
        <ele>201</ele>
        <time>2018-07-25T08:37:38Z</time>
      </trkpt>
      <trkpt lat="45.95943" lon="4.77172">
        <ele>200</ele>
        <time>2018-07-25T08:37:39Z</time>
      </trkpt>
      <trkpt lat="45.95943" lon="4.77175">
        <ele>200</ele>
        <time>2018-07-25T08:37:40Z</time>
      </trkpt>
      <trkpt lat="45.95946" lon="4.77184">
        <ele>200</ele>
        <time>2018-07-25T08:37:42Z</time>
      </trkpt>
      <trkpt lat="45.95947" lon="4.77187">
        <ele>201</ele>
        <time>2018-07-25T08:37:43Z</time>
      </trkpt>
      <trkpt lat="45.9595" lon="4.77198">
        <ele>201</ele>
        <time>2018-07-25T08:37:46Z</time>
      </trkpt>
      <trkpt lat="45.95951" lon="4.77201">
        <ele>201</ele>
        <time>2018-07-25T08:37:47Z</time>
      </trkpt>
      <trkpt lat="45.95954" lon="4.77209">
        <ele>201</ele>
        <time>2018-07-25T08:37:49Z</time>
      </trkpt>
      <trkpt lat="45.95956" lon="4.77213">
        <ele>201</ele>
        <time>2018-07-25T08:37:50Z</time>
      </trkpt>
      <trkpt lat="45.9596" lon="4.77219">
        <ele>201</ele>
        <time>2018-07-25T08:37:52Z</time>
      </trkpt>
      <trkpt lat="45.95962" lon="4.77223">
        <ele>201</ele>
        <time>2018-07-25T08:37:53Z</time>
      </trkpt>
      <trkpt lat="45.95968" lon="4.77231">
        <ele>201</ele>
        <time>2018-07-25T08:37:56Z</time>
      </trkpt>
      <trkpt lat="45.95971" lon="4.77234">
        <ele>202</ele>
        <time>2018-07-25T08:37:57Z</time>
      </trkpt>
      <trkpt lat="45.95976" lon="4.77238">
        <ele>202</ele>
        <time>2018-07-25T08:37:59Z</time>
      </trkpt>
      <trkpt lat="45.95979" lon="4.7724">
        <ele>202</ele>
        <time>2018-07-25T08:38:00Z</time>
      </trkpt>
      <trkpt lat="45.95984" lon="4.77243">
        <ele>202</ele>
        <time>2018-07-25T08:38:02Z</time>
      </trkpt>
      <trkpt lat="45.95987" lon="4.77244">
        <ele>202</ele>
        <time>2018-07-25T08:38:03Z</time>
      </trkpt>
      <trkpt lat="45.95994" lon="4.77246">
        <ele>203</ele>
        <time>2018-07-25T08:38:05Z</time>
      </trkpt>
      <trkpt lat="45.95997" lon="4.77246">
        <ele>203</ele>
        <time>2018-07-25T08:38:06Z</time>
      </trkpt>
      <trkpt lat="45.96003" lon="4.77247">
        <ele>204</ele>
        <time>2018-07-25T08:38:08Z</time>
      </trkpt>
      <trkpt lat="45.96007" lon="4.77247">
        <ele>205</ele>
        <time>2018-07-25T08:38:09Z</time>
      </trkpt>
      <trkpt lat="45.96013" lon="4.77247">
        <ele>206</ele>
        <time>2018-07-25T08:38:11Z</time>
      </trkpt>
      <trkpt lat="45.96017" lon="4.77247">
        <ele>206</ele>
        <time>2018-07-25T08:38:12Z</time>
      </trkpt>
      <trkpt lat="45.96023" lon="4.77247">
        <ele>207</ele>
        <time>2018-07-25T08:38:14Z</time>
      </trkpt>
      <trkpt lat="45.96026" lon="4.77247">
        <ele>207</ele>
        <time>2018-07-25T08:38:15Z</time>
      </trkpt>
      <trkpt lat="45.96034" lon="4.77246">
        <ele>208</ele>
        <time>2018-07-25T08:38:18Z</time>
      </trkpt>
      <trkpt lat="45.96037" lon="4.77246">
        <ele>208</ele>
        <time>2018-07-25T08:38:19Z</time>
      </trkpt>
      <trkpt lat="45.96045" lon="4.77246">
        <ele>208</ele>
        <time>2018-07-25T08:38:22Z</time>
      </trkpt>
      <trkpt lat="45.96048" lon="4.77245">
        <ele>209</ele>
        <time>2018-07-25T08:38:23Z</time>
      </trkpt>
      <trkpt lat="45.96054" lon="4.77245">
        <ele>209</ele>
        <time>2018-07-25T08:38:25Z</time>
      </trkpt>
      <trkpt lat="45.96058" lon="4.77244">
        <ele>209</ele>
        <time>2018-07-25T08:38:26Z</time>
      </trkpt>
      <trkpt lat="45.96064" lon="4.77244">
        <ele>209</ele>
        <time>2018-07-25T08:38:28Z</time>
      </trkpt>
      <trkpt lat="45.96068" lon="4.77244">
        <ele>209</ele>
        <time>2018-07-25T08:38:29Z</time>
      </trkpt>
      <trkpt lat="45.96074" lon="4.77244">
        <ele>210</ele>
        <time>2018-07-25T08:38:31Z</time>
      </trkpt>
      <trkpt lat="45.96078" lon="4.77243">
        <ele>210</ele>
        <time>2018-07-25T08:38:32Z</time>
      </trkpt>
      <trkpt lat="45.96084" lon="4.77243">
        <ele>211</ele>
        <time>2018-07-25T08:38:34Z</time>
      </trkpt>
      <trkpt lat="45.96088" lon="4.77242">
        <ele>212</ele>
        <time>2018-07-25T08:38:35Z</time>
      </trkpt>
      <trkpt lat="45.96094" lon="4.77242">
        <ele>212</ele>
        <time>2018-07-25T08:38:37Z</time>
      </trkpt>
      <trkpt lat="45.96098" lon="4.77241">
        <ele>212</ele>
        <time>2018-07-25T08:38:38Z</time>
      </trkpt>
      <trkpt lat="45.96104" lon="4.77241">
        <ele>213</ele>
        <time>2018-07-25T08:38:40Z</time>
      </trkpt>
      <trkpt lat="45.96107" lon="4.77241">
        <ele>213</ele>
        <time>2018-07-25T08:38:41Z</time>
      </trkpt>
      <trkpt lat="45.9611" lon="4.7724">
        <ele>214</ele>
        <time>2018-07-25T08:38:42Z</time>
      </trkpt>
      <trkpt lat="45.9612" lon="4.7724">
        <ele>214</ele>
        <time>2018-07-25T08:38:43Z</time>
      </trkpt>
      <trkpt lat="45.96127" lon="4.77241">
        <ele>214</ele>
        <time>2018-07-25T08:38:46Z</time>
      </trkpt>
      <trkpt lat="45.9613" lon="4.77241">
        <ele>215</ele>
        <time>2018-07-25T08:38:47Z</time>
      </trkpt>
      <trkpt lat="45.96138" lon="4.77243">
        <ele>215</ele>
        <time>2018-07-25T08:38:50Z</time>
      </trkpt>
      <trkpt lat="45.96147" lon="4.77247">
        <ele>215</ele>
        <time>2018-07-25T08:38:51Z</time>
      </trkpt>
      <trkpt lat="45.96155" lon="4.7725">
        <ele>214</ele>
        <time>2018-07-25T08:38:53Z</time>
      </trkpt>
      <trkpt lat="45.96159" lon="4.77252">
        <ele>215</ele>
        <time>2018-07-25T08:38:54Z</time>
      </trkpt>
      <trkpt lat="45.96166" lon="4.77256">
        <ele>215</ele>
        <time>2018-07-25T08:38:56Z</time>
      </trkpt>
      <trkpt lat="45.96169" lon="4.77258">
        <ele>216</ele>
        <time>2018-07-25T08:38:57Z</time>
      </trkpt>
      <trkpt lat="45.96176" lon="4.77262">
        <ele>216</ele>
        <time>2018-07-25T08:38:59Z</time>
      </trkpt>
      <trkpt lat="45.96179" lon="4.77264">
        <ele>216</ele>
        <time>2018-07-25T08:39:00Z</time>
      </trkpt>
      <trkpt lat="45.96185" lon="4.77269">
        <ele>216</ele>
        <time>2018-07-25T08:39:02Z</time>
      </trkpt>
      <trkpt lat="45.96189" lon="4.7727">
        <ele>216</ele>
        <time>2018-07-25T08:39:03Z</time>
      </trkpt>
      <trkpt lat="45.96197" lon="4.77274">
        <ele>216</ele>
        <time>2018-07-25T08:39:05Z</time>
      </trkpt>
      <trkpt lat="45.96201" lon="4.77276">
        <ele>216</ele>
        <time>2018-07-25T08:39:06Z</time>
      </trkpt>
      <trkpt lat="45.96208" lon="4.77282">
        <ele>217</ele>
        <time>2018-07-25T08:39:08Z</time>
      </trkpt>
      <trkpt lat="45.96212" lon="4.77284">
        <ele>217</ele>
        <time>2018-07-25T08:39:09Z</time>
      </trkpt>
      <trkpt lat="45.96219" lon="4.77289">
        <ele>217</ele>
        <time>2018-07-25T08:39:11Z</time>
      </trkpt>
      <trkpt lat="45.96223" lon="4.77291">
        <ele>217</ele>
        <time>2018-07-25T08:39:12Z</time>
      </trkpt>
      <trkpt lat="45.96227" lon="4.77293">
        <ele>217</ele>
        <time>2018-07-25T08:39:13Z</time>
      </trkpt>
      <trkpt lat="45.96232" lon="4.77295">
        <ele>217</ele>
        <time>2018-07-25T08:39:14Z</time>
      </trkpt>
      <trkpt lat="45.9624" lon="4.77299">
        <ele>217</ele>
        <time>2018-07-25T08:39:16Z</time>
      </trkpt>
      <trkpt lat="45.96244" lon="4.77302">
        <ele>217</ele>
        <time>2018-07-25T08:39:17Z</time>
      </trkpt>
      <trkpt lat="45.96252" lon="4.77307">
        <ele>218</ele>
        <time>2018-07-25T08:39:19Z</time>
      </trkpt>
      <trkpt lat="45.96256" lon="4.77309">
        <ele>218</ele>
        <time>2018-07-25T08:39:20Z</time>
      </trkpt>
      <trkpt lat="45.96264" lon="4.77312">
        <ele>218</ele>
        <time>2018-07-25T08:39:22Z</time>
      </trkpt>
      <trkpt lat="45.96269" lon="4.77315">
        <ele>218</ele>
        <time>2018-07-25T08:39:23Z</time>
      </trkpt>
      <trkpt lat="45.96273" lon="4.77317">
        <ele>218</ele>
        <time>2018-07-25T08:39:24Z</time>
      </trkpt>
      <trkpt lat="45.9628" lon="4.77321">
        <ele>219</ele>
        <time>2018-07-25T08:39:25Z</time>
      </trkpt>
      <trkpt lat="45.96284" lon="4.77324">
        <ele>219</ele>
        <time>2018-07-25T08:39:26Z</time>
      </trkpt>
      <trkpt lat="45.96289" lon="4.77327">
        <ele>219</ele>
        <time>2018-07-25T08:39:27Z</time>
      </trkpt>
      <trkpt lat="45.96296" lon="4.77331">
        <ele>219</ele>
        <time>2018-07-25T08:39:29Z</time>
      </trkpt>
      <trkpt lat="45.963" lon="4.77333">
        <ele>219</ele>
        <time>2018-07-25T08:39:30Z</time>
      </trkpt>
      <trkpt lat="45.96305" lon="4.77335">
        <ele>217</ele>
        <time>2018-07-25T08:39:31Z</time>
      </trkpt>
      <trkpt lat="45.96309" lon="4.77338">
        <ele>217</ele>
        <time>2018-07-25T08:39:32Z</time>
      </trkpt>
      <trkpt lat="45.96312" lon="4.77341">
        <ele>218</ele>
        <time>2018-07-25T08:39:33Z</time>
      </trkpt>
      <trkpt lat="45.96317" lon="4.77343">
        <ele>218</ele>
        <time>2018-07-25T08:39:34Z</time>
      </trkpt>
      <trkpt lat="45.96321" lon="4.77346">
        <ele>218</ele>
        <time>2018-07-25T08:39:35Z</time>
      </trkpt>
      <trkpt lat="45.96327" lon="4.77348">
        <ele>218</ele>
        <time>2018-07-25T08:39:36Z</time>
      </trkpt>
      <trkpt lat="45.96333" lon="4.77351">
        <ele>218</ele>
        <time>2018-07-25T08:39:37Z</time>
      </trkpt>
      <trkpt lat="45.96338" lon="4.77352">
        <ele>220</ele>
        <time>2018-07-25T08:39:38Z</time>
      </trkpt>
      <trkpt lat="45.96346" lon="4.77355">
        <ele>219</ele>
        <time>2018-07-25T08:39:40Z</time>
      </trkpt>
      <trkpt lat="45.9635" lon="4.77356">
        <ele>219</ele>
        <time>2018-07-25T08:39:41Z</time>
      </trkpt>
      <trkpt lat="45.96358" lon="4.77361">
        <ele>219</ele>
        <time>2018-07-25T08:39:43Z</time>
      </trkpt>
      <trkpt lat="45.96363" lon="4.77365">
        <ele>219</ele>
        <time>2018-07-25T08:39:44Z</time>
      </trkpt>
      <trkpt lat="45.96367" lon="4.77368">
        <ele>219</ele>
        <time>2018-07-25T08:39:45Z</time>
      </trkpt>
      <trkpt lat="45.96371" lon="4.7737">
        <ele>220</ele>
        <time>2018-07-25T08:39:46Z</time>
      </trkpt>
      <trkpt lat="45.96379" lon="4.77374">
        <ele>220</ele>
        <time>2018-07-25T08:39:48Z</time>
      </trkpt>
      <trkpt lat="45.9638" lon="4.77376">
        <ele>220</ele>
        <time>2018-07-25T08:39:49Z</time>
      </trkpt>
      <trkpt lat="45.96387" lon="4.77381">
        <ele>220</ele>
        <time>2018-07-25T08:39:51Z</time>
      </trkpt>
      <trkpt lat="45.96391" lon="4.77383">
        <ele>220</ele>
        <time>2018-07-25T08:39:52Z</time>
      </trkpt>
      <trkpt lat="45.96395" lon="4.77385">
        <ele>220</ele>
        <time>2018-07-25T08:39:53Z</time>
      </trkpt>
      <trkpt lat="45.96401" lon="4.77386">
        <ele>220</ele>
        <time>2018-07-25T08:39:54Z</time>
      </trkpt>
      <trkpt lat="45.96409" lon="4.7739">
        <ele>220</ele>
        <time>2018-07-25T08:39:56Z</time>
      </trkpt>
      <trkpt lat="45.96413" lon="4.77393">
        <ele>220</ele>
        <time>2018-07-25T08:39:57Z</time>
      </trkpt>
      <trkpt lat="45.96419" lon="4.77396">
        <ele>222</ele>
        <time>2018-07-25T08:39:59Z</time>
      </trkpt>
      <trkpt lat="45.96421" lon="4.77398">
        <ele>222</ele>
        <time>2018-07-25T08:40:00Z</time>
      </trkpt>
      <trkpt lat="45.96428" lon="4.77403">
        <ele>222</ele>
        <time>2018-07-25T08:40:01Z</time>
      </trkpt>
      <trkpt lat="45.96432" lon="4.77406">
        <ele>222</ele>
        <time>2018-07-25T08:40:02Z</time>
      </trkpt>
      <trkpt lat="45.96436" lon="4.77408">
        <ele>222</ele>
        <time>2018-07-25T08:40:04Z</time>
      </trkpt>
      <trkpt lat="45.96442" lon="4.77411">
        <ele>222</ele>
        <time>2018-07-25T08:40:05Z</time>
      </trkpt>
      <trkpt lat="45.96447" lon="4.77416">
        <ele>222</ele>
        <time>2018-07-25T08:40:07Z</time>
      </trkpt>
      <trkpt lat="45.96451" lon="4.77419">
        <ele>221</ele>
        <time>2018-07-25T08:40:08Z</time>
      </trkpt>
      <trkpt lat="45.96455" lon="4.77422">
        <ele>221</ele>
        <time>2018-07-25T08:40:09Z</time>
      </trkpt>
      <trkpt lat="45.9646" lon="4.77425">
        <ele>221</ele>
        <time>2018-07-25T08:40:10Z</time>
      </trkpt>
      <trkpt lat="45.96465" lon="4.77431">
        <ele>221</ele>
        <time>2018-07-25T08:40:12Z</time>
      </trkpt>
      <trkpt lat="45.9647" lon="4.77433">
        <ele>221</ele>
        <time>2018-07-25T08:40:13Z</time>
      </trkpt>
      <trkpt lat="45.96476" lon="4.77437">
        <ele>221</ele>
        <time>2018-07-25T08:40:15Z</time>
      </trkpt>
      <trkpt lat="45.9648" lon="4.7744">
        <ele>221</ele>
        <time>2018-07-25T08:40:16Z</time>
      </trkpt>
      <trkpt lat="45.96487" lon="4.77445">
        <ele>221</ele>
        <time>2018-07-25T08:40:18Z</time>
      </trkpt>
      <trkpt lat="45.96492" lon="4.77447">
        <ele>221</ele>
        <time>2018-07-25T08:40:19Z</time>
      </trkpt>
      <trkpt lat="45.96496" lon="4.77451">
        <ele>221</ele>
        <time>2018-07-25T08:40:20Z</time>
      </trkpt>
      <trkpt lat="45.96499" lon="4.77454">
        <ele>221</ele>
        <time>2018-07-25T08:40:21Z</time>
      </trkpt>
      <trkpt lat="45.96504" lon="4.77457">
        <ele>223</ele>
        <time>2018-07-25T08:40:22Z</time>
      </trkpt>
      <trkpt lat="45.96508" lon="4.7746">
        <ele>223</ele>
        <time>2018-07-25T08:40:23Z</time>
      </trkpt>
      <trkpt lat="45.96516" lon="4.77464">
        <ele>223</ele>
        <time>2018-07-25T08:40:26Z</time>
      </trkpt>
      <trkpt lat="45.9652" lon="4.77467">
        <ele>223</ele>
        <time>2018-07-25T08:40:27Z</time>
      </trkpt>
      <trkpt lat="45.96527" lon="4.77472">
        <ele>223</ele>
        <time>2018-07-25T08:40:29Z</time>
      </trkpt>
      <trkpt lat="45.96533" lon="4.77476">
        <ele>223</ele>
        <time>2018-07-25T08:40:30Z</time>
      </trkpt>
      <trkpt lat="45.9654" lon="4.77481">
        <ele>223</ele>
        <time>2018-07-25T08:40:32Z</time>
      </trkpt>
      <trkpt lat="45.96544" lon="4.77484">
        <ele>223</ele>
        <time>2018-07-25T08:40:33Z</time>
      </trkpt>
      <trkpt lat="45.96551" lon="4.77489">
        <ele>223</ele>
        <time>2018-07-25T08:40:35Z</time>
      </trkpt>
      <trkpt lat="45.96555" lon="4.77491">
        <ele>223</ele>
        <time>2018-07-25T08:40:36Z</time>
      </trkpt>
      <trkpt lat="45.9656" lon="4.77495">
        <ele>224</ele>
        <time>2018-07-25T08:40:37Z</time>
      </trkpt>
      <trkpt lat="45.96564" lon="4.77497">
        <ele>224</ele>
        <time>2018-07-25T08:40:38Z</time>
      </trkpt>
      <trkpt lat="45.96568" lon="4.77499">
        <ele>224</ele>
        <time>2018-07-25T08:40:39Z</time>
      </trkpt>
      <trkpt lat="45.96572" lon="4.77502">
        <ele>224</ele>
        <time>2018-07-25T08:40:40Z</time>
      </trkpt>
      <trkpt lat="45.96576" lon="4.77504">
        <ele>224</ele>
        <time>2018-07-25T08:40:41Z</time>
      </trkpt>
      <trkpt lat="45.96581" lon="4.77507">
        <ele>224</ele>
        <time>2018-07-25T08:40:42Z</time>
      </trkpt>
      <trkpt lat="45.96585" lon="4.77511">
        <ele>224</ele>
        <time>2018-07-25T08:40:43Z</time>
      </trkpt>
      <trkpt lat="45.96588" lon="4.77514">
        <ele>224</ele>
        <time>2018-07-25T08:40:44Z</time>
      </trkpt>
      <trkpt lat="45.96595" lon="4.77518">
        <ele>224</ele>
        <time>2018-07-25T08:40:46Z</time>
      </trkpt>
      <trkpt lat="45.96599" lon="4.7752">
        <ele>224</ele>
        <time>2018-07-25T08:40:47Z</time>
      </trkpt>
      <trkpt lat="45.96607" lon="4.77525">
        <ele>224</ele>
        <time>2018-07-25T08:40:49Z</time>
      </trkpt>
      <trkpt lat="45.96611" lon="4.77527">
        <ele>224</ele>
        <time>2018-07-25T08:40:50Z</time>
      </trkpt>
      <trkpt lat="45.96616" lon="4.7753">
        <ele>224</ele>
        <time>2018-07-25T08:40:51Z</time>
      </trkpt>
      <trkpt lat="45.96623" lon="4.77533">
        <ele>224</ele>
        <time>2018-07-25T08:40:52Z</time>
      </trkpt>
      <trkpt lat="45.9663" lon="4.77537">
        <ele>224</ele>
        <time>2018-07-25T08:40:54Z</time>
      </trkpt>
      <trkpt lat="45.96634" lon="4.77539">
        <ele>224</ele>
        <time>2018-07-25T08:40:55Z</time>
      </trkpt>
      <trkpt lat="45.96641" lon="4.77543">
        <ele>224</ele>
        <time>2018-07-25T08:40:57Z</time>
      </trkpt>
      <trkpt lat="45.96645" lon="4.77546">
        <ele>224</ele>
        <time>2018-07-25T08:40:58Z</time>
      </trkpt>
      <trkpt lat="45.96653" lon="4.77551">
        <ele>224</ele>
        <time>2018-07-25T08:41:00Z</time>
      </trkpt>
      <trkpt lat="45.96657" lon="4.77553">
        <ele>224</ele>
        <time>2018-07-25T08:41:01Z</time>
      </trkpt>
      <trkpt lat="45.96664" lon="4.77558">
        <ele>225</ele>
        <time>2018-07-25T08:41:03Z</time>
      </trkpt>
      <trkpt lat="45.96667" lon="4.7756">
        <ele>225</ele>
        <time>2018-07-25T08:41:04Z</time>
      </trkpt>
      <trkpt lat="45.96675" lon="4.77566">
        <ele>225</ele>
        <time>2018-07-25T08:41:06Z</time>
      </trkpt>
      <trkpt lat="45.96678" lon="4.77568">
        <ele>225</ele>
        <time>2018-07-25T08:41:07Z</time>
      </trkpt>
      <trkpt lat="45.96686" lon="4.77575">
        <ele>225</ele>
        <time>2018-07-25T08:41:09Z</time>
      </trkpt>
      <trkpt lat="45.9669" lon="4.77577">
        <ele>225</ele>
        <time>2018-07-25T08:41:10Z</time>
      </trkpt>
      <trkpt lat="45.96697" lon="4.77583">
        <ele>225</ele>
        <time>2018-07-25T08:41:12Z</time>
      </trkpt>
      <trkpt lat="45.96701" lon="4.77586">
        <ele>226</ele>
        <time>2018-07-25T08:41:13Z</time>
      </trkpt>
      <trkpt lat="45.96707" lon="4.77593">
        <ele>226</ele>
        <time>2018-07-25T08:41:15Z</time>
      </trkpt>
      <trkpt lat="45.9671" lon="4.77596">
        <ele>226</ele>
        <time>2018-07-25T08:41:16Z</time>
      </trkpt>
      <trkpt lat="45.96717" lon="4.77602">
        <ele>226</ele>
        <time>2018-07-25T08:41:18Z</time>
      </trkpt>
      <trkpt lat="45.9672" lon="4.77607">
        <ele>226</ele>
        <time>2018-07-25T08:41:19Z</time>
      </trkpt>
      <trkpt lat="45.96722" lon="4.77615">
        <ele>226</ele>
        <time>2018-07-25T08:41:21Z</time>
      </trkpt>
      <trkpt lat="45.96725" lon="4.77619">
        <ele>226</ele>
        <time>2018-07-25T08:41:22Z</time>
      </trkpt>
      <trkpt lat="45.96732" lon="4.77626">
        <ele>226</ele>
        <time>2018-07-25T08:41:24Z</time>
      </trkpt>
      <trkpt lat="45.96734" lon="4.7763">
        <ele>226</ele>
        <time>2018-07-25T08:41:25Z</time>
      </trkpt>
      <trkpt lat="45.9674" lon="4.77637">
        <ele>227</ele>
        <time>2018-07-25T08:41:27Z</time>
      </trkpt>
      <trkpt lat="45.96744" lon="4.77641">
        <ele>227</ele>
        <time>2018-07-25T08:41:28Z</time>
      </trkpt>
      <trkpt lat="45.9675" lon="4.77649">
        <ele>227</ele>
        <time>2018-07-25T08:41:30Z</time>
      </trkpt>
      <trkpt lat="45.96753" lon="4.77653">
        <ele>227</ele>
        <time>2018-07-25T08:41:31Z</time>
      </trkpt>
      <trkpt lat="45.96759" lon="4.77661">
        <ele>227</ele>
        <time>2018-07-25T08:41:33Z</time>
      </trkpt>
      <trkpt lat="45.96763" lon="4.77665">
        <ele>227</ele>
        <time>2018-07-25T08:41:34Z</time>
      </trkpt>
      <trkpt lat="45.96768" lon="4.7767">
        <ele>227</ele>
        <time>2018-07-25T08:41:35Z</time>
      </trkpt>
      <trkpt lat="45.96771" lon="4.77675">
        <ele>227</ele>
        <time>2018-07-25T08:41:36Z</time>
      </trkpt>
      <trkpt lat="45.96774" lon="4.77679">
        <ele>227</ele>
        <time>2018-07-25T08:41:37Z</time>
      </trkpt>
      <trkpt lat="45.9678" lon="4.77683">
        <ele>227</ele>
        <time>2018-07-25T08:41:38Z</time>
      </trkpt>
      <trkpt lat="45.96783" lon="4.77687">
        <ele>227</ele>
        <time>2018-07-25T08:41:39Z</time>
      </trkpt>
      <trkpt lat="45.96787" lon="4.77691">
        <ele>227</ele>
        <time>2018-07-25T08:41:40Z</time>
      </trkpt>
      <trkpt lat="45.96792" lon="4.77699">
        <ele>228</ele>
        <time>2018-07-25T08:41:42Z</time>
      </trkpt>
      <trkpt lat="45.96796" lon="4.77702">
        <ele>228</ele>
        <time>2018-07-25T08:41:43Z</time>
      </trkpt>
      <trkpt lat="45.96803" lon="4.7771">
        <ele>228</ele>
        <time>2018-07-25T08:41:45Z</time>
      </trkpt>
      <trkpt lat="45.96807" lon="4.77714">
        <ele>228</ele>
        <time>2018-07-25T08:41:46Z</time>
      </trkpt>
      <trkpt lat="45.96811" lon="4.77719">
        <ele>228</ele>
        <time>2018-07-25T08:41:47Z</time>
      </trkpt>
      <trkpt lat="45.96816" lon="4.77723">
        <ele>228</ele>
        <time>2018-07-25T08:41:48Z</time>
      </trkpt>
      <trkpt lat="45.9682" lon="4.77726">
        <ele>228</ele>
        <time>2018-07-25T08:41:49Z</time>
      </trkpt>
      <trkpt lat="45.96824" lon="4.77731">
        <ele>228</ele>
        <time>2018-07-25T08:41:50Z</time>
      </trkpt>
      <trkpt lat="45.96829" lon="4.77734">
        <ele>228</ele>
        <time>2018-07-25T08:41:51Z</time>
      </trkpt>
      <trkpt lat="45.96833" lon="4.77739">
        <ele>228</ele>
        <time>2018-07-25T08:41:52Z</time>
      </trkpt>
      <trkpt lat="45.96837" lon="4.77743">
        <ele>228</ele>
        <time>2018-07-25T08:41:53Z</time>
      </trkpt>
      <trkpt lat="45.96842" lon="4.77747">
        <ele>228</ele>
        <time>2018-07-25T08:41:54Z</time>
      </trkpt>
      <trkpt lat="45.96845" lon="4.77752">
        <ele>228</ele>
        <time>2018-07-25T08:41:55Z</time>
      </trkpt>
      <trkpt lat="45.9685" lon="4.77756">
        <ele>228</ele>
        <time>2018-07-25T08:41:56Z</time>
      </trkpt>
      <trkpt lat="45.96854" lon="4.7776">
        <ele>228</ele>
        <time>2018-07-25T08:41:57Z</time>
      </trkpt>
      <trkpt lat="45.96858" lon="4.77764">
        <ele>228</ele>
        <time>2018-07-25T08:41:58Z</time>
      </trkpt>
      <trkpt lat="45.96864" lon="4.77769">
        <ele>228</ele>
        <time>2018-07-25T08:41:59Z</time>
      </trkpt>
      <trkpt lat="45.96867" lon="4.77773">
        <ele>228</ele>
        <time>2018-07-25T08:42:00Z</time>
      </trkpt>
      <trkpt lat="45.96871" lon="4.77777">
        <ele>228</ele>
        <time>2018-07-25T08:42:01Z</time>
      </trkpt>
      <trkpt lat="45.96876" lon="4.77782">
        <ele>228</ele>
        <time>2018-07-25T08:42:02Z</time>
      </trkpt>
      <trkpt lat="45.96881" lon="4.77786">
        <ele>228</ele>
        <time>2018-07-25T08:42:03Z</time>
      </trkpt>
      <trkpt lat="45.96886" lon="4.7779">
        <ele>228</ele>
        <time>2018-07-25T08:42:04Z</time>
      </trkpt>
      <trkpt lat="45.9689" lon="4.77795">
        <ele>228</ele>
        <time>2018-07-25T08:42:05Z</time>
      </trkpt>
      <trkpt lat="45.96895" lon="4.77798">
        <ele>228</ele>
        <time>2018-07-25T08:42:06Z</time>
      </trkpt>
      <trkpt lat="45.96902" lon="4.77805">
        <ele>228</ele>
        <time>2018-07-25T08:42:08Z</time>
      </trkpt>
      <trkpt lat="45.96905" lon="4.77808">
        <ele>228</ele>
        <time>2018-07-25T08:42:09Z</time>
      </trkpt>
      <trkpt lat="45.96909" lon="4.77812">
        <ele>228</ele>
        <time>2018-07-25T08:42:10Z</time>
      </trkpt>
      <trkpt lat="45.96913" lon="4.77817">
        <ele>228</ele>
        <time>2018-07-25T08:42:11Z</time>
      </trkpt>
      <trkpt lat="45.96918" lon="4.77822">
        <ele>228</ele>
        <time>2018-07-25T08:42:12Z</time>
      </trkpt>
      <trkpt lat="45.96922" lon="4.77826">
        <ele>228</ele>
        <time>2018-07-25T08:42:13Z</time>
      </trkpt>
      <trkpt lat="45.96926" lon="4.77831">
        <ele>228</ele>
        <time>2018-07-25T08:42:14Z</time>
      </trkpt>
      <trkpt lat="45.9693" lon="4.77835">
        <ele>228</ele>
        <time>2018-07-25T08:42:15Z</time>
      </trkpt>
      <trkpt lat="45.96935" lon="4.77839">
        <ele>228</ele>
        <time>2018-07-25T08:42:16Z</time>
      </trkpt>
      <trkpt lat="45.96939" lon="4.77844">
        <ele>228</ele>
        <time>2018-07-25T08:42:17Z</time>
      </trkpt>
      <trkpt lat="45.96945" lon="4.77851">
        <ele>228</ele>
        <time>2018-07-25T08:42:19Z</time>
      </trkpt>
      <trkpt lat="45.96949" lon="4.77857">
        <ele>228</ele>
        <time>2018-07-25T08:42:20Z</time>
      </trkpt>
      <trkpt lat="45.96953" lon="4.77862">
        <ele>228</ele>
        <time>2018-07-25T08:42:21Z</time>
      </trkpt>
      <trkpt lat="45.96956" lon="4.77867">
        <ele>228</ele>
        <time>2018-07-25T08:42:22Z</time>
      </trkpt>
      <trkpt lat="45.9696" lon="4.77872">
        <ele>228</ele>
        <time>2018-07-25T08:42:23Z</time>
      </trkpt>
      <trkpt lat="45.96963" lon="4.77878">
        <ele>228</ele>
        <time>2018-07-25T08:42:24Z</time>
      </trkpt>
      <trkpt lat="45.96967" lon="4.77882">
        <ele>228</ele>
        <time>2018-07-25T08:42:25Z</time>
      </trkpt>
      <trkpt lat="45.9697" lon="4.77887">
        <ele>228</ele>
        <time>2018-07-25T08:42:26Z</time>
      </trkpt>
      <trkpt lat="45.96974" lon="4.77891">
        <ele>228</ele>
        <time>2018-07-25T08:42:27Z</time>
      </trkpt>
      <trkpt lat="45.96977" lon="4.77897">
        <ele>228</ele>
        <time>2018-07-25T08:42:28Z</time>
      </trkpt>
      <trkpt lat="45.96981" lon="4.77901">
        <ele>227</ele>
        <time>2018-07-25T08:42:29Z</time>
      </trkpt>
      <trkpt lat="45.96988" lon="4.77906">
        <ele>227</ele>
        <time>2018-07-25T08:42:30Z</time>
      </trkpt>
      <trkpt lat="45.96992" lon="4.77911">
        <ele>227</ele>
        <time>2018-07-25T08:42:31Z</time>
      </trkpt>
      <trkpt lat="45.96996" lon="4.77915">
        <ele>227</ele>
        <time>2018-07-25T08:42:32Z</time>
      </trkpt>
      <trkpt lat="45.96998" lon="4.77924">
        <ele>227</ele>
        <time>2018-07-25T08:42:34Z</time>
      </trkpt>
      <trkpt lat="45.97002" lon="4.77929">
        <ele>228</ele>
        <time>2018-07-25T08:42:35Z</time>
      </trkpt>
      <trkpt lat="45.97005" lon="4.77934">
        <ele>228</ele>
        <time>2018-07-25T08:42:36Z</time>
      </trkpt>
      <trkpt lat="45.97009" lon="4.77939">
        <ele>228</ele>
        <time>2018-07-25T08:42:37Z</time>
      </trkpt>
      <trkpt lat="45.97013" lon="4.77943">
        <ele>228</ele>
        <time>2018-07-25T08:42:38Z</time>
      </trkpt>
      <trkpt lat="45.97017" lon="4.77948">
        <ele>228</ele>
        <time>2018-07-25T08:42:39Z</time>
      </trkpt>
      <trkpt lat="45.97022" lon="4.77958">
        <ele>228</ele>
        <time>2018-07-25T08:42:41Z</time>
      </trkpt>
      <trkpt lat="45.97025" lon="4.77962">
        <ele>228</ele>
        <time>2018-07-25T08:42:42Z</time>
      </trkpt>
      <trkpt lat="45.97029" lon="4.77967">
        <ele>229</ele>
        <time>2018-07-25T08:42:43Z</time>
      </trkpt>
      <trkpt lat="45.97034" lon="4.77973">
        <ele>229</ele>
        <time>2018-07-25T08:42:44Z</time>
      </trkpt>
      <trkpt lat="45.97038" lon="4.77977">
        <ele>229</ele>
        <time>2018-07-25T08:42:45Z</time>
      </trkpt>
      <trkpt lat="45.97042" lon="4.77982">
        <ele>229</ele>
        <time>2018-07-25T08:42:46Z</time>
      </trkpt>
      <trkpt lat="45.97046" lon="4.77986">
        <ele>229</ele>
        <time>2018-07-25T08:42:47Z</time>
      </trkpt>
      <trkpt lat="45.97051" lon="4.77991">
        <ele>229</ele>
        <time>2018-07-25T08:42:48Z</time>
      </trkpt>
      <trkpt lat="45.97055" lon="4.77996">
        <ele>229</ele>
        <time>2018-07-25T08:42:49Z</time>
      </trkpt>
      <trkpt lat="45.97062" lon="4.77998">
        <ele>229</ele>
        <time>2018-07-25T08:42:50Z</time>
      </trkpt>
      <trkpt lat="45.97066" lon="4.78002">
        <ele>229</ele>
        <time>2018-07-25T08:42:51Z</time>
      </trkpt>
      <trkpt lat="45.9707" lon="4.78007">
        <ele>229</ele>
        <time>2018-07-25T08:42:52Z</time>
      </trkpt>
      <trkpt lat="45.97075" lon="4.78017">
        <ele>229</ele>
        <time>2018-07-25T08:42:54Z</time>
      </trkpt>
      <trkpt lat="45.97079" lon="4.78022">
        <ele>229</ele>
        <time>2018-07-25T08:42:55Z</time>
      </trkpt>
      <trkpt lat="45.97083" lon="4.78027">
        <ele>229</ele>
        <time>2018-07-25T08:42:56Z</time>
      </trkpt>
      <trkpt lat="45.97088" lon="4.7803">
        <ele>229</ele>
        <time>2018-07-25T08:42:57Z</time>
      </trkpt>
      <trkpt lat="45.97093" lon="4.78034">
        <ele>229</ele>
        <time>2018-07-25T08:42:58Z</time>
      </trkpt>
      <trkpt lat="45.97097" lon="4.78038">
        <ele>229</ele>
        <time>2018-07-25T08:42:59Z</time>
      </trkpt>
      <trkpt lat="45.97102" lon="4.78042">
        <ele>229</ele>
        <time>2018-07-25T08:43:00Z</time>
      </trkpt>
      <trkpt lat="45.97107" lon="4.78046">
        <ele>229</ele>
        <time>2018-07-25T08:43:01Z</time>
      </trkpt>
      <trkpt lat="45.97111" lon="4.7805">
        <ele>229</ele>
        <time>2018-07-25T08:43:02Z</time>
      </trkpt>
      <trkpt lat="45.97115" lon="4.78054">
        <ele>229</ele>
        <time>2018-07-25T08:43:03Z</time>
      </trkpt>
      <trkpt lat="45.97119" lon="4.78058">
        <ele>229</ele>
        <time>2018-07-25T08:43:04Z</time>
      </trkpt>
      <trkpt lat="45.97124" lon="4.78063">
        <ele>229</ele>
        <time>2018-07-25T08:43:05Z</time>
      </trkpt>
      <trkpt lat="45.97128" lon="4.78069">
        <ele>230</ele>
        <time>2018-07-25T08:43:06Z</time>
      </trkpt>
      <trkpt lat="45.97134" lon="4.78075">
        <ele>230</ele>
        <time>2018-07-25T08:43:07Z</time>
      </trkpt>
      <trkpt lat="45.97138" lon="4.78081">
        <ele>230</ele>
        <time>2018-07-25T08:43:08Z</time>
      </trkpt>
      <trkpt lat="45.97142" lon="4.78087">
        <ele>230</ele>
        <time>2018-07-25T08:43:09Z</time>
      </trkpt>
      <trkpt lat="45.97146" lon="4.78093">
        <ele>230</ele>
        <time>2018-07-25T08:43:10Z</time>
      </trkpt>
      <trkpt lat="45.97151" lon="4.78098">
        <ele>230</ele>
        <time>2018-07-25T08:43:11Z</time>
      </trkpt>
      <trkpt lat="45.97155" lon="4.78104">
        <ele>230</ele>
        <time>2018-07-25T08:43:12Z</time>
      </trkpt>
      <trkpt lat="45.97158" lon="4.7811">
        <ele>230</ele>
        <time>2018-07-25T08:43:13Z</time>
      </trkpt>
      <trkpt lat="45.97161" lon="4.78116">
        <ele>230</ele>
        <time>2018-07-25T08:43:14Z</time>
      </trkpt>
      <trkpt lat="45.97164" lon="4.78123">
        <ele>230</ele>
        <time>2018-07-25T08:43:15Z</time>
      </trkpt>
      <trkpt lat="45.97167" lon="4.78129">
        <ele>231</ele>
        <time>2018-07-25T08:43:16Z</time>
      </trkpt>
      <trkpt lat="45.97171" lon="4.78135">
        <ele>231</ele>
        <time>2018-07-25T08:43:17Z</time>
      </trkpt>
      <trkpt lat="45.97174" lon="4.78143">
        <ele>231</ele>
        <time>2018-07-25T08:43:18Z</time>
      </trkpt>
      <trkpt lat="45.97177" lon="4.78149">
        <ele>231</ele>
        <time>2018-07-25T08:43:19Z</time>
      </trkpt>
      <trkpt lat="45.97182" lon="4.78156">
        <ele>231</ele>
        <time>2018-07-25T08:43:20Z</time>
      </trkpt>
      <trkpt lat="45.97186" lon="4.78161">
        <ele>231</ele>
        <time>2018-07-25T08:43:21Z</time>
      </trkpt>
      <trkpt lat="45.97189" lon="4.78168">
        <ele>231</ele>
        <time>2018-07-25T08:43:22Z</time>
      </trkpt>
      <trkpt lat="45.97193" lon="4.78173">
        <ele>231</ele>
        <time>2018-07-25T08:43:23Z</time>
      </trkpt>
      <trkpt lat="45.97196" lon="4.78179">
        <ele>231</ele>
        <time>2018-07-25T08:43:24Z</time>
      </trkpt>
      <trkpt lat="45.97199" lon="4.78186">
        <ele>231</ele>
        <time>2018-07-25T08:43:25Z</time>
      </trkpt>
      <trkpt lat="45.97202" lon="4.7819">
        <ele>231</ele>
        <time>2018-07-25T08:43:26Z</time>
      </trkpt>
      <trkpt lat="45.97205" lon="4.78197">
        <ele>231</ele>
        <time>2018-07-25T08:43:27Z</time>
      </trkpt>
      <trkpt lat="45.97209" lon="4.78202">
        <ele>231</ele>
        <time>2018-07-25T08:43:28Z</time>
      </trkpt>
      <trkpt lat="45.97212" lon="4.78209">
        <ele>231</ele>
        <time>2018-07-25T08:43:29Z</time>
      </trkpt>
      <trkpt lat="45.97216" lon="4.78214">
        <ele>231</ele>
        <time>2018-07-25T08:43:30Z</time>
      </trkpt>
      <trkpt lat="45.97219" lon="4.78221">
        <ele>231</ele>
        <time>2018-07-25T08:43:31Z</time>
      </trkpt>
      <trkpt lat="45.97222" lon="4.78227">
        <ele>231</ele>
        <time>2018-07-25T08:43:32Z</time>
      </trkpt>
      <trkpt lat="45.97226" lon="4.78234">
        <ele>231</ele>
        <time>2018-07-25T08:43:33Z</time>
      </trkpt>
      <trkpt lat="45.97229" lon="4.78239">
        <ele>231</ele>
        <time>2018-07-25T08:43:34Z</time>
      </trkpt>
      <trkpt lat="45.97232" lon="4.78244">
        <ele>231</ele>
        <time>2018-07-25T08:43:35Z</time>
      </trkpt>
      <trkpt lat="45.97236" lon="4.78249">
        <ele>231</ele>
        <time>2018-07-25T08:43:36Z</time>
      </trkpt>
      <trkpt lat="45.97239" lon="4.78254">
        <ele>231</ele>
        <time>2018-07-25T08:43:37Z</time>
      </trkpt>
      <trkpt lat="45.97242" lon="4.78259">
        <ele>231</ele>
        <time>2018-07-25T08:43:38Z</time>
      </trkpt>
      <trkpt lat="45.97245" lon="4.78265">
        <ele>231</ele>
        <time>2018-07-25T08:43:39Z</time>
      </trkpt>
      <trkpt lat="45.97248" lon="4.78271">
        <ele>231</ele>
        <time>2018-07-25T08:43:40Z</time>
      </trkpt>
      <trkpt lat="45.97251" lon="4.78277">
        <ele>232</ele>
        <time>2018-07-25T08:43:41Z</time>
      </trkpt>
      <trkpt lat="45.97255" lon="4.78282">
        <ele>232</ele>
        <time>2018-07-25T08:43:42Z</time>
      </trkpt>
      <trkpt lat="45.9726" lon="4.78287">
        <ele>232</ele>
        <time>2018-07-25T08:43:43Z</time>
      </trkpt>
      <trkpt lat="45.97264" lon="4.7829">
        <ele>232</ele>
        <time>2018-07-25T08:43:44Z</time>
      </trkpt>
      <trkpt lat="45.97268" lon="4.78296">
        <ele>232</ele>
        <time>2018-07-25T08:43:45Z</time>
      </trkpt>
      <trkpt lat="45.97272" lon="4.78301">
        <ele>232</ele>
        <time>2018-07-25T08:43:46Z</time>
      </trkpt>
      <trkpt lat="45.97276" lon="4.78307">
        <ele>232</ele>
        <time>2018-07-25T08:43:47Z</time>
      </trkpt>
      <trkpt lat="45.97278" lon="4.78312">
        <ele>232</ele>
        <time>2018-07-25T08:43:48Z</time>
      </trkpt>
      <trkpt lat="45.97282" lon="4.78318">
        <ele>232</ele>
        <time>2018-07-25T08:43:49Z</time>
      </trkpt>
      <trkpt lat="45.97285" lon="4.78324">
        <ele>232</ele>
        <time>2018-07-25T08:43:50Z</time>
      </trkpt>
      <trkpt lat="45.97289" lon="4.78329">
        <ele>232</ele>
        <time>2018-07-25T08:43:51Z</time>
      </trkpt>
      <trkpt lat="45.97293" lon="4.78334">
        <ele>232</ele>
        <time>2018-07-25T08:43:52Z</time>
      </trkpt>
      <trkpt lat="45.97297" lon="4.78339">
        <ele>232</ele>
        <time>2018-07-25T08:43:53Z</time>
      </trkpt>
      <trkpt lat="45.97301" lon="4.78344">
        <ele>232</ele>
        <time>2018-07-25T08:43:54Z</time>
      </trkpt>
      <trkpt lat="45.97305" lon="4.78349">
        <ele>232</ele>
        <time>2018-07-25T08:43:55Z</time>
      </trkpt>
      <trkpt lat="45.97312" lon="4.78353">
        <ele>232</ele>
        <time>2018-07-25T08:43:56Z</time>
      </trkpt>
      <trkpt lat="45.97317" lon="4.78358">
        <ele>232</ele>
        <time>2018-07-25T08:43:57Z</time>
      </trkpt>
      <trkpt lat="45.97319" lon="4.78363">
        <ele>232</ele>
        <time>2018-07-25T08:43:58Z</time>
      </trkpt>
      <trkpt lat="45.97323" lon="4.78368">
        <ele>232</ele>
        <time>2018-07-25T08:43:59Z</time>
      </trkpt>
      <trkpt lat="45.97327" lon="4.78372">
        <ele>232</ele>
        <time>2018-07-25T08:44:00Z</time>
      </trkpt>
      <trkpt lat="45.97331" lon="4.78376">
        <ele>232</ele>
        <time>2018-07-25T08:44:01Z</time>
      </trkpt>
      <trkpt lat="45.97335" lon="4.78381">
        <ele>233</ele>
        <time>2018-07-25T08:44:02Z</time>
      </trkpt>
      <trkpt lat="45.97338" lon="4.78386">
        <ele>233</ele>
        <time>2018-07-25T08:44:03Z</time>
      </trkpt>
      <trkpt lat="45.97342" lon="4.78391">
        <ele>233</ele>
        <time>2018-07-25T08:44:04Z</time>
      </trkpt>
      <trkpt lat="45.97347" lon="4.78396">
        <ele>233</ele>
        <time>2018-07-25T08:44:05Z</time>
      </trkpt>
      <trkpt lat="45.97351" lon="4.784">
        <ele>232</ele>
        <time>2018-07-25T08:44:06Z</time>
      </trkpt>
      <trkpt lat="45.97355" lon="4.78405">
        <ele>232</ele>
        <time>2018-07-25T08:44:07Z</time>
      </trkpt>
      <trkpt lat="45.9736" lon="4.78409">
        <ele>233</ele>
        <time>2018-07-25T08:44:08Z</time>
      </trkpt>
      <trkpt lat="45.97364" lon="4.78413">
        <ele>233</ele>
        <time>2018-07-25T08:44:09Z</time>
      </trkpt>
      <trkpt lat="45.97368" lon="4.78418">
        <ele>233</ele>
        <time>2018-07-25T08:44:10Z</time>
      </trkpt>
      <trkpt lat="45.97373" lon="4.78422">
        <ele>233</ele>
        <time>2018-07-25T08:44:11Z</time>
      </trkpt>
      <trkpt lat="45.97378" lon="4.78428">
        <ele>233</ele>
        <time>2018-07-25T08:44:12Z</time>
      </trkpt>
      <trkpt lat="45.97382" lon="4.78432">
        <ele>233</ele>
        <time>2018-07-25T08:44:13Z</time>
      </trkpt>
      <trkpt lat="45.97388" lon="4.78436">
        <ele>233</ele>
        <time>2018-07-25T08:44:14Z</time>
      </trkpt>
      <trkpt lat="45.97393" lon="4.7844">
        <ele>233</ele>
        <time>2018-07-25T08:44:15Z</time>
      </trkpt>
      <trkpt lat="45.974" lon="4.78447">
        <ele>233</ele>
        <time>2018-07-25T08:44:17Z</time>
      </trkpt>
      <trkpt lat="45.97401" lon="4.7845">
        <ele>233</ele>
        <time>2018-07-25T08:44:18Z</time>
      </trkpt>
      <trkpt lat="45.97405" lon="4.78454">
        <ele>233</ele>
        <time>2018-07-25T08:44:19Z</time>
      </trkpt>
      <trkpt lat="45.97409" lon="4.78459">
        <ele>233</ele>
        <time>2018-07-25T08:44:20Z</time>
      </trkpt>
      <trkpt lat="45.97414" lon="4.78464">
        <ele>233</ele>
        <time>2018-07-25T08:44:21Z</time>
      </trkpt>
      <trkpt lat="45.97419" lon="4.78469">
        <ele>234</ele>
        <time>2018-07-25T08:44:22Z</time>
      </trkpt>
      <trkpt lat="45.97424" lon="4.78473">
        <ele>234</ele>
        <time>2018-07-25T08:44:23Z</time>
      </trkpt>
      <trkpt lat="45.97428" lon="4.78476">
        <ele>234</ele>
        <time>2018-07-25T08:44:24Z</time>
      </trkpt>
      <trkpt lat="45.97433" lon="4.78482">
        <ele>234</ele>
        <time>2018-07-25T08:44:25Z</time>
      </trkpt>
      <trkpt lat="45.97438" lon="4.78487">
        <ele>234</ele>
        <time>2018-07-25T08:44:26Z</time>
      </trkpt>
      <trkpt lat="45.97442" lon="4.78491">
        <ele>234</ele>
        <time>2018-07-25T08:44:27Z</time>
      </trkpt>
      <trkpt lat="45.97446" lon="4.78494">
        <ele>234</ele>
        <time>2018-07-25T08:44:28Z</time>
      </trkpt>
      <trkpt lat="45.97451" lon="4.78497">
        <ele>234</ele>
        <time>2018-07-25T08:44:29Z</time>
      </trkpt>
      <trkpt lat="45.97456" lon="4.785">
        <ele>234</ele>
        <time>2018-07-25T08:44:30Z</time>
      </trkpt>
      <trkpt lat="45.9746" lon="4.78504">
        <ele>234</ele>
        <time>2018-07-25T08:44:31Z</time>
      </trkpt>
      <trkpt lat="45.97465" lon="4.78508">
        <ele>234</ele>
        <time>2018-07-25T08:44:32Z</time>
      </trkpt>
      <trkpt lat="45.9747" lon="4.78511">
        <ele>234</ele>
        <time>2018-07-25T08:44:33Z</time>
      </trkpt>
      <trkpt lat="45.97475" lon="4.78516">
        <ele>234</ele>
        <time>2018-07-25T08:44:34Z</time>
      </trkpt>
      <trkpt lat="45.97481" lon="4.7852">
        <ele>234</ele>
        <time>2018-07-25T08:44:35Z</time>
      </trkpt>
      <trkpt lat="45.97486" lon="4.78525">
        <ele>233</ele>
        <time>2018-07-25T08:44:36Z</time>
      </trkpt>
      <trkpt lat="45.97491" lon="4.78529">
        <ele>233</ele>
        <time>2018-07-25T08:44:37Z</time>
      </trkpt>
      <trkpt lat="45.97495" lon="4.78531">
        <ele>233</ele>
        <time>2018-07-25T08:44:38Z</time>
      </trkpt>
      <trkpt lat="45.975" lon="4.78534">
        <ele>233</ele>
        <time>2018-07-25T08:44:39Z</time>
      </trkpt>
      <trkpt lat="45.97504" lon="4.78538">
        <ele>234</ele>
        <time>2018-07-25T08:44:40Z</time>
      </trkpt>
      <trkpt lat="45.97508" lon="4.78541">
        <ele>234</ele>
        <time>2018-07-25T08:44:41Z</time>
      </trkpt>
      <trkpt lat="45.97513" lon="4.78545">
        <ele>234</ele>
        <time>2018-07-25T08:44:42Z</time>
      </trkpt>
      <trkpt lat="45.97518" lon="4.78548">
        <ele>234</ele>
        <time>2018-07-25T08:44:43Z</time>
      </trkpt>
      <trkpt lat="45.97523" lon="4.78551">
        <ele>234</ele>
        <time>2018-07-25T08:44:44Z</time>
      </trkpt>
      <trkpt lat="45.97527" lon="4.78554">
        <ele>234</ele>
        <time>2018-07-25T08:44:45Z</time>
      </trkpt>
      <trkpt lat="45.97532" lon="4.78557">
        <ele>234</ele>
        <time>2018-07-25T08:44:46Z</time>
      </trkpt>
      <trkpt lat="45.97538" lon="4.7856">
        <ele>234</ele>
        <time>2018-07-25T08:44:47Z</time>
      </trkpt>
      <trkpt lat="45.97542" lon="4.78563">
        <ele>234</ele>
        <time>2018-07-25T08:44:48Z</time>
      </trkpt>
      <trkpt lat="45.97548" lon="4.78566">
        <ele>234</ele>
        <time>2018-07-25T08:44:49Z</time>
      </trkpt>
      <trkpt lat="45.97553" lon="4.78569">
        <ele>234</ele>
        <time>2018-07-25T08:44:50Z</time>
      </trkpt>
      <trkpt lat="45.97558" lon="4.78572">
        <ele>233</ele>
        <time>2018-07-25T08:44:51Z</time>
      </trkpt>
      <trkpt lat="45.97564" lon="4.78574">
        <ele>233</ele>
        <time>2018-07-25T08:44:52Z</time>
      </trkpt>
      <trkpt lat="45.97569" lon="4.78577">
        <ele>233</ele>
        <time>2018-07-25T08:44:53Z</time>
      </trkpt>
      <trkpt lat="45.97574" lon="4.78579">
        <ele>233</ele>
        <time>2018-07-25T08:44:54Z</time>
      </trkpt>
      <trkpt lat="45.97579" lon="4.78581">
        <ele>233</ele>
        <time>2018-07-25T08:44:55Z</time>
      </trkpt>
      <trkpt lat="45.97585" lon="4.78583">
        <ele>233</ele>
        <time>2018-07-25T08:44:56Z</time>
      </trkpt>
      <trkpt lat="45.97589" lon="4.78585">
        <ele>233</ele>
        <time>2018-07-25T08:44:57Z</time>
      </trkpt>
      <trkpt lat="45.97595" lon="4.78587">
        <ele>233</ele>
        <time>2018-07-25T08:44:58Z</time>
      </trkpt>
      <trkpt lat="45.97601" lon="4.78589">
        <ele>233</ele>
        <time>2018-07-25T08:44:59Z</time>
      </trkpt>
      <trkpt lat="45.97606" lon="4.78591">
        <ele>233</ele>
        <time>2018-07-25T08:45:00Z</time>
      </trkpt>
      <trkpt lat="45.97612" lon="4.78593">
        <ele>233</ele>
        <time>2018-07-25T08:45:01Z</time>
      </trkpt>
      <trkpt lat="45.97617" lon="4.78594">
        <ele>233</ele>
        <time>2018-07-25T08:45:02Z</time>
      </trkpt>
      <trkpt lat="45.97623" lon="4.78597">
        <ele>233</ele>
        <time>2018-07-25T08:45:03Z</time>
      </trkpt>
      <trkpt lat="45.97628" lon="4.78598">
        <ele>233</ele>
        <time>2018-07-25T08:45:04Z</time>
      </trkpt>
      <trkpt lat="45.97633" lon="4.78599">
        <ele>233</ele>
        <time>2018-07-25T08:45:05Z</time>
      </trkpt>
      <trkpt lat="45.97637" lon="4.78602">
        <ele>233</ele>
        <time>2018-07-25T08:45:06Z</time>
      </trkpt>
      <trkpt lat="45.97645" lon="4.78606">
        <ele>233</ele>
        <time>2018-07-25T08:45:08Z</time>
      </trkpt>
      <trkpt lat="45.97654" lon="4.7861">
        <ele>233</ele>
        <time>2018-07-25T08:45:09Z</time>
      </trkpt>
      <trkpt lat="45.9766" lon="4.78611">
        <ele>233</ele>
        <time>2018-07-25T08:45:10Z</time>
      </trkpt>
      <trkpt lat="45.97665" lon="4.78614">
        <ele>233</ele>
        <time>2018-07-25T08:45:11Z</time>
      </trkpt>
      <trkpt lat="45.97671" lon="4.78616">
        <ele>234</ele>
        <time>2018-07-25T08:45:12Z</time>
      </trkpt>
      <trkpt lat="45.97676" lon="4.78618">
        <ele>234</ele>
        <time>2018-07-25T08:45:13Z</time>
      </trkpt>
      <trkpt lat="45.97682" lon="4.78621">
        <ele>234</ele>
        <time>2018-07-25T08:45:14Z</time>
      </trkpt>
      <trkpt lat="45.97685" lon="4.78623">
        <ele>234</ele>
        <time>2018-07-25T08:45:15Z</time>
      </trkpt>
      <trkpt lat="45.97691" lon="4.78625">
        <ele>234</ele>
        <time>2018-07-25T08:45:16Z</time>
      </trkpt>
      <trkpt lat="45.977" lon="4.78625">
        <ele>234</ele>
        <time>2018-07-25T08:45:17Z</time>
      </trkpt>
      <trkpt lat="45.97705" lon="4.7863">
        <ele>234</ele>
        <time>2018-07-25T08:45:19Z</time>
      </trkpt>
      <trkpt lat="45.9771" lon="4.78632">
        <ele>234</ele>
        <time>2018-07-25T08:45:20Z</time>
      </trkpt>
      <trkpt lat="45.97716" lon="4.78634">
        <ele>234</ele>
        <time>2018-07-25T08:45:21Z</time>
      </trkpt>
      <trkpt lat="45.97721" lon="4.78636">
        <ele>234</ele>
        <time>2018-07-25T08:45:22Z</time>
      </trkpt>
      <trkpt lat="45.97728" lon="4.78638">
        <ele>234</ele>
        <time>2018-07-25T08:45:23Z</time>
      </trkpt>
      <trkpt lat="45.97732" lon="4.7864">
        <ele>234</ele>
        <time>2018-07-25T08:45:24Z</time>
      </trkpt>
      <trkpt lat="45.97739" lon="4.78642">
        <ele>234</ele>
        <time>2018-07-25T08:45:25Z</time>
      </trkpt>
      <trkpt lat="45.97746" lon="4.78645">
        <ele>234</ele>
        <time>2018-07-25T08:45:26Z</time>
      </trkpt>
      <trkpt lat="45.97753" lon="4.78648">
        <ele>235</ele>
        <time>2018-07-25T08:45:27Z</time>
      </trkpt>
      <trkpt lat="45.97758" lon="4.78651">
        <ele>235</ele>
        <time>2018-07-25T08:45:28Z</time>
      </trkpt>
      <trkpt lat="45.97764" lon="4.78654">
        <ele>235</ele>
        <time>2018-07-25T08:45:29Z</time>
      </trkpt>
      <trkpt lat="45.9777" lon="4.78656">
        <ele>235</ele>
        <time>2018-07-25T08:45:30Z</time>
      </trkpt>
      <trkpt lat="45.97774" lon="4.78658">
        <ele>235</ele>
        <time>2018-07-25T08:45:31Z</time>
      </trkpt>
      <trkpt lat="45.97779" lon="4.78661">
        <ele>235</ele>
        <time>2018-07-25T08:45:32Z</time>
      </trkpt>
      <trkpt lat="45.97784" lon="4.78663">
        <ele>235</ele>
        <time>2018-07-25T08:45:33Z</time>
      </trkpt>
      <trkpt lat="45.97789" lon="4.78665">
        <ele>235</ele>
        <time>2018-07-25T08:45:34Z</time>
      </trkpt>
      <trkpt lat="45.97793" lon="4.78667">
        <ele>235</ele>
        <time>2018-07-25T08:45:35Z</time>
      </trkpt>
      <trkpt lat="45.97798" lon="4.78669">
        <ele>235</ele>
        <time>2018-07-25T08:45:36Z</time>
      </trkpt>
      <trkpt lat="45.97803" lon="4.78672">
        <ele>235</ele>
        <time>2018-07-25T08:45:37Z</time>
      </trkpt>
      <trkpt lat="45.9781" lon="4.78675">
        <ele>235</ele>
        <time>2018-07-25T08:45:38Z</time>
      </trkpt>
      <trkpt lat="45.97816" lon="4.78677">
        <ele>235</ele>
        <time>2018-07-25T08:45:39Z</time>
      </trkpt>
      <trkpt lat="45.97821" lon="4.78679">
        <ele>235</ele>
        <time>2018-07-25T08:45:40Z</time>
      </trkpt>
      <trkpt lat="45.9783" lon="4.78682">
        <ele>235</ele>
        <time>2018-07-25T08:45:42Z</time>
      </trkpt>
      <trkpt lat="45.97835" lon="4.78685">
        <ele>236</ele>
        <time>2018-07-25T08:45:43Z</time>
      </trkpt>
      <trkpt lat="45.97839" lon="4.78688">
        <ele>236</ele>
        <time>2018-07-25T08:45:44Z</time>
      </trkpt>
      <trkpt lat="45.97845" lon="4.78691">
        <ele>236</ele>
        <time>2018-07-25T08:45:45Z</time>
      </trkpt>
      <trkpt lat="45.9785" lon="4.78694">
        <ele>236</ele>
        <time>2018-07-25T08:45:46Z</time>
      </trkpt>
      <trkpt lat="45.97855" lon="4.78697">
        <ele>236</ele>
        <time>2018-07-25T08:45:47Z</time>
      </trkpt>
      <trkpt lat="45.9786" lon="4.787">
        <ele>236</ele>
        <time>2018-07-25T08:45:48Z</time>
      </trkpt>
      <trkpt lat="45.97864" lon="4.78703">
        <ele>236</ele>
        <time>2018-07-25T08:45:49Z</time>
      </trkpt>
      <trkpt lat="45.97869" lon="4.78706">
        <ele>236</ele>
        <time>2018-07-25T08:45:50Z</time>
      </trkpt>
      <trkpt lat="45.97874" lon="4.7871">
        <ele>236</ele>
        <time>2018-07-25T08:45:51Z</time>
      </trkpt>
      <trkpt lat="45.9788" lon="4.78712">
        <ele>236</ele>
        <time>2018-07-25T08:45:52Z</time>
      </trkpt>
      <trkpt lat="45.97883" lon="4.78718">
        <ele>236</ele>
        <time>2018-07-25T08:45:53Z</time>
      </trkpt>
      <trkpt lat="45.97889" lon="4.78722">
        <ele>236</ele>
        <time>2018-07-25T08:45:54Z</time>
      </trkpt>
      <trkpt lat="45.97894" lon="4.78727">
        <ele>236</ele>
        <time>2018-07-25T08:45:55Z</time>
      </trkpt>
      <trkpt lat="45.97899" lon="4.7873">
        <ele>237</ele>
        <time>2018-07-25T08:45:56Z</time>
      </trkpt>
      <trkpt lat="45.97904" lon="4.78734">
        <ele>237</ele>
        <time>2018-07-25T08:45:57Z</time>
      </trkpt>
      <trkpt lat="45.97909" lon="4.78738">
        <ele>237</ele>
        <time>2018-07-25T08:45:58Z</time>
      </trkpt>
      <trkpt lat="45.97912" lon="4.78742">
        <ele>237</ele>
        <time>2018-07-25T08:45:59Z</time>
      </trkpt>
      <trkpt lat="45.97917" lon="4.78745">
        <ele>237</ele>
        <time>2018-07-25T08:46:00Z</time>
      </trkpt>
      <trkpt lat="45.97923" lon="4.78749">
        <ele>237</ele>
        <time>2018-07-25T08:46:01Z</time>
      </trkpt>
      <trkpt lat="45.97927" lon="4.78752">
        <ele>237</ele>
        <time>2018-07-25T08:46:02Z</time>
      </trkpt>
      <trkpt lat="45.97931" lon="4.78755">
        <ele>238</ele>
        <time>2018-07-25T08:46:03Z</time>
      </trkpt>
      <trkpt lat="45.97939" lon="4.78762">
        <ele>238</ele>
        <time>2018-07-25T08:46:05Z</time>
      </trkpt>
      <trkpt lat="45.97943" lon="4.78766">
        <ele>238</ele>
        <time>2018-07-25T08:46:06Z</time>
      </trkpt>
      <trkpt lat="45.97948" lon="4.78769">
        <ele>238</ele>
        <time>2018-07-25T08:46:07Z</time>
      </trkpt>
      <trkpt lat="45.97953" lon="4.78772">
        <ele>238</ele>
        <time>2018-07-25T08:46:08Z</time>
      </trkpt>
      <trkpt lat="45.97957" lon="4.78775">
        <ele>238</ele>
        <time>2018-07-25T08:46:09Z</time>
      </trkpt>
      <trkpt lat="45.97961" lon="4.78778">
        <ele>238</ele>
        <time>2018-07-25T08:46:10Z</time>
      </trkpt>
      <trkpt lat="45.97968" lon="4.78779">
        <ele>238</ele>
        <time>2018-07-25T08:46:11Z</time>
      </trkpt>
      <trkpt lat="45.97972" lon="4.78783">
        <ele>238</ele>
        <time>2018-07-25T08:46:12Z</time>
      </trkpt>
      <trkpt lat="45.97979" lon="4.78786">
        <ele>238</ele>
        <time>2018-07-25T08:46:13Z</time>
      </trkpt>
      <trkpt lat="45.97982" lon="4.7879">
        <ele>238</ele>
        <time>2018-07-25T08:46:14Z</time>
      </trkpt>
      <trkpt lat="45.97987" lon="4.78792">
        <ele>238</ele>
        <time>2018-07-25T08:46:15Z</time>
      </trkpt>
      <trkpt lat="45.97991" lon="4.78796">
        <ele>238</ele>
        <time>2018-07-25T08:46:16Z</time>
      </trkpt>
      <trkpt lat="45.97995" lon="4.78799">
        <ele>238</ele>
        <time>2018-07-25T08:46:17Z</time>
      </trkpt>
      <trkpt lat="45.98001" lon="4.78802">
        <ele>238</ele>
        <time>2018-07-25T08:46:18Z</time>
      </trkpt>
      <trkpt lat="45.98007" lon="4.78808">
        <ele>238</ele>
        <time>2018-07-25T08:46:20Z</time>
      </trkpt>
      <trkpt lat="45.98012" lon="4.78811">
        <ele>238</ele>
        <time>2018-07-25T08:46:21Z</time>
      </trkpt>
      <trkpt lat="45.98016" lon="4.78815">
        <ele>238</ele>
        <time>2018-07-25T08:46:22Z</time>
      </trkpt>
      <trkpt lat="45.98021" lon="4.78819">
        <ele>238</ele>
        <time>2018-07-25T08:46:23Z</time>
      </trkpt>
      <trkpt lat="45.98025" lon="4.78823">
        <ele>238</ele>
        <time>2018-07-25T08:46:24Z</time>
      </trkpt>
      <trkpt lat="45.9803" lon="4.78826">
        <ele>238</ele>
        <time>2018-07-25T08:46:25Z</time>
      </trkpt>
      <trkpt lat="45.98036" lon="4.7883">
        <ele>238</ele>
        <time>2018-07-25T08:46:26Z</time>
      </trkpt>
      <trkpt lat="45.98043" lon="4.78833">
        <ele>238</ele>
        <time>2018-07-25T08:46:27Z</time>
      </trkpt>
      <trkpt lat="45.98049" lon="4.78837">
        <ele>238</ele>
        <time>2018-07-25T08:46:28Z</time>
      </trkpt>
      <trkpt lat="45.98054" lon="4.78841">
        <ele>238</ele>
        <time>2018-07-25T08:46:29Z</time>
      </trkpt>
      <trkpt lat="45.9806" lon="4.78848">
        <ele>239</ele>
        <time>2018-07-25T08:46:31Z</time>
      </trkpt>
      <trkpt lat="45.98065" lon="4.78851">
        <ele>239</ele>
        <time>2018-07-25T08:46:32Z</time>
      </trkpt>
      <trkpt lat="45.9807" lon="4.78855">
        <ele>239</ele>
        <time>2018-07-25T08:46:33Z</time>
      </trkpt>
      <trkpt lat="45.98074" lon="4.78859">
        <ele>239</ele>
        <time>2018-07-25T08:46:34Z</time>
      </trkpt>
      <trkpt lat="45.98079" lon="4.78861">
        <ele>239</ele>
        <time>2018-07-25T08:46:35Z</time>
      </trkpt>
      <trkpt lat="45.98083" lon="4.78864">
        <ele>239</ele>
        <time>2018-07-25T08:46:36Z</time>
      </trkpt>
      <trkpt lat="45.9809" lon="4.78869">
        <ele>239</ele>
        <time>2018-07-25T08:46:38Z</time>
      </trkpt>
      <trkpt lat="45.98093" lon="4.78872">
        <ele>239</ele>
        <time>2018-07-25T08:46:39Z</time>
      </trkpt>
      <trkpt lat="45.981" lon="4.78879">
        <ele>240</ele>
        <time>2018-07-25T08:46:41Z</time>
      </trkpt>
      <trkpt lat="45.98105" lon="4.78885">
        <ele>240</ele>
        <time>2018-07-25T08:46:42Z</time>
      </trkpt>
      <trkpt lat="45.98111" lon="4.78888">
        <ele>240</ele>
        <time>2018-07-25T08:46:43Z</time>
      </trkpt>
      <trkpt lat="45.98115" lon="4.78891">
        <ele>240</ele>
        <time>2018-07-25T08:46:44Z</time>
      </trkpt>
      <trkpt lat="45.98119" lon="4.78892">
        <ele>240</ele>
        <time>2018-07-25T08:46:45Z</time>
      </trkpt>
      <trkpt lat="45.98127" lon="4.78895">
        <ele>240</ele>
        <time>2018-07-25T08:46:46Z</time>
      </trkpt>
      <trkpt lat="45.98134" lon="4.789">
        <ele>240</ele>
        <time>2018-07-25T08:46:48Z</time>
      </trkpt>
      <trkpt lat="45.98139" lon="4.78903">
        <ele>240</ele>
        <time>2018-07-25T08:46:49Z</time>
      </trkpt>
      <trkpt lat="45.98143" lon="4.78905">
        <ele>240</ele>
        <time>2018-07-25T08:46:50Z</time>
      </trkpt>
      <trkpt lat="45.98149" lon="4.78908">
        <ele>240</ele>
        <time>2018-07-25T08:46:51Z</time>
      </trkpt>
      <trkpt lat="45.98157" lon="4.78911">
        <ele>240</ele>
        <time>2018-07-25T08:46:52Z</time>
      </trkpt>
      <trkpt lat="45.98164" lon="4.78914">
        <ele>240</ele>
        <time>2018-07-25T08:46:53Z</time>
      </trkpt>
      <trkpt lat="45.9817" lon="4.78919">
        <ele>240</ele>
        <time>2018-07-25T08:46:55Z</time>
      </trkpt>
      <trkpt lat="45.98175" lon="4.7892">
        <ele>240</ele>
        <time>2018-07-25T08:46:56Z</time>
      </trkpt>
      <trkpt lat="45.9818" lon="4.78924">
        <ele>240</ele>
        <time>2018-07-25T08:46:58Z</time>
      </trkpt>
      <trkpt lat="45.98184" lon="4.78928">
        <ele>241</ele>
        <time>2018-07-25T08:46:59Z</time>
      </trkpt>
      <trkpt lat="45.98189" lon="4.78931">
        <ele>241</ele>
        <time>2018-07-25T08:47:00Z</time>
      </trkpt>
      <trkpt lat="45.98195" lon="4.78934">
        <ele>241</ele>
        <time>2018-07-25T08:47:01Z</time>
      </trkpt>
      <trkpt lat="45.982" lon="4.78937">
        <ele>241</ele>
        <time>2018-07-25T08:47:03Z</time>
      </trkpt>
      <trkpt lat="45.98208" lon="4.78941">
        <ele>241</ele>
        <time>2018-07-25T08:47:04Z</time>
      </trkpt>
      <trkpt lat="45.98212" lon="4.78943">
        <ele>241</ele>
        <time>2018-07-25T08:47:05Z</time>
      </trkpt>
      <trkpt lat="45.98218" lon="4.78945">
        <ele>241</ele>
        <time>2018-07-25T08:47:06Z</time>
      </trkpt>
      <trkpt lat="45.98224" lon="4.7895">
        <ele>241</ele>
        <time>2018-07-25T08:47:08Z</time>
      </trkpt>
      <trkpt lat="45.98229" lon="4.78953">
        <ele>241</ele>
        <time>2018-07-25T08:47:09Z</time>
      </trkpt>
      <trkpt lat="45.98234" lon="4.78956">
        <ele>241</ele>
        <time>2018-07-25T08:47:10Z</time>
      </trkpt>
      <trkpt lat="45.98239" lon="4.78957">
        <ele>241</ele>
        <time>2018-07-25T08:47:11Z</time>
      </trkpt>
      <trkpt lat="45.98244" lon="4.78963">
        <ele>241</ele>
        <time>2018-07-25T08:47:12Z</time>
      </trkpt>
      <trkpt lat="45.98248" lon="4.78966">
        <ele>241</ele>
        <time>2018-07-25T08:47:13Z</time>
      </trkpt>
      <trkpt lat="45.98253" lon="4.78968">
        <ele>241</ele>
        <time>2018-07-25T08:47:14Z</time>
      </trkpt>
      <trkpt lat="45.98257" lon="4.78971">
        <ele>241</ele>
        <time>2018-07-25T08:47:15Z</time>
      </trkpt>
      <trkpt lat="45.98261" lon="4.78973">
        <ele>241</ele>
        <time>2018-07-25T08:47:16Z</time>
      </trkpt>
      <trkpt lat="45.98266" lon="4.78976">
        <ele>241</ele>
        <time>2018-07-25T08:47:17Z</time>
      </trkpt>
      <trkpt lat="45.9827" lon="4.78978">
        <ele>241</ele>
        <time>2018-07-25T08:47:18Z</time>
      </trkpt>
      <trkpt lat="45.98275" lon="4.7898">
        <ele>241</ele>
        <time>2018-07-25T08:47:19Z</time>
      </trkpt>
      <trkpt lat="45.9828" lon="4.78983">
        <ele>241</ele>
        <time>2018-07-25T08:47:20Z</time>
      </trkpt>
      <trkpt lat="45.98284" lon="4.78987">
        <ele>241</ele>
        <time>2018-07-25T08:47:21Z</time>
      </trkpt>
      <trkpt lat="45.98292" lon="4.7899">
        <ele>241</ele>
        <time>2018-07-25T08:47:23Z</time>
      </trkpt>
      <trkpt lat="45.98297" lon="4.78993">
        <ele>241</ele>
        <time>2018-07-25T08:47:24Z</time>
      </trkpt>
      <trkpt lat="45.98298" lon="4.78994">
        <ele>241</ele>
        <time>2018-07-25T08:47:25Z</time>
      </trkpt>
      <trkpt lat="45.98305" lon="4.78999">
        <ele>241</ele>
        <time>2018-07-25T08:47:26Z</time>
      </trkpt>
      <trkpt lat="45.98309" lon="4.79002">
        <ele>242</ele>
        <time>2018-07-25T08:47:27Z</time>
      </trkpt>
      <trkpt lat="45.98314" lon="4.79004">
        <ele>242</ele>
        <time>2018-07-25T08:47:28Z</time>
      </trkpt>
      <trkpt lat="45.98318" lon="4.79007">
        <ele>242</ele>
        <time>2018-07-25T08:47:29Z</time>
      </trkpt>
      <trkpt lat="45.98324" lon="4.7901">
        <ele>242</ele>
        <time>2018-07-25T08:47:30Z</time>
      </trkpt>
      <trkpt lat="45.98329" lon="4.79013">
        <ele>242</ele>
        <time>2018-07-25T08:47:31Z</time>
      </trkpt>
      <trkpt lat="45.98333" lon="4.79016">
        <ele>242</ele>
        <time>2018-07-25T08:47:32Z</time>
      </trkpt>
      <trkpt lat="45.98338" lon="4.79019">
        <ele>242</ele>
        <time>2018-07-25T08:47:33Z</time>
      </trkpt>
      <trkpt lat="45.98342" lon="4.79023">
        <ele>242</ele>
        <time>2018-07-25T08:47:34Z</time>
      </trkpt>
      <trkpt lat="45.98349" lon="4.7903">
        <ele>242</ele>
        <time>2018-07-25T08:47:36Z</time>
      </trkpt>
      <trkpt lat="45.98353" lon="4.79032">
        <ele>242</ele>
        <time>2018-07-25T08:47:37Z</time>
      </trkpt>
      <trkpt lat="45.98357" lon="4.79037">
        <ele>242</ele>
        <time>2018-07-25T08:47:38Z</time>
      </trkpt>
      <trkpt lat="45.9836" lon="4.79041">
        <ele>242</ele>
        <time>2018-07-25T08:47:39Z</time>
      </trkpt>
      <trkpt lat="45.98364" lon="4.79046">
        <ele>242</ele>
        <time>2018-07-25T08:47:40Z</time>
      </trkpt>
      <trkpt lat="45.98367" lon="4.7905">
        <ele>242</ele>
        <time>2018-07-25T08:47:41Z</time>
      </trkpt>
      <trkpt lat="45.98371" lon="4.7906">
        <ele>242</ele>
        <time>2018-07-25T08:47:43Z</time>
      </trkpt>
      <trkpt lat="45.98372" lon="4.79065">
        <ele>242</ele>
        <time>2018-07-25T08:47:44Z</time>
      </trkpt>
      <trkpt lat="45.98376" lon="4.79071">
        <ele>242</ele>
        <time>2018-07-25T08:47:45Z</time>
      </trkpt>
      <trkpt lat="45.98379" lon="4.79076">
        <ele>242</ele>
        <time>2018-07-25T08:47:46Z</time>
      </trkpt>
      <trkpt lat="45.98381" lon="4.79082">
        <ele>242</ele>
        <time>2018-07-25T08:47:47Z</time>
      </trkpt>
      <trkpt lat="45.98385" lon="4.79087">
        <ele>242</ele>
        <time>2018-07-25T08:47:48Z</time>
      </trkpt>
      <trkpt lat="45.98388" lon="4.79092">
        <ele>242</ele>
        <time>2018-07-25T08:47:49Z</time>
      </trkpt>
      <trkpt lat="45.98392" lon="4.79098">
        <ele>242</ele>
        <time>2018-07-25T08:47:50Z</time>
      </trkpt>
      <trkpt lat="45.98394" lon="4.79103">
        <ele>242</ele>
        <time>2018-07-25T08:47:51Z</time>
      </trkpt>
      <trkpt lat="45.98397" lon="4.79109">
        <ele>242</ele>
        <time>2018-07-25T08:47:52Z</time>
      </trkpt>
      <trkpt lat="45.98401" lon="4.79116">
        <ele>242</ele>
        <time>2018-07-25T08:47:53Z</time>
      </trkpt>
      <trkpt lat="45.98404" lon="4.79121">
        <ele>242</ele>
        <time>2018-07-25T08:47:54Z</time>
      </trkpt>
      <trkpt lat="45.98408" lon="4.79127">
        <ele>242</ele>
        <time>2018-07-25T08:47:55Z</time>
      </trkpt>
      <trkpt lat="45.98411" lon="4.79133">
        <ele>242</ele>
        <time>2018-07-25T08:47:56Z</time>
      </trkpt>
      <trkpt lat="45.98414" lon="4.79139">
        <ele>242</ele>
        <time>2018-07-25T08:47:57Z</time>
      </trkpt>
      <trkpt lat="45.98417" lon="4.79146">
        <ele>242</ele>
        <time>2018-07-25T08:47:58Z</time>
      </trkpt>
      <trkpt lat="45.9842" lon="4.79152">
        <ele>242</ele>
        <time>2018-07-25T08:47:59Z</time>
      </trkpt>
      <trkpt lat="45.98423" lon="4.79158">
        <ele>242</ele>
        <time>2018-07-25T08:48:00Z</time>
      </trkpt>
      <trkpt lat="45.98426" lon="4.79164">
        <ele>242</ele>
        <time>2018-07-25T08:48:01Z</time>
      </trkpt>
      <trkpt lat="45.98429" lon="4.79169">
        <ele>242</ele>
        <time>2018-07-25T08:48:02Z</time>
      </trkpt>
      <trkpt lat="45.98432" lon="4.79174">
        <ele>242</ele>
        <time>2018-07-25T08:48:03Z</time>
      </trkpt>
      <trkpt lat="45.98436" lon="4.79181">
        <ele>242</ele>
        <time>2018-07-25T08:48:04Z</time>
      </trkpt>
      <trkpt lat="45.98441" lon="4.79192">
        <ele>242</ele>
        <time>2018-07-25T08:48:06Z</time>
      </trkpt>
      <trkpt lat="45.98444" lon="4.79198">
        <ele>242</ele>
        <time>2018-07-25T08:48:07Z</time>
      </trkpt>
      <trkpt lat="45.98447" lon="4.79201">
        <ele>242</ele>
        <time>2018-07-25T08:48:08Z</time>
      </trkpt>
      <trkpt lat="45.9845" lon="4.79207">
        <ele>242</ele>
        <time>2018-07-25T08:48:09Z</time>
      </trkpt>
      <trkpt lat="45.98454" lon="4.79213">
        <ele>242</ele>
        <time>2018-07-25T08:48:10Z</time>
      </trkpt>
      <trkpt lat="45.98457" lon="4.7922">
        <ele>243</ele>
        <time>2018-07-25T08:48:11Z</time>
      </trkpt>
      <trkpt lat="45.98459" lon="4.79225">
        <ele>243</ele>
        <time>2018-07-25T08:48:12Z</time>
      </trkpt>
      <trkpt lat="45.98463" lon="4.79231">
        <ele>243</ele>
        <time>2018-07-25T08:48:13Z</time>
      </trkpt>
      <trkpt lat="45.98466" lon="4.79236">
        <ele>243</ele>
        <time>2018-07-25T08:48:14Z</time>
      </trkpt>
      <trkpt lat="45.98468" lon="4.79242">
        <ele>243</ele>
        <time>2018-07-25T08:48:15Z</time>
      </trkpt>
      <trkpt lat="45.98471" lon="4.79249">
        <ele>243</ele>
        <time>2018-07-25T08:48:16Z</time>
      </trkpt>
      <trkpt lat="45.98474" lon="4.79254">
        <ele>243</ele>
        <time>2018-07-25T08:48:17Z</time>
      </trkpt>
      <trkpt lat="45.98477" lon="4.79261">
        <ele>243</ele>
        <time>2018-07-25T08:48:18Z</time>
      </trkpt>
      <trkpt lat="45.9848" lon="4.79267">
        <ele>243</ele>
        <time>2018-07-25T08:48:19Z</time>
      </trkpt>
      <trkpt lat="45.98482" lon="4.79272">
        <ele>243</ele>
        <time>2018-07-25T08:48:20Z</time>
      </trkpt>
      <trkpt lat="45.98486" lon="4.79278">
        <ele>243</ele>
        <time>2018-07-25T08:48:21Z</time>
      </trkpt>
      <trkpt lat="45.98489" lon="4.79284">
        <ele>243</ele>
        <time>2018-07-25T08:48:22Z</time>
      </trkpt>
      <trkpt lat="45.98491" lon="4.79292">
        <ele>243</ele>
        <time>2018-07-25T08:48:23Z</time>
      </trkpt>
      <trkpt lat="45.98494" lon="4.79299">
        <ele>243</ele>
        <time>2018-07-25T08:48:24Z</time>
      </trkpt>
      <trkpt lat="45.98497" lon="4.79306">
        <ele>243</ele>
        <time>2018-07-25T08:48:25Z</time>
      </trkpt>
      <trkpt lat="45.98499" lon="4.79312">
        <ele>243</ele>
        <time>2018-07-25T08:48:26Z</time>
      </trkpt>
      <trkpt lat="45.985" lon="4.79319">
        <ele>243</ele>
        <time>2018-07-25T08:48:27Z</time>
      </trkpt>
      <trkpt lat="45.98502" lon="4.79326">
        <ele>243</ele>
        <time>2018-07-25T08:48:28Z</time>
      </trkpt>
      <trkpt lat="45.98504" lon="4.79332">
        <ele>243</ele>
        <time>2018-07-25T08:48:29Z</time>
      </trkpt>
      <trkpt lat="45.98505" lon="4.79338">
        <ele>243</ele>
        <time>2018-07-25T08:48:30Z</time>
      </trkpt>
      <trkpt lat="45.98508" lon="4.79344">
        <ele>243</ele>
        <time>2018-07-25T08:48:31Z</time>
      </trkpt>
      <trkpt lat="45.98509" lon="4.7935">
        <ele>243</ele>
        <time>2018-07-25T08:48:32Z</time>
      </trkpt>
      <trkpt lat="45.98511" lon="4.79357">
        <ele>243</ele>
        <time>2018-07-25T08:48:33Z</time>
      </trkpt>
      <trkpt lat="45.98513" lon="4.79363">
        <ele>243</ele>
        <time>2018-07-25T08:48:34Z</time>
      </trkpt>
      <trkpt lat="45.98514" lon="4.79371">
        <ele>243</ele>
        <time>2018-07-25T08:48:35Z</time>
      </trkpt>
      <trkpt lat="45.98516" lon="4.79382">
        <ele>244</ele>
        <time>2018-07-25T08:48:37Z</time>
      </trkpt>
      <trkpt lat="45.98517" lon="4.79389">
        <ele>244</ele>
        <time>2018-07-25T08:48:38Z</time>
      </trkpt>
      <trkpt lat="45.98519" lon="4.79401">
        <ele>244</ele>
        <time>2018-07-25T08:48:40Z</time>
      </trkpt>
      <trkpt lat="45.98519" lon="4.79408">
        <ele>244</ele>
        <time>2018-07-25T08:48:41Z</time>
      </trkpt>
      <trkpt lat="45.9852" lon="4.7942">
        <ele>244</ele>
        <time>2018-07-25T08:48:43Z</time>
      </trkpt>
      <trkpt lat="45.98521" lon="4.79427">
        <ele>244</ele>
        <time>2018-07-25T08:48:44Z</time>
      </trkpt>
      <trkpt lat="45.98521" lon="4.79433">
        <ele>244</ele>
        <time>2018-07-25T08:48:45Z</time>
      </trkpt>
      <trkpt lat="45.98521" lon="4.79441">
        <ele>244</ele>
        <time>2018-07-25T08:48:46Z</time>
      </trkpt>
      <trkpt lat="45.98522" lon="4.79447">
        <ele>244</ele>
        <time>2018-07-25T08:48:47Z</time>
      </trkpt>
      <trkpt lat="45.98522" lon="4.79454">
        <ele>244</ele>
        <time>2018-07-25T08:48:48Z</time>
      </trkpt>
      <trkpt lat="45.98522" lon="4.7946">
        <ele>244</ele>
        <time>2018-07-25T08:48:49Z</time>
      </trkpt>
      <trkpt lat="45.98522" lon="4.79467">
        <ele>244</ele>
        <time>2018-07-25T08:48:50Z</time>
      </trkpt>
      <trkpt lat="45.98522" lon="4.79473">
        <ele>244</ele>
        <time>2018-07-25T08:48:51Z</time>
      </trkpt>
      <trkpt lat="45.98523" lon="4.7948">
        <ele>244</ele>
        <time>2018-07-25T08:48:52Z</time>
      </trkpt>
      <trkpt lat="45.98522" lon="4.79488">
        <ele>244</ele>
        <time>2018-07-25T08:48:53Z</time>
      </trkpt>
      <trkpt lat="45.98523" lon="4.79494">
        <ele>243</ele>
        <time>2018-07-25T08:48:54Z</time>
      </trkpt>
      <trkpt lat="45.98525" lon="4.795">
        <ele>243</ele>
        <time>2018-07-25T08:48:55Z</time>
      </trkpt>
      <trkpt lat="45.98528" lon="4.79505">
        <ele>244</ele>
        <time>2018-07-25T08:48:56Z</time>
      </trkpt>
      <trkpt lat="45.98529" lon="4.79512">
        <ele>244</ele>
        <time>2018-07-25T08:48:57Z</time>
      </trkpt>
      <trkpt lat="45.98532" lon="4.79519">
        <ele>244</ele>
        <time>2018-07-25T08:48:58Z</time>
      </trkpt>
      <trkpt lat="45.98534" lon="4.79525">
        <ele>244</ele>
        <time>2018-07-25T08:48:59Z</time>
      </trkpt>
      <trkpt lat="45.98536" lon="4.79531">
        <ele>244</ele>
        <time>2018-07-25T08:49:00Z</time>
      </trkpt>
      <trkpt lat="45.98541" lon="4.79541">
        <ele>244</ele>
        <time>2018-07-25T08:49:02Z</time>
      </trkpt>
      <trkpt lat="45.98545" lon="4.79546">
        <ele>244</ele>
        <time>2018-07-25T08:49:03Z</time>
      </trkpt>
      <trkpt lat="45.98548" lon="4.79551">
        <ele>244</ele>
        <time>2018-07-25T08:49:04Z</time>
      </trkpt>
      <trkpt lat="45.98552" lon="4.79554">
        <ele>244</ele>
        <time>2018-07-25T08:49:05Z</time>
      </trkpt>
      <trkpt lat="45.98555" lon="4.7956">
        <ele>244</ele>
        <time>2018-07-25T08:49:06Z</time>
      </trkpt>
      <trkpt lat="45.98558" lon="4.79564">
        <ele>244</ele>
        <time>2018-07-25T08:49:07Z</time>
      </trkpt>
      <trkpt lat="45.98565" lon="4.79573">
        <ele>244</ele>
        <time>2018-07-25T08:49:09Z</time>
      </trkpt>
      <trkpt lat="45.98569" lon="4.79578">
        <ele>245</ele>
        <time>2018-07-25T08:49:10Z</time>
      </trkpt>
      <trkpt lat="45.98572" lon="4.79583">
        <ele>245</ele>
        <time>2018-07-25T08:49:11Z</time>
      </trkpt>
      <trkpt lat="45.98576" lon="4.79587">
        <ele>245</ele>
        <time>2018-07-25T08:49:12Z</time>
      </trkpt>
      <trkpt lat="45.98579" lon="4.79591">
        <ele>245</ele>
        <time>2018-07-25T08:49:13Z</time>
      </trkpt>
      <trkpt lat="45.98583" lon="4.79595">
        <ele>245</ele>
        <time>2018-07-25T08:49:14Z</time>
      </trkpt>
      <trkpt lat="45.98588" lon="4.79599">
        <ele>245</ele>
        <time>2018-07-25T08:49:15Z</time>
      </trkpt>
      <trkpt lat="45.9859" lon="4.79603">
        <ele>245</ele>
        <time>2018-07-25T08:49:16Z</time>
      </trkpt>
      <trkpt lat="45.98594" lon="4.79608">
        <ele>245</ele>
        <time>2018-07-25T08:49:17Z</time>
      </trkpt>
      <trkpt lat="45.98596" lon="4.79614">
        <ele>245</ele>
        <time>2018-07-25T08:49:18Z</time>
      </trkpt>
      <trkpt lat="45.98602" lon="4.79622">
        <ele>245</ele>
        <time>2018-07-25T08:49:20Z</time>
      </trkpt>
      <trkpt lat="45.98606" lon="4.79626">
        <ele>245</ele>
        <time>2018-07-25T08:49:21Z</time>
      </trkpt>
      <trkpt lat="45.98614" lon="4.7963">
        <ele>245</ele>
        <time>2018-07-25T08:49:23Z</time>
      </trkpt>
      <trkpt lat="45.98618" lon="4.79633">
        <ele>245</ele>
        <time>2018-07-25T08:49:24Z</time>
      </trkpt>
      <trkpt lat="45.98622" lon="4.79637">
        <ele>245</ele>
        <time>2018-07-25T08:49:25Z</time>
      </trkpt>
      <trkpt lat="45.98626" lon="4.79644">
        <ele>245</ele>
        <time>2018-07-25T08:49:26Z</time>
      </trkpt>
      <trkpt lat="45.9863" lon="4.79649">
        <ele>245</ele>
        <time>2018-07-25T08:49:27Z</time>
      </trkpt>
      <trkpt lat="45.98634" lon="4.79655">
        <ele>245</ele>
        <time>2018-07-25T08:49:28Z</time>
      </trkpt>
      <trkpt lat="45.98637" lon="4.7966">
        <ele>245</ele>
        <time>2018-07-25T08:49:29Z</time>
      </trkpt>
      <trkpt lat="45.9864" lon="4.79666">
        <ele>245</ele>
        <time>2018-07-25T08:49:30Z</time>
      </trkpt>
      <trkpt lat="45.98647" lon="4.79674">
        <ele>245</ele>
        <time>2018-07-25T08:49:32Z</time>
      </trkpt>
      <trkpt lat="45.9865" lon="4.7968">
        <ele>245</ele>
        <time>2018-07-25T08:49:33Z</time>
      </trkpt>
      <trkpt lat="45.98653" lon="4.79685">
        <ele>245</ele>
        <time>2018-07-25T08:49:34Z</time>
      </trkpt>
      <trkpt lat="45.98658" lon="4.7969">
        <ele>245</ele>
        <time>2018-07-25T08:49:35Z</time>
      </trkpt>
      <trkpt lat="45.98662" lon="4.79696">
        <ele>245</ele>
        <time>2018-07-25T08:49:36Z</time>
      </trkpt>
      <trkpt lat="45.98665" lon="4.79699">
        <ele>245</ele>
        <time>2018-07-25T08:49:37Z</time>
      </trkpt>
      <trkpt lat="45.98671" lon="4.79706">
        <ele>245</ele>
        <time>2018-07-25T08:49:39Z</time>
      </trkpt>
      <trkpt lat="45.98674" lon="4.79709">
        <ele>245</ele>
        <time>2018-07-25T08:49:40Z</time>
      </trkpt>
      <trkpt lat="45.98679" lon="4.79712">
        <ele>245</ele>
        <time>2018-07-25T08:49:41Z</time>
      </trkpt>
      <trkpt lat="45.98683" lon="4.79715">
        <ele>245</ele>
        <time>2018-07-25T08:49:42Z</time>
      </trkpt>
      <trkpt lat="45.98687" lon="4.79717">
        <ele>245</ele>
        <time>2018-07-25T08:49:43Z</time>
      </trkpt>
      <trkpt lat="45.98692" lon="4.79719">
        <ele>245</ele>
        <time>2018-07-25T08:49:44Z</time>
      </trkpt>
      <trkpt lat="45.98697" lon="4.79721">
        <ele>245</ele>
        <time>2018-07-25T08:49:45Z</time>
      </trkpt>
      <trkpt lat="45.98702" lon="4.79723">
        <ele>245</ele>
        <time>2018-07-25T08:49:46Z</time>
      </trkpt>
      <trkpt lat="45.98706" lon="4.79725">
        <ele>245</ele>
        <time>2018-07-25T08:49:47Z</time>
      </trkpt>
      <trkpt lat="45.98711" lon="4.79727">
        <ele>245</ele>
        <time>2018-07-25T08:49:48Z</time>
      </trkpt>
      <trkpt lat="45.98716" lon="4.7973">
        <ele>245</ele>
        <time>2018-07-25T08:49:49Z</time>
      </trkpt>
      <trkpt lat="45.9872" lon="4.79732">
        <ele>245</ele>
        <time>2018-07-25T08:49:50Z</time>
      </trkpt>
      <trkpt lat="45.98725" lon="4.79736">
        <ele>245</ele>
        <time>2018-07-25T08:49:51Z</time>
      </trkpt>
      <trkpt lat="45.98729" lon="4.79739">
        <ele>245</ele>
        <time>2018-07-25T08:49:52Z</time>
      </trkpt>
      <trkpt lat="45.98734" lon="4.79742">
        <ele>245</ele>
        <time>2018-07-25T08:49:53Z</time>
      </trkpt>
      <trkpt lat="45.98738" lon="4.79747">
        <ele>245</ele>
        <time>2018-07-25T08:49:54Z</time>
      </trkpt>
      <trkpt lat="45.98743" lon="4.7975">
        <ele>245</ele>
        <time>2018-07-25T08:49:55Z</time>
      </trkpt>
      <trkpt lat="45.98748" lon="4.79752">
        <ele>245</ele>
        <time>2018-07-25T08:49:56Z</time>
      </trkpt>
      <trkpt lat="45.98752" lon="4.79756">
        <ele>245</ele>
        <time>2018-07-25T08:49:57Z</time>
      </trkpt>
      <trkpt lat="45.98757" lon="4.79761">
        <ele>245</ele>
        <time>2018-07-25T08:49:58Z</time>
      </trkpt>
      <trkpt lat="45.98764" lon="4.79765">
        <ele>245</ele>
        <time>2018-07-25T08:49:59Z</time>
      </trkpt>
      <trkpt lat="45.98769" lon="4.79769">
        <ele>245</ele>
        <time>2018-07-25T08:50:00Z</time>
      </trkpt>
      <trkpt lat="45.98774" lon="4.7977">
        <ele>245</ele>
        <time>2018-07-25T08:50:02Z</time>
      </trkpt>
      <trkpt lat="45.98778" lon="4.79778">
        <ele>245</ele>
        <time>2018-07-25T08:50:03Z</time>
      </trkpt>
      <trkpt lat="45.98782" lon="4.79783">
        <ele>245</ele>
        <time>2018-07-25T08:50:04Z</time>
      </trkpt>
      <trkpt lat="45.98787" lon="4.79791">
        <ele>245</ele>
        <time>2018-07-25T08:50:05Z</time>
      </trkpt>
      <trkpt lat="45.98791" lon="4.79797">
        <ele>245</ele>
        <time>2018-07-25T08:50:06Z</time>
      </trkpt>
      <trkpt lat="45.98796" lon="4.79803">
        <ele>245</ele>
        <time>2018-07-25T08:50:07Z</time>
      </trkpt>
      <trkpt lat="45.98802" lon="4.79809">
        <ele>245</ele>
        <time>2018-07-25T08:50:08Z</time>
      </trkpt>
      <trkpt lat="45.98807" lon="4.79815">
        <ele>245</ele>
        <time>2018-07-25T08:50:09Z</time>
      </trkpt>
      <trkpt lat="45.98811" lon="4.7982">
        <ele>245</ele>
        <time>2018-07-25T08:50:10Z</time>
      </trkpt>
      <trkpt lat="45.98815" lon="4.79824">
        <ele>245</ele>
        <time>2018-07-25T08:50:11Z</time>
      </trkpt>
      <trkpt lat="45.98819" lon="4.7983">
        <ele>244</ele>
        <time>2018-07-25T08:50:12Z</time>
      </trkpt>
      <trkpt lat="45.98824" lon="4.79835">
        <ele>244</ele>
        <time>2018-07-25T08:50:13Z</time>
      </trkpt>
      <trkpt lat="45.98828" lon="4.7984">
        <ele>244</ele>
        <time>2018-07-25T08:50:14Z</time>
      </trkpt>
      <trkpt lat="45.98833" lon="4.79845">
        <ele>244</ele>
        <time>2018-07-25T08:50:15Z</time>
      </trkpt>
      <trkpt lat="45.98837" lon="4.7985">
        <ele>244</ele>
        <time>2018-07-25T08:50:16Z</time>
      </trkpt>
      <trkpt lat="45.9884" lon="4.79856">
        <ele>244</ele>
        <time>2018-07-25T08:50:17Z</time>
      </trkpt>
      <trkpt lat="45.98844" lon="4.79862">
        <ele>244</ele>
        <time>2018-07-25T08:50:18Z</time>
      </trkpt>
      <trkpt lat="45.98848" lon="4.79867">
        <ele>244</ele>
        <time>2018-07-25T08:50:19Z</time>
      </trkpt>
      <trkpt lat="45.98853" lon="4.79873">
        <ele>243</ele>
        <time>2018-07-25T08:50:20Z</time>
      </trkpt>
      <trkpt lat="45.98857" lon="4.79878">
        <ele>243</ele>
        <time>2018-07-25T08:50:21Z</time>
      </trkpt>
      <trkpt lat="45.98862" lon="4.79883">
        <ele>243</ele>
        <time>2018-07-25T08:50:22Z</time>
      </trkpt>
      <trkpt lat="45.98866" lon="4.79888">
        <ele>243</ele>
        <time>2018-07-25T08:50:23Z</time>
      </trkpt>
      <trkpt lat="45.9887" lon="4.79893">
        <ele>243</ele>
        <time>2018-07-25T08:50:24Z</time>
      </trkpt>
      <trkpt lat="45.98875" lon="4.79897">
        <ele>244</ele>
        <time>2018-07-25T08:50:25Z</time>
      </trkpt>
      <trkpt lat="45.98879" lon="4.79902">
        <ele>244</ele>
        <time>2018-07-25T08:50:26Z</time>
      </trkpt>
      <trkpt lat="45.98882" lon="4.79906">
        <ele>244</ele>
        <time>2018-07-25T08:50:27Z</time>
      </trkpt>
      <trkpt lat="45.98887" lon="4.79911">
        <ele>244</ele>
        <time>2018-07-25T08:50:28Z</time>
      </trkpt>
      <trkpt lat="45.9889" lon="4.79915">
        <ele>244</ele>
        <time>2018-07-25T08:50:29Z</time>
      </trkpt>
      <trkpt lat="45.98895" lon="4.7992">
        <ele>244</ele>
        <time>2018-07-25T08:50:30Z</time>
      </trkpt>
      <trkpt lat="45.989" lon="4.79926">
        <ele>244</ele>
        <time>2018-07-25T08:50:31Z</time>
      </trkpt>
      <trkpt lat="45.98905" lon="4.79932">
        <ele>244</ele>
        <time>2018-07-25T08:50:32Z</time>
      </trkpt>
      <trkpt lat="45.9891" lon="4.79938">
        <ele>244</ele>
        <time>2018-07-25T08:50:33Z</time>
      </trkpt>
      <trkpt lat="45.98915" lon="4.79944">
        <ele>243</ele>
        <time>2018-07-25T08:50:34Z</time>
      </trkpt>
      <trkpt lat="45.9892" lon="4.7995">
        <ele>245</ele>
        <time>2018-07-25T08:50:35Z</time>
      </trkpt>
      <trkpt lat="45.98926" lon="4.79955">
        <ele>245</ele>
        <time>2018-07-25T08:50:36Z</time>
      </trkpt>
      <trkpt lat="45.9893" lon="4.79962">
        <ele>245</ele>
        <time>2018-07-25T08:50:37Z</time>
      </trkpt>
      <trkpt lat="45.98936" lon="4.79967">
        <ele>245</ele>
        <time>2018-07-25T08:50:38Z</time>
      </trkpt>
      <trkpt lat="45.98941" lon="4.79973">
        <ele>245</ele>
        <time>2018-07-25T08:50:39Z</time>
      </trkpt>
      <trkpt lat="45.98947" lon="4.79979">
        <ele>245</ele>
        <time>2018-07-25T08:50:40Z</time>
      </trkpt>
      <trkpt lat="45.98951" lon="4.79984">
        <ele>245</ele>
        <time>2018-07-25T08:50:41Z</time>
      </trkpt>
      <trkpt lat="45.98956" lon="4.79988">
        <ele>245</ele>
        <time>2018-07-25T08:50:42Z</time>
      </trkpt>
      <trkpt lat="45.98961" lon="4.79994">
        <ele>245</ele>
        <time>2018-07-25T08:50:43Z</time>
      </trkpt>
      <trkpt lat="45.98966" lon="4.80001">
        <ele>243</ele>
        <time>2018-07-25T08:50:44Z</time>
      </trkpt>
      <trkpt lat="45.98971" lon="4.80007">
        <ele>243</ele>
        <time>2018-07-25T08:50:45Z</time>
      </trkpt>
      <trkpt lat="45.98976" lon="4.80011">
        <ele>243</ele>
        <time>2018-07-25T08:50:46Z</time>
      </trkpt>
      <trkpt lat="45.98981" lon="4.80017">
        <ele>243</ele>
        <time>2018-07-25T08:50:47Z</time>
      </trkpt>
      <trkpt lat="45.98986" lon="4.80021">
        <ele>243</ele>
        <time>2018-07-25T08:50:48Z</time>
      </trkpt>
      <trkpt lat="45.98991" lon="4.80027">
        <ele>243</ele>
        <time>2018-07-25T08:50:49Z</time>
      </trkpt>
      <trkpt lat="45.98995" lon="4.80032">
        <ele>242</ele>
        <time>2018-07-25T08:50:50Z</time>
      </trkpt>
      <trkpt lat="45.99" lon="4.80038">
        <ele>244</ele>
        <time>2018-07-25T08:50:51Z</time>
      </trkpt>
      <trkpt lat="45.99004" lon="4.80044">
        <ele>244</ele>
        <time>2018-07-25T08:50:52Z</time>
      </trkpt>
      <trkpt lat="45.99009" lon="4.8005">
        <ele>244</ele>
        <time>2018-07-25T08:50:53Z</time>
      </trkpt>
      <trkpt lat="45.99014" lon="4.80055">
        <ele>243</ele>
        <time>2018-07-25T08:50:54Z</time>
      </trkpt>
      <trkpt lat="45.99016" lon="4.80058">
        <ele>243</ele>
        <time>2018-07-25T08:50:55Z</time>
      </trkpt>
      <trkpt lat="45.99021" lon="4.80064">
        <ele>243</ele>
        <time>2018-07-25T08:50:56Z</time>
      </trkpt>
      <trkpt lat="45.99025" lon="4.8007">
        <ele>243</ele>
        <time>2018-07-25T08:50:57Z</time>
      </trkpt>
      <trkpt lat="45.9903" lon="4.80075">
        <ele>243</ele>
        <time>2018-07-25T08:50:58Z</time>
      </trkpt>
      <trkpt lat="45.99034" lon="4.8008">
        <ele>243</ele>
        <time>2018-07-25T08:50:59Z</time>
      </trkpt>
      <trkpt lat="45.99041" lon="4.80086">
        <ele>242</ele>
        <time>2018-07-25T08:51:00Z</time>
      </trkpt>
      <trkpt lat="45.99046" lon="4.80092">
        <ele>242</ele>
        <time>2018-07-25T08:51:01Z</time>
      </trkpt>
      <trkpt lat="45.99051" lon="4.80098">
        <ele>242</ele>
        <time>2018-07-25T08:51:02Z</time>
      </trkpt>
      <trkpt lat="45.99056" lon="4.80103">
        <ele>242</ele>
        <time>2018-07-25T08:51:03Z</time>
      </trkpt>
      <trkpt lat="45.99062" lon="4.80109">
        <ele>242</ele>
        <time>2018-07-25T08:51:04Z</time>
      </trkpt>
      <trkpt lat="45.99067" lon="4.80115">
        <ele>242</ele>
        <time>2018-07-25T08:51:05Z</time>
      </trkpt>
      <trkpt lat="45.99072" lon="4.80119">
        <ele>242</ele>
        <time>2018-07-25T08:51:06Z</time>
      </trkpt>
      <trkpt lat="45.99076" lon="4.80124">
        <ele>242</ele>
        <time>2018-07-25T08:51:07Z</time>
      </trkpt>
      <trkpt lat="45.9908" lon="4.80128">
        <ele>242</ele>
        <time>2018-07-25T08:51:08Z</time>
      </trkpt>
      <trkpt lat="45.99085" lon="4.80133">
        <ele>243</ele>
        <time>2018-07-25T08:51:09Z</time>
      </trkpt>
      <trkpt lat="45.99088" lon="4.80138">
        <ele>243</ele>
        <time>2018-07-25T08:51:10Z</time>
      </trkpt>
      <trkpt lat="45.99093" lon="4.80144">
        <ele>243</ele>
        <time>2018-07-25T08:51:11Z</time>
      </trkpt>
      <trkpt lat="45.99097" lon="4.80149">
        <ele>243</ele>
        <time>2018-07-25T08:51:12Z</time>
      </trkpt>
      <trkpt lat="45.99102" lon="4.80154">
        <ele>243</ele>
        <time>2018-07-25T08:51:13Z</time>
      </trkpt>
      <trkpt lat="45.99107" lon="4.80159">
        <ele>243</ele>
        <time>2018-07-25T08:51:14Z</time>
      </trkpt>
      <trkpt lat="45.99111" lon="4.80164">
        <ele>243</ele>
        <time>2018-07-25T08:51:15Z</time>
      </trkpt>
      <trkpt lat="45.99116" lon="4.8017">
        <ele>242</ele>
        <time>2018-07-25T08:51:16Z</time>
      </trkpt>
      <trkpt lat="45.9912" lon="4.80176">
        <ele>242</ele>
        <time>2018-07-25T08:51:17Z</time>
      </trkpt>
      <trkpt lat="45.99125" lon="4.80182">
        <ele>242</ele>
        <time>2018-07-25T08:51:18Z</time>
      </trkpt>
      <trkpt lat="45.9913" lon="4.80187">
        <ele>242</ele>
        <time>2018-07-25T08:51:19Z</time>
      </trkpt>
      <trkpt lat="45.99135" lon="4.80194">
        <ele>242</ele>
        <time>2018-07-25T08:51:20Z</time>
      </trkpt>
      <trkpt lat="45.9914" lon="4.802">
        <ele>242</ele>
        <time>2018-07-25T08:51:21Z</time>
      </trkpt>
      <trkpt lat="45.99146" lon="4.80206">
        <ele>242</ele>
        <time>2018-07-25T08:51:22Z</time>
      </trkpt>
      <trkpt lat="45.99151" lon="4.80211">
        <ele>242</ele>
        <time>2018-07-25T08:51:23Z</time>
      </trkpt>
      <trkpt lat="45.99155" lon="4.80217">
        <ele>242</ele>
        <time>2018-07-25T08:51:24Z</time>
      </trkpt>
      <trkpt lat="45.9916" lon="4.80222">
        <ele>241</ele>
        <time>2018-07-25T08:51:25Z</time>
      </trkpt>
      <trkpt lat="45.99164" lon="4.80228">
        <ele>241</ele>
        <time>2018-07-25T08:51:26Z</time>
      </trkpt>
      <trkpt lat="45.99168" lon="4.80232">
        <ele>242</ele>
        <time>2018-07-25T08:51:27Z</time>
      </trkpt>
      <trkpt lat="45.99173" lon="4.80238">
        <ele>242</ele>
        <time>2018-07-25T08:51:28Z</time>
      </trkpt>
      <trkpt lat="45.99178" lon="4.80243">
        <ele>242</ele>
        <time>2018-07-25T08:51:29Z</time>
      </trkpt>
      <trkpt lat="45.99181" lon="4.80248">
        <ele>242</ele>
        <time>2018-07-25T08:51:30Z</time>
      </trkpt>
      <trkpt lat="45.99186" lon="4.80254">
        <ele>242</ele>
        <time>2018-07-25T08:51:31Z</time>
      </trkpt>
      <trkpt lat="45.99191" lon="4.8026">
        <ele>242</ele>
        <time>2018-07-25T08:51:32Z</time>
      </trkpt>
      <trkpt lat="45.99196" lon="4.80266">
        <ele>242</ele>
        <time>2018-07-25T08:51:33Z</time>
      </trkpt>
      <trkpt lat="45.99201" lon="4.80271">
        <ele>242</ele>
        <time>2018-07-25T08:51:34Z</time>
      </trkpt>
      <trkpt lat="45.99205" lon="4.80277">
        <ele>242</ele>
        <time>2018-07-25T08:51:35Z</time>
      </trkpt>
      <trkpt lat="45.9921" lon="4.80283">
        <ele>242</ele>
        <time>2018-07-25T08:51:36Z</time>
      </trkpt>
      <trkpt lat="45.99214" lon="4.80288">
        <ele>242</ele>
        <time>2018-07-25T08:51:37Z</time>
      </trkpt>
      <trkpt lat="45.99218" lon="4.80294">
        <ele>242</ele>
        <time>2018-07-25T08:51:38Z</time>
      </trkpt>
      <trkpt lat="45.99222" lon="4.803">
        <ele>242</ele>
        <time>2018-07-25T08:51:39Z</time>
      </trkpt>
      <trkpt lat="45.99225" lon="4.80305">
        <ele>242</ele>
        <time>2018-07-25T08:51:40Z</time>
      </trkpt>
      <trkpt lat="45.99228" lon="4.80312">
        <ele>242</ele>
        <time>2018-07-25T08:51:41Z</time>
      </trkpt>
      <trkpt lat="45.99233" lon="4.80319">
        <ele>243</ele>
        <time>2018-07-25T08:51:42Z</time>
      </trkpt>
      <trkpt lat="45.99237" lon="4.80326">
        <ele>243</ele>
        <time>2018-07-25T08:51:43Z</time>
      </trkpt>
      <trkpt lat="45.99241" lon="4.80333">
        <ele>243</ele>
        <time>2018-07-25T08:51:44Z</time>
      </trkpt>
      <trkpt lat="45.99245" lon="4.80337">
        <ele>243</ele>
        <time>2018-07-25T08:51:45Z</time>
      </trkpt>
      <trkpt lat="45.99248" lon="4.80344">
        <ele>242</ele>
        <time>2018-07-25T08:51:46Z</time>
      </trkpt>
      <trkpt lat="45.99253" lon="4.80351">
        <ele>243</ele>
        <time>2018-07-25T08:51:47Z</time>
      </trkpt>
      <trkpt lat="45.99258" lon="4.80357">
        <ele>243</ele>
        <time>2018-07-25T08:51:48Z</time>
      </trkpt>
      <trkpt lat="45.99262" lon="4.80362">
        <ele>243</ele>
        <time>2018-07-25T08:51:49Z</time>
      </trkpt>
      <trkpt lat="45.99266" lon="4.80368">
        <ele>243</ele>
        <time>2018-07-25T08:51:50Z</time>
      </trkpt>
      <trkpt lat="45.9927" lon="4.80372">
        <ele>243</ele>
        <time>2018-07-25T08:51:51Z</time>
      </trkpt>
      <trkpt lat="45.99274" lon="4.80377">
        <ele>242</ele>
        <time>2018-07-25T08:51:52Z</time>
      </trkpt>
      <trkpt lat="45.99278" lon="4.80381">
        <ele>242</ele>
        <time>2018-07-25T08:51:53Z</time>
      </trkpt>
      <trkpt lat="45.99286" lon="4.80388">
        <ele>242</ele>
        <time>2018-07-25T08:51:55Z</time>
      </trkpt>
      <trkpt lat="45.9929" lon="4.80392">
        <ele>242</ele>
        <time>2018-07-25T08:51:56Z</time>
      </trkpt>
      <trkpt lat="45.99293" lon="4.80398">
        <ele>242</ele>
        <time>2018-07-25T08:51:57Z</time>
      </trkpt>
      <trkpt lat="45.99296" lon="4.80405">
        <ele>242</ele>
        <time>2018-07-25T08:51:58Z</time>
      </trkpt>
      <trkpt lat="45.99299" lon="4.80411">
        <ele>242</ele>
        <time>2018-07-25T08:51:59Z</time>
      </trkpt>
      <trkpt lat="45.99302" lon="4.80417">
        <ele>241</ele>
        <time>2018-07-25T08:52:00Z</time>
      </trkpt>
      <trkpt lat="45.99304" lon="4.80424">
        <ele>241</ele>
        <time>2018-07-25T08:52:01Z</time>
      </trkpt>
      <trkpt lat="45.99308" lon="4.8043">
        <ele>241</ele>
        <time>2018-07-25T08:52:02Z</time>
      </trkpt>
      <trkpt lat="45.99311" lon="4.80434">
        <ele>241</ele>
        <time>2018-07-25T08:52:03Z</time>
      </trkpt>
      <trkpt lat="45.99312" lon="4.80442">
        <ele>241</ele>
        <time>2018-07-25T08:52:04Z</time>
      </trkpt>
      <trkpt lat="45.99313" lon="4.8045">
        <ele>241</ele>
        <time>2018-07-25T08:52:05Z</time>
      </trkpt>
      <trkpt lat="45.99313" lon="4.80459">
        <ele>241</ele>
        <time>2018-07-25T08:52:06Z</time>
      </trkpt>
      <trkpt lat="45.99314" lon="4.80468">
        <ele>241</ele>
        <time>2018-07-25T08:52:07Z</time>
      </trkpt>
      <trkpt lat="45.99315" lon="4.80475">
        <ele>241</ele>
        <time>2018-07-25T08:52:08Z</time>
      </trkpt>
      <trkpt lat="45.99316" lon="4.80483">
        <ele>241</ele>
        <time>2018-07-25T08:52:09Z</time>
      </trkpt>
      <trkpt lat="45.99317" lon="4.80489">
        <ele>241</ele>
        <time>2018-07-25T08:52:10Z</time>
      </trkpt>
      <trkpt lat="45.99318" lon="4.80497">
        <ele>241</ele>
        <time>2018-07-25T08:52:11Z</time>
      </trkpt>
      <trkpt lat="45.9932" lon="4.80505">
        <ele>241</ele>
        <time>2018-07-25T08:52:12Z</time>
      </trkpt>
      <trkpt lat="45.99321" lon="4.80512">
        <ele>241</ele>
        <time>2018-07-25T08:52:13Z</time>
      </trkpt>
      <trkpt lat="45.99321" lon="4.8052">
        <ele>241</ele>
        <time>2018-07-25T08:52:14Z</time>
      </trkpt>
      <trkpt lat="45.99321" lon="4.80528">
        <ele>241</ele>
        <time>2018-07-25T08:52:15Z</time>
      </trkpt>
      <trkpt lat="45.99322" lon="4.80536">
        <ele>241</ele>
        <time>2018-07-25T08:52:16Z</time>
      </trkpt>
      <trkpt lat="45.99325" lon="4.80543">
        <ele>241</ele>
        <time>2018-07-25T08:52:17Z</time>
      </trkpt>
      <trkpt lat="45.99326" lon="4.8055">
        <ele>241</ele>
        <time>2018-07-25T08:52:18Z</time>
      </trkpt>
      <trkpt lat="45.99326" lon="4.80556">
        <ele>242</ele>
        <time>2018-07-25T08:52:19Z</time>
      </trkpt>
      <trkpt lat="45.99327" lon="4.80563">
        <ele>242</ele>
        <time>2018-07-25T08:52:20Z</time>
      </trkpt>
      <trkpt lat="45.99328" lon="4.80575">
        <ele>242</ele>
        <time>2018-07-25T08:52:22Z</time>
      </trkpt>
      <trkpt lat="45.9933" lon="4.80583">
        <ele>242</ele>
        <time>2018-07-25T08:52:23Z</time>
      </trkpt>
      <trkpt lat="45.9933" lon="4.80589">
        <ele>242</ele>
        <time>2018-07-25T08:52:24Z</time>
      </trkpt>
      <trkpt lat="45.99332" lon="4.80597">
        <ele>242</ele>
        <time>2018-07-25T08:52:25Z</time>
      </trkpt>
      <trkpt lat="45.99334" lon="4.80603">
        <ele>243</ele>
        <time>2018-07-25T08:52:26Z</time>
      </trkpt>
      <trkpt lat="45.99335" lon="4.8061">
        <ele>243</ele>
        <time>2018-07-25T08:52:27Z</time>
      </trkpt>
      <trkpt lat="45.99335" lon="4.80617">
        <ele>243</ele>
        <time>2018-07-25T08:52:28Z</time>
      </trkpt>
      <trkpt lat="45.99336" lon="4.80624">
        <ele>243</ele>
        <time>2018-07-25T08:52:29Z</time>
      </trkpt>
      <trkpt lat="45.99337" lon="4.80631">
        <ele>243</ele>
        <time>2018-07-25T08:52:30Z</time>
      </trkpt>
      <trkpt lat="45.99338" lon="4.8064">
        <ele>244</ele>
        <time>2018-07-25T08:52:31Z</time>
      </trkpt>
      <trkpt lat="45.99339" lon="4.80649">
        <ele>244</ele>
        <time>2018-07-25T08:52:32Z</time>
      </trkpt>
      <trkpt lat="45.9934" lon="4.80656">
        <ele>244</ele>
        <time>2018-07-25T08:52:33Z</time>
      </trkpt>
      <trkpt lat="45.9934" lon="4.80663">
        <ele>244</ele>
        <time>2018-07-25T08:52:34Z</time>
      </trkpt>
      <trkpt lat="45.99341" lon="4.8067">
        <ele>244</ele>
        <time>2018-07-25T08:52:35Z</time>
      </trkpt>
      <trkpt lat="45.99341" lon="4.80678">
        <ele>244</ele>
        <time>2018-07-25T08:52:36Z</time>
      </trkpt>
      <trkpt lat="45.99342" lon="4.80684">
        <ele>244</ele>
        <time>2018-07-25T08:52:37Z</time>
      </trkpt>
      <trkpt lat="45.99344" lon="4.80695">
        <ele>244</ele>
        <time>2018-07-25T08:52:39Z</time>
      </trkpt>
      <trkpt lat="45.99345" lon="4.80701">
        <ele>244</ele>
        <time>2018-07-25T08:52:40Z</time>
      </trkpt>
      <trkpt lat="45.99345" lon="4.80708">
        <ele>244</ele>
        <time>2018-07-25T08:52:41Z</time>
      </trkpt>
      <trkpt lat="45.99346" lon="4.80715">
        <ele>244</ele>
        <time>2018-07-25T08:52:42Z</time>
      </trkpt>
      <trkpt lat="45.99346" lon="4.80723">
        <ele>244</ele>
        <time>2018-07-25T08:52:43Z</time>
      </trkpt>
      <trkpt lat="45.99347" lon="4.80728">
        <ele>244</ele>
        <time>2018-07-25T08:52:44Z</time>
      </trkpt>
      <trkpt lat="45.99348" lon="4.80735">
        <ele>245</ele>
        <time>2018-07-25T08:52:45Z</time>
      </trkpt>
      <trkpt lat="45.99349" lon="4.80741">
        <ele>245</ele>
        <time>2018-07-25T08:52:46Z</time>
      </trkpt>
      <trkpt lat="45.9935" lon="4.80748">
        <ele>245</ele>
        <time>2018-07-25T08:52:47Z</time>
      </trkpt>
      <trkpt lat="45.99351" lon="4.80754">
        <ele>245</ele>
        <time>2018-07-25T08:52:48Z</time>
      </trkpt>
      <trkpt lat="45.99353" lon="4.80761">
        <ele>245</ele>
        <time>2018-07-25T08:52:49Z</time>
      </trkpt>
      <trkpt lat="45.99354" lon="4.80767">
        <ele>245</ele>
        <time>2018-07-25T08:52:50Z</time>
      </trkpt>
      <trkpt lat="45.99354" lon="4.8078">
        <ele>245</ele>
        <time>2018-07-25T08:52:52Z</time>
      </trkpt>
      <trkpt lat="45.99355" lon="4.80785">
        <ele>246</ele>
        <time>2018-07-25T08:52:53Z</time>
      </trkpt>
      <trkpt lat="45.99356" lon="4.80797">
        <ele>246</ele>
        <time>2018-07-25T08:52:55Z</time>
      </trkpt>
      <trkpt lat="45.99357" lon="4.80803">
        <ele>246</ele>
        <time>2018-07-25T08:52:56Z</time>
      </trkpt>
      <trkpt lat="45.99358" lon="4.80813">
        <ele>246</ele>
        <time>2018-07-25T08:52:58Z</time>
      </trkpt>
      <trkpt lat="45.99358" lon="4.8082">
        <ele>246</ele>
        <time>2018-07-25T08:52:59Z</time>
      </trkpt>
      <trkpt lat="45.9936" lon="4.80831">
        <ele>246</ele>
        <time>2018-07-25T08:53:01Z</time>
      </trkpt>
      <trkpt lat="45.9936" lon="4.80837">
        <ele>247</ele>
        <time>2018-07-25T08:53:02Z</time>
      </trkpt>
      <trkpt lat="45.99361" lon="4.80849">
        <ele>248</ele>
        <time>2018-07-25T08:53:04Z</time>
      </trkpt>
      <trkpt lat="45.99362" lon="4.80854">
        <ele>248</ele>
        <time>2018-07-25T08:53:05Z</time>
      </trkpt>
      <trkpt lat="45.99364" lon="4.80866">
        <ele>248</ele>
        <time>2018-07-25T08:53:07Z</time>
      </trkpt>
      <trkpt lat="45.99364" lon="4.80872">
        <ele>248</ele>
        <time>2018-07-25T08:53:08Z</time>
      </trkpt>
      <trkpt lat="45.99365" lon="4.80885">
        <ele>248</ele>
        <time>2018-07-25T08:53:10Z</time>
      </trkpt>
      <trkpt lat="45.99365" lon="4.8089">
        <ele>248</ele>
        <time>2018-07-25T08:53:11Z</time>
      </trkpt>
      <trkpt lat="45.99366" lon="4.80902">
        <ele>248</ele>
        <time>2018-07-25T08:53:13Z</time>
      </trkpt>
      <trkpt lat="45.99367" lon="4.80909">
        <ele>248</ele>
        <time>2018-07-25T08:53:14Z</time>
      </trkpt>
      <trkpt lat="45.99368" lon="4.80915">
        <ele>248</ele>
        <time>2018-07-25T08:53:15Z</time>
      </trkpt>
      <trkpt lat="45.99369" lon="4.80921">
        <ele>250</ele>
        <time>2018-07-25T08:53:16Z</time>
      </trkpt>
      <trkpt lat="45.9937" lon="4.80934">
        <ele>250</ele>
        <time>2018-07-25T08:53:18Z</time>
      </trkpt>
      <trkpt lat="45.99371" lon="4.80939">
        <ele>250</ele>
        <time>2018-07-25T08:53:19Z</time>
      </trkpt>
      <trkpt lat="45.99372" lon="4.8095">
        <ele>250</ele>
        <time>2018-07-25T08:53:21Z</time>
      </trkpt>
      <trkpt lat="45.99373" lon="4.80956">
        <ele>250</ele>
        <time>2018-07-25T08:53:22Z</time>
      </trkpt>
      <trkpt lat="45.99375" lon="4.80967">
        <ele>250</ele>
        <time>2018-07-25T08:53:24Z</time>
      </trkpt>
      <trkpt lat="45.99376" lon="4.80972">
        <ele>250</ele>
        <time>2018-07-25T08:53:25Z</time>
      </trkpt>
      <trkpt lat="45.99377" lon="4.80983">
        <ele>250</ele>
        <time>2018-07-25T08:53:27Z</time>
      </trkpt>
      <trkpt lat="45.99377" lon="4.80989">
        <ele>250</ele>
        <time>2018-07-25T08:53:28Z</time>
      </trkpt>
      <trkpt lat="45.99379" lon="4.81">
        <ele>251</ele>
        <time>2018-07-25T08:53:30Z</time>
      </trkpt>
      <trkpt lat="45.9938" lon="4.81006">
        <ele>251</ele>
        <time>2018-07-25T08:53:31Z</time>
      </trkpt>
      <trkpt lat="45.99382" lon="4.81018">
        <ele>251</ele>
        <time>2018-07-25T08:53:33Z</time>
      </trkpt>
      <trkpt lat="45.99384" lon="4.81024">
        <ele>251</ele>
        <time>2018-07-25T08:53:34Z</time>
      </trkpt>
      <trkpt lat="45.99386" lon="4.81036">
        <ele>251</ele>
        <time>2018-07-25T08:53:36Z</time>
      </trkpt>
      <trkpt lat="45.99387" lon="4.81042">
        <ele>251</ele>
        <time>2018-07-25T08:53:37Z</time>
      </trkpt>
      <trkpt lat="45.99389" lon="4.81053">
        <ele>251</ele>
        <time>2018-07-25T08:53:39Z</time>
      </trkpt>
      <trkpt lat="45.9939" lon="4.81059">
        <ele>251</ele>
        <time>2018-07-25T08:53:40Z</time>
      </trkpt>
      <trkpt lat="45.99391" lon="4.81071">
        <ele>251</ele>
        <time>2018-07-25T08:53:42Z</time>
      </trkpt>
      <trkpt lat="45.99392" lon="4.81077">
        <ele>251</ele>
        <time>2018-07-25T08:53:43Z</time>
      </trkpt>
      <trkpt lat="45.99394" lon="4.81084">
        <ele>251</ele>
        <time>2018-07-25T08:53:44Z</time>
      </trkpt>
      <trkpt lat="45.99395" lon="4.81091">
        <ele>251</ele>
        <time>2018-07-25T08:53:45Z</time>
      </trkpt>
      <trkpt lat="45.99396" lon="4.81098">
        <ele>251</ele>
        <time>2018-07-25T08:53:46Z</time>
      </trkpt>
      <trkpt lat="45.99397" lon="4.81104">
        <ele>251</ele>
        <time>2018-07-25T08:53:47Z</time>
      </trkpt>
      <trkpt lat="45.99398" lon="4.81111">
        <ele>251</ele>
        <time>2018-07-25T08:53:48Z</time>
      </trkpt>
      <trkpt lat="45.99398" lon="4.81119">
        <ele>251</ele>
        <time>2018-07-25T08:53:49Z</time>
      </trkpt>
      <trkpt lat="45.99399" lon="4.81126">
        <ele>251</ele>
        <time>2018-07-25T08:53:50Z</time>
      </trkpt>
      <trkpt lat="45.994" lon="4.81132">
        <ele>251</ele>
        <time>2018-07-25T08:53:51Z</time>
      </trkpt>
      <trkpt lat="45.99401" lon="4.81139">
        <ele>251</ele>
        <time>2018-07-25T08:53:52Z</time>
      </trkpt>
      <trkpt lat="45.99403" lon="4.81145">
        <ele>251</ele>
        <time>2018-07-25T08:53:53Z</time>
      </trkpt>
      <trkpt lat="45.99404" lon="4.81152">
        <ele>251</ele>
        <time>2018-07-25T08:53:54Z</time>
      </trkpt>
      <trkpt lat="45.99404" lon="4.81159">
        <ele>251</ele>
        <time>2018-07-25T08:53:55Z</time>
      </trkpt>
      <trkpt lat="45.99405" lon="4.81166">
        <ele>251</ele>
        <time>2018-07-25T08:53:56Z</time>
      </trkpt>
      <trkpt lat="45.99405" lon="4.81173">
        <ele>251</ele>
        <time>2018-07-25T08:53:57Z</time>
      </trkpt>
      <trkpt lat="45.99406" lon="4.8118">
        <ele>251</ele>
        <time>2018-07-25T08:53:58Z</time>
      </trkpt>
      <trkpt lat="45.99407" lon="4.81186">
        <ele>251</ele>
        <time>2018-07-25T08:53:59Z</time>
      </trkpt>
      <trkpt lat="45.99408" lon="4.81199">
        <ele>252</ele>
        <time>2018-07-25T08:54:01Z</time>
      </trkpt>
      <trkpt lat="45.9941" lon="4.81206">
        <ele>252</ele>
        <time>2018-07-25T08:54:02Z</time>
      </trkpt>
      <trkpt lat="45.99411" lon="4.81218">
        <ele>252</ele>
        <time>2018-07-25T08:54:04Z</time>
      </trkpt>
      <trkpt lat="45.99412" lon="4.81225">
        <ele>252</ele>
        <time>2018-07-25T08:54:05Z</time>
      </trkpt>
      <trkpt lat="45.99414" lon="4.81237">
        <ele>252</ele>
        <time>2018-07-25T08:54:07Z</time>
      </trkpt>
      <trkpt lat="45.99414" lon="4.81243">
        <ele>252</ele>
        <time>2018-07-25T08:54:08Z</time>
      </trkpt>
      <trkpt lat="45.99415" lon="4.8125">
        <ele>252</ele>
        <time>2018-07-25T08:54:09Z</time>
      </trkpt>
      <trkpt lat="45.99416" lon="4.81258">
        <ele>252</ele>
        <time>2018-07-25T08:54:10Z</time>
      </trkpt>
      <trkpt lat="45.99415" lon="4.81265">
        <ele>253</ele>
        <time>2018-07-25T08:54:11Z</time>
      </trkpt>
      <trkpt lat="45.99416" lon="4.81273">
        <ele>253</ele>
        <time>2018-07-25T08:54:12Z</time>
      </trkpt>
      <trkpt lat="45.99417" lon="4.8128">
        <ele>253</ele>
        <time>2018-07-25T08:54:13Z</time>
      </trkpt>
      <trkpt lat="45.99418" lon="4.81287">
        <ele>253</ele>
        <time>2018-07-25T08:54:14Z</time>
      </trkpt>
      <trkpt lat="45.99419" lon="4.81294">
        <ele>253</ele>
        <time>2018-07-25T08:54:15Z</time>
      </trkpt>
      <trkpt lat="45.9942" lon="4.813">
        <ele>253</ele>
        <time>2018-07-25T08:54:16Z</time>
      </trkpt>
      <trkpt lat="45.99421" lon="4.81307">
        <ele>253</ele>
        <time>2018-07-25T08:54:17Z</time>
      </trkpt>
      <trkpt lat="45.99423" lon="4.81314">
        <ele>254</ele>
        <time>2018-07-25T08:54:18Z</time>
      </trkpt>
      <trkpt lat="45.99424" lon="4.8132">
        <ele>254</ele>
        <time>2018-07-25T08:54:19Z</time>
      </trkpt>
      <trkpt lat="45.99425" lon="4.81327">
        <ele>254</ele>
        <time>2018-07-25T08:54:20Z</time>
      </trkpt>
      <trkpt lat="45.99426" lon="4.81335">
        <ele>255</ele>
        <time>2018-07-25T08:54:21Z</time>
      </trkpt>
      <trkpt lat="45.99426" lon="4.81341">
        <ele>255</ele>
        <time>2018-07-25T08:54:22Z</time>
      </trkpt>
      <trkpt lat="45.99427" lon="4.81348">
        <ele>254</ele>
        <time>2018-07-25T08:54:23Z</time>
      </trkpt>
      <trkpt lat="45.99428" lon="4.81355">
        <ele>254</ele>
        <time>2018-07-25T08:54:24Z</time>
      </trkpt>
      <trkpt lat="45.99429" lon="4.81362">
        <ele>254</ele>
        <time>2018-07-25T08:54:25Z</time>
      </trkpt>
      <trkpt lat="45.9943" lon="4.81368">
        <ele>254</ele>
        <time>2018-07-25T08:54:26Z</time>
      </trkpt>
      <trkpt lat="45.9943" lon="4.81375">
        <ele>254</ele>
        <time>2018-07-25T08:54:27Z</time>
      </trkpt>
      <trkpt lat="45.99431" lon="4.81381">
        <ele>254</ele>
        <time>2018-07-25T08:54:28Z</time>
      </trkpt>
      <trkpt lat="45.99431" lon="4.81387">
        <ele>254</ele>
        <time>2018-07-25T08:54:29Z</time>
      </trkpt>
      <trkpt lat="45.99432" lon="4.81394">
        <ele>254</ele>
        <time>2018-07-25T08:54:30Z</time>
      </trkpt>
      <trkpt lat="45.99433" lon="4.81401">
        <ele>254</ele>
        <time>2018-07-25T08:54:31Z</time>
      </trkpt>
      <trkpt lat="45.99435" lon="4.81407">
        <ele>254</ele>
        <time>2018-07-25T08:54:32Z</time>
      </trkpt>
      <trkpt lat="45.99436" lon="4.81413">
        <ele>254</ele>
        <time>2018-07-25T08:54:33Z</time>
      </trkpt>
      <trkpt lat="45.99437" lon="4.8142">
        <ele>254</ele>
        <time>2018-07-25T08:54:34Z</time>
      </trkpt>
      <trkpt lat="45.99438" lon="4.81427">
        <ele>254</ele>
        <time>2018-07-25T08:54:35Z</time>
      </trkpt>
      <trkpt lat="45.99439" lon="4.81433">
        <ele>254</ele>
        <time>2018-07-25T08:54:36Z</time>
      </trkpt>
      <trkpt lat="45.9944" lon="4.8144">
        <ele>254</ele>
        <time>2018-07-25T08:54:37Z</time>
      </trkpt>
      <trkpt lat="45.99441" lon="4.81447">
        <ele>254</ele>
        <time>2018-07-25T08:54:38Z</time>
      </trkpt>
      <trkpt lat="45.99443" lon="4.81454">
        <ele>254</ele>
        <time>2018-07-25T08:54:39Z</time>
      </trkpt>
      <trkpt lat="45.99443" lon="4.8146">
        <ele>254</ele>
        <time>2018-07-25T08:54:40Z</time>
      </trkpt>
      <trkpt lat="45.99445" lon="4.81472">
        <ele>254</ele>
        <time>2018-07-25T08:54:42Z</time>
      </trkpt>
      <trkpt lat="45.99448" lon="4.81479">
        <ele>254</ele>
        <time>2018-07-25T08:54:43Z</time>
      </trkpt>
      <trkpt lat="45.9945" lon="4.81491">
        <ele>254</ele>
        <time>2018-07-25T08:54:45Z</time>
      </trkpt>
      <trkpt lat="45.99449" lon="4.81496">
        <ele>254</ele>
        <time>2018-07-25T08:54:46Z</time>
      </trkpt>
      <trkpt lat="45.9945" lon="4.81509">
        <ele>255</ele>
        <time>2018-07-25T08:54:48Z</time>
      </trkpt>
      <trkpt lat="45.99451" lon="4.81513">
        <ele>255</ele>
        <time>2018-07-25T08:54:49Z</time>
      </trkpt>
      <trkpt lat="45.99453" lon="4.81524">
        <ele>255</ele>
        <time>2018-07-25T08:54:51Z</time>
      </trkpt>
      <trkpt lat="45.99454" lon="4.81531">
        <ele>255</ele>
        <time>2018-07-25T08:54:52Z</time>
      </trkpt>
      <trkpt lat="45.99455" lon="4.81538">
        <ele>255</ele>
        <time>2018-07-25T08:54:53Z</time>
      </trkpt>
      <trkpt lat="45.99456" lon="4.81544">
        <ele>255</ele>
        <time>2018-07-25T08:54:54Z</time>
      </trkpt>
      <trkpt lat="45.99458" lon="4.81556">
        <ele>255</ele>
        <time>2018-07-25T08:54:56Z</time>
      </trkpt>
      <trkpt lat="45.99459" lon="4.81563">
        <ele>255</ele>
        <time>2018-07-25T08:54:57Z</time>
      </trkpt>
      <trkpt lat="45.9946" lon="4.8157">
        <ele>255</ele>
        <time>2018-07-25T08:54:58Z</time>
      </trkpt>
      <trkpt lat="45.99461" lon="4.81576">
        <ele>255</ele>
        <time>2018-07-25T08:54:59Z</time>
      </trkpt>
      <trkpt lat="45.99461" lon="4.81583">
        <ele>255</ele>
        <time>2018-07-25T08:55:00Z</time>
      </trkpt>
      <trkpt lat="45.99461" lon="4.81591">
        <ele>257</ele>
        <time>2018-07-25T08:55:01Z</time>
      </trkpt>
      <trkpt lat="45.99463" lon="4.81597">
        <ele>257</ele>
        <time>2018-07-25T08:55:02Z</time>
      </trkpt>
      <trkpt lat="45.99463" lon="4.81603">
        <ele>258</ele>
        <time>2018-07-25T08:55:03Z</time>
      </trkpt>
      <trkpt lat="45.99465" lon="4.81616">
        <ele>258</ele>
        <time>2018-07-25T08:55:05Z</time>
      </trkpt>
      <trkpt lat="45.99465" lon="4.81622">
        <ele>258</ele>
        <time>2018-07-25T08:55:06Z</time>
      </trkpt>
      <trkpt lat="45.99465" lon="4.81628">
        <ele>258</ele>
        <time>2018-07-25T08:55:07Z</time>
      </trkpt>
      <trkpt lat="45.99466" lon="4.81635">
        <ele>258</ele>
        <time>2018-07-25T08:55:08Z</time>
      </trkpt>
      <trkpt lat="45.99469" lon="4.81643">
        <ele>258</ele>
        <time>2018-07-25T08:55:09Z</time>
      </trkpt>
      <trkpt lat="45.99469" lon="4.81649">
        <ele>259</ele>
        <time>2018-07-25T08:55:10Z</time>
      </trkpt>
      <trkpt lat="45.9947" lon="4.81655">
        <ele>259</ele>
        <time>2018-07-25T08:55:11Z</time>
      </trkpt>
      <trkpt lat="45.99471" lon="4.81662">
        <ele>259</ele>
        <time>2018-07-25T08:55:12Z</time>
      </trkpt>
      <trkpt lat="45.99473" lon="4.81674">
        <ele>261</ele>
        <time>2018-07-25T08:55:14Z</time>
      </trkpt>
      <trkpt lat="45.99474" lon="4.81681">
        <ele>261</ele>
        <time>2018-07-25T08:55:15Z</time>
      </trkpt>
      <trkpt lat="45.99475" lon="4.81688">
        <ele>261</ele>
        <time>2018-07-25T08:55:16Z</time>
      </trkpt>
      <trkpt lat="45.99477" lon="4.81694">
        <ele>261</ele>
        <time>2018-07-25T08:55:17Z</time>
      </trkpt>
      <trkpt lat="45.99479" lon="4.81705">
        <ele>261</ele>
        <time>2018-07-25T08:55:19Z</time>
      </trkpt>
      <trkpt lat="45.9948" lon="4.81711">
        <ele>261</ele>
        <time>2018-07-25T08:55:20Z</time>
      </trkpt>
      <trkpt lat="45.9948" lon="4.81717">
        <ele>261</ele>
        <time>2018-07-25T08:55:21Z</time>
      </trkpt>
      <trkpt lat="45.99481" lon="4.81724">
        <ele>261</ele>
        <time>2018-07-25T08:55:22Z</time>
      </trkpt>
      <trkpt lat="45.99482" lon="4.81735">
        <ele>261</ele>
        <time>2018-07-25T08:55:24Z</time>
      </trkpt>
      <trkpt lat="45.99484" lon="4.81742">
        <ele>262</ele>
        <time>2018-07-25T08:55:25Z</time>
      </trkpt>
      <trkpt lat="45.99484" lon="4.81753">
        <ele>262</ele>
        <time>2018-07-25T08:55:27Z</time>
      </trkpt>
      <trkpt lat="45.99485" lon="4.8176">
        <ele>262</ele>
        <time>2018-07-25T08:55:28Z</time>
      </trkpt>
      <trkpt lat="45.99484" lon="4.81772">
        <ele>262</ele>
        <time>2018-07-25T08:55:30Z</time>
      </trkpt>
      <trkpt lat="45.99484" lon="4.81778">
        <ele>262</ele>
        <time>2018-07-25T08:55:31Z</time>
      </trkpt>
      <trkpt lat="45.99484" lon="4.81784">
        <ele>262</ele>
        <time>2018-07-25T08:55:32Z</time>
      </trkpt>
      <trkpt lat="45.99485" lon="4.81791">
        <ele>262</ele>
        <time>2018-07-25T08:55:33Z</time>
      </trkpt>
      <trkpt lat="45.99486" lon="4.81799">
        <ele>262</ele>
        <time>2018-07-25T08:55:34Z</time>
      </trkpt>
      <trkpt lat="45.99488" lon="4.81805">
        <ele>262</ele>
        <time>2018-07-25T08:55:35Z</time>
      </trkpt>
      <trkpt lat="45.99491" lon="4.81817">
        <ele>262</ele>
        <time>2018-07-25T08:55:37Z</time>
      </trkpt>
      <trkpt lat="45.99493" lon="4.8182">
        <ele>262</ele>
        <time>2018-07-25T08:55:38Z</time>
      </trkpt>
      <trkpt lat="45.99495" lon="4.81833">
        <ele>262</ele>
        <time>2018-07-25T08:55:40Z</time>
      </trkpt>
      <trkpt lat="45.99496" lon="4.81839">
        <ele>261</ele>
        <time>2018-07-25T08:55:41Z</time>
      </trkpt>
      <trkpt lat="45.99497" lon="4.81845">
        <ele>261</ele>
        <time>2018-07-25T08:55:42Z</time>
      </trkpt>
      <trkpt lat="45.99498" lon="4.81852">
        <ele>261</ele>
        <time>2018-07-25T08:55:43Z</time>
      </trkpt>
      <trkpt lat="45.99498" lon="4.81859">
        <ele>260</ele>
        <time>2018-07-25T08:55:44Z</time>
      </trkpt>
      <trkpt lat="45.99499" lon="4.81865">
        <ele>260</ele>
        <time>2018-07-25T08:55:45Z</time>
      </trkpt>
      <trkpt lat="45.99501" lon="4.81873">
        <ele>261</ele>
        <time>2018-07-25T08:55:46Z</time>
      </trkpt>
      <trkpt lat="45.99502" lon="4.8188">
        <ele>261</ele>
        <time>2018-07-25T08:55:47Z</time>
      </trkpt>
      <trkpt lat="45.99503" lon="4.81886">
        <ele>261</ele>
        <time>2018-07-25T08:55:48Z</time>
      </trkpt>
      <trkpt lat="45.99504" lon="4.81894">
        <ele>261</ele>
        <time>2018-07-25T08:55:49Z</time>
      </trkpt>
      <trkpt lat="45.99504" lon="4.81901">
        <ele>260</ele>
        <time>2018-07-25T08:55:50Z</time>
      </trkpt>
      <trkpt lat="45.99506" lon="4.81908">
        <ele>260</ele>
        <time>2018-07-25T08:55:51Z</time>
      </trkpt>
      <trkpt lat="45.99508" lon="4.81915">
        <ele>260</ele>
        <time>2018-07-25T08:55:52Z</time>
      </trkpt>
      <trkpt lat="45.99508" lon="4.81923">
        <ele>260</ele>
        <time>2018-07-25T08:55:53Z</time>
      </trkpt>
      <trkpt lat="45.99509" lon="4.8193">
        <ele>260</ele>
        <time>2018-07-25T08:55:54Z</time>
      </trkpt>
      <trkpt lat="45.9951" lon="4.81938">
        <ele>260</ele>
        <time>2018-07-25T08:55:55Z</time>
      </trkpt>
      <trkpt lat="45.9951" lon="4.81945">
        <ele>261</ele>
        <time>2018-07-25T08:55:56Z</time>
      </trkpt>
      <trkpt lat="45.9951" lon="4.81952">
        <ele>261</ele>
        <time>2018-07-25T08:55:57Z</time>
      </trkpt>
      <trkpt lat="45.99511" lon="4.8196">
        <ele>261</ele>
        <time>2018-07-25T08:55:58Z</time>
      </trkpt>
      <trkpt lat="45.99511" lon="4.81968">
        <ele>261</ele>
        <time>2018-07-25T08:55:59Z</time>
      </trkpt>
      <trkpt lat="45.99513" lon="4.81976">
        <ele>261</ele>
        <time>2018-07-25T08:56:00Z</time>
      </trkpt>
      <trkpt lat="45.99514" lon="4.81985">
        <ele>260</ele>
        <time>2018-07-25T08:56:01Z</time>
      </trkpt>
      <trkpt lat="45.99515" lon="4.81994">
        <ele>260</ele>
        <time>2018-07-25T08:56:02Z</time>
      </trkpt>
      <trkpt lat="45.99516" lon="4.82002">
        <ele>261</ele>
        <time>2018-07-25T08:56:03Z</time>
      </trkpt>
      <trkpt lat="45.99517" lon="4.82008">
        <ele>261</ele>
        <time>2018-07-25T08:56:04Z</time>
      </trkpt>
      <trkpt lat="45.99518" lon="4.82016">
        <ele>261</ele>
        <time>2018-07-25T08:56:05Z</time>
      </trkpt>
      <trkpt lat="45.99518" lon="4.82024">
        <ele>261</ele>
        <time>2018-07-25T08:56:06Z</time>
      </trkpt>
      <trkpt lat="45.99519" lon="4.82031">
        <ele>261</ele>
        <time>2018-07-25T08:56:07Z</time>
      </trkpt>
      <trkpt lat="45.99519" lon="4.82039">
        <ele>262</ele>
        <time>2018-07-25T08:56:08Z</time>
      </trkpt>
      <trkpt lat="45.9952" lon="4.82046">
        <ele>262</ele>
        <time>2018-07-25T08:56:09Z</time>
      </trkpt>
      <trkpt lat="45.99521" lon="4.82053">
        <ele>262</ele>
        <time>2018-07-25T08:56:10Z</time>
      </trkpt>
      <trkpt lat="45.99522" lon="4.82061">
        <ele>262</ele>
        <time>2018-07-25T08:56:11Z</time>
      </trkpt>
      <trkpt lat="45.99522" lon="4.82068">
        <ele>262</ele>
        <time>2018-07-25T08:56:12Z</time>
      </trkpt>
      <trkpt lat="45.99524" lon="4.82076">
        <ele>262</ele>
        <time>2018-07-25T08:56:13Z</time>
      </trkpt>
      <trkpt lat="45.99525" lon="4.82084">
        <ele>262</ele>
        <time>2018-07-25T08:56:14Z</time>
      </trkpt>
      <trkpt lat="45.99526" lon="4.82092">
        <ele>262</ele>
        <time>2018-07-25T08:56:15Z</time>
      </trkpt>
      <trkpt lat="45.99527" lon="4.82101">
        <ele>262</ele>
        <time>2018-07-25T08:56:16Z</time>
      </trkpt>
      <trkpt lat="45.99528" lon="4.8211">
        <ele>262</ele>
        <time>2018-07-25T08:56:17Z</time>
      </trkpt>
      <trkpt lat="45.99529" lon="4.82118">
        <ele>263</ele>
        <time>2018-07-25T08:56:18Z</time>
      </trkpt>
      <trkpt lat="45.9953" lon="4.82126">
        <ele>263</ele>
        <time>2018-07-25T08:56:19Z</time>
      </trkpt>
      <trkpt lat="45.99531" lon="4.82135">
        <ele>263</ele>
        <time>2018-07-25T08:56:20Z</time>
      </trkpt>
      <trkpt lat="45.99532" lon="4.82142">
        <ele>263</ele>
        <time>2018-07-25T08:56:21Z</time>
      </trkpt>
      <trkpt lat="45.99532" lon="4.82151">
        <ele>263</ele>
        <time>2018-07-25T08:56:22Z</time>
      </trkpt>
      <trkpt lat="45.99533" lon="4.82159">
        <ele>263</ele>
        <time>2018-07-25T08:56:23Z</time>
      </trkpt>
      <trkpt lat="45.99534" lon="4.82167">
        <ele>262</ele>
        <time>2018-07-25T08:56:24Z</time>
      </trkpt>
      <trkpt lat="45.99535" lon="4.82174">
        <ele>262</ele>
        <time>2018-07-25T08:56:25Z</time>
      </trkpt>
      <trkpt lat="45.99536" lon="4.82181">
        <ele>262</ele>
        <time>2018-07-25T08:56:26Z</time>
      </trkpt>
      <trkpt lat="45.99539" lon="4.82187">
        <ele>262</ele>
        <time>2018-07-25T08:56:27Z</time>
      </trkpt>
      <trkpt lat="45.99541" lon="4.82193">
        <ele>262</ele>
        <time>2018-07-25T08:56:28Z</time>
      </trkpt>
      <trkpt lat="45.99543" lon="4.82199">
        <ele>262</ele>
        <time>2018-07-25T08:56:29Z</time>
      </trkpt>
      <trkpt lat="45.99544" lon="4.82206">
        <ele>262</ele>
        <time>2018-07-25T08:56:30Z</time>
      </trkpt>
      <trkpt lat="45.99545" lon="4.82212">
        <ele>262</ele>
        <time>2018-07-25T08:56:31Z</time>
      </trkpt>
      <trkpt lat="45.99548" lon="4.82222">
        <ele>262</ele>
        <time>2018-07-25T08:56:33Z</time>
      </trkpt>
      <trkpt lat="45.99549" lon="4.82229">
        <ele>262</ele>
        <time>2018-07-25T08:56:34Z</time>
      </trkpt>
      <trkpt lat="45.9955" lon="4.82236">
        <ele>262</ele>
        <time>2018-07-25T08:56:35Z</time>
      </trkpt>
      <trkpt lat="45.99553" lon="4.82244">
        <ele>262</ele>
        <time>2018-07-25T08:56:36Z</time>
      </trkpt>
      <trkpt lat="45.99555" lon="4.8225">
        <ele>262</ele>
        <time>2018-07-25T08:56:37Z</time>
      </trkpt>
      <trkpt lat="45.99557" lon="4.82256">
        <ele>262</ele>
        <time>2018-07-25T08:56:38Z</time>
      </trkpt>
      <trkpt lat="45.99558" lon="4.82262">
        <ele>262</ele>
        <time>2018-07-25T08:56:39Z</time>
      </trkpt>
      <trkpt lat="45.9956" lon="4.8227">
        <ele>262</ele>
        <time>2018-07-25T08:56:40Z</time>
      </trkpt>
      <trkpt lat="45.99561" lon="4.82276">
        <ele>262</ele>
        <time>2018-07-25T08:56:41Z</time>
      </trkpt>
      <trkpt lat="45.99563" lon="4.82283">
        <ele>262</ele>
        <time>2018-07-25T08:56:42Z</time>
      </trkpt>
      <trkpt lat="45.99565" lon="4.8229">
        <ele>262</ele>
        <time>2018-07-25T08:56:43Z</time>
      </trkpt>
      <trkpt lat="45.99568" lon="4.82297">
        <ele>262</ele>
        <time>2018-07-25T08:56:44Z</time>
      </trkpt>
      <trkpt lat="45.9957" lon="4.82303">
        <ele>262</ele>
        <time>2018-07-25T08:56:45Z</time>
      </trkpt>
      <trkpt lat="45.99572" lon="4.82309">
        <ele>262</ele>
        <time>2018-07-25T08:56:46Z</time>
      </trkpt>
      <trkpt lat="45.99573" lon="4.82316">
        <ele>262</ele>
        <time>2018-07-25T08:56:47Z</time>
      </trkpt>
      <trkpt lat="45.99575" lon="4.82322">
        <ele>262</ele>
        <time>2018-07-25T08:56:48Z</time>
      </trkpt>
      <trkpt lat="45.99577" lon="4.82329">
        <ele>262</ele>
        <time>2018-07-25T08:56:49Z</time>
      </trkpt>
      <trkpt lat="45.99576" lon="4.82337">
        <ele>262</ele>
        <time>2018-07-25T08:56:50Z</time>
      </trkpt>
      <trkpt lat="45.99576" lon="4.82343">
        <ele>262</ele>
        <time>2018-07-25T08:56:51Z</time>
      </trkpt>
      <trkpt lat="45.99577" lon="4.8235">
        <ele>261</ele>
        <time>2018-07-25T08:56:52Z</time>
      </trkpt>
      <trkpt lat="45.99579" lon="4.82356">
        <ele>261</ele>
        <time>2018-07-25T08:56:53Z</time>
      </trkpt>
      <trkpt lat="45.99582" lon="4.82363">
        <ele>261</ele>
        <time>2018-07-25T08:56:54Z</time>
      </trkpt>
      <trkpt lat="45.99583" lon="4.82374">
        <ele>261</ele>
        <time>2018-07-25T08:56:56Z</time>
      </trkpt>
      <trkpt lat="45.99583" lon="4.82381">
        <ele>261</ele>
        <time>2018-07-25T08:56:57Z</time>
      </trkpt>
      <trkpt lat="45.99586" lon="4.82393">
        <ele>264</ele>
        <time>2018-07-25T08:56:59Z</time>
      </trkpt>
      <trkpt lat="45.99587" lon="4.82399">
        <ele>264</ele>
        <time>2018-07-25T08:57:00Z</time>
      </trkpt>
      <trkpt lat="45.99591" lon="4.82409">
        <ele>263</ele>
        <time>2018-07-25T08:57:02Z</time>
      </trkpt>
      <trkpt lat="45.99592" lon="4.82416">
        <ele>263</ele>
        <time>2018-07-25T08:57:03Z</time>
      </trkpt>
      <trkpt lat="45.99594" lon="4.82426">
        <ele>263</ele>
        <time>2018-07-25T08:57:05Z</time>
      </trkpt>
      <trkpt lat="45.99596" lon="4.82431">
        <ele>264</ele>
        <time>2018-07-25T08:57:06Z</time>
      </trkpt>
      <trkpt lat="45.996" lon="4.82441">
        <ele>264</ele>
        <time>2018-07-25T08:57:08Z</time>
      </trkpt>
      <trkpt lat="45.99602" lon="4.82445">
        <ele>264</ele>
        <time>2018-07-25T08:57:09Z</time>
      </trkpt>
      <trkpt lat="45.99606" lon="4.82456">
        <ele>264</ele>
        <time>2018-07-25T08:57:11Z</time>
      </trkpt>
      <trkpt lat="45.99608" lon="4.82461">
        <ele>265</ele>
        <time>2018-07-25T08:57:12Z</time>
      </trkpt>
      <trkpt lat="45.99612" lon="4.82472">
        <ele>265</ele>
        <time>2018-07-25T08:57:14Z</time>
      </trkpt>
      <trkpt lat="45.99614" lon="4.82478">
        <ele>265</ele>
        <time>2018-07-25T08:57:15Z</time>
      </trkpt>
      <trkpt lat="45.99616" lon="4.82484">
        <ele>265</ele>
        <time>2018-07-25T08:57:16Z</time>
      </trkpt>
      <trkpt lat="45.99618" lon="4.8249">
        <ele>265</ele>
        <time>2018-07-25T08:57:17Z</time>
      </trkpt>
      <trkpt lat="45.9962" lon="4.82496">
        <ele>265</ele>
        <time>2018-07-25T08:57:18Z</time>
      </trkpt>
      <trkpt lat="45.99622" lon="4.82502">
        <ele>265</ele>
        <time>2018-07-25T08:57:19Z</time>
      </trkpt>
      <trkpt lat="45.99624" lon="4.82508">
        <ele>265</ele>
        <time>2018-07-25T08:57:20Z</time>
      </trkpt>
      <trkpt lat="45.99626" lon="4.82514">
        <ele>265</ele>
        <time>2018-07-25T08:57:21Z</time>
      </trkpt>
      <trkpt lat="45.99627" lon="4.8252">
        <ele>265</ele>
        <time>2018-07-25T08:57:22Z</time>
      </trkpt>
      <trkpt lat="45.99628" lon="4.82526">
        <ele>265</ele>
        <time>2018-07-25T08:57:23Z</time>
      </trkpt>
      <trkpt lat="45.99631" lon="4.82532">
        <ele>266</ele>
        <time>2018-07-25T08:57:24Z</time>
      </trkpt>
      <trkpt lat="45.99633" lon="4.82538">
        <ele>266</ele>
        <time>2018-07-25T08:57:25Z</time>
      </trkpt>
      <trkpt lat="45.99634" lon="4.82545">
        <ele>266</ele>
        <time>2018-07-25T08:57:26Z</time>
      </trkpt>
      <trkpt lat="45.99635" lon="4.82552">
        <ele>266</ele>
        <time>2018-07-25T08:57:27Z</time>
      </trkpt>
      <trkpt lat="45.99636" lon="4.8256">
        <ele>266</ele>
        <time>2018-07-25T08:57:28Z</time>
      </trkpt>
      <trkpt lat="45.99638" lon="4.82567">
        <ele>266</ele>
        <time>2018-07-25T08:57:29Z</time>
      </trkpt>
      <trkpt lat="45.99639" lon="4.82574">
        <ele>266</ele>
        <time>2018-07-25T08:57:30Z</time>
      </trkpt>
      <trkpt lat="45.99641" lon="4.8258">
        <ele>266</ele>
        <time>2018-07-25T08:57:31Z</time>
      </trkpt>
      <trkpt lat="45.99642" lon="4.82592">
        <ele>266</ele>
        <time>2018-07-25T08:57:33Z</time>
      </trkpt>
      <trkpt lat="45.99644" lon="4.826">
        <ele>267</ele>
        <time>2018-07-25T08:57:34Z</time>
      </trkpt>
      <trkpt lat="45.99646" lon="4.82607">
        <ele>267</ele>
        <time>2018-07-25T08:57:35Z</time>
      </trkpt>
      <trkpt lat="45.99647" lon="4.82613">
        <ele>267</ele>
        <time>2018-07-25T08:57:36Z</time>
      </trkpt>
      <trkpt lat="45.99648" lon="4.8262">
        <ele>267</ele>
        <time>2018-07-25T08:57:37Z</time>
      </trkpt>
      <trkpt lat="45.9965" lon="4.82626">
        <ele>267</ele>
        <time>2018-07-25T08:57:38Z</time>
      </trkpt>
      <trkpt lat="45.99652" lon="4.82638">
        <ele>267</ele>
        <time>2018-07-25T08:57:40Z</time>
      </trkpt>
      <trkpt lat="45.99653" lon="4.82645">
        <ele>267</ele>
        <time>2018-07-25T08:57:41Z</time>
      </trkpt>
      <trkpt lat="45.99654" lon="4.82656">
        <ele>268</ele>
        <time>2018-07-25T08:57:43Z</time>
      </trkpt>
      <trkpt lat="45.99655" lon="4.82662">
        <ele>268</ele>
        <time>2018-07-25T08:57:44Z</time>
      </trkpt>
      <trkpt lat="45.99655" lon="4.82669">
        <ele>268</ele>
        <time>2018-07-25T08:57:45Z</time>
      </trkpt>
      <trkpt lat="45.99656" lon="4.82676">
        <ele>268</ele>
        <time>2018-07-25T08:57:46Z</time>
      </trkpt>
      <trkpt lat="45.99657" lon="4.82683">
        <ele>268</ele>
        <time>2018-07-25T08:57:47Z</time>
      </trkpt>
      <trkpt lat="45.99658" lon="4.82689">
        <ele>268</ele>
        <time>2018-07-25T08:57:48Z</time>
      </trkpt>
      <trkpt lat="45.9966" lon="4.82697">
        <ele>268</ele>
        <time>2018-07-25T08:57:49Z</time>
      </trkpt>
      <trkpt lat="45.99661" lon="4.82704">
        <ele>268</ele>
        <time>2018-07-25T08:57:50Z</time>
      </trkpt>
      <trkpt lat="45.99662" lon="4.82712">
        <ele>268</ele>
        <time>2018-07-25T08:57:51Z</time>
      </trkpt>
      <trkpt lat="45.99663" lon="4.8272">
        <ele>268</ele>
        <time>2018-07-25T08:57:52Z</time>
      </trkpt>
      <trkpt lat="45.99663" lon="4.82728">
        <ele>268</ele>
        <time>2018-07-25T08:57:53Z</time>
      </trkpt>
      <trkpt lat="45.99664" lon="4.82736">
        <ele>268</ele>
        <time>2018-07-25T08:57:54Z</time>
      </trkpt>
      <trkpt lat="45.99667" lon="4.82745">
        <ele>269</ele>
        <time>2018-07-25T08:57:55Z</time>
      </trkpt>
      <trkpt lat="45.99669" lon="4.82753">
        <ele>269</ele>
        <time>2018-07-25T08:57:56Z</time>
      </trkpt>
      <trkpt lat="45.99669" lon="4.82759">
        <ele>269</ele>
        <time>2018-07-25T08:57:57Z</time>
      </trkpt>
      <trkpt lat="45.99671" lon="4.82766">
        <ele>269</ele>
        <time>2018-07-25T08:57:58Z</time>
      </trkpt>
      <trkpt lat="45.99673" lon="4.82779">
        <ele>269</ele>
        <time>2018-07-25T08:58:00Z</time>
      </trkpt>
      <trkpt lat="45.99673" lon="4.82784">
        <ele>269</ele>
        <time>2018-07-25T08:58:01Z</time>
      </trkpt>
      <trkpt lat="45.99674" lon="4.82795">
        <ele>270</ele>
        <time>2018-07-25T08:58:03Z</time>
      </trkpt>
      <trkpt lat="45.99675" lon="4.82801">
        <ele>270</ele>
        <time>2018-07-25T08:58:04Z</time>
      </trkpt>
      <trkpt lat="45.99678" lon="4.82813">
        <ele>270</ele>
        <time>2018-07-25T08:58:06Z</time>
      </trkpt>
      <trkpt lat="45.9968" lon="4.82819">
        <ele>270</ele>
        <time>2018-07-25T08:58:07Z</time>
      </trkpt>
      <trkpt lat="45.99682" lon="4.82825">
        <ele>270</ele>
        <time>2018-07-25T08:58:08Z</time>
      </trkpt>
      <trkpt lat="45.99683" lon="4.82831">
        <ele>270</ele>
        <time>2018-07-25T08:58:09Z</time>
      </trkpt>
      <trkpt lat="45.99686" lon="4.82843">
        <ele>270</ele>
        <time>2018-07-25T08:58:11Z</time>
      </trkpt>
      <trkpt lat="45.99688" lon="4.82849">
        <ele>270</ele>
        <time>2018-07-25T08:58:12Z</time>
      </trkpt>
      <trkpt lat="45.9969" lon="4.82855">
        <ele>270</ele>
        <time>2018-07-25T08:58:13Z</time>
      </trkpt>
      <trkpt lat="45.99692" lon="4.82861">
        <ele>270</ele>
        <time>2018-07-25T08:58:14Z</time>
      </trkpt>
      <trkpt lat="45.99695" lon="4.82872">
        <ele>270</ele>
        <time>2018-07-25T08:58:16Z</time>
      </trkpt>
      <trkpt lat="45.99698" lon="4.82879">
        <ele>271</ele>
        <time>2018-07-25T08:58:17Z</time>
      </trkpt>
      <trkpt lat="45.99701" lon="4.8289">
        <ele>271</ele>
        <time>2018-07-25T08:58:19Z</time>
      </trkpt>
      <trkpt lat="45.99703" lon="4.82896">
        <ele>271</ele>
        <time>2018-07-25T08:58:20Z</time>
      </trkpt>
      <trkpt lat="45.99706" lon="4.82908">
        <ele>271</ele>
        <time>2018-07-25T08:58:22Z</time>
      </trkpt>
      <trkpt lat="45.99709" lon="4.82914">
        <ele>271</ele>
        <time>2018-07-25T08:58:23Z</time>
      </trkpt>
      <trkpt lat="45.99711" lon="4.82921">
        <ele>271</ele>
        <time>2018-07-25T08:58:24Z</time>
      </trkpt>
      <trkpt lat="45.99712" lon="4.82928">
        <ele>271</ele>
        <time>2018-07-25T08:58:25Z</time>
      </trkpt>
      <trkpt lat="45.99715" lon="4.8294">
        <ele>271</ele>
        <time>2018-07-25T08:58:27Z</time>
      </trkpt>
      <trkpt lat="45.99717" lon="4.82945">
        <ele>271</ele>
        <time>2018-07-25T08:58:28Z</time>
      </trkpt>
      <trkpt lat="45.99718" lon="4.82951">
        <ele>271</ele>
        <time>2018-07-25T08:58:29Z</time>
      </trkpt>
      <trkpt lat="45.9972" lon="4.82958">
        <ele>271</ele>
        <time>2018-07-25T08:58:30Z</time>
      </trkpt>
      <trkpt lat="45.99721" lon="4.82964">
        <ele>271</ele>
        <time>2018-07-25T08:58:31Z</time>
      </trkpt>
      <trkpt lat="45.99722" lon="4.82971">
        <ele>271</ele>
        <time>2018-07-25T08:58:32Z</time>
      </trkpt>
      <trkpt lat="45.99725" lon="4.82978">
        <ele>271</ele>
        <time>2018-07-25T08:58:33Z</time>
      </trkpt>
      <trkpt lat="45.99727" lon="4.82985">
        <ele>271</ele>
        <time>2018-07-25T08:58:34Z</time>
      </trkpt>
      <trkpt lat="45.99729" lon="4.82993">
        <ele>271</ele>
        <time>2018-07-25T08:58:35Z</time>
      </trkpt>
      <trkpt lat="45.99731" lon="4.83">
        <ele>271</ele>
        <time>2018-07-25T08:58:36Z</time>
      </trkpt>
      <trkpt lat="45.99734" lon="4.83008">
        <ele>271</ele>
        <time>2018-07-25T08:58:37Z</time>
      </trkpt>
      <trkpt lat="45.99736" lon="4.83015">
        <ele>271</ele>
        <time>2018-07-25T08:58:38Z</time>
      </trkpt>
      <trkpt lat="45.99738" lon="4.83022">
        <ele>271</ele>
        <time>2018-07-25T08:58:39Z</time>
      </trkpt>
      <trkpt lat="45.99741" lon="4.8303">
        <ele>271</ele>
        <time>2018-07-25T08:58:40Z</time>
      </trkpt>
      <trkpt lat="45.99742" lon="4.83037">
        <ele>271</ele>
        <time>2018-07-25T08:58:41Z</time>
      </trkpt>
      <trkpt lat="45.99744" lon="4.83043">
        <ele>271</ele>
        <time>2018-07-25T08:58:42Z</time>
      </trkpt>
      <trkpt lat="45.99747" lon="4.8305">
        <ele>271</ele>
        <time>2018-07-25T08:58:43Z</time>
      </trkpt>
      <trkpt lat="45.99749" lon="4.83058">
        <ele>271</ele>
        <time>2018-07-25T08:58:44Z</time>
      </trkpt>
      <trkpt lat="45.99751" lon="4.83066">
        <ele>272</ele>
        <time>2018-07-25T08:58:45Z</time>
      </trkpt>
      <trkpt lat="45.99754" lon="4.83074">
        <ele>272</ele>
        <time>2018-07-25T08:58:46Z</time>
      </trkpt>
      <trkpt lat="45.99754" lon="4.83081">
        <ele>272</ele>
        <time>2018-07-25T08:58:47Z</time>
      </trkpt>
      <trkpt lat="45.99755" lon="4.83091">
        <ele>272</ele>
        <time>2018-07-25T08:58:48Z</time>
      </trkpt>
      <trkpt lat="45.99758" lon="4.83102">
        <ele>272</ele>
        <time>2018-07-25T08:58:49Z</time>
      </trkpt>
      <trkpt lat="45.99759" lon="4.83113">
        <ele>271</ele>
        <time>2018-07-25T08:58:50Z</time>
      </trkpt>
      <trkpt lat="45.99759" lon="4.83122">
        <ele>271</ele>
        <time>2018-07-25T08:58:51Z</time>
      </trkpt>
      <trkpt lat="45.9976" lon="4.83131">
        <ele>271</ele>
        <time>2018-07-25T08:58:52Z</time>
      </trkpt>
      <trkpt lat="45.9976" lon="4.83142">
        <ele>271</ele>
        <time>2018-07-25T08:58:53Z</time>
      </trkpt>
      <trkpt lat="45.99761" lon="4.83153">
        <ele>271</ele>
        <time>2018-07-25T08:58:54Z</time>
      </trkpt>
      <trkpt lat="45.99762" lon="4.83164">
        <ele>270</ele>
        <time>2018-07-25T08:58:55Z</time>
      </trkpt>
      <trkpt lat="45.99763" lon="4.83175">
        <ele>269</ele>
        <time>2018-07-25T08:58:56Z</time>
      </trkpt>
      <trkpt lat="45.99763" lon="4.83185">
        <ele>269</ele>
        <time>2018-07-25T08:58:57Z</time>
      </trkpt>
      <trkpt lat="45.99764" lon="4.83196">
        <ele>268</ele>
        <time>2018-07-25T08:58:58Z</time>
      </trkpt>
      <trkpt lat="45.99766" lon="4.83207">
        <ele>268</ele>
        <time>2018-07-25T08:58:59Z</time>
      </trkpt>
      <trkpt lat="45.99768" lon="4.83219">
        <ele>268</ele>
        <time>2018-07-25T08:59:00Z</time>
      </trkpt>
      <trkpt lat="45.99769" lon="4.83231">
        <ele>267</ele>
        <time>2018-07-25T08:59:01Z</time>
      </trkpt>
      <trkpt lat="45.9977" lon="4.83242">
        <ele>267</ele>
        <time>2018-07-25T08:59:02Z</time>
      </trkpt>
      <trkpt lat="45.99771" lon="4.83254">
        <ele>265</ele>
        <time>2018-07-25T08:59:03Z</time>
      </trkpt>
      <trkpt lat="45.99772" lon="4.83265">
        <ele>265</ele>
        <time>2018-07-25T08:59:04Z</time>
      </trkpt>
      <trkpt lat="45.99773" lon="4.83276">
        <ele>265</ele>
        <time>2018-07-25T08:59:05Z</time>
      </trkpt>
      <trkpt lat="45.99774" lon="4.83287">
        <ele>264</ele>
        <time>2018-07-25T08:59:06Z</time>
      </trkpt>
      <trkpt lat="45.99775" lon="4.83296">
        <ele>264</ele>
        <time>2018-07-25T08:59:07Z</time>
      </trkpt>
      <trkpt lat="45.99776" lon="4.83306">
        <ele>264</ele>
        <time>2018-07-25T08:59:08Z</time>
      </trkpt>
      <trkpt lat="45.99778" lon="4.83317">
        <ele>264</ele>
        <time>2018-07-25T08:59:09Z</time>
      </trkpt>
      <trkpt lat="45.9978" lon="4.83326">
        <ele>264</ele>
        <time>2018-07-25T08:59:10Z</time>
      </trkpt>
      <trkpt lat="45.99783" lon="4.83335">
        <ele>263</ele>
        <time>2018-07-25T08:59:11Z</time>
      </trkpt>
      <trkpt lat="45.99784" lon="4.83346">
        <ele>262</ele>
        <time>2018-07-25T08:59:12Z</time>
      </trkpt>
      <trkpt lat="45.99788" lon="4.83357">
        <ele>262</ele>
        <time>2018-07-25T08:59:13Z</time>
      </trkpt>
      <trkpt lat="45.9979" lon="4.83368">
        <ele>262</ele>
        <time>2018-07-25T08:59:14Z</time>
      </trkpt>
      <trkpt lat="45.99791" lon="4.83378">
        <ele>262</ele>
        <time>2018-07-25T08:59:15Z</time>
      </trkpt>
      <trkpt lat="45.99793" lon="4.83388">
        <ele>262</ele>
        <time>2018-07-25T08:59:16Z</time>
      </trkpt>
      <trkpt lat="45.99795" lon="4.83399">
        <ele>262</ele>
        <time>2018-07-25T08:59:17Z</time>
      </trkpt>
      <trkpt lat="45.99797" lon="4.83409">
        <ele>262</ele>
        <time>2018-07-25T08:59:18Z</time>
      </trkpt>
      <trkpt lat="45.99801" lon="4.83419">
        <ele>261</ele>
        <time>2018-07-25T08:59:19Z</time>
      </trkpt>
      <trkpt lat="45.99803" lon="4.8343">
        <ele>261</ele>
        <time>2018-07-25T08:59:20Z</time>
      </trkpt>
      <trkpt lat="45.99806" lon="4.8344">
        <ele>261</ele>
        <time>2018-07-25T08:59:21Z</time>
      </trkpt>
      <trkpt lat="45.99808" lon="4.83453">
        <ele>261</ele>
        <time>2018-07-25T08:59:22Z</time>
      </trkpt>
      <trkpt lat="45.99811" lon="4.83463">
        <ele>261</ele>
        <time>2018-07-25T08:59:23Z</time>
      </trkpt>
      <trkpt lat="45.99813" lon="4.83474">
        <ele>260</ele>
        <time>2018-07-25T08:59:24Z</time>
      </trkpt>
      <trkpt lat="45.99815" lon="4.83486">
        <ele>260</ele>
        <time>2018-07-25T08:59:25Z</time>
      </trkpt>
      <trkpt lat="45.99817" lon="4.83496">
        <ele>260</ele>
        <time>2018-07-25T08:59:26Z</time>
      </trkpt>
      <trkpt lat="45.99819" lon="4.83507">
        <ele>259</ele>
        <time>2018-07-25T08:59:27Z</time>
      </trkpt>
      <trkpt lat="45.99821" lon="4.83519">
        <ele>259</ele>
        <time>2018-07-25T08:59:28Z</time>
      </trkpt>
      <trkpt lat="45.99823" lon="4.8353">
        <ele>259</ele>
        <time>2018-07-25T08:59:29Z</time>
      </trkpt>
      <trkpt lat="45.99825" lon="4.83541">
        <ele>259</ele>
        <time>2018-07-25T08:59:30Z</time>
      </trkpt>
      <trkpt lat="45.99827" lon="4.83551">
        <ele>258</ele>
        <time>2018-07-25T08:59:31Z</time>
      </trkpt>
      <trkpt lat="45.9983" lon="4.83561">
        <ele>258</ele>
        <time>2018-07-25T08:59:32Z</time>
      </trkpt>
      <trkpt lat="45.99832" lon="4.83572">
        <ele>258</ele>
        <time>2018-07-25T08:59:33Z</time>
      </trkpt>
      <trkpt lat="45.99835" lon="4.83583">
        <ele>257</ele>
        <time>2018-07-25T08:59:34Z</time>
      </trkpt>
      <trkpt lat="45.99838" lon="4.83591">
        <ele>257</ele>
        <time>2018-07-25T08:59:35Z</time>
      </trkpt>
      <trkpt lat="45.99841" lon="4.83601">
        <ele>257</ele>
        <time>2018-07-25T08:59:36Z</time>
      </trkpt>
      <trkpt lat="45.99843" lon="4.83612">
        <ele>257</ele>
        <time>2018-07-25T08:59:37Z</time>
      </trkpt>
      <trkpt lat="45.99845" lon="4.83622">
        <ele>257</ele>
        <time>2018-07-25T08:59:38Z</time>
      </trkpt>
      <trkpt lat="45.99848" lon="4.8363">
        <ele>257</ele>
        <time>2018-07-25T08:59:39Z</time>
      </trkpt>
      <trkpt lat="45.9985" lon="4.83639">
        <ele>257</ele>
        <time>2018-07-25T08:59:40Z</time>
      </trkpt>
      <trkpt lat="45.99851" lon="4.83648">
        <ele>257</ele>
        <time>2018-07-25T08:59:41Z</time>
      </trkpt>
      <trkpt lat="45.99853" lon="4.83657">
        <ele>257</ele>
        <time>2018-07-25T08:59:42Z</time>
      </trkpt>
      <trkpt lat="45.99855" lon="4.83666">
        <ele>257</ele>
        <time>2018-07-25T08:59:43Z</time>
      </trkpt>
      <trkpt lat="45.99857" lon="4.83675">
        <ele>256</ele>
        <time>2018-07-25T08:59:44Z</time>
      </trkpt>
      <trkpt lat="45.99859" lon="4.83684">
        <ele>256</ele>
        <time>2018-07-25T08:59:45Z</time>
      </trkpt>
      <trkpt lat="45.99861" lon="4.83691">
        <ele>256</ele>
        <time>2018-07-25T08:59:46Z</time>
      </trkpt>
      <trkpt lat="45.99863" lon="4.83699">
        <ele>256</ele>
        <time>2018-07-25T08:59:47Z</time>
      </trkpt>
      <trkpt lat="45.99866" lon="4.83707">
        <ele>256</ele>
        <time>2018-07-25T08:59:48Z</time>
      </trkpt>
      <trkpt lat="45.99868" lon="4.83715">
        <ele>256</ele>
        <time>2018-07-25T08:59:49Z</time>
      </trkpt>
      <trkpt lat="45.9987" lon="4.83723">
        <ele>256</ele>
        <time>2018-07-25T08:59:50Z</time>
      </trkpt>
      <trkpt lat="45.99873" lon="4.83731">
        <ele>256</ele>
        <time>2018-07-25T08:59:51Z</time>
      </trkpt>
      <trkpt lat="45.99876" lon="4.8374">
        <ele>256</ele>
        <time>2018-07-25T08:59:52Z</time>
      </trkpt>
      <trkpt lat="45.99878" lon="4.83747">
        <ele>256</ele>
        <time>2018-07-25T08:59:53Z</time>
      </trkpt>
      <trkpt lat="45.99881" lon="4.83755">
        <ele>256</ele>
        <time>2018-07-25T08:59:54Z</time>
      </trkpt>
      <trkpt lat="45.99883" lon="4.83764">
        <ele>256</ele>
        <time>2018-07-25T08:59:55Z</time>
      </trkpt>
      <trkpt lat="45.99885" lon="4.83772">
        <ele>257</ele>
        <time>2018-07-25T08:59:56Z</time>
      </trkpt>
      <trkpt lat="45.99887" lon="4.83779">
        <ele>257</ele>
        <time>2018-07-25T08:59:57Z</time>
      </trkpt>
      <trkpt lat="45.99888" lon="4.83785">
        <ele>257</ele>
        <time>2018-07-25T08:59:58Z</time>
      </trkpt>
      <trkpt lat="45.99891" lon="4.83792">
        <ele>257</ele>
        <time>2018-07-25T08:59:59Z</time>
      </trkpt>
      <trkpt lat="45.99893" lon="4.838">
        <ele>257</ele>
        <time>2018-07-25T09:00:00Z</time>
      </trkpt>
      <trkpt lat="45.99895" lon="4.83806">
        <ele>257</ele>
        <time>2018-07-25T09:00:01Z</time>
      </trkpt>
      <trkpt lat="45.99896" lon="4.83814">
        <ele>257</ele>
        <time>2018-07-25T09:00:02Z</time>
      </trkpt>
      <trkpt lat="45.99899" lon="4.83821">
        <ele>257</ele>
        <time>2018-07-25T09:00:03Z</time>
      </trkpt>
      <trkpt lat="45.99901" lon="4.83829">
        <ele>257</ele>
        <time>2018-07-25T09:00:04Z</time>
      </trkpt>
      <trkpt lat="45.99904" lon="4.83837">
        <ele>258</ele>
        <time>2018-07-25T09:00:05Z</time>
      </trkpt>
      <trkpt lat="45.99906" lon="4.83845">
        <ele>258</ele>
        <time>2018-07-25T09:00:06Z</time>
      </trkpt>
      <trkpt lat="45.99908" lon="4.83853">
        <ele>258</ele>
        <time>2018-07-25T09:00:07Z</time>
      </trkpt>
      <trkpt lat="45.99909" lon="4.83861">
        <ele>258</ele>
        <time>2018-07-25T09:00:08Z</time>
      </trkpt>
      <trkpt lat="45.99911" lon="4.83868">
        <ele>258</ele>
        <time>2018-07-25T09:00:09Z</time>
      </trkpt>
      <trkpt lat="45.99914" lon="4.83875">
        <ele>258</ele>
        <time>2018-07-25T09:00:10Z</time>
      </trkpt>
      <trkpt lat="45.99915" lon="4.83883">
        <ele>258</ele>
        <time>2018-07-25T09:00:11Z</time>
      </trkpt>
      <trkpt lat="45.99917" lon="4.8389">
        <ele>259</ele>
        <time>2018-07-25T09:00:12Z</time>
      </trkpt>
      <trkpt lat="45.99919" lon="4.83899">
        <ele>259</ele>
        <time>2018-07-25T09:00:13Z</time>
      </trkpt>
      <trkpt lat="45.99921" lon="4.83907">
        <ele>259</ele>
        <time>2018-07-25T09:00:14Z</time>
      </trkpt>
      <trkpt lat="45.99923" lon="4.83916">
        <ele>259</ele>
        <time>2018-07-25T09:00:15Z</time>
      </trkpt>
      <trkpt lat="45.99925" lon="4.83922">
        <ele>259</ele>
        <time>2018-07-25T09:00:16Z</time>
      </trkpt>
      <trkpt lat="45.99928" lon="4.8393">
        <ele>259</ele>
        <time>2018-07-25T09:00:17Z</time>
      </trkpt>
      <trkpt lat="45.99931" lon="4.83937">
        <ele>259</ele>
        <time>2018-07-25T09:00:18Z</time>
      </trkpt>
      <trkpt lat="45.99934" lon="4.83945">
        <ele>259</ele>
        <time>2018-07-25T09:00:19Z</time>
      </trkpt>
      <trkpt lat="45.99935" lon="4.83951">
        <ele>259</ele>
        <time>2018-07-25T09:00:20Z</time>
      </trkpt>
      <trkpt lat="45.99938" lon="4.8396">
        <ele>259</ele>
        <time>2018-07-25T09:00:21Z</time>
      </trkpt>
      <trkpt lat="45.9994" lon="4.83967">
        <ele>259</ele>
        <time>2018-07-25T09:00:22Z</time>
      </trkpt>
      <trkpt lat="45.99943" lon="4.83975">
        <ele>259</ele>
        <time>2018-07-25T09:00:23Z</time>
      </trkpt>
      <trkpt lat="45.99945" lon="4.83982">
        <ele>259</ele>
        <time>2018-07-25T09:00:24Z</time>
      </trkpt>
      <trkpt lat="45.99947" lon="4.83989">
        <ele>259</ele>
        <time>2018-07-25T09:00:25Z</time>
      </trkpt>
      <trkpt lat="45.99949" lon="4.83996">
        <ele>259</ele>
        <time>2018-07-25T09:00:26Z</time>
      </trkpt>
      <trkpt lat="45.99951" lon="4.84003">
        <ele>259</ele>
        <time>2018-07-25T09:00:27Z</time>
      </trkpt>
      <trkpt lat="45.99953" lon="4.8401">
        <ele>259</ele>
        <time>2018-07-25T09:00:28Z</time>
      </trkpt>
      <trkpt lat="45.99955" lon="4.84018">
        <ele>259</ele>
        <time>2018-07-25T09:00:29Z</time>
      </trkpt>
      <trkpt lat="45.99956" lon="4.84027">
        <ele>259</ele>
        <time>2018-07-25T09:00:30Z</time>
      </trkpt>
      <trkpt lat="45.99959" lon="4.84035">
        <ele>259</ele>
        <time>2018-07-25T09:00:31Z</time>
      </trkpt>
      <trkpt lat="45.99961" lon="4.84043">
        <ele>259</ele>
        <time>2018-07-25T09:00:32Z</time>
      </trkpt>
      <trkpt lat="45.99963" lon="4.8405">
        <ele>258</ele>
        <time>2018-07-25T09:00:33Z</time>
      </trkpt>
      <trkpt lat="45.99965" lon="4.84058">
        <ele>258</ele>
        <time>2018-07-25T09:00:34Z</time>
      </trkpt>
      <trkpt lat="45.99967" lon="4.84066">
        <ele>259</ele>
        <time>2018-07-25T09:00:35Z</time>
      </trkpt>
      <trkpt lat="45.9997" lon="4.84073">
        <ele>259</ele>
        <time>2018-07-25T09:00:36Z</time>
      </trkpt>
      <trkpt lat="45.99972" lon="4.84079">
        <ele>259</ele>
        <time>2018-07-25T09:00:37Z</time>
      </trkpt>
      <trkpt lat="45.99973" lon="4.84086">
        <ele>258</ele>
        <time>2018-07-25T09:00:38Z</time>
      </trkpt>
      <trkpt lat="45.99977" lon="4.84097">
        <ele>258</ele>
        <time>2018-07-25T09:00:40Z</time>
      </trkpt>
      <trkpt lat="45.99979" lon="4.84104">
        <ele>258</ele>
        <time>2018-07-25T09:00:41Z</time>
      </trkpt>
      <trkpt lat="45.99981" lon="4.8411">
        <ele>258</ele>
        <time>2018-07-25T09:00:42Z</time>
      </trkpt>
      <trkpt lat="45.99981" lon="4.84117">
        <ele>258</ele>
        <time>2018-07-25T09:00:43Z</time>
      </trkpt>
      <trkpt lat="45.99986" lon="4.84125">
        <ele>257</ele>
        <time>2018-07-25T09:00:44Z</time>
      </trkpt>
      <trkpt lat="45.99988" lon="4.84133">
        <ele>257</ele>
        <time>2018-07-25T09:00:45Z</time>
      </trkpt>
      <trkpt lat="45.99991" lon="4.8414">
        <ele>257</ele>
        <time>2018-07-25T09:00:46Z</time>
      </trkpt>
      <trkpt lat="45.99993" lon="4.84147">
        <ele>257</ele>
        <time>2018-07-25T09:00:47Z</time>
      </trkpt>
      <trkpt lat="45.99994" lon="4.84154">
        <ele>257</ele>
        <time>2018-07-25T09:00:48Z</time>
      </trkpt>
      <trkpt lat="45.99996" lon="4.84161">
        <ele>257</ele>
        <time>2018-07-25T09:00:49Z</time>
      </trkpt>
      <trkpt lat="45.99999" lon="4.84168">
        <ele>257</ele>
        <time>2018-07-25T09:00:50Z</time>
      </trkpt>
      <trkpt lat="46" lon="4.84177">
        <ele>258</ele>
        <time>2018-07-25T09:00:51Z</time>
      </trkpt>
      <trkpt lat="46.00002" lon="4.84185">
        <ele>258</ele>
        <time>2018-07-25T09:00:52Z</time>
      </trkpt>
      <trkpt lat="46.00004" lon="4.84192">
        <ele>258</ele>
        <time>2018-07-25T09:00:53Z</time>
      </trkpt>
      <trkpt lat="46.00007" lon="4.84199">
        <ele>258</ele>
        <time>2018-07-25T09:00:54Z</time>
      </trkpt>
      <trkpt lat="46.00009" lon="4.84206">
        <ele>259</ele>
        <time>2018-07-25T09:00:55Z</time>
      </trkpt>
      <trkpt lat="46.00011" lon="4.84219">
        <ele>259</ele>
        <time>2018-07-25T09:00:57Z</time>
      </trkpt>
      <trkpt lat="46.00013" lon="4.84224">
        <ele>259</ele>
        <time>2018-07-25T09:00:58Z</time>
      </trkpt>
      <trkpt lat="46.00016" lon="4.84236">
        <ele>259</ele>
        <time>2018-07-25T09:01:00Z</time>
      </trkpt>
      <trkpt lat="46.00019" lon="4.84243">
        <ele>259</ele>
        <time>2018-07-25T09:01:01Z</time>
      </trkpt>
      <trkpt lat="46.0002" lon="4.84248">
        <ele>259</ele>
        <time>2018-07-25T09:01:02Z</time>
      </trkpt>
      <trkpt lat="46.00022" lon="4.84255">
        <ele>260</ele>
        <time>2018-07-25T09:01:03Z</time>
      </trkpt>
      <trkpt lat="46.00024" lon="4.8426">
        <ele>260</ele>
        <time>2018-07-25T09:01:04Z</time>
      </trkpt>
      <trkpt lat="46.00026" lon="4.84266">
        <ele>260</ele>
        <time>2018-07-25T09:01:05Z</time>
      </trkpt>
      <trkpt lat="46.00028" lon="4.84272">
        <ele>260</ele>
        <time>2018-07-25T09:01:06Z</time>
      </trkpt>
      <trkpt lat="46.00029" lon="4.84279">
        <ele>260</ele>
        <time>2018-07-25T09:01:07Z</time>
      </trkpt>
      <trkpt lat="46.00031" lon="4.84285">
        <ele>260</ele>
        <time>2018-07-25T09:01:08Z</time>
      </trkpt>
      <trkpt lat="46.00033" lon="4.84292">
        <ele>259</ele>
        <time>2018-07-25T09:01:09Z</time>
      </trkpt>
      <trkpt lat="46.00035" lon="4.84298">
        <ele>259</ele>
        <time>2018-07-25T09:01:10Z</time>
      </trkpt>
      <trkpt lat="46.00037" lon="4.84305">
        <ele>259</ele>
        <time>2018-07-25T09:01:11Z</time>
      </trkpt>
      <trkpt lat="46.00039" lon="4.84312">
        <ele>259</ele>
        <time>2018-07-25T09:01:12Z</time>
      </trkpt>
      <trkpt lat="46.00039" lon="4.84319">
        <ele>259</ele>
        <time>2018-07-25T09:01:13Z</time>
      </trkpt>
      <trkpt lat="46.00041" lon="4.84327">
        <ele>259</ele>
        <time>2018-07-25T09:01:14Z</time>
      </trkpt>
      <trkpt lat="46.00043" lon="4.84336">
        <ele>259</ele>
        <time>2018-07-25T09:01:15Z</time>
      </trkpt>
      <trkpt lat="46.00045" lon="4.84343">
        <ele>259</ele>
        <time>2018-07-25T09:01:16Z</time>
      </trkpt>
      <trkpt lat="46.00046" lon="4.84352">
        <ele>259</ele>
        <time>2018-07-25T09:01:17Z</time>
      </trkpt>
      <trkpt lat="46.00048" lon="4.8436">
        <ele>259</ele>
        <time>2018-07-25T09:01:18Z</time>
      </trkpt>
      <trkpt lat="46.0005" lon="4.84368">
        <ele>259</ele>
        <time>2018-07-25T09:01:19Z</time>
      </trkpt>
      <trkpt lat="46.00052" lon="4.84376">
        <ele>259</ele>
        <time>2018-07-25T09:01:20Z</time>
      </trkpt>
      <trkpt lat="46.00053" lon="4.84385">
        <ele>259</ele>
        <time>2018-07-25T09:01:21Z</time>
      </trkpt>
      <trkpt lat="46.00054" lon="4.84394">
        <ele>259</ele>
        <time>2018-07-25T09:01:22Z</time>
      </trkpt>
      <trkpt lat="46.00056" lon="4.84402">
        <ele>259</ele>
        <time>2018-07-25T09:01:23Z</time>
      </trkpt>
      <trkpt lat="46.00057" lon="4.84411">
        <ele>259</ele>
        <time>2018-07-25T09:01:24Z</time>
      </trkpt>
      <trkpt lat="46.00058" lon="4.8442">
        <ele>258</ele>
        <time>2018-07-25T09:01:25Z</time>
      </trkpt>
      <trkpt lat="46.00059" lon="4.84429">
        <ele>258</ele>
        <time>2018-07-25T09:01:26Z</time>
      </trkpt>
      <trkpt lat="46.00061" lon="4.84439">
        <ele>258</ele>
        <time>2018-07-25T09:01:27Z</time>
      </trkpt>
      <trkpt lat="46.00063" lon="4.84448">
        <ele>258</ele>
        <time>2018-07-25T09:01:28Z</time>
      </trkpt>
      <trkpt lat="46.00065" lon="4.84458">
        <ele>258</ele>
        <time>2018-07-25T09:01:29Z</time>
      </trkpt>
      <trkpt lat="46.00067" lon="4.84467">
        <ele>258</ele>
        <time>2018-07-25T09:01:30Z</time>
      </trkpt>
      <trkpt lat="46.00068" lon="4.84475">
        <ele>258</ele>
        <time>2018-07-25T09:01:31Z</time>
      </trkpt>
      <trkpt lat="46.0007" lon="4.84484">
        <ele>258</ele>
        <time>2018-07-25T09:01:32Z</time>
      </trkpt>
      <trkpt lat="46.0007" lon="4.84492">
        <ele>258</ele>
        <time>2018-07-25T09:01:33Z</time>
      </trkpt>
      <trkpt lat="46.00072" lon="4.84502">
        <ele>258</ele>
        <time>2018-07-25T09:01:34Z</time>
      </trkpt>
      <trkpt lat="46.00073" lon="4.84511">
        <ele>258</ele>
        <time>2018-07-25T09:01:35Z</time>
      </trkpt>
      <trkpt lat="46.00074" lon="4.84521">
        <ele>258</ele>
        <time>2018-07-25T09:01:36Z</time>
      </trkpt>
      <trkpt lat="46.00075" lon="4.8453">
        <ele>257</ele>
        <time>2018-07-25T09:01:37Z</time>
      </trkpt>
      <trkpt lat="46.00076" lon="4.84539">
        <ele>257</ele>
        <time>2018-07-25T09:01:38Z</time>
      </trkpt>
      <trkpt lat="46.00076" lon="4.84546">
        <ele>257</ele>
        <time>2018-07-25T09:01:39Z</time>
      </trkpt>
      <trkpt lat="46.00075" lon="4.84553">
        <ele>257</ele>
        <time>2018-07-25T09:01:40Z</time>
      </trkpt>
      <trkpt lat="46.00074" lon="4.84561">
        <ele>257</ele>
        <time>2018-07-25T09:01:41Z</time>
      </trkpt>
      <trkpt lat="46.00076" lon="4.84571">
        <ele>257</ele>
        <time>2018-07-25T09:01:42Z</time>
      </trkpt>
      <trkpt lat="46.00076" lon="4.8458">
        <ele>257</ele>
        <time>2018-07-25T09:01:43Z</time>
      </trkpt>
      <trkpt lat="46.00076" lon="4.84588">
        <ele>257</ele>
        <time>2018-07-25T09:01:44Z</time>
      </trkpt>
      <trkpt lat="46.00076" lon="4.84596">
        <ele>256</ele>
        <time>2018-07-25T09:01:45Z</time>
      </trkpt>
      <trkpt lat="46.00076" lon="4.84604">
        <ele>256</ele>
        <time>2018-07-25T09:01:46Z</time>
      </trkpt>
      <trkpt lat="46.00076" lon="4.84613">
        <ele>256</ele>
        <time>2018-07-25T09:01:47Z</time>
      </trkpt>
      <trkpt lat="46.00076" lon="4.8462">
        <ele>256</ele>
        <time>2018-07-25T09:01:48Z</time>
      </trkpt>
      <trkpt lat="46.00077" lon="4.84629">
        <ele>256</ele>
        <time>2018-07-25T09:01:49Z</time>
      </trkpt>
      <trkpt lat="46.00077" lon="4.84638">
        <ele>256</ele>
        <time>2018-07-25T09:01:50Z</time>
      </trkpt>
      <trkpt lat="46.00077" lon="4.84646">
        <ele>256</ele>
        <time>2018-07-25T09:01:51Z</time>
      </trkpt>
      <trkpt lat="46.00079" lon="4.84656">
        <ele>256</ele>
        <time>2018-07-25T09:01:52Z</time>
      </trkpt>
      <trkpt lat="46.00079" lon="4.84665">
        <ele>256</ele>
        <time>2018-07-25T09:01:53Z</time>
      </trkpt>
      <trkpt lat="46.00079" lon="4.84673">
        <ele>256</ele>
        <time>2018-07-25T09:01:54Z</time>
      </trkpt>
      <trkpt lat="46.00079" lon="4.84681">
        <ele>256</ele>
        <time>2018-07-25T09:01:55Z</time>
      </trkpt>
      <trkpt lat="46.0008" lon="4.84687">
        <ele>256</ele>
        <time>2018-07-25T09:01:56Z</time>
      </trkpt>
      <trkpt lat="46.00081" lon="4.84695">
        <ele>256</ele>
        <time>2018-07-25T09:01:57Z</time>
      </trkpt>
      <trkpt lat="46.00082" lon="4.84701">
        <ele>257</ele>
        <time>2018-07-25T09:01:58Z</time>
      </trkpt>
      <trkpt lat="46.00086" lon="4.84706">
        <ele>257</ele>
        <time>2018-07-25T09:01:59Z</time>
      </trkpt>
      <trkpt lat="46.00089" lon="4.84709">
        <ele>257</ele>
        <time>2018-07-25T09:02:00Z</time>
      </trkpt>
      <trkpt lat="46.00094" lon="4.84712">
        <ele>257</ele>
        <time>2018-07-25T09:02:01Z</time>
      </trkpt>
      <trkpt lat="46.00102" lon="4.84713">
        <ele>257</ele>
        <time>2018-07-25T09:02:03Z</time>
      </trkpt>
      <trkpt lat="46.00107" lon="4.84715">
        <ele>257</ele>
        <time>2018-07-25T09:02:04Z</time>
      </trkpt>
      <trkpt lat="46.00115" lon="4.84715">
        <ele>257</ele>
        <time>2018-07-25T09:02:06Z</time>
      </trkpt>
      <trkpt lat="46.0012" lon="4.84715">
        <ele>258</ele>
        <time>2018-07-25T09:02:07Z</time>
      </trkpt>
      <trkpt lat="46.00124" lon="4.84715">
        <ele>258</ele>
        <time>2018-07-25T09:02:08Z</time>
      </trkpt>
      <trkpt lat="46.00129" lon="4.84715">
        <ele>258</ele>
        <time>2018-07-25T09:02:09Z</time>
      </trkpt>
      <trkpt lat="46.00135" lon="4.84712">
        <ele>258</ele>
        <time>2018-07-25T09:02:10Z</time>
      </trkpt>
      <trkpt lat="46.00139" lon="4.84712">
        <ele>258</ele>
        <time>2018-07-25T09:02:11Z</time>
      </trkpt>
      <trkpt lat="46.00148" lon="4.84714">
        <ele>258</ele>
        <time>2018-07-25T09:02:13Z</time>
      </trkpt>
      <trkpt lat="46.00152" lon="4.84715">
        <ele>258</ele>
        <time>2018-07-25T09:02:14Z</time>
      </trkpt>
      <trkpt lat="46.00159" lon="4.84719">
        <ele>258</ele>
        <time>2018-07-25T09:02:17Z</time>
      </trkpt>
      <trkpt lat="46.00161" lon="4.84722">
        <ele>258</ele>
        <time>2018-07-25T09:02:18Z</time>
      </trkpt>
      <trkpt lat="46.0016" lon="4.84732">
        <ele>258</ele>
        <time>2018-07-25T09:02:22Z</time>
      </trkpt>
      <trkpt lat="46.00159" lon="4.84736">
        <ele>258</ele>
        <time>2018-07-25T09:02:23Z</time>
      </trkpt>
      <trkpt lat="46.00157" lon="4.84749">
        <ele>258</ele>
        <time>2018-07-25T09:02:24Z</time>
      </trkpt>
      <trkpt lat="46.00158" lon="4.8476">
        <ele>259</ele>
        <time>2018-07-25T09:02:28Z</time>
      </trkpt>
      <trkpt lat="46.00158" lon="4.84763">
        <ele>259</ele>
        <time>2018-07-25T09:02:29Z</time>
      </trkpt>
      <trkpt lat="46.00159" lon="4.84773">
        <ele>259</ele>
        <time>2018-07-25T09:02:32Z</time>
      </trkpt>
      <trkpt lat="46.00159" lon="4.84777">
        <ele>259</ele>
        <time>2018-07-25T09:02:33Z</time>
      </trkpt>
      <trkpt lat="46.00161" lon="4.84788">
        <ele>260</ele>
        <time>2018-07-25T09:02:36Z</time>
      </trkpt>
      <trkpt lat="46.00161" lon="4.84792">
        <ele>260</ele>
        <time>2018-07-25T09:02:37Z</time>
      </trkpt>
      <trkpt lat="46.00162" lon="4.848">
        <ele>260</ele>
        <time>2018-07-25T09:02:39Z</time>
      </trkpt>
      <trkpt lat="46.00164" lon="4.84813">
        <ele>260</ele>
        <time>2018-07-25T09:02:40Z</time>
      </trkpt>
      <trkpt lat="46.00165" lon="4.84824">
        <ele>261</ele>
        <time>2018-07-25T09:02:44Z</time>
      </trkpt>
      <trkpt lat="46.00166" lon="4.84828">
        <ele>261</ele>
        <time>2018-07-25T09:02:45Z</time>
      </trkpt>
      <trkpt lat="46.00166" lon="4.84837">
        <ele>261</ele>
        <time>2018-07-25T09:02:48Z</time>
      </trkpt>
      <trkpt lat="46.00166" lon="4.84841">
        <ele>262</ele>
        <time>2018-07-25T09:02:49Z</time>
      </trkpt>
      <trkpt lat="46.00169" lon="4.84853">
        <ele>262</ele>
        <time>2018-07-25T09:02:54Z</time>
      </trkpt>
      <trkpt lat="46.0017" lon="4.84855">
        <ele>262</ele>
        <time>2018-07-25T09:02:55Z</time>
      </trkpt>
      <trkpt lat="46.0017" lon="4.84856">
        <ele>262</ele>
        <time>2018-07-25T09:03:14Z</time>
      </trkpt>
      <trkpt lat="46.0017" lon="4.84856">
        <ele>262</ele>
        <time>2018-07-25T09:03:15Z</time>
      </trkpt>
      <trkpt lat="46.0017" lon="4.84857">
        <ele>262</ele>
        <time>2018-07-25T09:03:51Z</time>
      </trkpt>
      <trkpt lat="46.0017" lon="4.84857">
        <ele>262</ele>
        <time>2018-07-25T09:03:52Z</time>
      </trkpt>
      <trkpt lat="46.00163" lon="4.8486">
        <ele>262</ele>
        <time>2018-07-25T09:09:22Z</time>
      </trkpt>
      <trkpt lat="46.00161" lon="4.84861">
        <ele>263</ele>
        <time>2018-07-25T09:09:23Z</time>
      </trkpt>
      <trkpt lat="46.00153" lon="4.8486">
        <ele>263</ele>
        <time>2018-07-25T09:09:55Z</time>
      </trkpt>
      <trkpt lat="46.00152" lon="4.8486">
        <ele>263</ele>
        <time>2018-07-25T09:09:56Z</time>
      </trkpt>
      <trkpt lat="46.00147" lon="4.84857">
        <ele>263</ele>
        <time>2018-07-25T09:10:07Z</time>
      </trkpt>
      <trkpt lat="46.00147" lon="4.84857">
        <ele>263</ele>
        <time>2018-07-25T09:10:08Z</time>
      </trkpt>
      <trkpt lat="46.00147" lon="4.84858">
        <ele>263</ele>
        <time>2018-07-25T09:10:09Z</time>
      </trkpt>
      <trkpt lat="46.00151" lon="4.84866">
        <ele>263</ele>
        <time>2018-07-25T09:10:26Z</time>
      </trkpt>
      <trkpt lat="46.00152" lon="4.84866">
        <ele>263</ele>
        <time>2018-07-25T09:10:27Z</time>
      </trkpt>
      <trkpt lat="46.00154" lon="4.84864">
        <ele>263</ele>
        <time>2018-07-25T09:10:47Z</time>
      </trkpt>
      <trkpt lat="46.00154" lon="4.84864">
        <ele>263</ele>
        <time>2018-07-25T09:10:48Z</time>
      </trkpt>
      <trkpt lat="46.00163" lon="4.84861">
        <ele>263</ele>
        <time>2018-07-25T09:11:55Z</time>
      </trkpt>
      <trkpt lat="46.00164" lon="4.84861">
        <ele>262</ele>
        <time>2018-07-25T09:11:56Z</time>
      </trkpt>
      <trkpt lat="46.00166" lon="4.84856">
        <ele>262</ele>
        <time>2018-07-25T09:13:06Z</time>
      </trkpt>
      <trkpt lat="46.00175" lon="4.84854">
        <ele>262</ele>
        <time>2018-07-25T09:13:19.456Z</time>
      </trkpt>
      <trkpt lat="46.00168" lon="4.84857">
        <ele>262</ele>
        <time>2018-07-25T09:13:21Z</time>
      </trkpt>
      <trkpt lat="46.00162" lon="4.84867">
        <ele>263</ele>
        <time>2018-07-25T09:13:35.093Z</time>
      </trkpt>
      <trkpt lat="46.00169" lon="4.84859">
        <ele>262</ele>
        <time>2018-07-25T09:13:42Z</time>
      </trkpt>
      <trkpt lat="46.00169" lon="4.84858">
        <ele>262</ele>
        <time>2018-07-25T09:13:45.47Z</time>
      </trkpt>
      <trkpt lat="46.00164" lon="4.84849">
        <ele>262</ele>
        <time>2018-07-25T09:13:47Z</time>
      </trkpt>
      <trkpt lat="46.00162" lon="4.84848">
        <ele>262</ele>
        <time>2018-07-25T09:13:48Z</time>
      </trkpt>
      <trkpt lat="46.00155" lon="4.84847">
        <ele>262</ele>
        <time>2018-07-25T09:13:52Z</time>
      </trkpt>
      <trkpt lat="46.00147" lon="4.8485">
        <ele>262</ele>
        <time>2018-07-25T09:13:53Z</time>
      </trkpt>
      <trkpt lat="46.00141" lon="4.84852">
        <ele>262</ele>
        <time>2018-07-25T09:13:56Z</time>
      </trkpt>
      <trkpt lat="46.00133" lon="4.84854">
        <ele>263</ele>
        <time>2018-07-25T09:13:57Z</time>
      </trkpt>
      <trkpt lat="46.00127" lon="4.84855">
        <ele>263</ele>
        <time>2018-07-25T09:13:59Z</time>
      </trkpt>
      <trkpt lat="46.00122" lon="4.84853">
        <ele>263</ele>
        <time>2018-07-25T09:14:00Z</time>
      </trkpt>
      <trkpt lat="46.00118" lon="4.84854">
        <ele>263</ele>
        <time>2018-07-25T09:14:01Z</time>
      </trkpt>
      <trkpt lat="46.00111" lon="4.84855">
        <ele>263</ele>
        <time>2018-07-25T09:14:02Z</time>
      </trkpt>
      <trkpt lat="46.00105" lon="4.84857">
        <ele>263</ele>
        <time>2018-07-25T09:14:04Z</time>
      </trkpt>
      <trkpt lat="46.001" lon="4.84861">
        <ele>263</ele>
        <time>2018-07-25T09:14:05Z</time>
      </trkpt>
      <trkpt lat="46.00092" lon="4.84864">
        <ele>263</ele>
        <time>2018-07-25T09:14:07Z</time>
      </trkpt>
      <trkpt lat="46.0009" lon="4.84863">
        <ele>263</ele>
        <time>2018-07-25T09:14:08Z</time>
      </trkpt>
      <trkpt lat="46.00082" lon="4.84862">
        <ele>262</ele>
        <time>2018-07-25T09:14:13Z</time>
      </trkpt>
      <trkpt lat="46.00081" lon="4.84862">
        <ele>262</ele>
        <time>2018-07-25T09:14:14Z</time>
      </trkpt>
      <trkpt lat="46.00081" lon="4.84842">
        <ele>262</ele>
        <time>2018-07-25T09:14:15Z</time>
      </trkpt>
      <trkpt lat="46.00082" lon="4.84831">
        <ele>262</ele>
        <time>2018-07-25T09:14:17Z</time>
      </trkpt>
      <trkpt lat="46.00082" lon="4.84823">
        <ele>261</ele>
        <time>2018-07-25T09:14:18Z</time>
      </trkpt>
      <trkpt lat="46.00082" lon="4.84816">
        <ele>261</ele>
        <time>2018-07-25T09:14:19Z</time>
      </trkpt>
      <trkpt lat="46.00081" lon="4.84808">
        <ele>260</ele>
        <time>2018-07-25T09:14:20Z</time>
      </trkpt>
      <trkpt lat="46.00081" lon="4.84798">
        <ele>260</ele>
        <time>2018-07-25T09:14:21Z</time>
      </trkpt>
      <trkpt lat="46.00082" lon="4.84788">
        <ele>259</ele>
        <time>2018-07-25T09:14:22Z</time>
      </trkpt>
      <trkpt lat="46.00082" lon="4.84782">
        <ele>259</ele>
        <time>2018-07-25T09:14:23Z</time>
      </trkpt>
      <trkpt lat="46.00081" lon="4.84773">
        <ele>259</ele>
        <time>2018-07-25T09:14:24Z</time>
      </trkpt>
      <trkpt lat="46.00082" lon="4.84764">
        <ele>259</ele>
        <time>2018-07-25T09:14:25Z</time>
      </trkpt>
      <trkpt lat="46.00082" lon="4.84755">
        <ele>258</ele>
        <time>2018-07-25T09:14:26Z</time>
      </trkpt>
      <trkpt lat="46.00084" lon="4.84747">
        <ele>258</ele>
        <time>2018-07-25T09:14:27Z</time>
      </trkpt>
      <trkpt lat="46.00085" lon="4.8474">
        <ele>258</ele>
        <time>2018-07-25T09:14:28Z</time>
      </trkpt>
      <trkpt lat="46.00085" lon="4.84731">
        <ele>258</ele>
        <time>2018-07-25T09:14:29Z</time>
      </trkpt>
      <trkpt lat="46.00083" lon="4.84723">
        <ele>257</ele>
        <time>2018-07-25T09:14:30Z</time>
      </trkpt>
      <trkpt lat="46.0008" lon="4.84711">
        <ele>257</ele>
        <time>2018-07-25T09:14:32Z</time>
      </trkpt>
      <trkpt lat="46.00078" lon="4.84705">
        <ele>257</ele>
        <time>2018-07-25T09:14:33Z</time>
      </trkpt>
      <trkpt lat="46.00075" lon="4.84698">
        <ele>257</ele>
        <time>2018-07-25T09:14:34Z</time>
      </trkpt>
      <trkpt lat="46.00073" lon="4.84694">
        <ele>256</ele>
        <time>2018-07-25T09:14:35Z</time>
      </trkpt>
      <trkpt lat="46.00066" lon="4.84688">
        <ele>256</ele>
        <time>2018-07-25T09:14:37Z</time>
      </trkpt>
      <trkpt lat="46.00059" lon="4.84688">
        <ele>256</ele>
        <time>2018-07-25T09:14:38Z</time>
      </trkpt>
      <trkpt lat="46.00054" lon="4.84687">
        <ele>256</ele>
        <time>2018-07-25T09:14:39Z</time>
      </trkpt>
      <trkpt lat="46.00049" lon="4.84685">
        <ele>256</ele>
        <time>2018-07-25T09:14:40Z</time>
      </trkpt>
      <trkpt lat="46.00045" lon="4.84691">
        <ele>256</ele>
        <time>2018-07-25T09:14:41Z</time>
      </trkpt>
      <trkpt lat="46.0004" lon="4.84689">
        <ele>256</ele>
        <time>2018-07-25T09:14:42Z</time>
      </trkpt>
      <trkpt lat="46.00036" lon="4.84689">
        <ele>256</ele>
        <time>2018-07-25T09:14:43Z</time>
      </trkpt>
      <trkpt lat="46.00031" lon="4.84689">
        <ele>256</ele>
        <time>2018-07-25T09:14:44Z</time>
      </trkpt>
      <trkpt lat="46.00023" lon="4.84687">
        <ele>256</ele>
        <time>2018-07-25T09:14:45Z</time>
      </trkpt>
      <trkpt lat="46.00018" lon="4.84687">
        <ele>256</ele>
        <time>2018-07-25T09:14:46Z</time>
      </trkpt>
      <trkpt lat="46.00012" lon="4.84684">
        <ele>256</ele>
        <time>2018-07-25T09:14:47Z</time>
      </trkpt>
      <trkpt lat="46.00008" lon="4.84683">
        <ele>256</ele>
        <time>2018-07-25T09:14:48Z</time>
      </trkpt>
      <trkpt lat="46.00004" lon="4.84682">
        <ele>256</ele>
        <time>2018-07-25T09:14:49Z</time>
      </trkpt>
      <trkpt lat="45.99998" lon="4.84679">
        <ele>255</ele>
        <time>2018-07-25T09:14:50Z</time>
      </trkpt>
      <trkpt lat="45.99993" lon="4.84677">
        <ele>255</ele>
        <time>2018-07-25T09:14:51Z</time>
      </trkpt>
      <trkpt lat="45.99988" lon="4.84675">
        <ele>255</ele>
        <time>2018-07-25T09:14:52Z</time>
      </trkpt>
      <trkpt lat="45.99983" lon="4.84673">
        <ele>255</ele>
        <time>2018-07-25T09:14:53Z</time>
      </trkpt>
      <trkpt lat="45.99978" lon="4.84671">
        <ele>255</ele>
        <time>2018-07-25T09:14:54Z</time>
      </trkpt>
      <trkpt lat="45.99973" lon="4.84667">
        <ele>255</ele>
        <time>2018-07-25T09:14:55Z</time>
      </trkpt>
      <trkpt lat="45.99968" lon="4.84667">
        <ele>255</ele>
        <time>2018-07-25T09:14:56Z</time>
      </trkpt>
      <trkpt lat="45.99963" lon="4.84669">
        <ele>255</ele>
        <time>2018-07-25T09:14:57Z</time>
      </trkpt>
      <trkpt lat="45.99956" lon="4.84665">
        <ele>254</ele>
        <time>2018-07-25T09:14:58Z</time>
      </trkpt>
      <trkpt lat="45.9995" lon="4.84664">
        <ele>254</ele>
        <time>2018-07-25T09:14:59Z</time>
      </trkpt>
      <trkpt lat="45.99945" lon="4.84661">
        <ele>254</ele>
        <time>2018-07-25T09:15:00Z</time>
      </trkpt>
      <trkpt lat="45.9994" lon="4.8466">
        <ele>254</ele>
        <time>2018-07-25T09:15:01Z</time>
      </trkpt>
      <trkpt lat="45.99934" lon="4.84662">
        <ele>254</ele>
        <time>2018-07-25T09:15:02Z</time>
      </trkpt>
      <trkpt lat="45.99928" lon="4.84659">
        <ele>254</ele>
        <time>2018-07-25T09:15:03Z</time>
      </trkpt>
      <trkpt lat="45.99922" lon="4.84659">
        <ele>254</ele>
        <time>2018-07-25T09:15:04Z</time>
      </trkpt>
      <trkpt lat="45.99916" lon="4.84656">
        <ele>254</ele>
        <time>2018-07-25T09:15:05Z</time>
      </trkpt>
      <trkpt lat="45.99909" lon="4.84656">
        <ele>254</ele>
        <time>2018-07-25T09:15:06Z</time>
      </trkpt>
      <trkpt lat="45.99903" lon="4.84655">
        <ele>254</ele>
        <time>2018-07-25T09:15:07Z</time>
      </trkpt>
      <trkpt lat="45.99897" lon="4.84654">
        <ele>254</ele>
        <time>2018-07-25T09:15:08Z</time>
      </trkpt>
      <trkpt lat="45.99892" lon="4.84653">
        <ele>254</ele>
        <time>2018-07-25T09:15:09Z</time>
      </trkpt>
      <trkpt lat="45.99885" lon="4.84648">
        <ele>254</ele>
        <time>2018-07-25T09:15:10Z</time>
      </trkpt>
      <trkpt lat="45.99879" lon="4.84648">
        <ele>254</ele>
        <time>2018-07-25T09:15:11Z</time>
      </trkpt>
      <trkpt lat="45.99874" lon="4.84649">
        <ele>254</ele>
        <time>2018-07-25T09:15:12Z</time>
      </trkpt>
      <trkpt lat="45.99869" lon="4.84647">
        <ele>254</ele>
        <time>2018-07-25T09:15:13Z</time>
      </trkpt>
      <trkpt lat="45.99864" lon="4.84646">
        <ele>254</ele>
        <time>2018-07-25T09:15:14Z</time>
      </trkpt>
      <trkpt lat="45.99856" lon="4.84642">
        <ele>254</ele>
        <time>2018-07-25T09:15:16Z</time>
      </trkpt>
      <trkpt lat="45.9985" lon="4.84641">
        <ele>254</ele>
        <time>2018-07-25T09:15:17Z</time>
      </trkpt>
      <trkpt lat="45.99845" lon="4.84641">
        <ele>254</ele>
        <time>2018-07-25T09:15:18Z</time>
      </trkpt>
      <trkpt lat="45.9984" lon="4.8464">
        <ele>254</ele>
        <time>2018-07-25T09:15:19Z</time>
      </trkpt>
      <trkpt lat="45.99835" lon="4.84641">
        <ele>254</ele>
        <time>2018-07-25T09:15:20Z</time>
      </trkpt>
      <trkpt lat="45.99828" lon="4.84639">
        <ele>254</ele>
        <time>2018-07-25T09:15:21Z</time>
      </trkpt>
      <trkpt lat="45.99824" lon="4.84635">
        <ele>254</ele>
        <time>2018-07-25T09:15:22Z</time>
      </trkpt>
      <trkpt lat="45.99816" lon="4.84633">
        <ele>254</ele>
        <time>2018-07-25T09:15:23Z</time>
      </trkpt>
      <trkpt lat="45.9981" lon="4.84632">
        <ele>254</ele>
        <time>2018-07-25T09:15:24Z</time>
      </trkpt>
      <trkpt lat="45.99805" lon="4.84629">
        <ele>254</ele>
        <time>2018-07-25T09:15:25Z</time>
      </trkpt>
      <trkpt lat="45.99799" lon="4.84626">
        <ele>254</ele>
        <time>2018-07-25T09:15:26Z</time>
      </trkpt>
      <trkpt lat="45.99792" lon="4.84628">
        <ele>254</ele>
        <time>2018-07-25T09:15:27Z</time>
      </trkpt>
      <trkpt lat="45.99788" lon="4.84626">
        <ele>254</ele>
        <time>2018-07-25T09:15:28Z</time>
      </trkpt>
      <trkpt lat="45.99781" lon="4.84624">
        <ele>254</ele>
        <time>2018-07-25T09:15:29Z</time>
      </trkpt>
      <trkpt lat="45.99775" lon="4.84623">
        <ele>254</ele>
        <time>2018-07-25T09:15:30Z</time>
      </trkpt>
      <trkpt lat="45.99769" lon="4.84621">
        <ele>254</ele>
        <time>2018-07-25T09:15:31Z</time>
      </trkpt>
      <trkpt lat="45.99762" lon="4.84619">
        <ele>254</ele>
        <time>2018-07-25T09:15:32Z</time>
      </trkpt>
      <trkpt lat="45.99757" lon="4.84618">
        <ele>254</ele>
        <time>2018-07-25T09:15:33Z</time>
      </trkpt>
      <trkpt lat="45.99749" lon="4.84619">
        <ele>253</ele>
        <time>2018-07-25T09:15:34Z</time>
      </trkpt>
      <trkpt lat="45.99742" lon="4.84619">
        <ele>253</ele>
        <time>2018-07-25T09:15:35Z</time>
      </trkpt>
      <trkpt lat="45.99735" lon="4.84619">
        <ele>252</ele>
        <time>2018-07-25T09:15:36Z</time>
      </trkpt>
      <trkpt lat="45.99728" lon="4.8462">
        <ele>252</ele>
        <time>2018-07-25T09:15:37Z</time>
      </trkpt>
      <trkpt lat="45.99721" lon="4.84622">
        <ele>252</ele>
        <time>2018-07-25T09:15:38Z</time>
      </trkpt>
      <trkpt lat="45.99713" lon="4.84624">
        <ele>252</ele>
        <time>2018-07-25T09:15:39Z</time>
      </trkpt>
      <trkpt lat="45.99706" lon="4.84629">
        <ele>252</ele>
        <time>2018-07-25T09:15:40Z</time>
      </trkpt>
      <trkpt lat="45.99698" lon="4.84631">
        <ele>252</ele>
        <time>2018-07-25T09:15:41Z</time>
      </trkpt>
      <trkpt lat="45.9969" lon="4.84632">
        <ele>252</ele>
        <time>2018-07-25T09:15:42Z</time>
      </trkpt>
      <trkpt lat="45.99682" lon="4.84634">
        <ele>252</ele>
        <time>2018-07-25T09:15:43Z</time>
      </trkpt>
      <trkpt lat="45.99674" lon="4.84633">
        <ele>252</ele>
        <time>2018-07-25T09:15:44Z</time>
      </trkpt>
      <trkpt lat="45.99666" lon="4.84635">
        <ele>250</ele>
        <time>2018-07-25T09:15:45Z</time>
      </trkpt>
      <trkpt lat="45.99658" lon="4.84633">
        <ele>250</ele>
        <time>2018-07-25T09:15:46Z</time>
      </trkpt>
      <trkpt lat="45.99649" lon="4.84637">
        <ele>250</ele>
        <time>2018-07-25T09:15:47Z</time>
      </trkpt>
      <trkpt lat="45.99637" lon="4.84642">
        <ele>250</ele>
        <time>2018-07-25T09:15:48Z</time>
      </trkpt>
      <trkpt lat="45.99627" lon="4.84646">
        <ele>250</ele>
        <time>2018-07-25T09:15:49Z</time>
      </trkpt>
      <trkpt lat="45.99625" lon="4.84641">
        <ele>250</ele>
        <time>2018-07-25T09:15:50Z</time>
      </trkpt>
      <trkpt lat="45.99616" lon="4.84645">
        <ele>250</ele>
        <time>2018-07-25T09:15:51Z</time>
      </trkpt>
      <trkpt lat="45.9961" lon="4.84646">
        <ele>250</ele>
        <time>2018-07-25T09:15:52Z</time>
      </trkpt>
      <trkpt lat="45.99603" lon="4.84646">
        <ele>250</ele>
        <time>2018-07-25T09:15:53Z</time>
      </trkpt>
      <trkpt lat="45.99597" lon="4.84648">
        <ele>250</ele>
        <time>2018-07-25T09:15:54Z</time>
      </trkpt>
      <trkpt lat="45.99589" lon="4.84649">
        <ele>250</ele>
        <time>2018-07-25T09:15:55Z</time>
      </trkpt>
      <trkpt lat="45.99583" lon="4.84651">
        <ele>250</ele>
        <time>2018-07-25T09:15:56Z</time>
      </trkpt>
      <trkpt lat="45.99579" lon="4.84649">
        <ele>250</ele>
        <time>2018-07-25T09:15:57Z</time>
      </trkpt>
      <trkpt lat="45.99574" lon="4.8465">
        <ele>250</ele>
        <time>2018-07-25T09:15:58Z</time>
      </trkpt>
      <trkpt lat="45.99568" lon="4.84651">
        <ele>250</ele>
        <time>2018-07-25T09:15:59Z</time>
      </trkpt>
      <trkpt lat="45.99561" lon="4.84652">
        <ele>250</ele>
        <time>2018-07-25T09:16:00Z</time>
      </trkpt>
      <trkpt lat="45.99556" lon="4.84652">
        <ele>250</ele>
        <time>2018-07-25T09:16:01Z</time>
      </trkpt>
      <trkpt lat="45.99551" lon="4.84656">
        <ele>250</ele>
        <time>2018-07-25T09:16:02Z</time>
      </trkpt>
      <trkpt lat="45.99543" lon="4.84658">
        <ele>250</ele>
        <time>2018-07-25T09:16:03Z</time>
      </trkpt>
      <trkpt lat="45.99538" lon="4.84657">
        <ele>250</ele>
        <time>2018-07-25T09:16:04Z</time>
      </trkpt>
      <trkpt lat="45.99532" lon="4.84656">
        <ele>250</ele>
        <time>2018-07-25T09:16:05Z</time>
      </trkpt>
      <trkpt lat="45.99528" lon="4.84656">
        <ele>250</ele>
        <time>2018-07-25T09:16:06Z</time>
      </trkpt>
      <trkpt lat="45.99523" lon="4.8466">
        <ele>250</ele>
        <time>2018-07-25T09:16:07Z</time>
      </trkpt>
      <trkpt lat="45.99517" lon="4.84659">
        <ele>250</ele>
        <time>2018-07-25T09:16:08Z</time>
      </trkpt>
      <trkpt lat="45.99512" lon="4.84661">
        <ele>250</ele>
        <time>2018-07-25T09:16:09Z</time>
      </trkpt>
      <trkpt lat="45.99505" lon="4.84663">
        <ele>251</ele>
        <time>2018-07-25T09:16:10Z</time>
      </trkpt>
      <trkpt lat="45.99499" lon="4.84664">
        <ele>251</ele>
        <time>2018-07-25T09:16:11Z</time>
      </trkpt>
      <trkpt lat="45.99492" lon="4.84667">
        <ele>251</ele>
        <time>2018-07-25T09:16:12Z</time>
      </trkpt>
      <trkpt lat="45.99485" lon="4.84669">
        <ele>250</ele>
        <time>2018-07-25T09:16:13Z</time>
      </trkpt>
      <trkpt lat="45.99479" lon="4.84672">
        <ele>250</ele>
        <time>2018-07-25T09:16:14Z</time>
      </trkpt>
      <trkpt lat="45.99473" lon="4.84675">
        <ele>250</ele>
        <time>2018-07-25T09:16:15Z</time>
      </trkpt>
      <trkpt lat="45.99466" lon="4.84678">
        <ele>250</ele>
        <time>2018-07-25T09:16:16Z</time>
      </trkpt>
      <trkpt lat="45.9946" lon="4.84682">
        <ele>250</ele>
        <time>2018-07-25T09:16:17Z</time>
      </trkpt>
      <trkpt lat="45.99454" lon="4.84684">
        <ele>250</ele>
        <time>2018-07-25T09:16:18Z</time>
      </trkpt>
      <trkpt lat="45.99448" lon="4.84688">
        <ele>249</ele>
        <time>2018-07-25T09:16:19Z</time>
      </trkpt>
      <trkpt lat="45.99441" lon="4.84691">
        <ele>249</ele>
        <time>2018-07-25T09:16:20Z</time>
      </trkpt>
      <trkpt lat="45.99435" lon="4.84693">
        <ele>249</ele>
        <time>2018-07-25T09:16:21Z</time>
      </trkpt>
      <trkpt lat="45.9943" lon="4.84697">
        <ele>249</ele>
        <time>2018-07-25T09:16:22Z</time>
      </trkpt>
      <trkpt lat="45.99425" lon="4.84699">
        <ele>249</ele>
        <time>2018-07-25T09:16:23Z</time>
      </trkpt>
      <trkpt lat="45.9942" lon="4.84703">
        <ele>249</ele>
        <time>2018-07-25T09:16:24Z</time>
      </trkpt>
      <trkpt lat="45.99415" lon="4.84707">
        <ele>249</ele>
        <time>2018-07-25T09:16:25Z</time>
      </trkpt>
      <trkpt lat="45.99409" lon="4.8471">
        <ele>249</ele>
        <time>2018-07-25T09:16:26Z</time>
      </trkpt>
      <trkpt lat="45.99403" lon="4.84711">
        <ele>249</ele>
        <time>2018-07-25T09:16:27Z</time>
      </trkpt>
      <trkpt lat="45.99398" lon="4.84714">
        <ele>249</ele>
        <time>2018-07-25T09:16:28Z</time>
      </trkpt>
      <trkpt lat="45.99393" lon="4.84716">
        <ele>249</ele>
        <time>2018-07-25T09:16:29Z</time>
      </trkpt>
      <trkpt lat="45.99387" lon="4.84718">
        <ele>249</ele>
        <time>2018-07-25T09:16:30Z</time>
      </trkpt>
      <trkpt lat="45.99382" lon="4.84722">
        <ele>249</ele>
        <time>2018-07-25T09:16:31Z</time>
      </trkpt>
      <trkpt lat="45.99377" lon="4.84725">
        <ele>250</ele>
        <time>2018-07-25T09:16:32Z</time>
      </trkpt>
      <trkpt lat="45.99372" lon="4.84729">
        <ele>250</ele>
        <time>2018-07-25T09:16:33Z</time>
      </trkpt>
      <trkpt lat="45.99367" lon="4.84732">
        <ele>250</ele>
        <time>2018-07-25T09:16:34Z</time>
      </trkpt>
      <trkpt lat="45.99362" lon="4.84735">
        <ele>250</ele>
        <time>2018-07-25T09:16:35Z</time>
      </trkpt>
      <trkpt lat="45.99357" lon="4.84737">
        <ele>250</ele>
        <time>2018-07-25T09:16:36Z</time>
      </trkpt>
      <trkpt lat="45.99353" lon="4.8474">
        <ele>250</ele>
        <time>2018-07-25T09:16:37Z</time>
      </trkpt>
      <trkpt lat="45.99348" lon="4.84743">
        <ele>250</ele>
        <time>2018-07-25T09:16:38Z</time>
      </trkpt>
      <trkpt lat="45.99343" lon="4.84745">
        <ele>250</ele>
        <time>2018-07-25T09:16:39Z</time>
      </trkpt>
      <trkpt lat="45.99335" lon="4.8475">
        <ele>251</ele>
        <time>2018-07-25T09:16:41Z</time>
      </trkpt>
      <trkpt lat="45.99331" lon="4.84752">
        <ele>251</ele>
        <time>2018-07-25T09:16:42Z</time>
      </trkpt>
      <trkpt lat="45.99322" lon="4.84755">
        <ele>252</ele>
        <time>2018-07-25T09:16:44Z</time>
      </trkpt>
      <trkpt lat="45.99317" lon="4.84758">
        <ele>252</ele>
        <time>2018-07-25T09:16:45Z</time>
      </trkpt>
      <trkpt lat="45.99313" lon="4.8476">
        <ele>252</ele>
        <time>2018-07-25T09:16:46Z</time>
      </trkpt>
      <trkpt lat="45.99308" lon="4.84763">
        <ele>252</ele>
        <time>2018-07-25T09:16:47Z</time>
      </trkpt>
      <trkpt lat="45.99304" lon="4.84764">
        <ele>253</ele>
        <time>2018-07-25T09:16:48Z</time>
      </trkpt>
      <trkpt lat="45.99299" lon="4.84766">
        <ele>253</ele>
        <time>2018-07-25T09:16:49Z</time>
      </trkpt>
      <trkpt lat="45.99291" lon="4.84771">
        <ele>253</ele>
        <time>2018-07-25T09:16:51Z</time>
      </trkpt>
      <trkpt lat="45.99287" lon="4.84772">
        <ele>253</ele>
        <time>2018-07-25T09:16:52Z</time>
      </trkpt>
      <trkpt lat="45.9928" lon="4.84777">
        <ele>253</ele>
        <time>2018-07-25T09:16:54Z</time>
      </trkpt>
      <trkpt lat="45.99275" lon="4.8478">
        <ele>253</ele>
        <time>2018-07-25T09:16:55Z</time>
      </trkpt>
      <trkpt lat="45.99268" lon="4.84784">
        <ele>253</ele>
        <time>2018-07-25T09:16:57Z</time>
      </trkpt>
      <trkpt lat="45.99264" lon="4.84786">
        <ele>253</ele>
        <time>2018-07-25T09:16:58Z</time>
      </trkpt>
      <trkpt lat="45.99256" lon="4.8479">
        <ele>254</ele>
        <time>2018-07-25T09:17:00Z</time>
      </trkpt>
      <trkpt lat="45.99251" lon="4.84792">
        <ele>254</ele>
        <time>2018-07-25T09:17:01Z</time>
      </trkpt>
      <trkpt lat="45.99244" lon="4.84797">
        <ele>256</ele>
        <time>2018-07-25T09:17:03Z</time>
      </trkpt>
      <trkpt lat="45.9924" lon="4.848">
        <ele>256</ele>
        <time>2018-07-25T09:17:04Z</time>
      </trkpt>
      <trkpt lat="45.99232" lon="4.84805">
        <ele>256</ele>
        <time>2018-07-25T09:17:06Z</time>
      </trkpt>
      <trkpt lat="45.99228" lon="4.84807">
        <ele>257</ele>
        <time>2018-07-25T09:17:07Z</time>
      </trkpt>
      <trkpt lat="45.99221" lon="4.84811">
        <ele>257</ele>
        <time>2018-07-25T09:17:09Z</time>
      </trkpt>
      <trkpt lat="45.99217" lon="4.84812">
        <ele>257</ele>
        <time>2018-07-25T09:17:10Z</time>
      </trkpt>
      <trkpt lat="45.99209" lon="4.84812">
        <ele>257</ele>
        <time>2018-07-25T09:17:12Z</time>
      </trkpt>
      <trkpt lat="45.99204" lon="4.84815">
        <ele>257</ele>
        <time>2018-07-25T09:17:13Z</time>
      </trkpt>
      <trkpt lat="45.992" lon="4.84818">
        <ele>258</ele>
        <time>2018-07-25T09:17:15Z</time>
      </trkpt>
      <trkpt lat="45.99195" lon="4.84822">
        <ele>258</ele>
        <time>2018-07-25T09:17:16Z</time>
      </trkpt>
      <trkpt lat="45.99186" lon="4.84824">
        <ele>258</ele>
        <time>2018-07-25T09:17:19Z</time>
      </trkpt>
      <trkpt lat="45.99185" lon="4.84825">
        <ele>258</ele>
        <time>2018-07-25T09:17:20Z</time>
      </trkpt>
      <trkpt lat="45.99178" lon="4.84829">
        <ele>258</ele>
        <time>2018-07-25T09:17:22Z</time>
      </trkpt>
      <trkpt lat="45.99176" lon="4.8483">
        <ele>259</ele>
        <time>2018-07-25T09:17:23Z</time>
      </trkpt>
      <trkpt lat="45.99168" lon="4.84834">
        <ele>259</ele>
        <time>2018-07-25T09:17:25Z</time>
      </trkpt>
      <trkpt lat="45.99164" lon="4.84836">
        <ele>259</ele>
        <time>2018-07-25T09:17:26Z</time>
      </trkpt>
      <trkpt lat="45.99157" lon="4.8484">
        <ele>259</ele>
        <time>2018-07-25T09:17:28Z</time>
      </trkpt>
      <trkpt lat="45.99153" lon="4.84842">
        <ele>259</ele>
        <time>2018-07-25T09:17:29Z</time>
      </trkpt>
      <trkpt lat="45.99146" lon="4.84846">
        <ele>260</ele>
        <time>2018-07-25T09:17:32Z</time>
      </trkpt>
      <trkpt lat="45.99144" lon="4.84848">
        <ele>260</ele>
        <time>2018-07-25T09:17:33Z</time>
      </trkpt>
      <trkpt lat="45.99139" lon="4.84851">
        <ele>260</ele>
        <time>2018-07-25T09:17:35Z</time>
      </trkpt>
      <trkpt lat="45.99131" lon="4.84856">
        <ele>260</ele>
        <time>2018-07-25T09:17:36Z</time>
      </trkpt>
      <trkpt lat="45.99126" lon="4.84858">
        <ele>260</ele>
        <time>2018-07-25T09:17:38Z</time>
      </trkpt>
      <trkpt lat="45.9912" lon="4.84861">
        <ele>260</ele>
        <time>2018-07-25T09:17:39Z</time>
      </trkpt>
      <trkpt lat="45.99112" lon="4.84865">
        <ele>261</ele>
        <time>2018-07-25T09:17:43Z</time>
      </trkpt>
      <trkpt lat="45.99109" lon="4.84866">
        <ele>261</ele>
        <time>2018-07-25T09:17:44Z</time>
      </trkpt>
      <trkpt lat="45.99106" lon="4.84867">
        <ele>261</ele>
        <time>2018-07-25T09:17:45Z</time>
      </trkpt>
      <trkpt lat="45.99097" lon="4.84871">
        <ele>261</ele>
        <time>2018-07-25T09:17:46Z</time>
      </trkpt>
      <trkpt lat="45.9909" lon="4.84875">
        <ele>261</ele>
        <time>2018-07-25T09:17:49Z</time>
      </trkpt>
      <trkpt lat="45.99088" lon="4.84876">
        <ele>261</ele>
        <time>2018-07-25T09:17:50Z</time>
      </trkpt>
      <trkpt lat="45.9908" lon="4.84881">
        <ele>263</ele>
        <time>2018-07-25T09:17:53Z</time>
      </trkpt>
      <trkpt lat="45.9907" lon="4.84887">
        <ele>263</ele>
        <time>2018-07-25T09:17:54Z</time>
      </trkpt>
      <trkpt lat="45.99063" lon="4.84891">
        <ele>263</ele>
        <time>2018-07-25T09:17:56Z</time>
      </trkpt>
      <trkpt lat="45.99059" lon="4.84894">
        <ele>263</ele>
        <time>2018-07-25T09:17:57Z</time>
      </trkpt>
      <trkpt lat="45.99051" lon="4.84898">
        <ele>264</ele>
        <time>2018-07-25T09:18:00Z</time>
      </trkpt>
      <trkpt lat="45.99049" lon="4.849">
        <ele>264</ele>
        <time>2018-07-25T09:18:01Z</time>
      </trkpt>
      <trkpt lat="45.99044" lon="4.84901">
        <ele>264</ele>
        <time>2018-07-25T09:18:03Z</time>
      </trkpt>
      <trkpt lat="45.99036" lon="4.84905">
        <ele>264</ele>
        <time>2018-07-25T09:18:04Z</time>
      </trkpt>
      <trkpt lat="45.9903" lon="4.84909">
        <ele>264</ele>
        <time>2018-07-25T09:18:06Z</time>
      </trkpt>
      <trkpt lat="45.99027" lon="4.84911">
        <ele>264</ele>
        <time>2018-07-25T09:18:07Z</time>
      </trkpt>
      <trkpt lat="45.9902" lon="4.84915">
        <ele>265</ele>
        <time>2018-07-25T09:18:09Z</time>
      </trkpt>
      <trkpt lat="45.99018" lon="4.84916">
        <ele>265</ele>
        <time>2018-07-25T09:18:10Z</time>
      </trkpt>
      <trkpt lat="45.99015" lon="4.84917">
        <ele>265</ele>
        <time>2018-07-25T09:18:11Z</time>
      </trkpt>
      <trkpt lat="45.99009" lon="4.8492">
        <ele>265</ele>
        <time>2018-07-25T09:18:12Z</time>
      </trkpt>
      <trkpt lat="45.99001" lon="4.84923">
        <ele>265</ele>
        <time>2018-07-25T09:18:14Z</time>
      </trkpt>
      <trkpt lat="45.98997" lon="4.84924">
        <ele>266</ele>
        <time>2018-07-25T09:18:15Z</time>
      </trkpt>
      <trkpt lat="45.9899" lon="4.84929">
        <ele>266</ele>
        <time>2018-07-25T09:18:17Z</time>
      </trkpt>
      <trkpt lat="45.98986" lon="4.84931">
        <ele>266</ele>
        <time>2018-07-25T09:18:18Z</time>
      </trkpt>
      <trkpt lat="45.98978" lon="4.84935">
        <ele>266</ele>
        <time>2018-07-25T09:18:20Z</time>
      </trkpt>
      <trkpt lat="45.98973" lon="4.84939">
        <ele>266</ele>
        <time>2018-07-25T09:18:21Z</time>
      </trkpt>
      <trkpt lat="45.98967" lon="4.84942">
        <ele>266</ele>
        <time>2018-07-25T09:18:23Z</time>
      </trkpt>
      <trkpt lat="45.98963" lon="4.84944">
        <ele>266</ele>
        <time>2018-07-25T09:18:24Z</time>
      </trkpt>
      <trkpt lat="45.98955" lon="4.84948">
        <ele>266</ele>
        <time>2018-07-25T09:18:26Z</time>
      </trkpt>
      <trkpt lat="45.98951" lon="4.8495">
        <ele>266</ele>
        <time>2018-07-25T09:18:27Z</time>
      </trkpt>
      <trkpt lat="45.98943" lon="4.84955">
        <ele>266</ele>
        <time>2018-07-25T09:18:29Z</time>
      </trkpt>
      <trkpt lat="45.98938" lon="4.84957">
        <ele>266</ele>
        <time>2018-07-25T09:18:30Z</time>
      </trkpt>
      <trkpt lat="45.98931" lon="4.84962">
        <ele>266</ele>
        <time>2018-07-25T09:18:32Z</time>
      </trkpt>
      <trkpt lat="45.98927" lon="4.84965">
        <ele>266</ele>
        <time>2018-07-25T09:18:33Z</time>
      </trkpt>
      <trkpt lat="45.9892" lon="4.84969">
        <ele>267</ele>
        <time>2018-07-25T09:18:35Z</time>
      </trkpt>
      <trkpt lat="45.98916" lon="4.8497">
        <ele>267</ele>
        <time>2018-07-25T09:18:36Z</time>
      </trkpt>
      <trkpt lat="45.98908" lon="4.84975">
        <ele>267</ele>
        <time>2018-07-25T09:18:38Z</time>
      </trkpt>
      <trkpt lat="45.98904" lon="4.84978">
        <ele>267</ele>
        <time>2018-07-25T09:18:39Z</time>
      </trkpt>
      <trkpt lat="45.98896" lon="4.84979">
        <ele>267</ele>
        <time>2018-07-25T09:18:41Z</time>
      </trkpt>
      <trkpt lat="45.98892" lon="4.84982">
        <ele>267</ele>
        <time>2018-07-25T09:18:42Z</time>
      </trkpt>
      <trkpt lat="45.98883" lon="4.84985">
        <ele>267</ele>
        <time>2018-07-25T09:18:44Z</time>
      </trkpt>
      <trkpt lat="45.98879" lon="4.84988">
        <ele>267</ele>
        <time>2018-07-25T09:18:45Z</time>
      </trkpt>
      <trkpt lat="45.9887" lon="4.84991">
        <ele>267</ele>
        <time>2018-07-25T09:18:47Z</time>
      </trkpt>
      <trkpt lat="45.98867" lon="4.84993">
        <ele>267</ele>
        <time>2018-07-25T09:18:48Z</time>
      </trkpt>
      <trkpt lat="45.9886" lon="4.84998">
        <ele>267</ele>
        <time>2018-07-25T09:18:50Z</time>
      </trkpt>
      <trkpt lat="45.98856" lon="4.85">
        <ele>267</ele>
        <time>2018-07-25T09:18:51Z</time>
      </trkpt>
      <trkpt lat="45.98848" lon="4.85004">
        <ele>267</ele>
        <time>2018-07-25T09:18:53Z</time>
      </trkpt>
      <trkpt lat="45.98845" lon="4.85007">
        <ele>267</ele>
        <time>2018-07-25T09:18:54Z</time>
      </trkpt>
      <trkpt lat="45.98841" lon="4.85007">
        <ele>267</ele>
        <time>2018-07-25T09:18:55Z</time>
      </trkpt>
      <trkpt lat="45.98836" lon="4.85011">
        <ele>267</ele>
        <time>2018-07-25T09:18:56Z</time>
      </trkpt>
      <trkpt lat="45.98827" lon="4.85015">
        <ele>267</ele>
        <time>2018-07-25T09:18:58Z</time>
      </trkpt>
      <trkpt lat="45.98823" lon="4.85018">
        <ele>267</ele>
        <time>2018-07-25T09:18:59Z</time>
      </trkpt>
      <trkpt lat="45.98815" lon="4.85022">
        <ele>267</ele>
        <time>2018-07-25T09:19:01Z</time>
      </trkpt>
      <trkpt lat="45.98811" lon="4.85025">
        <ele>267</ele>
        <time>2018-07-25T09:19:02Z</time>
      </trkpt>
      <trkpt lat="45.98804" lon="4.85027">
        <ele>267</ele>
        <time>2018-07-25T09:19:04Z</time>
      </trkpt>
      <trkpt lat="45.98799" lon="4.8503">
        <ele>267</ele>
        <time>2018-07-25T09:19:05Z</time>
      </trkpt>
      <trkpt lat="45.98792" lon="4.85035">
        <ele>267</ele>
        <time>2018-07-25T09:19:07Z</time>
      </trkpt>
      <trkpt lat="45.98789" lon="4.85038">
        <ele>267</ele>
        <time>2018-07-25T09:19:08Z</time>
      </trkpt>
      <trkpt lat="45.9878" lon="4.8504">
        <ele>267</ele>
        <time>2018-07-25T09:19:10Z</time>
      </trkpt>
      <trkpt lat="45.98777" lon="4.85042">
        <ele>267</ele>
        <time>2018-07-25T09:19:11Z</time>
      </trkpt>
      <trkpt lat="45.9877" lon="4.85047">
        <ele>268</ele>
        <time>2018-07-25T09:19:13Z</time>
      </trkpt>
      <trkpt lat="45.98765" lon="4.85049">
        <ele>268</ele>
        <time>2018-07-25T09:19:14Z</time>
      </trkpt>
      <trkpt lat="45.98761" lon="4.85051">
        <ele>268</ele>
        <time>2018-07-25T09:19:15Z</time>
      </trkpt>
      <trkpt lat="45.98756" lon="4.85053">
        <ele>268</ele>
        <time>2018-07-25T09:19:16Z</time>
      </trkpt>
      <trkpt lat="45.98752" lon="4.85056">
        <ele>268</ele>
        <time>2018-07-25T09:19:17Z</time>
      </trkpt>
      <trkpt lat="45.98746" lon="4.85059">
        <ele>269</ele>
        <time>2018-07-25T09:19:18Z</time>
      </trkpt>
      <trkpt lat="45.98741" lon="4.85062">
        <ele>269</ele>
        <time>2018-07-25T09:19:19Z</time>
      </trkpt>
      <trkpt lat="45.98738" lon="4.85064">
        <ele>269</ele>
        <time>2018-07-25T09:19:20Z</time>
      </trkpt>
      <trkpt lat="45.98733" lon="4.85065">
        <ele>269</ele>
        <time>2018-07-25T09:19:21Z</time>
      </trkpt>
      <trkpt lat="45.98729" lon="4.85068">
        <ele>269</ele>
        <time>2018-07-25T09:19:22Z</time>
      </trkpt>
      <trkpt lat="45.9872" lon="4.85071">
        <ele>270</ele>
        <time>2018-07-25T09:19:24Z</time>
      </trkpt>
      <trkpt lat="45.98716" lon="4.85072">
        <ele>270</ele>
        <time>2018-07-25T09:19:25Z</time>
      </trkpt>
      <trkpt lat="45.98708" lon="4.85075">
        <ele>270</ele>
        <time>2018-07-25T09:19:27Z</time>
      </trkpt>
      <trkpt lat="45.98705" lon="4.85076">
        <ele>270</ele>
        <time>2018-07-25T09:19:28Z</time>
      </trkpt>
      <trkpt lat="45.98697" lon="4.85079">
        <ele>270</ele>
        <time>2018-07-25T09:19:30Z</time>
      </trkpt>
      <trkpt lat="45.98693" lon="4.85082">
        <ele>270</ele>
        <time>2018-07-25T09:19:31Z</time>
      </trkpt>
      <trkpt lat="45.98685" lon="4.85085">
        <ele>270</ele>
        <time>2018-07-25T09:19:33Z</time>
      </trkpt>
      <trkpt lat="45.98682" lon="4.85086">
        <ele>270</ele>
        <time>2018-07-25T09:19:34Z</time>
      </trkpt>
      <trkpt lat="45.98675" lon="4.85091">
        <ele>271</ele>
        <time>2018-07-25T09:19:36Z</time>
      </trkpt>
      <trkpt lat="45.98671" lon="4.85093">
        <ele>271</ele>
        <time>2018-07-25T09:19:37Z</time>
      </trkpt>
      <trkpt lat="45.98663" lon="4.85097">
        <ele>271</ele>
        <time>2018-07-25T09:19:39Z</time>
      </trkpt>
      <trkpt lat="45.98659" lon="4.851">
        <ele>271</ele>
        <time>2018-07-25T09:19:40Z</time>
      </trkpt>
      <trkpt lat="45.98651" lon="4.85104">
        <ele>271</ele>
        <time>2018-07-25T09:19:42Z</time>
      </trkpt>
      <trkpt lat="45.98646" lon="4.85107">
        <ele>272</ele>
        <time>2018-07-25T09:19:43Z</time>
      </trkpt>
      <trkpt lat="45.98642" lon="4.8511">
        <ele>272</ele>
        <time>2018-07-25T09:19:44Z</time>
      </trkpt>
      <trkpt lat="45.98637" lon="4.85111">
        <ele>272</ele>
        <time>2018-07-25T09:19:45Z</time>
      </trkpt>
      <trkpt lat="45.98633" lon="4.85114">
        <ele>272</ele>
        <time>2018-07-25T09:19:46Z</time>
      </trkpt>
      <trkpt lat="45.98629" lon="4.85116">
        <ele>272</ele>
        <time>2018-07-25T09:19:47Z</time>
      </trkpt>
      <trkpt lat="45.98624" lon="4.85118">
        <ele>272</ele>
        <time>2018-07-25T09:19:48Z</time>
      </trkpt>
      <trkpt lat="45.9862" lon="4.85121">
        <ele>272</ele>
        <time>2018-07-25T09:19:49Z</time>
      </trkpt>
      <trkpt lat="45.98615" lon="4.85124">
        <ele>272</ele>
        <time>2018-07-25T09:19:50Z</time>
      </trkpt>
      <trkpt lat="45.9861" lon="4.85126">
        <ele>272</ele>
        <time>2018-07-25T09:19:51Z</time>
      </trkpt>
      <trkpt lat="45.98602" lon="4.85132">
        <ele>272</ele>
        <time>2018-07-25T09:19:53Z</time>
      </trkpt>
      <trkpt lat="45.98598" lon="4.85133">
        <ele>272</ele>
        <time>2018-07-25T09:19:54Z</time>
      </trkpt>
      <trkpt lat="45.98594" lon="4.85136">
        <ele>272</ele>
        <time>2018-07-25T09:19:55Z</time>
      </trkpt>
      <trkpt lat="45.9859" lon="4.85138">
        <ele>272</ele>
        <time>2018-07-25T09:19:56Z</time>
      </trkpt>
      <trkpt lat="45.98584" lon="4.85139">
        <ele>272</ele>
        <time>2018-07-25T09:19:57Z</time>
      </trkpt>
      <trkpt lat="45.98579" lon="4.8514">
        <ele>274</ele>
        <time>2018-07-25T09:19:58Z</time>
      </trkpt>
      <trkpt lat="45.98575" lon="4.85142">
        <ele>274</ele>
        <time>2018-07-25T09:19:59Z</time>
      </trkpt>
      <trkpt lat="45.9857" lon="4.85146">
        <ele>274</ele>
        <time>2018-07-25T09:20:00Z</time>
      </trkpt>
      <trkpt lat="45.98563" lon="4.8515">
        <ele>274</ele>
        <time>2018-07-25T09:20:02Z</time>
      </trkpt>
      <trkpt lat="45.98559" lon="4.8515">
        <ele>274</ele>
        <time>2018-07-25T09:20:03Z</time>
      </trkpt>
      <trkpt lat="45.98555" lon="4.85152">
        <ele>274</ele>
        <time>2018-07-25T09:20:04Z</time>
      </trkpt>
      <trkpt lat="45.9855" lon="4.85154">
        <ele>274</ele>
        <time>2018-07-25T09:20:05Z</time>
      </trkpt>
      <trkpt lat="45.98542" lon="4.85157">
        <ele>274</ele>
        <time>2018-07-25T09:20:07Z</time>
      </trkpt>
      <trkpt lat="45.98539" lon="4.85158">
        <ele>274</ele>
        <time>2018-07-25T09:20:08Z</time>
      </trkpt>
      <trkpt lat="45.98534" lon="4.85159">
        <ele>274</ele>
        <time>2018-07-25T09:20:09Z</time>
      </trkpt>
      <trkpt lat="45.98529" lon="4.8516">
        <ele>274</ele>
        <time>2018-07-25T09:20:10Z</time>
      </trkpt>
      <trkpt lat="45.98521" lon="4.85161">
        <ele>275</ele>
        <time>2018-07-25T09:20:12Z</time>
      </trkpt>
      <trkpt lat="45.98517" lon="4.85162">
        <ele>275</ele>
        <time>2018-07-25T09:20:13Z</time>
      </trkpt>
      <trkpt lat="45.98509" lon="4.85164">
        <ele>275</ele>
        <time>2018-07-25T09:20:15Z</time>
      </trkpt>
      <trkpt lat="45.98504" lon="4.85166">
        <ele>275</ele>
        <time>2018-07-25T09:20:16Z</time>
      </trkpt>
      <trkpt lat="45.98496" lon="4.85167">
        <ele>275</ele>
        <time>2018-07-25T09:20:18Z</time>
      </trkpt>
      <trkpt lat="45.98491" lon="4.85167">
        <ele>275</ele>
        <time>2018-07-25T09:20:19Z</time>
      </trkpt>
      <trkpt lat="45.98483" lon="4.85168">
        <ele>275</ele>
        <time>2018-07-25T09:20:21Z</time>
      </trkpt>
      <trkpt lat="45.98478" lon="4.85167">
        <ele>275</ele>
        <time>2018-07-25T09:20:22Z</time>
      </trkpt>
      <trkpt lat="45.98474" lon="4.85168">
        <ele>275</ele>
        <time>2018-07-25T09:20:23Z</time>
      </trkpt>
      <trkpt lat="45.98467" lon="4.85171">
        <ele>275</ele>
        <time>2018-07-25T09:20:24Z</time>
      </trkpt>
      <trkpt lat="45.98462" lon="4.85172">
        <ele>275</ele>
        <time>2018-07-25T09:20:25Z</time>
      </trkpt>
      <trkpt lat="45.98457" lon="4.85172">
        <ele>275</ele>
        <time>2018-07-25T09:20:26Z</time>
      </trkpt>
      <trkpt lat="45.98449" lon="4.85172">
        <ele>275</ele>
        <time>2018-07-25T09:20:28Z</time>
      </trkpt>
      <trkpt lat="45.98443" lon="4.85173">
        <ele>275</ele>
        <time>2018-07-25T09:20:29Z</time>
      </trkpt>
      <trkpt lat="45.98434" lon="4.85174">
        <ele>275</ele>
        <time>2018-07-25T09:20:31Z</time>
      </trkpt>
      <trkpt lat="45.9843" lon="4.85175">
        <ele>275</ele>
        <time>2018-07-25T09:20:32Z</time>
      </trkpt>
      <trkpt lat="45.98425" lon="4.85175">
        <ele>275</ele>
        <time>2018-07-25T09:20:33Z</time>
      </trkpt>
      <trkpt lat="45.9842" lon="4.85176">
        <ele>276</ele>
        <time>2018-07-25T09:20:34Z</time>
      </trkpt>
      <trkpt lat="45.98415" lon="4.85175">
        <ele>276</ele>
        <time>2018-07-25T09:20:35Z</time>
      </trkpt>
      <trkpt lat="45.98409" lon="4.85178">
        <ele>276</ele>
        <time>2018-07-25T09:20:36Z</time>
      </trkpt>
      <trkpt lat="45.98404" lon="4.85178">
        <ele>275</ele>
        <time>2018-07-25T09:20:37Z</time>
      </trkpt>
      <trkpt lat="45.98399" lon="4.85178">
        <ele>275</ele>
        <time>2018-07-25T09:20:38Z</time>
      </trkpt>
      <trkpt lat="45.98393" lon="4.85178">
        <ele>275</ele>
        <time>2018-07-25T09:20:39Z</time>
      </trkpt>
      <trkpt lat="45.98388" lon="4.85179">
        <ele>275</ele>
        <time>2018-07-25T09:20:40Z</time>
      </trkpt>
      <trkpt lat="45.98383" lon="4.85178">
        <ele>275</ele>
        <time>2018-07-25T09:20:41Z</time>
      </trkpt>
      <trkpt lat="45.98378" lon="4.85179">
        <ele>275</ele>
        <time>2018-07-25T09:20:42Z</time>
      </trkpt>
      <trkpt lat="45.98373" lon="4.85179">
        <ele>275</ele>
        <time>2018-07-25T09:20:43Z</time>
      </trkpt>
      <trkpt lat="45.98368" lon="4.85179">
        <ele>275</ele>
        <time>2018-07-25T09:20:44Z</time>
      </trkpt>
      <trkpt lat="45.9836" lon="4.8518">
        <ele>275</ele>
        <time>2018-07-25T09:20:46Z</time>
      </trkpt>
      <trkpt lat="45.98356" lon="4.85181">
        <ele>275</ele>
        <time>2018-07-25T09:20:47Z</time>
      </trkpt>
      <trkpt lat="45.9835" lon="4.8518">
        <ele>275</ele>
        <time>2018-07-25T09:20:48Z</time>
      </trkpt>
      <trkpt lat="45.98345" lon="4.85179">
        <ele>275</ele>
        <time>2018-07-25T09:20:49Z</time>
      </trkpt>
      <trkpt lat="45.9834" lon="4.85181">
        <ele>274</ele>
        <time>2018-07-25T09:20:50Z</time>
      </trkpt>
      <trkpt lat="45.98335" lon="4.85182">
        <ele>274</ele>
        <time>2018-07-25T09:20:51Z</time>
      </trkpt>
      <trkpt lat="45.9833" lon="4.85183">
        <ele>274</ele>
        <time>2018-07-25T09:20:52Z</time>
      </trkpt>
      <trkpt lat="45.98324" lon="4.85183">
        <ele>274</ele>
        <time>2018-07-25T09:20:53Z</time>
      </trkpt>
      <trkpt lat="45.98319" lon="4.85185">
        <ele>274</ele>
        <time>2018-07-25T09:20:54Z</time>
      </trkpt>
      <trkpt lat="45.98314" lon="4.85184">
        <ele>274</ele>
        <time>2018-07-25T09:20:55Z</time>
      </trkpt>
      <trkpt lat="45.98306" lon="4.85185">
        <ele>274</ele>
        <time>2018-07-25T09:20:57Z</time>
      </trkpt>
      <trkpt lat="45.98301" lon="4.85185">
        <ele>274</ele>
        <time>2018-07-25T09:20:58Z</time>
      </trkpt>
      <trkpt lat="45.98294" lon="4.85184">
        <ele>274</ele>
        <time>2018-07-25T09:21:00Z</time>
      </trkpt>
      <trkpt lat="45.98289" lon="4.85184">
        <ele>274</ele>
        <time>2018-07-25T09:21:01Z</time>
      </trkpt>
      <trkpt lat="45.98284" lon="4.85186">
        <ele>274</ele>
        <time>2018-07-25T09:21:02Z</time>
      </trkpt>
      <trkpt lat="45.98279" lon="4.85187">
        <ele>274</ele>
        <time>2018-07-25T09:21:03Z</time>
      </trkpt>
      <trkpt lat="45.98273" lon="4.85188">
        <ele>274</ele>
        <time>2018-07-25T09:21:04Z</time>
      </trkpt>
      <trkpt lat="45.98269" lon="4.85186">
        <ele>274</ele>
        <time>2018-07-25T09:21:05Z</time>
      </trkpt>
      <trkpt lat="45.98263" lon="4.85187">
        <ele>274</ele>
        <time>2018-07-25T09:21:06Z</time>
      </trkpt>
      <trkpt lat="45.98258" lon="4.85187">
        <ele>274</ele>
        <time>2018-07-25T09:21:07Z</time>
      </trkpt>
      <trkpt lat="45.98252" lon="4.85188">
        <ele>274</ele>
        <time>2018-07-25T09:21:08Z</time>
      </trkpt>
      <trkpt lat="45.98247" lon="4.85189">
        <ele>273</ele>
        <time>2018-07-25T09:21:09Z</time>
      </trkpt>
      <trkpt lat="45.98242" lon="4.85189">
        <ele>273</ele>
        <time>2018-07-25T09:21:10Z</time>
      </trkpt>
      <trkpt lat="45.98237" lon="4.85191">
        <ele>274</ele>
        <time>2018-07-25T09:21:11Z</time>
      </trkpt>
      <trkpt lat="45.98231" lon="4.8519">
        <ele>274</ele>
        <time>2018-07-25T09:21:12Z</time>
      </trkpt>
      <trkpt lat="45.98227" lon="4.8519">
        <ele>274</ele>
        <time>2018-07-25T09:21:13Z</time>
      </trkpt>
      <trkpt lat="45.98221" lon="4.85192">
        <ele>274</ele>
        <time>2018-07-25T09:21:15Z</time>
      </trkpt>
      <trkpt lat="45.98216" lon="4.85193">
        <ele>274</ele>
        <time>2018-07-25T09:21:16Z</time>
      </trkpt>
      <trkpt lat="45.9821" lon="4.85195">
        <ele>274</ele>
        <time>2018-07-25T09:21:17Z</time>
      </trkpt>
      <trkpt lat="45.98205" lon="4.85197">
        <ele>274</ele>
        <time>2018-07-25T09:21:18Z</time>
      </trkpt>
      <trkpt lat="45.982" lon="4.85198">
        <ele>274</ele>
        <time>2018-07-25T09:21:19Z</time>
      </trkpt>
      <trkpt lat="45.98195" lon="4.85199">
        <ele>274</ele>
        <time>2018-07-25T09:21:20Z</time>
      </trkpt>
      <trkpt lat="45.9819" lon="4.85199">
        <ele>274</ele>
        <time>2018-07-25T09:21:21Z</time>
      </trkpt>
      <trkpt lat="45.98185" lon="4.85199">
        <ele>274</ele>
        <time>2018-07-25T09:21:22Z</time>
      </trkpt>
      <trkpt lat="45.98178" lon="4.85197">
        <ele>274</ele>
        <time>2018-07-25T09:21:24Z</time>
      </trkpt>
      <trkpt lat="45.98172" lon="4.85196">
        <ele>274</ele>
        <time>2018-07-25T09:21:25Z</time>
      </trkpt>
      <trkpt lat="45.98166" lon="4.85198">
        <ele>274</ele>
        <time>2018-07-25T09:21:26Z</time>
      </trkpt>
      <trkpt lat="45.98162" lon="4.85198">
        <ele>274</ele>
        <time>2018-07-25T09:21:27Z</time>
      </trkpt>
      <trkpt lat="45.98157" lon="4.85202">
        <ele>274</ele>
        <time>2018-07-25T09:21:28Z</time>
      </trkpt>
      <trkpt lat="45.98151" lon="4.85204">
        <ele>275</ele>
        <time>2018-07-25T09:21:29Z</time>
      </trkpt>
      <trkpt lat="45.98144" lon="4.85208">
        <ele>275</ele>
        <time>2018-07-25T09:21:30Z</time>
      </trkpt>
      <trkpt lat="45.98139" lon="4.85209">
        <ele>275</ele>
        <time>2018-07-25T09:21:31Z</time>
      </trkpt>
      <trkpt lat="45.98133" lon="4.85209">
        <ele>275</ele>
        <time>2018-07-25T09:21:32Z</time>
      </trkpt>
      <trkpt lat="45.98127" lon="4.85209">
        <ele>275</ele>
        <time>2018-07-25T09:21:33Z</time>
      </trkpt>
      <trkpt lat="45.9812" lon="4.85208">
        <ele>275</ele>
        <time>2018-07-25T09:21:35Z</time>
      </trkpt>
      <trkpt lat="45.98116" lon="4.85208">
        <ele>275</ele>
        <time>2018-07-25T09:21:36Z</time>
      </trkpt>
      <trkpt lat="45.98108" lon="4.85208">
        <ele>275</ele>
        <time>2018-07-25T09:21:38Z</time>
      </trkpt>
      <trkpt lat="45.98103" lon="4.85208">
        <ele>275</ele>
        <time>2018-07-25T09:21:39Z</time>
      </trkpt>
      <trkpt lat="45.98098" lon="4.85209">
        <ele>275</ele>
        <time>2018-07-25T09:21:40Z</time>
      </trkpt>
      <trkpt lat="45.98093" lon="4.85209">
        <ele>275</ele>
        <time>2018-07-25T09:21:41Z</time>
      </trkpt>
      <trkpt lat="45.98089" lon="4.85211">
        <ele>275</ele>
        <time>2018-07-25T09:21:42Z</time>
      </trkpt>
      <trkpt lat="45.98084" lon="4.85211">
        <ele>275</ele>
        <time>2018-07-25T09:21:43Z</time>
      </trkpt>
      <trkpt lat="45.98075" lon="4.8521">
        <ele>276</ele>
        <time>2018-07-25T09:21:45Z</time>
      </trkpt>
      <trkpt lat="45.9807" lon="4.8521">
        <ele>276</ele>
        <time>2018-07-25T09:21:46Z</time>
      </trkpt>
      <trkpt lat="45.98065" lon="4.85211">
        <ele>276</ele>
        <time>2018-07-25T09:21:47Z</time>
      </trkpt>
      <trkpt lat="45.9806" lon="4.85212">
        <ele>276</ele>
        <time>2018-07-25T09:21:48Z</time>
      </trkpt>
      <trkpt lat="45.98055" lon="4.85212">
        <ele>276</ele>
        <time>2018-07-25T09:21:49Z</time>
      </trkpt>
      <trkpt lat="45.9805" lon="4.85213">
        <ele>276</ele>
        <time>2018-07-25T09:21:50Z</time>
      </trkpt>
      <trkpt lat="45.98045" lon="4.85214">
        <ele>276</ele>
        <time>2018-07-25T09:21:51Z</time>
      </trkpt>
      <trkpt lat="45.9804" lon="4.85214">
        <ele>276</ele>
        <time>2018-07-25T09:21:52Z</time>
      </trkpt>
      <trkpt lat="45.98034" lon="4.85214">
        <ele>276</ele>
        <time>2018-07-25T09:21:53Z</time>
      </trkpt>
      <trkpt lat="45.98029" lon="4.85215">
        <ele>276</ele>
        <time>2018-07-25T09:21:54Z</time>
      </trkpt>
      <trkpt lat="45.98024" lon="4.85214">
        <ele>276</ele>
        <time>2018-07-25T09:21:55Z</time>
      </trkpt>
      <trkpt lat="45.98019" lon="4.85215">
        <ele>276</ele>
        <time>2018-07-25T09:21:56Z</time>
      </trkpt>
      <trkpt lat="45.98014" lon="4.85216">
        <ele>276</ele>
        <time>2018-07-25T09:21:57Z</time>
      </trkpt>
      <trkpt lat="45.98007" lon="4.85216">
        <ele>276</ele>
        <time>2018-07-25T09:21:58Z</time>
      </trkpt>
      <trkpt lat="45.98002" lon="4.85216">
        <ele>276</ele>
        <time>2018-07-25T09:21:59Z</time>
      </trkpt>
      <trkpt lat="45.97996" lon="4.85217">
        <ele>276</ele>
        <time>2018-07-25T09:22:00Z</time>
      </trkpt>
      <trkpt lat="45.97991" lon="4.85216">
        <ele>276</ele>
        <time>2018-07-25T09:22:01Z</time>
      </trkpt>
      <trkpt lat="45.97985" lon="4.85214">
        <ele>276</ele>
        <time>2018-07-25T09:22:02Z</time>
      </trkpt>
      <trkpt lat="45.97979" lon="4.85214">
        <ele>276</ele>
        <time>2018-07-25T09:22:03Z</time>
      </trkpt>
      <trkpt lat="45.97975" lon="4.85215">
        <ele>276</ele>
        <time>2018-07-25T09:22:04Z</time>
      </trkpt>
      <trkpt lat="45.97969" lon="4.85216">
        <ele>276</ele>
        <time>2018-07-25T09:22:05Z</time>
      </trkpt>
      <trkpt lat="45.97964" lon="4.85216">
        <ele>276</ele>
        <time>2018-07-25T09:22:06Z</time>
      </trkpt>
      <trkpt lat="45.97958" lon="4.85216">
        <ele>276</ele>
        <time>2018-07-25T09:22:07Z</time>
      </trkpt>
      <trkpt lat="45.97953" lon="4.85216">
        <ele>276</ele>
        <time>2018-07-25T09:22:08Z</time>
      </trkpt>
      <trkpt lat="45.97947" lon="4.85215">
        <ele>276</ele>
        <time>2018-07-25T09:22:09Z</time>
      </trkpt>
      <trkpt lat="45.97941" lon="4.85216">
        <ele>276</ele>
        <time>2018-07-25T09:22:10Z</time>
      </trkpt>
      <trkpt lat="45.97936" lon="4.85216">
        <ele>276</ele>
        <time>2018-07-25T09:22:11Z</time>
      </trkpt>
      <trkpt lat="45.9793" lon="4.85216">
        <ele>276</ele>
        <time>2018-07-25T09:22:12Z</time>
      </trkpt>
      <trkpt lat="45.97926" lon="4.85218">
        <ele>276</ele>
        <time>2018-07-25T09:22:13Z</time>
      </trkpt>
      <trkpt lat="45.97921" lon="4.8522">
        <ele>276</ele>
        <time>2018-07-25T09:22:14Z</time>
      </trkpt>
      <trkpt lat="45.97917" lon="4.8522">
        <ele>275</ele>
        <time>2018-07-25T09:22:15Z</time>
      </trkpt>
      <trkpt lat="45.97912" lon="4.8522">
        <ele>275</ele>
        <time>2018-07-25T09:22:16Z</time>
      </trkpt>
      <trkpt lat="45.97906" lon="4.85221">
        <ele>275</ele>
        <time>2018-07-25T09:22:17Z</time>
      </trkpt>
      <trkpt lat="45.979" lon="4.8522">
        <ele>275</ele>
        <time>2018-07-25T09:22:18Z</time>
      </trkpt>
      <trkpt lat="45.97894" lon="4.85221">
        <ele>275</ele>
        <time>2018-07-25T09:22:19Z</time>
      </trkpt>
      <trkpt lat="45.97888" lon="4.85223">
        <ele>275</ele>
        <time>2018-07-25T09:22:20Z</time>
      </trkpt>
      <trkpt lat="45.97881" lon="4.85224">
        <ele>275</ele>
        <time>2018-07-25T09:22:21Z</time>
      </trkpt>
      <trkpt lat="45.97875" lon="4.85224">
        <ele>275</ele>
        <time>2018-07-25T09:22:22Z</time>
      </trkpt>
      <trkpt lat="45.97869" lon="4.85225">
        <ele>275</ele>
        <time>2018-07-25T09:22:23Z</time>
      </trkpt>
      <trkpt lat="45.97864" lon="4.85226">
        <ele>275</ele>
        <time>2018-07-25T09:22:24Z</time>
      </trkpt>
      <trkpt lat="45.97858" lon="4.85227">
        <ele>275</ele>
        <time>2018-07-25T09:22:25Z</time>
      </trkpt>
      <trkpt lat="45.97853" lon="4.85228">
        <ele>275</ele>
        <time>2018-07-25T09:22:26Z</time>
      </trkpt>
      <trkpt lat="45.97846" lon="4.85229">
        <ele>275</ele>
        <time>2018-07-25T09:22:27Z</time>
      </trkpt>
      <trkpt lat="45.97842" lon="4.85228">
        <ele>275</ele>
        <time>2018-07-25T09:22:28Z</time>
      </trkpt>
      <trkpt lat="45.97836" lon="4.85229">
        <ele>275</ele>
        <time>2018-07-25T09:22:29Z</time>
      </trkpt>
      <trkpt lat="45.9783" lon="4.85229">
        <ele>275</ele>
        <time>2018-07-25T09:22:30Z</time>
      </trkpt>
      <trkpt lat="45.97824" lon="4.8523">
        <ele>275</ele>
        <time>2018-07-25T09:22:31Z</time>
      </trkpt>
      <trkpt lat="45.97819" lon="4.8523">
        <ele>275</ele>
        <time>2018-07-25T09:22:32Z</time>
      </trkpt>
      <trkpt lat="45.97814" lon="4.8523">
        <ele>274</ele>
        <time>2018-07-25T09:22:33Z</time>
      </trkpt>
      <trkpt lat="45.97808" lon="4.8523">
        <ele>274</ele>
        <time>2018-07-25T09:22:34Z</time>
      </trkpt>
      <trkpt lat="45.97802" lon="4.85231">
        <ele>274</ele>
        <time>2018-07-25T09:22:35Z</time>
      </trkpt>
      <trkpt lat="45.97796" lon="4.85231">
        <ele>274</ele>
        <time>2018-07-25T09:22:36Z</time>
      </trkpt>
      <trkpt lat="45.97792" lon="4.85231">
        <ele>274</ele>
        <time>2018-07-25T09:22:37Z</time>
      </trkpt>
      <trkpt lat="45.97785" lon="4.8523">
        <ele>274</ele>
        <time>2018-07-25T09:22:38Z</time>
      </trkpt>
      <trkpt lat="45.9778" lon="4.85231">
        <ele>274</ele>
        <time>2018-07-25T09:22:39Z</time>
      </trkpt>
      <trkpt lat="45.97773" lon="4.85231">
        <ele>274</ele>
        <time>2018-07-25T09:22:40Z</time>
      </trkpt>
      <trkpt lat="45.97767" lon="4.85232">
        <ele>274</ele>
        <time>2018-07-25T09:22:41Z</time>
      </trkpt>
      <trkpt lat="45.97762" lon="4.85234">
        <ele>274</ele>
        <time>2018-07-25T09:22:42Z</time>
      </trkpt>
      <trkpt lat="45.97757" lon="4.85235">
        <ele>274</ele>
        <time>2018-07-25T09:22:43Z</time>
      </trkpt>
      <trkpt lat="45.97751" lon="4.85234">
        <ele>274</ele>
        <time>2018-07-25T09:22:44Z</time>
      </trkpt>
      <trkpt lat="45.97745" lon="4.85235">
        <ele>275</ele>
        <time>2018-07-25T09:22:45Z</time>
      </trkpt>
      <trkpt lat="45.9774" lon="4.85235">
        <ele>275</ele>
        <time>2018-07-25T09:22:46Z</time>
      </trkpt>
      <trkpt lat="45.97735" lon="4.85235">
        <ele>275</ele>
        <time>2018-07-25T09:22:47Z</time>
      </trkpt>
      <trkpt lat="45.97729" lon="4.85234">
        <ele>275</ele>
        <time>2018-07-25T09:22:48Z</time>
      </trkpt>
      <trkpt lat="45.97725" lon="4.85235">
        <ele>275</ele>
        <time>2018-07-25T09:22:49Z</time>
      </trkpt>
      <trkpt lat="45.9772" lon="4.85234">
        <ele>275</ele>
        <time>2018-07-25T09:22:50Z</time>
      </trkpt>
      <trkpt lat="45.97714" lon="4.85235">
        <ele>275</ele>
        <time>2018-07-25T09:22:51Z</time>
      </trkpt>
      <trkpt lat="45.9771" lon="4.85237">
        <ele>275</ele>
        <time>2018-07-25T09:22:52Z</time>
      </trkpt>
      <trkpt lat="45.97704" lon="4.85238">
        <ele>275</ele>
        <time>2018-07-25T09:22:53Z</time>
      </trkpt>
      <trkpt lat="45.97699" lon="4.85239">
        <ele>275</ele>
        <time>2018-07-25T09:22:54Z</time>
      </trkpt>
      <trkpt lat="45.97694" lon="4.85239">
        <ele>275</ele>
        <time>2018-07-25T09:22:55Z</time>
      </trkpt>
      <trkpt lat="45.97689" lon="4.8524">
        <ele>276</ele>
        <time>2018-07-25T09:22:56Z</time>
      </trkpt>
      <trkpt lat="45.97683" lon="4.85242">
        <ele>276</ele>
        <time>2018-07-25T09:22:57Z</time>
      </trkpt>
      <trkpt lat="45.97677" lon="4.85243">
        <ele>276</ele>
        <time>2018-07-25T09:22:58Z</time>
      </trkpt>
      <trkpt lat="45.97671" lon="4.85243">
        <ele>276</ele>
        <time>2018-07-25T09:22:59Z</time>
      </trkpt>
      <trkpt lat="45.97665" lon="4.85244">
        <ele>277</ele>
        <time>2018-07-25T09:23:00Z</time>
      </trkpt>
      <trkpt lat="45.9766" lon="4.85244">
        <ele>277</ele>
        <time>2018-07-25T09:23:01Z</time>
      </trkpt>
      <trkpt lat="45.97655" lon="4.85245">
        <ele>277</ele>
        <time>2018-07-25T09:23:02Z</time>
      </trkpt>
      <trkpt lat="45.97649" lon="4.85246">
        <ele>278</ele>
        <time>2018-07-25T09:23:03Z</time>
      </trkpt>
      <trkpt lat="45.97643" lon="4.85247">
        <ele>278</ele>
        <time>2018-07-25T09:23:04Z</time>
      </trkpt>
      <trkpt lat="45.97634" lon="4.85248">
        <ele>279</ele>
        <time>2018-07-25T09:23:06Z</time>
      </trkpt>
      <trkpt lat="45.9763" lon="4.85248">
        <ele>279</ele>
        <time>2018-07-25T09:23:07Z</time>
      </trkpt>
      <trkpt lat="45.97625" lon="4.85248">
        <ele>279</ele>
        <time>2018-07-25T09:23:08Z</time>
      </trkpt>
      <trkpt lat="45.9762" lon="4.85247">
        <ele>280</ele>
        <time>2018-07-25T09:23:09Z</time>
      </trkpt>
      <trkpt lat="45.97613" lon="4.85249">
        <ele>280</ele>
        <time>2018-07-25T09:23:10Z</time>
      </trkpt>
      <trkpt lat="45.97608" lon="4.85251">
        <ele>279</ele>
        <time>2018-07-25T09:23:11Z</time>
      </trkpt>
      <trkpt lat="45.97603" lon="4.85251">
        <ele>280</ele>
        <time>2018-07-25T09:23:12Z</time>
      </trkpt>
      <trkpt lat="45.97599" lon="4.85251">
        <ele>280</ele>
        <time>2018-07-25T09:23:13Z</time>
      </trkpt>
      <trkpt lat="45.97595" lon="4.8525">
        <ele>281</ele>
        <time>2018-07-25T09:23:14Z</time>
      </trkpt>
      <trkpt lat="45.97588" lon="4.8525">
        <ele>281</ele>
        <time>2018-07-25T09:23:15Z</time>
      </trkpt>
      <trkpt lat="45.97579" lon="4.85249">
        <ele>282</ele>
        <time>2018-07-25T09:23:17Z</time>
      </trkpt>
      <trkpt lat="45.97571" lon="4.85253">
        <ele>281</ele>
        <time>2018-07-25T09:23:18Z</time>
      </trkpt>
      <trkpt lat="45.97567" lon="4.85253">
        <ele>281</ele>
        <time>2018-07-25T09:23:19Z</time>
      </trkpt>
      <trkpt lat="45.97561" lon="4.85253">
        <ele>281</ele>
        <time>2018-07-25T09:23:20Z</time>
      </trkpt>
      <trkpt lat="45.97557" lon="4.85253">
        <ele>281</ele>
        <time>2018-07-25T09:23:21Z</time>
      </trkpt>
      <trkpt lat="45.97552" lon="4.85253">
        <ele>281</ele>
        <time>2018-07-25T09:23:22Z</time>
      </trkpt>
      <trkpt lat="45.97546" lon="4.85253">
        <ele>281</ele>
        <time>2018-07-25T09:23:23Z</time>
      </trkpt>
      <trkpt lat="45.97541" lon="4.85254">
        <ele>281</ele>
        <time>2018-07-25T09:23:24Z</time>
      </trkpt>
      <trkpt lat="45.97532" lon="4.85255">
        <ele>281</ele>
        <time>2018-07-25T09:23:26Z</time>
      </trkpt>
      <trkpt lat="45.97527" lon="4.85257">
        <ele>281</ele>
        <time>2018-07-25T09:23:27Z</time>
      </trkpt>
      <trkpt lat="45.97522" lon="4.85257">
        <ele>281</ele>
        <time>2018-07-25T09:23:28Z</time>
      </trkpt>
      <trkpt lat="45.97517" lon="4.85255">
        <ele>282</ele>
        <time>2018-07-25T09:23:29Z</time>
      </trkpt>
      <trkpt lat="45.97512" lon="4.85253">
        <ele>282</ele>
        <time>2018-07-25T09:23:30Z</time>
      </trkpt>
      <trkpt lat="45.97507" lon="4.85253">
        <ele>282</ele>
        <time>2018-07-25T09:23:31Z</time>
      </trkpt>
      <trkpt lat="45.97504" lon="4.85254">
        <ele>282</ele>
        <time>2018-07-25T09:23:32Z</time>
      </trkpt>
      <trkpt lat="45.97497" lon="4.85255">
        <ele>283</ele>
        <time>2018-07-25T09:23:33Z</time>
      </trkpt>
      <trkpt lat="45.97491" lon="4.85255">
        <ele>283</ele>
        <time>2018-07-25T09:23:34Z</time>
      </trkpt>
      <trkpt lat="45.97487" lon="4.85259">
        <ele>283</ele>
        <time>2018-07-25T09:23:35Z</time>
      </trkpt>
      <trkpt lat="45.97482" lon="4.85256">
        <ele>284</ele>
        <time>2018-07-25T09:23:37Z</time>
      </trkpt>
      <trkpt lat="45.97476" lon="4.85256">
        <ele>284</ele>
        <time>2018-07-25T09:23:38Z</time>
      </trkpt>
      <trkpt lat="45.97471" lon="4.85257">
        <ele>284</ele>
        <time>2018-07-25T09:23:39Z</time>
      </trkpt>
      <trkpt lat="45.97465" lon="4.85258">
        <ele>284</ele>
        <time>2018-07-25T09:23:40Z</time>
      </trkpt>
      <trkpt lat="45.97459" lon="4.85259">
        <ele>284</ele>
        <time>2018-07-25T09:23:41Z</time>
      </trkpt>
      <trkpt lat="45.97455" lon="4.85258">
        <ele>284</ele>
        <time>2018-07-25T09:23:42Z</time>
      </trkpt>
      <trkpt lat="45.9745" lon="4.85258">
        <ele>285</ele>
        <time>2018-07-25T09:23:43Z</time>
      </trkpt>
      <trkpt lat="45.97443" lon="4.85261">
        <ele>285</ele>
        <time>2018-07-25T09:23:44Z</time>
      </trkpt>
      <trkpt lat="45.97434" lon="4.85262">
        <ele>285</ele>
        <time>2018-07-25T09:23:46Z</time>
      </trkpt>
      <trkpt lat="45.97428" lon="4.85261">
        <ele>285</ele>
        <time>2018-07-25T09:23:47Z</time>
      </trkpt>
      <trkpt lat="45.97422" lon="4.85262">
        <ele>285</ele>
        <time>2018-07-25T09:23:48Z</time>
      </trkpt>
      <trkpt lat="45.97417" lon="4.85264">
        <ele>285</ele>
        <time>2018-07-25T09:23:49Z</time>
      </trkpt>
      <trkpt lat="45.97412" lon="4.85265">
        <ele>286</ele>
        <time>2018-07-25T09:23:50Z</time>
      </trkpt>
      <trkpt lat="45.97407" lon="4.85263">
        <ele>286</ele>
        <time>2018-07-25T09:23:51Z</time>
      </trkpt>
      <trkpt lat="45.97403" lon="4.85263">
        <ele>286</ele>
        <time>2018-07-25T09:23:52Z</time>
      </trkpt>
      <trkpt lat="45.97398" lon="4.85263">
        <ele>286</ele>
        <time>2018-07-25T09:23:53Z</time>
      </trkpt>
      <trkpt lat="45.9739" lon="4.85262">
        <ele>285</ele>
        <time>2018-07-25T09:23:55Z</time>
      </trkpt>
      <trkpt lat="45.97385" lon="4.85261">
        <ele>285</ele>
        <time>2018-07-25T09:23:56Z</time>
      </trkpt>
      <trkpt lat="45.97381" lon="4.85262">
        <ele>285</ele>
        <time>2018-07-25T09:23:57Z</time>
      </trkpt>
      <trkpt lat="45.97375" lon="4.8526">
        <ele>285</ele>
        <time>2018-07-25T09:23:58Z</time>
      </trkpt>
      <trkpt lat="45.9737" lon="4.85263">
        <ele>285</ele>
        <time>2018-07-25T09:23:59Z</time>
      </trkpt>
      <trkpt lat="45.97365" lon="4.85264">
        <ele>284</ele>
        <time>2018-07-25T09:24:00Z</time>
      </trkpt>
      <trkpt lat="45.9736" lon="4.85264">
        <ele>284</ele>
        <time>2018-07-25T09:24:01Z</time>
      </trkpt>
      <trkpt lat="45.97354" lon="4.85264">
        <ele>284</ele>
        <time>2018-07-25T09:24:02Z</time>
      </trkpt>
      <trkpt lat="45.97349" lon="4.85264">
        <ele>284</ele>
        <time>2018-07-25T09:24:03Z</time>
      </trkpt>
      <trkpt lat="45.97344" lon="4.85264">
        <ele>283</ele>
        <time>2018-07-25T09:24:04Z</time>
      </trkpt>
      <trkpt lat="45.97339" lon="4.85264">
        <ele>283</ele>
        <time>2018-07-25T09:24:06Z</time>
      </trkpt>
      <trkpt lat="45.97332" lon="4.85265">
        <ele>282</ele>
        <time>2018-07-25T09:24:07Z</time>
      </trkpt>
      <trkpt lat="45.97326" lon="4.85265">
        <ele>282</ele>
        <time>2018-07-25T09:24:08Z</time>
      </trkpt>
      <trkpt lat="45.9732" lon="4.85266">
        <ele>282</ele>
        <time>2018-07-25T09:24:09Z</time>
      </trkpt>
      <trkpt lat="45.97315" lon="4.85269">
        <ele>282</ele>
        <time>2018-07-25T09:24:10Z</time>
      </trkpt>
      <trkpt lat="45.9731" lon="4.85268">
        <ele>282</ele>
        <time>2018-07-25T09:24:11Z</time>
      </trkpt>
      <trkpt lat="45.97305" lon="4.85268">
        <ele>282</ele>
        <time>2018-07-25T09:24:12Z</time>
      </trkpt>
      <trkpt lat="45.97301" lon="4.85267">
        <ele>282</ele>
        <time>2018-07-25T09:24:13Z</time>
      </trkpt>
      <trkpt lat="45.97296" lon="4.85267">
        <ele>282</ele>
        <time>2018-07-25T09:24:14Z</time>
      </trkpt>
      <trkpt lat="45.97291" lon="4.85267">
        <ele>281</ele>
        <time>2018-07-25T09:24:15Z</time>
      </trkpt>
      <trkpt lat="45.97286" lon="4.85268">
        <ele>281</ele>
        <time>2018-07-25T09:24:16Z</time>
      </trkpt>
      <trkpt lat="45.97281" lon="4.85267">
        <ele>281</ele>
        <time>2018-07-25T09:24:17Z</time>
      </trkpt>
      <trkpt lat="45.97276" lon="4.85267">
        <ele>281</ele>
        <time>2018-07-25T09:24:18Z</time>
      </trkpt>
      <trkpt lat="45.9727" lon="4.85267">
        <ele>281</ele>
        <time>2018-07-25T09:24:19Z</time>
      </trkpt>
      <trkpt lat="45.97264" lon="4.85267">
        <ele>281</ele>
        <time>2018-07-25T09:24:20Z</time>
      </trkpt>
      <trkpt lat="45.9726" lon="4.85267">
        <ele>281</ele>
        <time>2018-07-25T09:24:21Z</time>
      </trkpt>
      <trkpt lat="45.97251" lon="4.85267">
        <ele>280</ele>
        <time>2018-07-25T09:24:23Z</time>
      </trkpt>
      <trkpt lat="45.97246" lon="4.85267">
        <ele>279</ele>
        <time>2018-07-25T09:24:24Z</time>
      </trkpt>
      <trkpt lat="45.97237" lon="4.85268">
        <ele>279</ele>
        <time>2018-07-25T09:24:26Z</time>
      </trkpt>
      <trkpt lat="45.97232" lon="4.85269">
        <ele>279</ele>
        <time>2018-07-25T09:24:27Z</time>
      </trkpt>
      <trkpt lat="45.97226" lon="4.8527">
        <ele>279</ele>
        <time>2018-07-25T09:24:28Z</time>
      </trkpt>
      <trkpt lat="45.97221" lon="4.85271">
        <ele>279</ele>
        <time>2018-07-25T09:24:29Z</time>
      </trkpt>
      <trkpt lat="45.97216" lon="4.85271">
        <ele>279</ele>
        <time>2018-07-25T09:24:30Z</time>
      </trkpt>
      <trkpt lat="45.97211" lon="4.85271">
        <ele>279</ele>
        <time>2018-07-25T09:24:31Z</time>
      </trkpt>
      <trkpt lat="45.97207" lon="4.8527">
        <ele>279</ele>
        <time>2018-07-25T09:24:32Z</time>
      </trkpt>
      <trkpt lat="45.97202" lon="4.8527">
        <ele>279</ele>
        <time>2018-07-25T09:24:33Z</time>
      </trkpt>
      <trkpt lat="45.97197" lon="4.8527">
        <ele>279</ele>
        <time>2018-07-25T09:24:34Z</time>
      </trkpt>
      <trkpt lat="45.97193" lon="4.8527">
        <ele>279</ele>
        <time>2018-07-25T09:24:35Z</time>
      </trkpt>
      <trkpt lat="45.97188" lon="4.8527">
        <ele>279</ele>
        <time>2018-07-25T09:24:36Z</time>
      </trkpt>
      <trkpt lat="45.97183" lon="4.85271">
        <ele>279</ele>
        <time>2018-07-25T09:24:37Z</time>
      </trkpt>
      <trkpt lat="45.97175" lon="4.85272">
        <ele>279</ele>
        <time>2018-07-25T09:24:39Z</time>
      </trkpt>
      <trkpt lat="45.97171" lon="4.85272">
        <ele>279</ele>
        <time>2018-07-25T09:24:40Z</time>
      </trkpt>
      <trkpt lat="45.97162" lon="4.85273">
        <ele>279</ele>
        <time>2018-07-25T09:24:42Z</time>
      </trkpt>
      <trkpt lat="45.97157" lon="4.85273">
        <ele>279</ele>
        <time>2018-07-25T09:24:43Z</time>
      </trkpt>
      <trkpt lat="45.97149" lon="4.85273">
        <ele>279</ele>
        <time>2018-07-25T09:24:45Z</time>
      </trkpt>
      <trkpt lat="45.97145" lon="4.85273">
        <ele>279</ele>
        <time>2018-07-25T09:24:46Z</time>
      </trkpt>
      <trkpt lat="45.97138" lon="4.85273">
        <ele>279</ele>
        <time>2018-07-25T09:24:48Z</time>
      </trkpt>
      <trkpt lat="45.97135" lon="4.85272">
        <ele>279</ele>
        <time>2018-07-25T09:24:49Z</time>
      </trkpt>
      <trkpt lat="45.97126" lon="4.85273">
        <ele>279</ele>
        <time>2018-07-25T09:24:51Z</time>
      </trkpt>
      <trkpt lat="45.97121" lon="4.85273">
        <ele>280</ele>
        <time>2018-07-25T09:24:52Z</time>
      </trkpt>
      <trkpt lat="45.97112" lon="4.85273">
        <ele>280</ele>
        <time>2018-07-25T09:24:54Z</time>
      </trkpt>
      <trkpt lat="45.97108" lon="4.85273">
        <ele>280</ele>
        <time>2018-07-25T09:24:55Z</time>
      </trkpt>
      <trkpt lat="45.97099" lon="4.85274">
        <ele>280</ele>
        <time>2018-07-25T09:24:57Z</time>
      </trkpt>
      <trkpt lat="45.97096" lon="4.85275">
        <ele>280</ele>
        <time>2018-07-25T09:24:58Z</time>
      </trkpt>
      <trkpt lat="45.97091" lon="4.85274">
        <ele>280</ele>
        <time>2018-07-25T09:24:59Z</time>
      </trkpt>
      <trkpt lat="45.97086" lon="4.85276">
        <ele>280</ele>
        <time>2018-07-25T09:25:00Z</time>
      </trkpt>
      <trkpt lat="45.97081" lon="4.85278">
        <ele>281</ele>
        <time>2018-07-25T09:25:01Z</time>
      </trkpt>
      <trkpt lat="45.97075" lon="4.85279">
        <ele>281</ele>
        <time>2018-07-25T09:25:02Z</time>
      </trkpt>
      <trkpt lat="45.9707" lon="4.85279">
        <ele>282</ele>
        <time>2018-07-25T09:25:03Z</time>
      </trkpt>
      <trkpt lat="45.97065" lon="4.85279">
        <ele>282</ele>
        <time>2018-07-25T09:25:04Z</time>
      </trkpt>
      <trkpt lat="45.9706" lon="4.85279">
        <ele>282</ele>
        <time>2018-07-25T09:25:05Z</time>
      </trkpt>
      <trkpt lat="45.97056" lon="4.8528">
        <ele>282</ele>
        <time>2018-07-25T09:25:06Z</time>
      </trkpt>
      <trkpt lat="45.97051" lon="4.8528">
        <ele>282</ele>
        <time>2018-07-25T09:25:07Z</time>
      </trkpt>
      <trkpt lat="45.97046" lon="4.8528">
        <ele>282</ele>
        <time>2018-07-25T09:25:08Z</time>
      </trkpt>
      <trkpt lat="45.97039" lon="4.85281">
        <ele>282</ele>
        <time>2018-07-25T09:25:10Z</time>
      </trkpt>
      <trkpt lat="45.97035" lon="4.85282">
        <ele>282</ele>
        <time>2018-07-25T09:25:11Z</time>
      </trkpt>
      <trkpt lat="45.97027" lon="4.85283">
        <ele>282</ele>
        <time>2018-07-25T09:25:13Z</time>
      </trkpt>
      <trkpt lat="45.97023" lon="4.85285">
        <ele>282</ele>
        <time>2018-07-25T09:25:14Z</time>
      </trkpt>
      <trkpt lat="45.97019" lon="4.85286">
        <ele>282</ele>
        <time>2018-07-25T09:25:15Z</time>
      </trkpt>
      <trkpt lat="45.97014" lon="4.85286">
        <ele>282</ele>
        <time>2018-07-25T09:25:16Z</time>
      </trkpt>
      <trkpt lat="45.97006" lon="4.85287">
        <ele>282</ele>
        <time>2018-07-25T09:25:18Z</time>
      </trkpt>
      <trkpt lat="45.97004" lon="4.85288">
        <ele>282</ele>
        <time>2018-07-25T09:25:19Z</time>
      </trkpt>
      <trkpt lat="45.96995" lon="4.85288">
        <ele>283</ele>
        <time>2018-07-25T09:25:21Z</time>
      </trkpt>
      <trkpt lat="45.96992" lon="4.85289">
        <ele>284</ele>
        <time>2018-07-25T09:25:22Z</time>
      </trkpt>
      <trkpt lat="45.96983" lon="4.85289">
        <ele>284</ele>
        <time>2018-07-25T09:25:25Z</time>
      </trkpt>
      <trkpt lat="45.96981" lon="4.8529">
        <ele>284</ele>
        <time>2018-07-25T09:25:26Z</time>
      </trkpt>
      <trkpt lat="45.96978" lon="4.8529">
        <ele>284</ele>
        <time>2018-07-25T09:25:27Z</time>
      </trkpt>
      <trkpt lat="45.9697" lon="4.85292">
        <ele>284</ele>
        <time>2018-07-25T09:25:28Z</time>
      </trkpt>
      <trkpt lat="45.96963" lon="4.85294">
        <ele>284</ele>
        <time>2018-07-25T09:25:30Z</time>
      </trkpt>
      <trkpt lat="45.96959" lon="4.85294">
        <ele>284</ele>
        <time>2018-07-25T09:25:31Z</time>
      </trkpt>
      <trkpt lat="45.9695" lon="4.85296">
        <ele>284</ele>
        <time>2018-07-25T09:25:33Z</time>
      </trkpt>
      <trkpt lat="45.96946" lon="4.85296">
        <ele>284</ele>
        <time>2018-07-25T09:25:34Z</time>
      </trkpt>
      <trkpt lat="45.96939" lon="4.85296">
        <ele>284</ele>
        <time>2018-07-25T09:25:36Z</time>
      </trkpt>
      <trkpt lat="45.96935" lon="4.85296">
        <ele>284</ele>
        <time>2018-07-25T09:25:37Z</time>
      </trkpt>
      <trkpt lat="45.96927" lon="4.85296">
        <ele>284</ele>
        <time>2018-07-25T09:25:39Z</time>
      </trkpt>
      <trkpt lat="45.96923" lon="4.85297">
        <ele>284</ele>
        <time>2018-07-25T09:25:40Z</time>
      </trkpt>
      <trkpt lat="45.96918" lon="4.85299">
        <ele>285</ele>
        <time>2018-07-25T09:25:41Z</time>
      </trkpt>
      <trkpt lat="45.96914" lon="4.85302">
        <ele>284</ele>
        <time>2018-07-25T09:25:42Z</time>
      </trkpt>
      <trkpt lat="45.96908" lon="4.85303">
        <ele>284</ele>
        <time>2018-07-25T09:25:43Z</time>
      </trkpt>
      <trkpt lat="45.96902" lon="4.85302">
        <ele>284</ele>
        <time>2018-07-25T09:25:44Z</time>
      </trkpt>
      <trkpt lat="45.96896" lon="4.85304">
        <ele>283</ele>
        <time>2018-07-25T09:25:45Z</time>
      </trkpt>
      <trkpt lat="45.96889" lon="4.85306">
        <ele>283</ele>
        <time>2018-07-25T09:25:46Z</time>
      </trkpt>
      <trkpt lat="45.96883" lon="4.85308">
        <ele>283</ele>
        <time>2018-07-25T09:25:47Z</time>
      </trkpt>
      <trkpt lat="45.96877" lon="4.85309">
        <ele>283</ele>
        <time>2018-07-25T09:25:48Z</time>
      </trkpt>
      <trkpt lat="45.96869" lon="4.85312">
        <ele>282</ele>
        <time>2018-07-25T09:25:49Z</time>
      </trkpt>
      <trkpt lat="45.96862" lon="4.85314">
        <ele>282</ele>
        <time>2018-07-25T09:25:50Z</time>
      </trkpt>
      <trkpt lat="45.96856" lon="4.85315">
        <ele>282</ele>
        <time>2018-07-25T09:25:51Z</time>
      </trkpt>
      <trkpt lat="45.96849" lon="4.85318">
        <ele>282</ele>
        <time>2018-07-25T09:25:52Z</time>
      </trkpt>
      <trkpt lat="45.96839" lon="4.85322">
        <ele>281</ele>
        <time>2018-07-25T09:25:53Z</time>
      </trkpt>
      <trkpt lat="45.9683" lon="4.85325">
        <ele>279</ele>
        <time>2018-07-25T09:25:54Z</time>
      </trkpt>
      <trkpt lat="45.96823" lon="4.85329">
        <ele>279</ele>
        <time>2018-07-25T09:25:55Z</time>
      </trkpt>
      <trkpt lat="45.96815" lon="4.85332">
        <ele>279</ele>
        <time>2018-07-25T09:25:56Z</time>
      </trkpt>
      <trkpt lat="45.96807" lon="4.85336">
        <ele>279</ele>
        <time>2018-07-25T09:25:57Z</time>
      </trkpt>
      <trkpt lat="45.96798" lon="4.85341">
        <ele>279</ele>
        <time>2018-07-25T09:25:58Z</time>
      </trkpt>
      <trkpt lat="45.96791" lon="4.85347">
        <ele>278</ele>
        <time>2018-07-25T09:25:59Z</time>
      </trkpt>
      <trkpt lat="45.96783" lon="4.85353">
        <ele>278</ele>
        <time>2018-07-25T09:26:00Z</time>
      </trkpt>
      <trkpt lat="45.96775" lon="4.85357">
        <ele>278</ele>
        <time>2018-07-25T09:26:01Z</time>
      </trkpt>
      <trkpt lat="45.96767" lon="4.85364">
        <ele>278</ele>
        <time>2018-07-25T09:26:02Z</time>
      </trkpt>
      <trkpt lat="45.96758" lon="4.85371">
        <ele>278</ele>
        <time>2018-07-25T09:26:03Z</time>
      </trkpt>
      <trkpt lat="45.96748" lon="4.85377">
        <ele>277</ele>
        <time>2018-07-25T09:26:04Z</time>
      </trkpt>
      <trkpt lat="45.96741" lon="4.85382">
        <ele>277</ele>
        <time>2018-07-25T09:26:05Z</time>
      </trkpt>
      <trkpt lat="45.96734" lon="4.85388">
        <ele>276</ele>
        <time>2018-07-25T09:26:06Z</time>
      </trkpt>
      <trkpt lat="45.96726" lon="4.85392">
        <ele>276</ele>
        <time>2018-07-25T09:26:07Z</time>
      </trkpt>
      <trkpt lat="45.96719" lon="4.85397">
        <ele>276</ele>
        <time>2018-07-25T09:26:08Z</time>
      </trkpt>
      <trkpt lat="45.96712" lon="4.85402">
        <ele>276</ele>
        <time>2018-07-25T09:26:09Z</time>
      </trkpt>
      <trkpt lat="45.96706" lon="4.85404">
        <ele>276</ele>
        <time>2018-07-25T09:26:10Z</time>
      </trkpt>
      <trkpt lat="45.96695" lon="4.8541">
        <ele>276</ele>
        <time>2018-07-25T09:26:11Z</time>
      </trkpt>
      <trkpt lat="45.96685" lon="4.85416">
        <ele>276</ele>
        <time>2018-07-25T09:26:12Z</time>
      </trkpt>
      <trkpt lat="45.96678" lon="4.85417">
        <ele>276</ele>
        <time>2018-07-25T09:26:13Z</time>
      </trkpt>
      <trkpt lat="45.96668" lon="4.85421">
        <ele>276</ele>
        <time>2018-07-25T09:26:14Z</time>
      </trkpt>
      <trkpt lat="45.96661" lon="4.85424">
        <ele>276</ele>
        <time>2018-07-25T09:26:15Z</time>
      </trkpt>
      <trkpt lat="45.96654" lon="4.85427">
        <ele>276</ele>
        <time>2018-07-25T09:26:16Z</time>
      </trkpt>
      <trkpt lat="45.96646" lon="4.85429">
        <ele>276</ele>
        <time>2018-07-25T09:26:17Z</time>
      </trkpt>
      <trkpt lat="45.96638" lon="4.85431">
        <ele>276</ele>
        <time>2018-07-25T09:26:18Z</time>
      </trkpt>
      <trkpt lat="45.96633" lon="4.85431">
        <ele>276</ele>
        <time>2018-07-25T09:26:19Z</time>
      </trkpt>
      <trkpt lat="45.96625" lon="4.85433">
        <ele>276</ele>
        <time>2018-07-25T09:26:20Z</time>
      </trkpt>
      <trkpt lat="45.96617" lon="4.85437">
        <ele>276</ele>
        <time>2018-07-25T09:26:21Z</time>
      </trkpt>
      <trkpt lat="45.96611" lon="4.85438">
        <ele>276</ele>
        <time>2018-07-25T09:26:22Z</time>
      </trkpt>
      <trkpt lat="45.96603" lon="4.85443">
        <ele>276</ele>
        <time>2018-07-25T09:26:23Z</time>
      </trkpt>
      <trkpt lat="45.96596" lon="4.85444">
        <ele>276</ele>
        <time>2018-07-25T09:26:24Z</time>
      </trkpt>
      <trkpt lat="45.96588" lon="4.85447">
        <ele>276</ele>
        <time>2018-07-25T09:26:25Z</time>
      </trkpt>
      <trkpt lat="45.96581" lon="4.85449">
        <ele>275</ele>
        <time>2018-07-25T09:26:26Z</time>
      </trkpt>
      <trkpt lat="45.96575" lon="4.85449">
        <ele>275</ele>
        <time>2018-07-25T09:26:27Z</time>
      </trkpt>
      <trkpt lat="45.96567" lon="4.85451">
        <ele>275</ele>
        <time>2018-07-25T09:26:28Z</time>
      </trkpt>
      <trkpt lat="45.9656" lon="4.85453">
        <ele>275</ele>
        <time>2018-07-25T09:26:29Z</time>
      </trkpt>
      <trkpt lat="45.96554" lon="4.85456">
        <ele>275</ele>
        <time>2018-07-25T09:26:30Z</time>
      </trkpt>
      <trkpt lat="45.96547" lon="4.85459">
        <ele>275</ele>
        <time>2018-07-25T09:26:31Z</time>
      </trkpt>
      <trkpt lat="45.96541" lon="4.8546">
        <ele>275</ele>
        <time>2018-07-25T09:26:32Z</time>
      </trkpt>
      <trkpt lat="45.96535" lon="4.85461">
        <ele>275</ele>
        <time>2018-07-25T09:26:33Z</time>
      </trkpt>
      <trkpt lat="45.96528" lon="4.85463">
        <ele>275</ele>
        <time>2018-07-25T09:26:34Z</time>
      </trkpt>
      <trkpt lat="45.96523" lon="4.85461">
        <ele>275</ele>
        <time>2018-07-25T09:26:35Z</time>
      </trkpt>
      <trkpt lat="45.96518" lon="4.85461">
        <ele>275</ele>
        <time>2018-07-25T09:26:36Z</time>
      </trkpt>
      <trkpt lat="45.96512" lon="4.85463">
        <ele>275</ele>
        <time>2018-07-25T09:26:37Z</time>
      </trkpt>
      <trkpt lat="45.96506" lon="4.85463">
        <ele>275</ele>
        <time>2018-07-25T09:26:38Z</time>
      </trkpt>
      <trkpt lat="45.965" lon="4.85469">
        <ele>273</ele>
        <time>2018-07-25T09:26:39Z</time>
      </trkpt>
      <trkpt lat="45.96493" lon="4.85471">
        <ele>273</ele>
        <time>2018-07-25T09:26:40Z</time>
      </trkpt>
      <trkpt lat="45.96485" lon="4.85471">
        <ele>273</ele>
        <time>2018-07-25T09:26:42Z</time>
      </trkpt>
      <trkpt lat="45.96481" lon="4.85471">
        <ele>273</ele>
        <time>2018-07-25T09:26:43Z</time>
      </trkpt>
      <trkpt lat="45.96473" lon="4.85472">
        <ele>272</ele>
        <time>2018-07-25T09:26:47Z</time>
      </trkpt>
      <trkpt lat="45.9647" lon="4.85472">
        <ele>272</ele>
        <time>2018-07-25T09:26:48Z</time>
      </trkpt>
      <trkpt lat="45.96468" lon="4.85472">
        <ele>272</ele>
        <time>2018-07-25T09:26:49Z</time>
      </trkpt>
      <trkpt lat="45.96459" lon="4.85472">
        <ele>272</ele>
        <time>2018-07-25T09:26:50Z</time>
      </trkpt>
      <trkpt lat="45.9645" lon="4.85473">
        <ele>272</ele>
        <time>2018-07-25T09:26:52Z</time>
      </trkpt>
      <trkpt lat="45.96446" lon="4.8547">
        <ele>272</ele>
        <time>2018-07-25T09:26:53Z</time>
      </trkpt>
      <trkpt lat="45.96442" lon="4.8547">
        <ele>272</ele>
        <time>2018-07-25T09:26:54Z</time>
      </trkpt>
      <trkpt lat="45.96436" lon="4.85468">
        <ele>271</ele>
        <time>2018-07-25T09:26:55Z</time>
      </trkpt>
      <trkpt lat="45.96431" lon="4.85469">
        <ele>271</ele>
        <time>2018-07-25T09:26:56Z</time>
      </trkpt>
      <trkpt lat="45.96425" lon="4.85468">
        <ele>271</ele>
        <time>2018-07-25T09:26:57Z</time>
      </trkpt>
      <trkpt lat="45.9642" lon="4.85469">
        <ele>271</ele>
        <time>2018-07-25T09:26:58Z</time>
      </trkpt>
      <trkpt lat="45.96413" lon="4.85466">
        <ele>269</ele>
        <time>2018-07-25T09:26:59Z</time>
      </trkpt>
      <trkpt lat="45.96408" lon="4.85469">
        <ele>269</ele>
        <time>2018-07-25T09:27:00Z</time>
      </trkpt>
      <trkpt lat="45.96403" lon="4.85469">
        <ele>269</ele>
        <time>2018-07-25T09:27:01Z</time>
      </trkpt>
      <trkpt lat="45.96396" lon="4.8547">
        <ele>269</ele>
        <time>2018-07-25T09:27:02Z</time>
      </trkpt>
      <trkpt lat="45.9639" lon="4.85468">
        <ele>269</ele>
        <time>2018-07-25T09:27:03Z</time>
      </trkpt>
      <trkpt lat="45.96382" lon="4.85471">
        <ele>268</ele>
        <time>2018-07-25T09:27:04Z</time>
      </trkpt>
      <trkpt lat="45.96377" lon="4.85466">
        <ele>268</ele>
        <time>2018-07-25T09:27:05Z</time>
      </trkpt>
      <trkpt lat="45.96373" lon="4.85463">
        <ele>268</ele>
        <time>2018-07-25T09:27:06Z</time>
      </trkpt>
      <trkpt lat="45.96365" lon="4.85462">
        <ele>268</ele>
        <time>2018-07-25T09:27:07Z</time>
      </trkpt>
      <trkpt lat="45.96357" lon="4.85463">
        <ele>268</ele>
        <time>2018-07-25T09:27:08Z</time>
      </trkpt>
      <trkpt lat="45.96349" lon="4.85463">
        <ele>268</ele>
        <time>2018-07-25T09:27:09Z</time>
      </trkpt>
      <trkpt lat="45.96339" lon="4.8546">
        <ele>268</ele>
        <time>2018-07-25T09:27:10Z</time>
      </trkpt>
      <trkpt lat="45.9633" lon="4.8546">
        <ele>265</ele>
        <time>2018-07-25T09:27:11Z</time>
      </trkpt>
      <trkpt lat="45.96324" lon="4.8546">
        <ele>265</ele>
        <time>2018-07-25T09:27:12Z</time>
      </trkpt>
      <trkpt lat="45.96317" lon="4.85458">
        <ele>265</ele>
        <time>2018-07-25T09:27:13Z</time>
      </trkpt>
      <trkpt lat="45.96309" lon="4.85457">
        <ele>265</ele>
        <time>2018-07-25T09:27:14Z</time>
      </trkpt>
      <trkpt lat="45.96299" lon="4.85456">
        <ele>265</ele>
        <time>2018-07-25T09:27:15Z</time>
      </trkpt>
      <trkpt lat="45.9629" lon="4.85454">
        <ele>265</ele>
        <time>2018-07-25T09:27:16Z</time>
      </trkpt>
      <trkpt lat="45.96284" lon="4.85453">
        <ele>265</ele>
        <time>2018-07-25T09:27:17Z</time>
      </trkpt>
      <trkpt lat="45.96276" lon="4.85451">
        <ele>264</ele>
        <time>2018-07-25T09:27:18Z</time>
      </trkpt>
      <trkpt lat="45.96268" lon="4.85447">
        <ele>264</ele>
        <time>2018-07-25T09:27:19Z</time>
      </trkpt>
      <trkpt lat="45.9626" lon="4.85444">
        <ele>264</ele>
        <time>2018-07-25T09:27:20Z</time>
      </trkpt>
      <trkpt lat="45.96252" lon="4.85442">
        <ele>264</ele>
        <time>2018-07-25T09:27:21Z</time>
      </trkpt>
      <trkpt lat="45.96243" lon="4.85439">
        <ele>261</ele>
        <time>2018-07-25T09:27:22Z</time>
      </trkpt>
      <trkpt lat="45.96234" lon="4.85436">
        <ele>261</ele>
        <time>2018-07-25T09:27:23Z</time>
      </trkpt>
      <trkpt lat="45.96225" lon="4.85433">
        <ele>261</ele>
        <time>2018-07-25T09:27:24Z</time>
      </trkpt>
      <trkpt lat="45.96216" lon="4.85429">
        <ele>261</ele>
        <time>2018-07-25T09:27:25Z</time>
      </trkpt>
      <trkpt lat="45.96207" lon="4.85422">
        <ele>260</ele>
        <time>2018-07-25T09:27:26Z</time>
      </trkpt>
      <trkpt lat="45.96199" lon="4.85416">
        <ele>258</ele>
        <time>2018-07-25T09:27:27Z</time>
      </trkpt>
      <trkpt lat="45.96191" lon="4.8541">
        <ele>258</ele>
        <time>2018-07-25T09:27:28Z</time>
      </trkpt>
      <trkpt lat="45.96183" lon="4.85402">
        <ele>258</ele>
        <time>2018-07-25T09:27:29Z</time>
      </trkpt>
      <trkpt lat="45.96175" lon="4.85395">
        <ele>258</ele>
        <time>2018-07-25T09:27:30Z</time>
      </trkpt>
      <trkpt lat="45.96166" lon="4.8539">
        <ele>258</ele>
        <time>2018-07-25T09:27:31Z</time>
      </trkpt>
      <trkpt lat="45.96159" lon="4.85386">
        <ele>258</ele>
        <time>2018-07-25T09:27:32Z</time>
      </trkpt>
      <trkpt lat="45.9615" lon="4.85383">
        <ele>258</ele>
        <time>2018-07-25T09:27:33Z</time>
      </trkpt>
      <trkpt lat="45.96143" lon="4.85377">
        <ele>258</ele>
        <time>2018-07-25T09:27:34Z</time>
      </trkpt>
      <trkpt lat="45.96135" lon="4.85373">
        <ele>258</ele>
        <time>2018-07-25T09:27:35Z</time>
      </trkpt>
      <trkpt lat="45.96127" lon="4.85371">
        <ele>258</ele>
        <time>2018-07-25T09:27:36Z</time>
      </trkpt>
      <trkpt lat="45.96119" lon="4.85367">
        <ele>258</ele>
        <time>2018-07-25T09:27:37Z</time>
      </trkpt>
      <trkpt lat="45.96112" lon="4.85363">
        <ele>259</ele>
        <time>2018-07-25T09:27:38Z</time>
      </trkpt>
      <trkpt lat="45.96105" lon="4.85359">
        <ele>259</ele>
        <time>2018-07-25T09:27:39Z</time>
      </trkpt>
      <trkpt lat="45.961" lon="4.85357">
        <ele>259</ele>
        <time>2018-07-25T09:27:40Z</time>
      </trkpt>
      <trkpt lat="45.96093" lon="4.85354">
        <ele>259</ele>
        <time>2018-07-25T09:27:41Z</time>
      </trkpt>
      <trkpt lat="45.96087" lon="4.85352">
        <ele>260</ele>
        <time>2018-07-25T09:27:42Z</time>
      </trkpt>
      <trkpt lat="45.96084" lon="4.85352">
        <ele>260</ele>
        <time>2018-07-25T09:27:43Z</time>
      </trkpt>
      <trkpt lat="45.96077" lon="4.85351">
        <ele>262</ele>
        <time>2018-07-25T09:27:44Z</time>
      </trkpt>
      <trkpt lat="45.96073" lon="4.85351">
        <ele>262</ele>
        <time>2018-07-25T09:27:45Z</time>
      </trkpt>
      <trkpt lat="45.96065" lon="4.85347">
        <ele>262</ele>
        <time>2018-07-25T09:27:47Z</time>
      </trkpt>
      <trkpt lat="45.96061" lon="4.85346">
        <ele>262</ele>
        <time>2018-07-25T09:27:48Z</time>
      </trkpt>
      <trkpt lat="45.96052" lon="4.85346">
        <ele>262</ele>
        <time>2018-07-25T09:27:50Z</time>
      </trkpt>
      <trkpt lat="45.96048" lon="4.85346">
        <ele>262</ele>
        <time>2018-07-25T09:27:51Z</time>
      </trkpt>
      <trkpt lat="45.96041" lon="4.85349">
        <ele>262</ele>
        <time>2018-07-25T09:27:53Z</time>
      </trkpt>
      <trkpt lat="45.96038" lon="4.85349">
        <ele>263</ele>
        <time>2018-07-25T09:27:54Z</time>
      </trkpt>
      <trkpt lat="45.96029" lon="4.8535">
        <ele>263</ele>
        <time>2018-07-25T09:27:56Z</time>
      </trkpt>
      <trkpt lat="45.96025" lon="4.8535">
        <ele>263</ele>
        <time>2018-07-25T09:27:57Z</time>
      </trkpt>
      <trkpt lat="45.96017" lon="4.85349">
        <ele>263</ele>
        <time>2018-07-25T09:27:59Z</time>
      </trkpt>
      <trkpt lat="45.96015" lon="4.8535">
        <ele>263</ele>
        <time>2018-07-25T09:28:00Z</time>
      </trkpt>
      <trkpt lat="45.96013" lon="4.8535">
        <ele>263</ele>
        <time>2018-07-25T09:28:01Z</time>
      </trkpt>
      <trkpt lat="45.96006" lon="4.85351">
        <ele>264</ele>
        <time>2018-07-25T09:28:02Z</time>
      </trkpt>
      <trkpt lat="45.96002" lon="4.85352">
        <ele>264</ele>
        <time>2018-07-25T09:28:04Z</time>
      </trkpt>
      <trkpt lat="45.95996" lon="4.85353">
        <ele>265</ele>
        <time>2018-07-25T09:28:05Z</time>
      </trkpt>
      <trkpt lat="45.95988" lon="4.85351">
        <ele>265</ele>
        <time>2018-07-25T09:28:09Z</time>
      </trkpt>
      <trkpt lat="45.95985" lon="4.85351">
        <ele>265</ele>
        <time>2018-07-25T09:28:10Z</time>
      </trkpt>
      <trkpt lat="45.95977" lon="4.8535">
        <ele>265</ele>
        <time>2018-07-25T09:28:13Z</time>
      </trkpt>
      <trkpt lat="45.95974" lon="4.8535">
        <ele>265</ele>
        <time>2018-07-25T09:28:14Z</time>
      </trkpt>
      <trkpt lat="45.95968" lon="4.8535">
        <ele>265</ele>
        <time>2018-07-25T09:28:16Z</time>
      </trkpt>
      <trkpt lat="45.95965" lon="4.85349">
        <ele>265</ele>
        <time>2018-07-25T09:28:17Z</time>
      </trkpt>
      <trkpt lat="45.95959" lon="4.85349">
        <ele>265</ele>
        <time>2018-07-25T09:28:19Z</time>
      </trkpt>
      <trkpt lat="45.95956" lon="4.85349">
        <ele>266</ele>
        <time>2018-07-25T09:28:20Z</time>
      </trkpt>
      <trkpt lat="45.95949" lon="4.85349">
        <ele>266</ele>
        <time>2018-07-25T09:28:22Z</time>
      </trkpt>
      <trkpt lat="45.95946" lon="4.85349">
        <ele>266</ele>
        <time>2018-07-25T09:28:23Z</time>
      </trkpt>
      <trkpt lat="45.95939" lon="4.85349">
        <ele>266</ele>
        <time>2018-07-25T09:28:25Z</time>
      </trkpt>
      <trkpt lat="45.95936" lon="4.85349">
        <ele>266</ele>
        <time>2018-07-25T09:28:26Z</time>
      </trkpt>
      <trkpt lat="45.95929" lon="4.85347">
        <ele>266</ele>
        <time>2018-07-25T09:28:28Z</time>
      </trkpt>
      <trkpt lat="45.95926" lon="4.85346">
        <ele>266</ele>
        <time>2018-07-25T09:28:29Z</time>
      </trkpt>
      <trkpt lat="45.95919" lon="4.85344">
        <ele>266</ele>
        <time>2018-07-25T09:28:31Z</time>
      </trkpt>
      <trkpt lat="45.95916" lon="4.85343">
        <ele>267</ele>
        <time>2018-07-25T09:28:32Z</time>
      </trkpt>
      <trkpt lat="45.95911" lon="4.8534">
        <ele>267</ele>
        <time>2018-07-25T09:28:34Z</time>
      </trkpt>
      <trkpt lat="45.95908" lon="4.85338">
        <ele>267</ele>
        <time>2018-07-25T09:28:35Z</time>
      </trkpt>
      <trkpt lat="45.95899" lon="4.85333">
        <ele>268</ele>
        <time>2018-07-25T09:28:36Z</time>
      </trkpt>
      <trkpt lat="45.95894" lon="4.85328">
        <ele>268</ele>
        <time>2018-07-25T09:28:38Z</time>
      </trkpt>
      <trkpt lat="45.95891" lon="4.85325">
        <ele>269</ele>
        <time>2018-07-25T09:28:39Z</time>
      </trkpt>
      <trkpt lat="45.95884" lon="4.85317">
        <ele>269</ele>
        <time>2018-07-25T09:28:42Z</time>
      </trkpt>
      <trkpt lat="45.9588" lon="4.85312">
        <ele>269</ele>
        <time>2018-07-25T09:28:43Z</time>
      </trkpt>
      <trkpt lat="45.95875" lon="4.85305">
        <ele>269</ele>
        <time>2018-07-25T09:28:45Z</time>
      </trkpt>
      <trkpt lat="45.95872" lon="4.85301">
        <ele>269</ele>
        <time>2018-07-25T09:28:46Z</time>
      </trkpt>
      <trkpt lat="45.95867" lon="4.85294">
        <ele>269</ele>
        <time>2018-07-25T09:28:49Z</time>
      </trkpt>
      <trkpt lat="45.95862" lon="4.85286">
        <ele>270</ele>
        <time>2018-07-25T09:28:50Z</time>
      </trkpt>
      <trkpt lat="45.95859" lon="4.85279">
        <ele>270</ele>
        <time>2018-07-25T09:28:52Z</time>
      </trkpt>
      <trkpt lat="45.95856" lon="4.85272">
        <ele>270</ele>
        <time>2018-07-25T09:28:53Z</time>
      </trkpt>
      <trkpt lat="45.95852" lon="4.85263">
        <ele>270</ele>
        <time>2018-07-25T09:28:55Z</time>
      </trkpt>
      <trkpt lat="45.95851" lon="4.85261">
        <ele>270</ele>
        <time>2018-07-25T09:28:56Z</time>
      </trkpt>
      <trkpt lat="45.95848" lon="4.85254">
        <ele>271</ele>
        <time>2018-07-25T09:28:57Z</time>
      </trkpt>
      <trkpt lat="45.95845" lon="4.8525">
        <ele>271</ele>
        <time>2018-07-25T09:28:58Z</time>
      </trkpt>
      <trkpt lat="45.9584" lon="4.8524">
        <ele>271</ele>
        <time>2018-07-25T09:29:01Z</time>
      </trkpt>
      <trkpt lat="45.95839" lon="4.85238">
        <ele>271</ele>
        <time>2018-07-25T09:29:02Z</time>
      </trkpt>
      <trkpt lat="45.95838" lon="4.85234">
        <ele>271</ele>
        <time>2018-07-25T09:29:03Z</time>
      </trkpt>
      <trkpt lat="45.95833" lon="4.85224">
        <ele>274</ele>
        <time>2018-07-25T09:29:04Z</time>
      </trkpt>
      <trkpt lat="45.95828" lon="4.85216">
        <ele>274</ele>
        <time>2018-07-25T09:29:06Z</time>
      </trkpt>
      <trkpt lat="45.95825" lon="4.85212">
        <ele>275</ele>
        <time>2018-07-25T09:29:07Z</time>
      </trkpt>
      <trkpt lat="45.9582" lon="4.85204">
        <ele>275</ele>
        <time>2018-07-25T09:29:09Z</time>
      </trkpt>
      <trkpt lat="45.95817" lon="4.852">
        <ele>275</ele>
        <time>2018-07-25T09:29:10Z</time>
      </trkpt>
      <trkpt lat="45.95811" lon="4.85194">
        <ele>275</ele>
        <time>2018-07-25T09:29:12Z</time>
      </trkpt>
      <trkpt lat="45.95809" lon="4.85193">
        <ele>275</ele>
        <time>2018-07-25T09:29:13Z</time>
      </trkpt>
      <trkpt lat="45.95804" lon="4.85187">
        <ele>275</ele>
        <time>2018-07-25T09:29:16Z</time>
      </trkpt>
      <trkpt lat="45.95802" lon="4.85184">
        <ele>275</ele>
        <time>2018-07-25T09:29:17Z</time>
      </trkpt>
      <trkpt lat="45.95796" lon="4.85176">
        <ele>275</ele>
        <time>2018-07-25T09:29:18Z</time>
      </trkpt>
      <trkpt lat="45.95795" lon="4.85175">
        <ele>275</ele>
        <time>2018-07-25T09:29:19Z</time>
      </trkpt>
      <trkpt lat="45.95788" lon="4.85167">
        <ele>276</ele>
        <time>2018-07-25T09:29:21Z</time>
      </trkpt>
      <trkpt lat="45.95785" lon="4.85164">
        <ele>275</ele>
        <time>2018-07-25T09:29:22Z</time>
      </trkpt>
      <trkpt lat="45.95781" lon="4.85157">
        <ele>275</ele>
        <time>2018-07-25T09:29:24Z</time>
      </trkpt>
      <trkpt lat="45.95778" lon="4.85152">
        <ele>276</ele>
        <time>2018-07-25T09:29:25Z</time>
      </trkpt>
      <trkpt lat="45.95772" lon="4.85143">
        <ele>276</ele>
        <time>2018-07-25T09:29:28Z</time>
      </trkpt>
      <trkpt lat="45.9577" lon="4.85141">
        <ele>276</ele>
        <time>2018-07-25T09:29:29Z</time>
      </trkpt>
      <trkpt lat="45.95763" lon="4.85137">
        <ele>276</ele>
        <time>2018-07-25T09:29:30Z</time>
      </trkpt>
      <trkpt lat="45.95762" lon="4.85135">
        <ele>276</ele>
        <time>2018-07-25T09:29:31Z</time>
      </trkpt>
      <trkpt lat="45.95757" lon="4.8513">
        <ele>276</ele>
        <time>2018-07-25T09:29:32Z</time>
      </trkpt>
      <trkpt lat="45.95755" lon="4.85126">
        <ele>276</ele>
        <time>2018-07-25T09:29:33Z</time>
      </trkpt>
      <trkpt lat="45.95749" lon="4.85117">
        <ele>279</ele>
        <time>2018-07-25T09:29:35Z</time>
      </trkpt>
      <trkpt lat="45.95748" lon="4.85115">
        <ele>279</ele>
        <time>2018-07-25T09:29:36Z</time>
      </trkpt>
      <trkpt lat="45.95745" lon="4.8511">
        <ele>279</ele>
        <time>2018-07-25T09:29:37Z</time>
      </trkpt>
      <trkpt lat="45.95742" lon="4.85106">
        <ele>279</ele>
        <time>2018-07-25T09:29:38Z</time>
      </trkpt>
      <trkpt lat="45.95737" lon="4.85098">
        <ele>279</ele>
        <time>2018-07-25T09:29:41Z</time>
      </trkpt>
      <trkpt lat="45.95736" lon="4.85095">
        <ele>279</ele>
        <time>2018-07-25T09:29:42Z</time>
      </trkpt>
      <trkpt lat="45.95734" lon="4.85091">
        <ele>279</ele>
        <time>2018-07-25T09:29:43Z</time>
      </trkpt>
      <trkpt lat="45.95729" lon="4.85081">
        <ele>277</ele>
        <time>2018-07-25T09:29:44Z</time>
      </trkpt>
      <trkpt lat="45.95726" lon="4.85076">
        <ele>277</ele>
        <time>2018-07-25T09:29:45Z</time>
      </trkpt>
      <trkpt lat="45.95722" lon="4.85071">
        <ele>277</ele>
        <time>2018-07-25T09:29:46Z</time>
      </trkpt>
      <trkpt lat="45.95719" lon="4.85066">
        <ele>277</ele>
        <time>2018-07-25T09:29:47Z</time>
      </trkpt>
      <trkpt lat="45.95716" lon="4.85061">
        <ele>277</ele>
        <time>2018-07-25T09:29:48Z</time>
      </trkpt>
      <trkpt lat="45.95712" lon="4.85056">
        <ele>277</ele>
        <time>2018-07-25T09:29:49Z</time>
      </trkpt>
      <trkpt lat="45.95709" lon="4.85051">
        <ele>276</ele>
        <time>2018-07-25T09:29:50Z</time>
      </trkpt>
      <trkpt lat="45.95705" lon="4.85046">
        <ele>276</ele>
        <time>2018-07-25T09:29:51Z</time>
      </trkpt>
      <trkpt lat="45.95701" lon="4.85041">
        <ele>276</ele>
        <time>2018-07-25T09:29:52Z</time>
      </trkpt>
      <trkpt lat="45.95697" lon="4.85037">
        <ele>276</ele>
        <time>2018-07-25T09:29:53Z</time>
      </trkpt>
      <trkpt lat="45.95694" lon="4.85032">
        <ele>276</ele>
        <time>2018-07-25T09:29:54Z</time>
      </trkpt>
      <trkpt lat="45.95691" lon="4.85028">
        <ele>276</ele>
        <time>2018-07-25T09:29:55Z</time>
      </trkpt>
      <trkpt lat="45.95688" lon="4.85023">
        <ele>275</ele>
        <time>2018-07-25T09:29:56Z</time>
      </trkpt>
      <trkpt lat="45.95683" lon="4.85018">
        <ele>275</ele>
        <time>2018-07-25T09:29:57Z</time>
      </trkpt>
      <trkpt lat="45.95681" lon="4.85012">
        <ele>275</ele>
        <time>2018-07-25T09:29:58Z</time>
      </trkpt>
      <trkpt lat="45.95677" lon="4.85007">
        <ele>274</ele>
        <time>2018-07-25T09:29:59Z</time>
      </trkpt>
      <trkpt lat="45.95673" lon="4.85001">
        <ele>274</ele>
        <time>2018-07-25T09:30:00Z</time>
      </trkpt>
      <trkpt lat="45.9567" lon="4.84995">
        <ele>273</ele>
        <time>2018-07-25T09:30:01Z</time>
      </trkpt>
      <trkpt lat="45.95665" lon="4.84989">
        <ele>272</ele>
        <time>2018-07-25T09:30:02Z</time>
      </trkpt>
      <trkpt lat="45.95662" lon="4.84984">
        <ele>272</ele>
        <time>2018-07-25T09:30:03Z</time>
      </trkpt>
      <trkpt lat="45.95656" lon="4.84978">
        <ele>272</ele>
        <time>2018-07-25T09:30:04Z</time>
      </trkpt>
      <trkpt lat="45.95651" lon="4.84973">
        <ele>271</ele>
        <time>2018-07-25T09:30:05Z</time>
      </trkpt>
      <trkpt lat="45.95646" lon="4.84967">
        <ele>271</ele>
        <time>2018-07-25T09:30:06Z</time>
      </trkpt>
      <trkpt lat="45.95641" lon="4.84962">
        <ele>271</ele>
        <time>2018-07-25T09:30:07Z</time>
      </trkpt>
      <trkpt lat="45.95638" lon="4.84957">
        <ele>271</ele>
        <time>2018-07-25T09:30:08Z</time>
      </trkpt>
      <trkpt lat="45.95632" lon="4.84953">
        <ele>271</ele>
        <time>2018-07-25T09:30:09Z</time>
      </trkpt>
      <trkpt lat="45.95625" lon="4.84949">
        <ele>271</ele>
        <time>2018-07-25T09:30:10Z</time>
      </trkpt>
      <trkpt lat="45.9562" lon="4.84945">
        <ele>271</ele>
        <time>2018-07-25T09:30:11Z</time>
      </trkpt>
      <trkpt lat="45.95616" lon="4.84941">
        <ele>270</ele>
        <time>2018-07-25T09:30:12Z</time>
      </trkpt>
      <trkpt lat="45.9561" lon="4.84938">
        <ele>270</ele>
        <time>2018-07-25T09:30:13Z</time>
      </trkpt>
      <trkpt lat="45.95606" lon="4.84934">
        <ele>270</ele>
        <time>2018-07-25T09:30:14Z</time>
      </trkpt>
      <trkpt lat="45.95601" lon="4.8493">
        <ele>270</ele>
        <time>2018-07-25T09:30:15Z</time>
      </trkpt>
      <trkpt lat="45.95594" lon="4.84926">
        <ele>270</ele>
        <time>2018-07-25T09:30:16Z</time>
      </trkpt>
      <trkpt lat="45.95589" lon="4.84923">
        <ele>269</ele>
        <time>2018-07-25T09:30:17Z</time>
      </trkpt>
      <trkpt lat="45.95584" lon="4.84919">
        <ele>269</ele>
        <time>2018-07-25T09:30:18Z</time>
      </trkpt>
      <trkpt lat="45.95579" lon="4.84915">
        <ele>269</ele>
        <time>2018-07-25T09:30:19Z</time>
      </trkpt>
      <trkpt lat="45.95574" lon="4.84911">
        <ele>269</ele>
        <time>2018-07-25T09:30:20Z</time>
      </trkpt>
      <trkpt lat="45.95569" lon="4.84906">
        <ele>268</ele>
        <time>2018-07-25T09:30:21Z</time>
      </trkpt>
      <trkpt lat="45.95564" lon="4.84902">
        <ele>268</ele>
        <time>2018-07-25T09:30:22Z</time>
      </trkpt>
      <trkpt lat="45.95558" lon="4.84898">
        <ele>268</ele>
        <time>2018-07-25T09:30:23Z</time>
      </trkpt>
      <trkpt lat="45.95553" lon="4.84894">
        <ele>268</ele>
        <time>2018-07-25T09:30:24Z</time>
      </trkpt>
      <trkpt lat="45.95549" lon="4.8489">
        <ele>268</ele>
        <time>2018-07-25T09:30:25Z</time>
      </trkpt>
      <trkpt lat="45.95545" lon="4.84886">
        <ele>268</ele>
        <time>2018-07-25T09:30:26Z</time>
      </trkpt>
      <trkpt lat="45.9554" lon="4.84882">
        <ele>268</ele>
        <time>2018-07-25T09:30:27Z</time>
      </trkpt>
      <trkpt lat="45.95535" lon="4.84879">
        <ele>268</ele>
        <time>2018-07-25T09:30:28Z</time>
      </trkpt>
      <trkpt lat="45.95531" lon="4.84873">
        <ele>268</ele>
        <time>2018-07-25T09:30:29Z</time>
      </trkpt>
      <trkpt lat="45.95526" lon="4.84868">
        <ele>268</ele>
        <time>2018-07-25T09:30:30Z</time>
      </trkpt>
      <trkpt lat="45.95521" lon="4.84862">
        <ele>268</ele>
        <time>2018-07-25T09:30:31Z</time>
      </trkpt>
      <trkpt lat="45.95516" lon="4.84857">
        <ele>268</ele>
        <time>2018-07-25T09:30:32Z</time>
      </trkpt>
      <trkpt lat="45.95511" lon="4.84851">
        <ele>268</ele>
        <time>2018-07-25T09:30:33Z</time>
      </trkpt>
      <trkpt lat="45.95506" lon="4.84846">
        <ele>267</ele>
        <time>2018-07-25T09:30:34Z</time>
      </trkpt>
      <trkpt lat="45.95501" lon="4.8484">
        <ele>267</ele>
        <time>2018-07-25T09:30:35Z</time>
      </trkpt>
      <trkpt lat="45.95496" lon="4.84836">
        <ele>267</ele>
        <time>2018-07-25T09:30:36Z</time>
      </trkpt>
      <trkpt lat="45.95491" lon="4.84829">
        <ele>267</ele>
        <time>2018-07-25T09:30:37Z</time>
      </trkpt>
      <trkpt lat="45.95487" lon="4.84822">
        <ele>267</ele>
        <time>2018-07-25T09:30:38Z</time>
      </trkpt>
      <trkpt lat="45.95482" lon="4.84817">
        <ele>267</ele>
        <time>2018-07-25T09:30:39Z</time>
      </trkpt>
      <trkpt lat="45.95476" lon="4.84812">
        <ele>267</ele>
        <time>2018-07-25T09:30:40Z</time>
      </trkpt>
      <trkpt lat="45.95472" lon="4.84806">
        <ele>267</ele>
        <time>2018-07-25T09:30:41Z</time>
      </trkpt>
      <trkpt lat="45.95466" lon="4.84801">
        <ele>267</ele>
        <time>2018-07-25T09:30:42Z</time>
      </trkpt>
      <trkpt lat="45.95462" lon="4.84796">
        <ele>267</ele>
        <time>2018-07-25T09:30:43Z</time>
      </trkpt>
      <trkpt lat="45.95458" lon="4.8479">
        <ele>267</ele>
        <time>2018-07-25T09:30:44Z</time>
      </trkpt>
      <trkpt lat="45.95454" lon="4.84784">
        <ele>267</ele>
        <time>2018-07-25T09:30:45Z</time>
      </trkpt>
      <trkpt lat="45.95449" lon="4.84779">
        <ele>267</ele>
        <time>2018-07-25T09:30:46Z</time>
      </trkpt>
      <trkpt lat="45.95444" lon="4.84773">
        <ele>267</ele>
        <time>2018-07-25T09:30:47Z</time>
      </trkpt>
      <trkpt lat="45.95439" lon="4.84767">
        <ele>267</ele>
        <time>2018-07-25T09:30:48Z</time>
      </trkpt>
      <trkpt lat="45.95434" lon="4.84762">
        <ele>267</ele>
        <time>2018-07-25T09:30:49Z</time>
      </trkpt>
      <trkpt lat="45.9543" lon="4.84758">
        <ele>267</ele>
        <time>2018-07-25T09:30:50Z</time>
      </trkpt>
      <trkpt lat="45.95424" lon="4.84753">
        <ele>267</ele>
        <time>2018-07-25T09:30:51Z</time>
      </trkpt>
      <trkpt lat="45.95418" lon="4.84747">
        <ele>267</ele>
        <time>2018-07-25T09:30:52Z</time>
      </trkpt>
      <trkpt lat="45.95413" lon="4.84743">
        <ele>267</ele>
        <time>2018-07-25T09:30:53Z</time>
      </trkpt>
      <trkpt lat="45.95409" lon="4.84738">
        <ele>267</ele>
        <time>2018-07-25T09:30:54Z</time>
      </trkpt>
      <trkpt lat="45.95403" lon="4.84733">
        <ele>266</ele>
        <time>2018-07-25T09:30:55Z</time>
      </trkpt>
      <trkpt lat="45.95397" lon="4.84728">
        <ele>266</ele>
        <time>2018-07-25T09:30:56Z</time>
      </trkpt>
      <trkpt lat="45.95392" lon="4.84723">
        <ele>266</ele>
        <time>2018-07-25T09:30:57Z</time>
      </trkpt>
      <trkpt lat="45.95385" lon="4.84718">
        <ele>266</ele>
        <time>2018-07-25T09:30:58Z</time>
      </trkpt>
      <trkpt lat="45.95379" lon="4.84713">
        <ele>266</ele>
        <time>2018-07-25T09:30:59Z</time>
      </trkpt>
      <trkpt lat="45.95374" lon="4.84707">
        <ele>266</ele>
        <time>2018-07-25T09:31:00Z</time>
      </trkpt>
      <trkpt lat="45.95368" lon="4.84703">
        <ele>266</ele>
        <time>2018-07-25T09:31:01Z</time>
      </trkpt>
      <trkpt lat="45.95363" lon="4.84698">
        <ele>266</ele>
        <time>2018-07-25T09:31:02Z</time>
      </trkpt>
      <trkpt lat="45.95357" lon="4.84693">
        <ele>266</ele>
        <time>2018-07-25T09:31:03Z</time>
      </trkpt>
      <trkpt lat="45.95352" lon="4.84689">
        <ele>266</ele>
        <time>2018-07-25T09:31:04Z</time>
      </trkpt>
      <trkpt lat="45.95344" lon="4.84684">
        <ele>266</ele>
        <time>2018-07-25T09:31:05Z</time>
      </trkpt>
      <trkpt lat="45.95339" lon="4.84679">
        <ele>265</ele>
        <time>2018-07-25T09:31:06Z</time>
      </trkpt>
      <trkpt lat="45.95332" lon="4.84674">
        <ele>265</ele>
        <time>2018-07-25T09:31:07Z</time>
      </trkpt>
      <trkpt lat="45.95326" lon="4.84669">
        <ele>265</ele>
        <time>2018-07-25T09:31:08Z</time>
      </trkpt>
      <trkpt lat="45.9532" lon="4.84664">
        <ele>265</ele>
        <time>2018-07-25T09:31:09Z</time>
      </trkpt>
      <trkpt lat="45.95314" lon="4.84659">
        <ele>265</ele>
        <time>2018-07-25T09:31:10Z</time>
      </trkpt>
      <trkpt lat="45.95309" lon="4.84655">
        <ele>265</ele>
        <time>2018-07-25T09:31:11Z</time>
      </trkpt>
      <trkpt lat="45.95304" lon="4.8465">
        <ele>264</ele>
        <time>2018-07-25T09:31:12Z</time>
      </trkpt>
      <trkpt lat="45.95299" lon="4.84645">
        <ele>264</ele>
        <time>2018-07-25T09:31:13Z</time>
      </trkpt>
      <trkpt lat="45.95292" lon="4.84641">
        <ele>264</ele>
        <time>2018-07-25T09:31:14Z</time>
      </trkpt>
      <trkpt lat="45.95287" lon="4.84635">
        <ele>264</ele>
        <time>2018-07-25T09:31:15Z</time>
      </trkpt>
      <trkpt lat="45.95282" lon="4.84629">
        <ele>264</ele>
        <time>2018-07-25T09:31:16Z</time>
      </trkpt>
      <trkpt lat="45.95277" lon="4.84624">
        <ele>264</ele>
        <time>2018-07-25T09:31:17Z</time>
      </trkpt>
      <trkpt lat="45.95269" lon="4.8462">
        <ele>264</ele>
        <time>2018-07-25T09:31:18Z</time>
      </trkpt>
      <trkpt lat="45.95265" lon="4.84616">
        <ele>264</ele>
        <time>2018-07-25T09:31:19Z</time>
      </trkpt>
      <trkpt lat="45.9526" lon="4.8461">
        <ele>264</ele>
        <time>2018-07-25T09:31:20Z</time>
      </trkpt>
      <trkpt lat="45.95256" lon="4.84604">
        <ele>264</ele>
        <time>2018-07-25T09:31:21Z</time>
      </trkpt>
      <trkpt lat="45.95253" lon="4.84598">
        <ele>264</ele>
        <time>2018-07-25T09:31:22Z</time>
      </trkpt>
      <trkpt lat="45.95248" lon="4.84593">
        <ele>264</ele>
        <time>2018-07-25T09:31:23Z</time>
      </trkpt>
      <trkpt lat="45.95243" lon="4.84588">
        <ele>264</ele>
        <time>2018-07-25T09:31:24Z</time>
      </trkpt>
      <trkpt lat="45.95239" lon="4.84583">
        <ele>264</ele>
        <time>2018-07-25T09:31:25Z</time>
      </trkpt>
      <trkpt lat="45.95235" lon="4.84577">
        <ele>264</ele>
        <time>2018-07-25T09:31:26Z</time>
      </trkpt>
      <trkpt lat="45.95231" lon="4.84572">
        <ele>264</ele>
        <time>2018-07-25T09:31:27Z</time>
      </trkpt>
      <trkpt lat="45.95225" lon="4.84567">
        <ele>264</ele>
        <time>2018-07-25T09:31:28Z</time>
      </trkpt>
      <trkpt lat="45.95219" lon="4.84561">
        <ele>264</ele>
        <time>2018-07-25T09:31:29Z</time>
      </trkpt>
      <trkpt lat="45.95215" lon="4.84557">
        <ele>264</ele>
        <time>2018-07-25T09:31:30Z</time>
      </trkpt>
      <trkpt lat="45.9521" lon="4.84551">
        <ele>264</ele>
        <time>2018-07-25T09:31:31Z</time>
      </trkpt>
      <trkpt lat="45.95206" lon="4.84544">
        <ele>264</ele>
        <time>2018-07-25T09:31:32Z</time>
      </trkpt>
      <trkpt lat="45.95201" lon="4.84538">
        <ele>265</ele>
        <time>2018-07-25T09:31:33Z</time>
      </trkpt>
      <trkpt lat="45.95195" lon="4.84531">
        <ele>265</ele>
        <time>2018-07-25T09:31:34Z</time>
      </trkpt>
      <trkpt lat="45.9519" lon="4.84525">
        <ele>265</ele>
        <time>2018-07-25T09:31:35Z</time>
      </trkpt>
      <trkpt lat="45.95186" lon="4.84518">
        <ele>265</ele>
        <time>2018-07-25T09:31:36Z</time>
      </trkpt>
      <trkpt lat="45.95183" lon="4.84512">
        <ele>265</ele>
        <time>2018-07-25T09:31:37Z</time>
      </trkpt>
      <trkpt lat="45.95179" lon="4.84507">
        <ele>265</ele>
        <time>2018-07-25T09:31:38Z</time>
      </trkpt>
      <trkpt lat="45.95175" lon="4.84501">
        <ele>266</ele>
        <time>2018-07-25T09:31:39Z</time>
      </trkpt>
      <trkpt lat="45.95171" lon="4.84495">
        <ele>266</ele>
        <time>2018-07-25T09:31:40Z</time>
      </trkpt>
      <trkpt lat="45.95166" lon="4.8449">
        <ele>266</ele>
        <time>2018-07-25T09:31:41Z</time>
      </trkpt>
      <trkpt lat="45.95163" lon="4.84485">
        <ele>266</ele>
        <time>2018-07-25T09:31:42Z</time>
      </trkpt>
      <trkpt lat="45.95159" lon="4.84479">
        <ele>266</ele>
        <time>2018-07-25T09:31:43Z</time>
      </trkpt>
      <trkpt lat="45.95154" lon="4.84475">
        <ele>266</ele>
        <time>2018-07-25T09:31:44Z</time>
      </trkpt>
      <trkpt lat="45.9515" lon="4.8447">
        <ele>266</ele>
        <time>2018-07-25T09:31:45Z</time>
      </trkpt>
      <trkpt lat="45.95145" lon="4.84465">
        <ele>266</ele>
        <time>2018-07-25T09:31:46Z</time>
      </trkpt>
      <trkpt lat="45.95141" lon="4.8446">
        <ele>266</ele>
        <time>2018-07-25T09:31:47Z</time>
      </trkpt>
      <trkpt lat="45.95137" lon="4.84456">
        <ele>267</ele>
        <time>2018-07-25T09:31:48Z</time>
      </trkpt>
      <trkpt lat="45.95133" lon="4.84452">
        <ele>267</ele>
        <time>2018-07-25T09:31:49Z</time>
      </trkpt>
      <trkpt lat="45.95128" lon="4.84447">
        <ele>267</ele>
        <time>2018-07-25T09:31:50Z</time>
      </trkpt>
      <trkpt lat="45.95123" lon="4.84442">
        <ele>267</ele>
        <time>2018-07-25T09:31:51Z</time>
      </trkpt>
      <trkpt lat="45.95118" lon="4.84437">
        <ele>267</ele>
        <time>2018-07-25T09:31:52Z</time>
      </trkpt>
      <trkpt lat="45.95112" lon="4.84431">
        <ele>267</ele>
        <time>2018-07-25T09:31:53Z</time>
      </trkpt>
      <trkpt lat="45.95107" lon="4.84426">
        <ele>267</ele>
        <time>2018-07-25T09:31:54Z</time>
      </trkpt>
      <trkpt lat="45.95102" lon="4.84422">
        <ele>267</ele>
        <time>2018-07-25T09:31:55Z</time>
      </trkpt>
      <trkpt lat="45.95097" lon="4.84417">
        <ele>267</ele>
        <time>2018-07-25T09:31:56Z</time>
      </trkpt>
      <trkpt lat="45.95092" lon="4.84411">
        <ele>267</ele>
        <time>2018-07-25T09:31:57Z</time>
      </trkpt>
      <trkpt lat="45.95087" lon="4.84407">
        <ele>267</ele>
        <time>2018-07-25T09:31:58Z</time>
      </trkpt>
      <trkpt lat="45.95083" lon="4.84402">
        <ele>267</ele>
        <time>2018-07-25T09:31:59Z</time>
      </trkpt>
      <trkpt lat="45.95079" lon="4.84397">
        <ele>267</ele>
        <time>2018-07-25T09:32:00Z</time>
      </trkpt>
      <trkpt lat="45.95076" lon="4.84392">
        <ele>267</ele>
        <time>2018-07-25T09:32:01Z</time>
      </trkpt>
      <trkpt lat="45.95071" lon="4.84388">
        <ele>267</ele>
        <time>2018-07-25T09:32:02Z</time>
      </trkpt>
      <trkpt lat="45.95067" lon="4.84383">
        <ele>267</ele>
        <time>2018-07-25T09:32:03Z</time>
      </trkpt>
      <trkpt lat="45.95064" lon="4.84379">
        <ele>267</ele>
        <time>2018-07-25T09:32:04Z</time>
      </trkpt>
      <trkpt lat="45.9506" lon="4.84375">
        <ele>267</ele>
        <time>2018-07-25T09:32:05Z</time>
      </trkpt>
      <trkpt lat="45.95056" lon="4.8437">
        <ele>267</ele>
        <time>2018-07-25T09:32:06Z</time>
      </trkpt>
      <trkpt lat="45.95053" lon="4.84364">
        <ele>267</ele>
        <time>2018-07-25T09:32:07Z</time>
      </trkpt>
      <trkpt lat="45.9505" lon="4.8436">
        <ele>267</ele>
        <time>2018-07-25T09:32:08Z</time>
      </trkpt>
      <trkpt lat="45.95046" lon="4.84354">
        <ele>267</ele>
        <time>2018-07-25T09:32:09Z</time>
      </trkpt>
      <trkpt lat="45.95042" lon="4.84348">
        <ele>267</ele>
        <time>2018-07-25T09:32:10Z</time>
      </trkpt>
      <trkpt lat="45.9504" lon="4.84342">
        <ele>267</ele>
        <time>2018-07-25T09:32:11Z</time>
      </trkpt>
      <trkpt lat="45.95036" lon="4.84337">
        <ele>267</ele>
        <time>2018-07-25T09:32:12Z</time>
      </trkpt>
      <trkpt lat="45.95032" lon="4.8433">
        <ele>267</ele>
        <time>2018-07-25T09:32:13Z</time>
      </trkpt>
      <trkpt lat="45.95031" lon="4.84324">
        <ele>267</ele>
        <time>2018-07-25T09:32:14Z</time>
      </trkpt>
      <trkpt lat="45.95027" lon="4.84317">
        <ele>267</ele>
        <time>2018-07-25T09:32:15Z</time>
      </trkpt>
      <trkpt lat="45.95024" lon="4.84312">
        <ele>267</ele>
        <time>2018-07-25T09:32:16Z</time>
      </trkpt>
      <trkpt lat="45.9502" lon="4.84306">
        <ele>267</ele>
        <time>2018-07-25T09:32:17Z</time>
      </trkpt>
      <trkpt lat="45.95018" lon="4.84301">
        <ele>267</ele>
        <time>2018-07-25T09:32:18Z</time>
      </trkpt>
      <trkpt lat="45.95015" lon="4.84295">
        <ele>267</ele>
        <time>2018-07-25T09:32:19Z</time>
      </trkpt>
      <trkpt lat="45.9501" lon="4.84289">
        <ele>267</ele>
        <time>2018-07-25T09:32:20Z</time>
      </trkpt>
      <trkpt lat="45.95007" lon="4.84284">
        <ele>267</ele>
        <time>2018-07-25T09:32:21Z</time>
      </trkpt>
      <trkpt lat="45.95002" lon="4.84278">
        <ele>267</ele>
        <time>2018-07-25T09:32:22Z</time>
      </trkpt>
      <trkpt lat="45.94998" lon="4.84271">
        <ele>267</ele>
        <time>2018-07-25T09:32:23Z</time>
      </trkpt>
      <trkpt lat="45.94995" lon="4.84264">
        <ele>267</ele>
        <time>2018-07-25T09:32:24Z</time>
      </trkpt>
      <trkpt lat="45.94992" lon="4.84258">
        <ele>267</ele>
        <time>2018-07-25T09:32:25Z</time>
      </trkpt>
      <trkpt lat="45.94988" lon="4.84253">
        <ele>267</ele>
        <time>2018-07-25T09:32:26Z</time>
      </trkpt>
      <trkpt lat="45.94985" lon="4.84249">
        <ele>267</ele>
        <time>2018-07-25T09:32:27Z</time>
      </trkpt>
      <trkpt lat="45.94981" lon="4.84243">
        <ele>267</ele>
        <time>2018-07-25T09:32:28Z</time>
      </trkpt>
      <trkpt lat="45.94977" lon="4.84238">
        <ele>267</ele>
        <time>2018-07-25T09:32:29Z</time>
      </trkpt>
      <trkpt lat="45.94973" lon="4.84232">
        <ele>267</ele>
        <time>2018-07-25T09:32:30Z</time>
      </trkpt>
      <trkpt lat="45.9497" lon="4.84227">
        <ele>267</ele>
        <time>2018-07-25T09:32:31Z</time>
      </trkpt>
      <trkpt lat="45.94966" lon="4.84221">
        <ele>267</ele>
        <time>2018-07-25T09:32:32Z</time>
      </trkpt>
      <trkpt lat="45.94962" lon="4.84215">
        <ele>267</ele>
        <time>2018-07-25T09:32:33Z</time>
      </trkpt>
      <trkpt lat="45.94957" lon="4.84209">
        <ele>267</ele>
        <time>2018-07-25T09:32:34Z</time>
      </trkpt>
      <trkpt lat="45.94954" lon="4.84204">
        <ele>267</ele>
        <time>2018-07-25T09:32:35Z</time>
      </trkpt>
      <trkpt lat="45.94951" lon="4.84197">
        <ele>267</ele>
        <time>2018-07-25T09:32:36Z</time>
      </trkpt>
      <trkpt lat="45.94947" lon="4.84192">
        <ele>267</ele>
        <time>2018-07-25T09:32:37Z</time>
      </trkpt>
      <trkpt lat="45.94944" lon="4.84185">
        <ele>267</ele>
        <time>2018-07-25T09:32:38Z</time>
      </trkpt>
      <trkpt lat="45.9494" lon="4.84178">
        <ele>267</ele>
        <time>2018-07-25T09:32:39Z</time>
      </trkpt>
      <trkpt lat="45.94936" lon="4.84172">
        <ele>267</ele>
        <time>2018-07-25T09:32:40Z</time>
      </trkpt>
      <trkpt lat="45.94933" lon="4.84166">
        <ele>268</ele>
        <time>2018-07-25T09:32:41Z</time>
      </trkpt>
      <trkpt lat="45.94929" lon="4.8416">
        <ele>268</ele>
        <time>2018-07-25T09:32:42Z</time>
      </trkpt>
      <trkpt lat="45.94922" lon="4.84155">
        <ele>268</ele>
        <time>2018-07-25T09:32:43Z</time>
      </trkpt>
      <trkpt lat="45.94918" lon="4.84149">
        <ele>268</ele>
        <time>2018-07-25T09:32:44Z</time>
      </trkpt>
      <trkpt lat="45.94914" lon="4.84143">
        <ele>268</ele>
        <time>2018-07-25T09:32:45Z</time>
      </trkpt>
      <trkpt lat="45.94911" lon="4.84137">
        <ele>268</ele>
        <time>2018-07-25T09:32:46Z</time>
      </trkpt>
      <trkpt lat="45.94907" lon="4.8413">
        <ele>268</ele>
        <time>2018-07-25T09:32:47Z</time>
      </trkpt>
      <trkpt lat="45.94902" lon="4.84123">
        <ele>267</ele>
        <time>2018-07-25T09:32:48Z</time>
      </trkpt>
      <trkpt lat="45.94898" lon="4.84115">
        <ele>267</ele>
        <time>2018-07-25T09:32:49Z</time>
      </trkpt>
      <trkpt lat="45.94895" lon="4.84108">
        <ele>267</ele>
        <time>2018-07-25T09:32:50Z</time>
      </trkpt>
      <trkpt lat="45.94891" lon="4.84096">
        <ele>267</ele>
        <time>2018-07-25T09:32:52Z</time>
      </trkpt>
      <trkpt lat="45.94888" lon="4.84088">
        <ele>267</ele>
        <time>2018-07-25T09:32:53Z</time>
      </trkpt>
      <trkpt lat="45.94886" lon="4.84082">
        <ele>267</ele>
        <time>2018-07-25T09:32:54Z</time>
      </trkpt>
      <trkpt lat="45.94883" lon="4.84076">
        <ele>267</ele>
        <time>2018-07-25T09:32:55Z</time>
      </trkpt>
      <trkpt lat="45.9488" lon="4.84068">
        <ele>267</ele>
        <time>2018-07-25T09:32:56Z</time>
      </trkpt>
      <trkpt lat="45.94878" lon="4.84062">
        <ele>267</ele>
        <time>2018-07-25T09:32:57Z</time>
      </trkpt>
      <trkpt lat="45.94875" lon="4.84056">
        <ele>267</ele>
        <time>2018-07-25T09:32:58Z</time>
      </trkpt>
      <trkpt lat="45.94873" lon="4.84049">
        <ele>267</ele>
        <time>2018-07-25T09:32:59Z</time>
      </trkpt>
      <trkpt lat="45.94872" lon="4.84042">
        <ele>266</ele>
        <time>2018-07-25T09:33:00Z</time>
      </trkpt>
      <trkpt lat="45.94862" lon="4.84033">
        <ele>266</ele>
        <time>2018-07-25T09:33:01Z</time>
      </trkpt>
      <trkpt lat="45.94862" lon="4.84027">
        <ele>266</ele>
        <time>2018-07-25T09:33:02Z</time>
      </trkpt>
      <trkpt lat="45.94859" lon="4.84018">
        <ele>266</ele>
        <time>2018-07-25T09:33:03Z</time>
      </trkpt>
      <trkpt lat="45.94856" lon="4.8401">
        <ele>266</ele>
        <time>2018-07-25T09:33:04Z</time>
      </trkpt>
      <trkpt lat="45.94855" lon="4.84002">
        <ele>266</ele>
        <time>2018-07-25T09:33:05Z</time>
      </trkpt>
      <trkpt lat="45.94852" lon="4.83994">
        <ele>265</ele>
        <time>2018-07-25T09:33:06Z</time>
      </trkpt>
      <trkpt lat="45.94848" lon="4.83987">
        <ele>265</ele>
        <time>2018-07-25T09:33:07Z</time>
      </trkpt>
      <trkpt lat="45.94845" lon="4.8398">
        <ele>265</ele>
        <time>2018-07-25T09:33:08Z</time>
      </trkpt>
      <trkpt lat="45.94842" lon="4.83973">
        <ele>265</ele>
        <time>2018-07-25T09:33:09Z</time>
      </trkpt>
      <trkpt lat="45.94839" lon="4.83965">
        <ele>265</ele>
        <time>2018-07-25T09:33:10Z</time>
      </trkpt>
      <trkpt lat="45.94836" lon="4.83957">
        <ele>265</ele>
        <time>2018-07-25T09:33:11Z</time>
      </trkpt>
      <trkpt lat="45.94833" lon="4.8395">
        <ele>266</ele>
        <time>2018-07-25T09:33:12Z</time>
      </trkpt>
      <trkpt lat="45.94829" lon="4.83942">
        <ele>266</ele>
        <time>2018-07-25T09:33:13Z</time>
      </trkpt>
      <trkpt lat="45.94826" lon="4.83935">
        <ele>266</ele>
        <time>2018-07-25T09:33:14Z</time>
      </trkpt>
      <trkpt lat="45.94822" lon="4.83929">
        <ele>266</ele>
        <time>2018-07-25T09:33:15Z</time>
      </trkpt>
      <trkpt lat="45.94817" lon="4.83922">
        <ele>266</ele>
        <time>2018-07-25T09:33:16Z</time>
      </trkpt>
      <trkpt lat="45.94814" lon="4.83915">
        <ele>265</ele>
        <time>2018-07-25T09:33:17Z</time>
      </trkpt>
      <trkpt lat="45.9481" lon="4.83907">
        <ele>265</ele>
        <time>2018-07-25T09:33:18Z</time>
      </trkpt>
      <trkpt lat="45.9481" lon="4.83901">
        <ele>265</ele>
        <time>2018-07-25T09:33:19Z</time>
      </trkpt>
      <trkpt lat="45.94806" lon="4.83895">
        <ele>265</ele>
        <time>2018-07-25T09:33:20Z</time>
      </trkpt>
      <trkpt lat="45.94802" lon="4.83889">
        <ele>265</ele>
        <time>2018-07-25T09:33:21Z</time>
      </trkpt>
      <trkpt lat="45.94799" lon="4.83883">
        <ele>265</ele>
        <time>2018-07-25T09:33:22Z</time>
      </trkpt>
      <trkpt lat="45.94797" lon="4.83875">
        <ele>265</ele>
        <time>2018-07-25T09:33:23Z</time>
      </trkpt>
      <trkpt lat="45.94793" lon="4.83868">
        <ele>265</ele>
        <time>2018-07-25T09:33:24Z</time>
      </trkpt>
      <trkpt lat="45.9479" lon="4.83863">
        <ele>265</ele>
        <time>2018-07-25T09:33:25Z</time>
      </trkpt>
      <trkpt lat="45.94785" lon="4.83856">
        <ele>265</ele>
        <time>2018-07-25T09:33:26Z</time>
      </trkpt>
      <trkpt lat="45.94782" lon="4.8385">
        <ele>265</ele>
        <time>2018-07-25T09:33:27Z</time>
      </trkpt>
      <trkpt lat="45.94778" lon="4.83845">
        <ele>265</ele>
        <time>2018-07-25T09:33:28Z</time>
      </trkpt>
      <trkpt lat="45.94774" lon="4.83839">
        <ele>265</ele>
        <time>2018-07-25T09:33:29Z</time>
      </trkpt>
      <trkpt lat="45.9477" lon="4.83833">
        <ele>264</ele>
        <time>2018-07-25T09:33:30Z</time>
      </trkpt>
      <trkpt lat="45.94764" lon="4.83827">
        <ele>264</ele>
        <time>2018-07-25T09:33:31Z</time>
      </trkpt>
      <trkpt lat="45.94762" lon="4.83821">
        <ele>264</ele>
        <time>2018-07-25T09:33:32Z</time>
      </trkpt>
      <trkpt lat="45.94757" lon="4.83815">
        <ele>264</ele>
        <time>2018-07-25T09:33:33Z</time>
      </trkpt>
      <trkpt lat="45.94752" lon="4.83809">
        <ele>264</ele>
        <time>2018-07-25T09:33:34Z</time>
      </trkpt>
      <trkpt lat="45.94746" lon="4.83803">
        <ele>264</ele>
        <time>2018-07-25T09:33:35Z</time>
      </trkpt>
      <trkpt lat="45.9474" lon="4.83797">
        <ele>264</ele>
        <time>2018-07-25T09:33:36Z</time>
      </trkpt>
      <trkpt lat="45.94735" lon="4.8379">
        <ele>263</ele>
        <time>2018-07-25T09:33:37Z</time>
      </trkpt>
      <trkpt lat="45.9473" lon="4.83782">
        <ele>263</ele>
        <time>2018-07-25T09:33:38Z</time>
      </trkpt>
      <trkpt lat="45.94724" lon="4.83774">
        <ele>263</ele>
        <time>2018-07-25T09:33:39Z</time>
      </trkpt>
      <trkpt lat="45.94718" lon="4.83767">
        <ele>263</ele>
        <time>2018-07-25T09:33:40Z</time>
      </trkpt>
      <trkpt lat="45.94712" lon="4.83761">
        <ele>263</ele>
        <time>2018-07-25T09:33:41Z</time>
      </trkpt>
      <trkpt lat="45.94706" lon="4.83753">
        <ele>263</ele>
        <time>2018-07-25T09:33:42Z</time>
      </trkpt>
      <trkpt lat="45.94701" lon="4.83748">
        <ele>262</ele>
        <time>2018-07-25T09:33:43Z</time>
      </trkpt>
      <trkpt lat="45.94695" lon="4.83741">
        <ele>262</ele>
        <time>2018-07-25T09:33:44Z</time>
      </trkpt>
      <trkpt lat="45.94689" lon="4.83735">
        <ele>262</ele>
        <time>2018-07-25T09:33:45Z</time>
      </trkpt>
      <trkpt lat="45.94682" lon="4.83728">
        <ele>261</ele>
        <time>2018-07-25T09:33:46Z</time>
      </trkpt>
      <trkpt lat="45.94675" lon="4.83721">
        <ele>261</ele>
        <time>2018-07-25T09:33:47Z</time>
      </trkpt>
      <trkpt lat="45.94669" lon="4.83714">
        <ele>261</ele>
        <time>2018-07-25T09:33:48Z</time>
      </trkpt>
      <trkpt lat="45.94663" lon="4.83708">
        <ele>261</ele>
        <time>2018-07-25T09:33:49Z</time>
      </trkpt>
      <trkpt lat="45.94657" lon="4.83702">
        <ele>261</ele>
        <time>2018-07-25T09:33:50Z</time>
      </trkpt>
      <trkpt lat="45.9465" lon="4.83696">
        <ele>261</ele>
        <time>2018-07-25T09:33:51Z</time>
      </trkpt>
      <trkpt lat="45.94644" lon="4.83691">
        <ele>261</ele>
        <time>2018-07-25T09:33:52Z</time>
      </trkpt>
      <trkpt lat="45.94638" lon="4.83684">
        <ele>261</ele>
        <time>2018-07-25T09:33:53Z</time>
      </trkpt>
      <trkpt lat="45.94632" lon="4.83679">
        <ele>261</ele>
        <time>2018-07-25T09:33:54Z</time>
      </trkpt>
      <trkpt lat="45.94626" lon="4.83674">
        <ele>261</ele>
        <time>2018-07-25T09:33:55Z</time>
      </trkpt>
      <trkpt lat="45.9462" lon="4.83668">
        <ele>261</ele>
        <time>2018-07-25T09:33:56Z</time>
      </trkpt>
      <trkpt lat="45.94614" lon="4.83663">
        <ele>260</ele>
        <time>2018-07-25T09:33:57Z</time>
      </trkpt>
      <trkpt lat="45.94609" lon="4.83658">
        <ele>260</ele>
        <time>2018-07-25T09:33:58Z</time>
      </trkpt>
      <trkpt lat="45.94603" lon="4.83653">
        <ele>260</ele>
        <time>2018-07-25T09:33:59Z</time>
      </trkpt>
      <trkpt lat="45.94598" lon="4.83648">
        <ele>260</ele>
        <time>2018-07-25T09:34:00Z</time>
      </trkpt>
      <trkpt lat="45.94593" lon="4.83644">
        <ele>260</ele>
        <time>2018-07-25T09:34:01Z</time>
      </trkpt>
      <trkpt lat="45.94588" lon="4.83639">
        <ele>260</ele>
        <time>2018-07-25T09:34:02Z</time>
      </trkpt>
      <trkpt lat="45.94584" lon="4.83634">
        <ele>260</ele>
        <time>2018-07-25T09:34:03Z</time>
      </trkpt>
      <trkpt lat="45.94579" lon="4.83629">
        <ele>261</ele>
        <time>2018-07-25T09:34:04Z</time>
      </trkpt>
      <trkpt lat="45.94574" lon="4.83624">
        <ele>261</ele>
        <time>2018-07-25T09:34:05Z</time>
      </trkpt>
      <trkpt lat="45.94569" lon="4.8362">
        <ele>261</ele>
        <time>2018-07-25T09:34:06Z</time>
      </trkpt>
      <trkpt lat="45.94565" lon="4.83614">
        <ele>261</ele>
        <time>2018-07-25T09:34:07Z</time>
      </trkpt>
      <trkpt lat="45.9456" lon="4.83609">
        <ele>261</ele>
        <time>2018-07-25T09:34:08Z</time>
      </trkpt>
      <trkpt lat="45.94555" lon="4.83603">
        <ele>261</ele>
        <time>2018-07-25T09:34:09Z</time>
      </trkpt>
      <trkpt lat="45.94552" lon="4.83598">
        <ele>261</ele>
        <time>2018-07-25T09:34:10Z</time>
      </trkpt>
      <trkpt lat="45.94549" lon="4.83591">
        <ele>261</ele>
        <time>2018-07-25T09:34:11Z</time>
      </trkpt>
      <trkpt lat="45.94544" lon="4.83587">
        <ele>261</ele>
        <time>2018-07-25T09:34:12Z</time>
      </trkpt>
      <trkpt lat="45.94541" lon="4.83581">
        <ele>261</ele>
        <time>2018-07-25T09:34:13Z</time>
      </trkpt>
      <trkpt lat="45.94536" lon="4.83577">
        <ele>261</ele>
        <time>2018-07-25T09:34:14Z</time>
      </trkpt>
      <trkpt lat="45.94532" lon="4.83572">
        <ele>261</ele>
        <time>2018-07-25T09:34:15Z</time>
      </trkpt>
      <trkpt lat="45.9453" lon="4.83567">
        <ele>261</ele>
        <time>2018-07-25T09:34:16Z</time>
      </trkpt>
      <trkpt lat="45.94526" lon="4.83562">
        <ele>261</ele>
        <time>2018-07-25T09:34:17Z</time>
      </trkpt>
      <trkpt lat="45.94522" lon="4.83558">
        <ele>261</ele>
        <time>2018-07-25T09:34:18Z</time>
      </trkpt>
      <trkpt lat="45.94518" lon="4.83553">
        <ele>261</ele>
        <time>2018-07-25T09:34:19Z</time>
      </trkpt>
      <trkpt lat="45.94514" lon="4.83547">
        <ele>261</ele>
        <time>2018-07-25T09:34:20Z</time>
      </trkpt>
      <trkpt lat="45.94511" lon="4.83541">
        <ele>262</ele>
        <time>2018-07-25T09:34:21Z</time>
      </trkpt>
      <trkpt lat="45.94507" lon="4.83534">
        <ele>262</ele>
        <time>2018-07-25T09:34:22Z</time>
      </trkpt>
      <trkpt lat="45.94503" lon="4.83527">
        <ele>262</ele>
        <time>2018-07-25T09:34:23Z</time>
      </trkpt>
      <trkpt lat="45.94497" lon="4.8352">
        <ele>262</ele>
        <time>2018-07-25T09:34:24Z</time>
      </trkpt>
      <trkpt lat="45.94493" lon="4.83514">
        <ele>262</ele>
        <time>2018-07-25T09:34:25Z</time>
      </trkpt>
      <trkpt lat="45.94489" lon="4.83507">
        <ele>262</ele>
        <time>2018-07-25T09:34:26Z</time>
      </trkpt>
      <trkpt lat="45.94485" lon="4.835">
        <ele>262</ele>
        <time>2018-07-25T09:34:27Z</time>
      </trkpt>
      <trkpt lat="45.94481" lon="4.83494">
        <ele>263</ele>
        <time>2018-07-25T09:34:28Z</time>
      </trkpt>
      <trkpt lat="45.94476" lon="4.83488">
        <ele>263</ele>
        <time>2018-07-25T09:34:29Z</time>
      </trkpt>
      <trkpt lat="45.94473" lon="4.83482">
        <ele>263</ele>
        <time>2018-07-25T09:34:30Z</time>
      </trkpt>
      <trkpt lat="45.94469" lon="4.83476">
        <ele>263</ele>
        <time>2018-07-25T09:34:31Z</time>
      </trkpt>
      <trkpt lat="45.94468" lon="4.8347">
        <ele>263</ele>
        <time>2018-07-25T09:34:32Z</time>
      </trkpt>
      <trkpt lat="45.94465" lon="4.83464">
        <ele>263</ele>
        <time>2018-07-25T09:34:33Z</time>
      </trkpt>
      <trkpt lat="45.94461" lon="4.83459">
        <ele>263</ele>
        <time>2018-07-25T09:34:34Z</time>
      </trkpt>
      <trkpt lat="45.94458" lon="4.83452">
        <ele>263</ele>
        <time>2018-07-25T09:34:35Z</time>
      </trkpt>
      <trkpt lat="45.94455" lon="4.83446">
        <ele>263</ele>
        <time>2018-07-25T09:34:36Z</time>
      </trkpt>
      <trkpt lat="45.94451" lon="4.8344">
        <ele>263</ele>
        <time>2018-07-25T09:34:37Z</time>
      </trkpt>
      <trkpt lat="45.94447" lon="4.83433">
        <ele>263</ele>
        <time>2018-07-25T09:34:38Z</time>
      </trkpt>
      <trkpt lat="45.94443" lon="4.83425">
        <ele>264</ele>
        <time>2018-07-25T09:34:39Z</time>
      </trkpt>
      <trkpt lat="45.94439" lon="4.83418">
        <ele>264</ele>
        <time>2018-07-25T09:34:40Z</time>
      </trkpt>
      <trkpt lat="45.94435" lon="4.83411">
        <ele>264</ele>
        <time>2018-07-25T09:34:41Z</time>
      </trkpt>
      <trkpt lat="45.94431" lon="4.83404">
        <ele>264</ele>
        <time>2018-07-25T09:34:42Z</time>
      </trkpt>
      <trkpt lat="45.94428" lon="4.83397">
        <ele>264</ele>
        <time>2018-07-25T09:34:43Z</time>
      </trkpt>
      <trkpt lat="45.94424" lon="4.8339">
        <ele>264</ele>
        <time>2018-07-25T09:34:44Z</time>
      </trkpt>
      <trkpt lat="45.94421" lon="4.83383">
        <ele>264</ele>
        <time>2018-07-25T09:34:45Z</time>
      </trkpt>
      <trkpt lat="45.94418" lon="4.83377">
        <ele>264</ele>
        <time>2018-07-25T09:34:46Z</time>
      </trkpt>
      <trkpt lat="45.94416" lon="4.83371">
        <ele>264</ele>
        <time>2018-07-25T09:34:47Z</time>
      </trkpt>
      <trkpt lat="45.94412" lon="4.83365">
        <ele>264</ele>
        <time>2018-07-25T09:34:48Z</time>
      </trkpt>
      <trkpt lat="45.9441" lon="4.83358">
        <ele>264</ele>
        <time>2018-07-25T09:34:49Z</time>
      </trkpt>
      <trkpt lat="45.94407" lon="4.83352">
        <ele>263</ele>
        <time>2018-07-25T09:34:50Z</time>
      </trkpt>
      <trkpt lat="45.94405" lon="4.83346">
        <ele>263</ele>
        <time>2018-07-25T09:34:51Z</time>
      </trkpt>
      <trkpt lat="45.94401" lon="4.83339">
        <ele>263</ele>
        <time>2018-07-25T09:34:52Z</time>
      </trkpt>
      <trkpt lat="45.94399" lon="4.83333">
        <ele>264</ele>
        <time>2018-07-25T09:34:53Z</time>
      </trkpt>
      <trkpt lat="45.94396" lon="4.83326">
        <ele>264</ele>
        <time>2018-07-25T09:34:54Z</time>
      </trkpt>
      <trkpt lat="45.94394" lon="4.83319">
        <ele>264</ele>
        <time>2018-07-25T09:34:55Z</time>
      </trkpt>
      <trkpt lat="45.94391" lon="4.83312">
        <ele>264</ele>
        <time>2018-07-25T09:34:56Z</time>
      </trkpt>
      <trkpt lat="45.94389" lon="4.83303">
        <ele>264</ele>
        <time>2018-07-25T09:34:57Z</time>
      </trkpt>
      <trkpt lat="45.94387" lon="4.83295">
        <ele>264</ele>
        <time>2018-07-25T09:34:58Z</time>
      </trkpt>
      <trkpt lat="45.94385" lon="4.83288">
        <ele>264</ele>
        <time>2018-07-25T09:34:59Z</time>
      </trkpt>
      <trkpt lat="45.94382" lon="4.83281">
        <ele>264</ele>
        <time>2018-07-25T09:35:00Z</time>
      </trkpt>
      <trkpt lat="45.94381" lon="4.83273">
        <ele>264</ele>
        <time>2018-07-25T09:35:01Z</time>
      </trkpt>
      <trkpt lat="45.94376" lon="4.83266">
        <ele>264</ele>
        <time>2018-07-25T09:35:02Z</time>
      </trkpt>
      <trkpt lat="45.94373" lon="4.83259">
        <ele>265</ele>
        <time>2018-07-25T09:35:03Z</time>
      </trkpt>
      <trkpt lat="45.94374" lon="4.83253">
        <ele>265</ele>
        <time>2018-07-25T09:35:04Z</time>
      </trkpt>
      <trkpt lat="45.94372" lon="4.83246">
        <ele>265</ele>
        <time>2018-07-25T09:35:05Z</time>
      </trkpt>
      <trkpt lat="45.94369" lon="4.83239">
        <ele>265</ele>
        <time>2018-07-25T09:35:06Z</time>
      </trkpt>
      <trkpt lat="45.94364" lon="4.83232">
        <ele>266</ele>
        <time>2018-07-25T09:35:07Z</time>
      </trkpt>
      <trkpt lat="45.94362" lon="4.83224">
        <ele>266</ele>
        <time>2018-07-25T09:35:08Z</time>
      </trkpt>
      <trkpt lat="45.94359" lon="4.83217">
        <ele>266</ele>
        <time>2018-07-25T09:35:09Z</time>
      </trkpt>
      <trkpt lat="45.94358" lon="4.83212">
        <ele>266</ele>
        <time>2018-07-25T09:35:10Z</time>
      </trkpt>
      <trkpt lat="45.94356" lon="4.83205">
        <ele>266</ele>
        <time>2018-07-25T09:35:11Z</time>
      </trkpt>
      <trkpt lat="45.94352" lon="4.83193">
        <ele>266</ele>
        <time>2018-07-25T09:35:13Z</time>
      </trkpt>
      <trkpt lat="45.94352" lon="4.83187">
        <ele>266</ele>
        <time>2018-07-25T09:35:14Z</time>
      </trkpt>
      <trkpt lat="45.9435" lon="4.83181">
        <ele>266</ele>
        <time>2018-07-25T09:35:15Z</time>
      </trkpt>
      <trkpt lat="45.94347" lon="4.83176">
        <ele>266</ele>
        <time>2018-07-25T09:35:16Z</time>
      </trkpt>
      <trkpt lat="45.94345" lon="4.83169">
        <ele>266</ele>
        <time>2018-07-25T09:35:17Z</time>
      </trkpt>
      <trkpt lat="45.94342" lon="4.83162">
        <ele>266</ele>
        <time>2018-07-25T09:35:18Z</time>
      </trkpt>
      <trkpt lat="45.9434" lon="4.83156">
        <ele>266</ele>
        <time>2018-07-25T09:35:19Z</time>
      </trkpt>
      <trkpt lat="45.94337" lon="4.83148">
        <ele>266</ele>
        <time>2018-07-25T09:35:20Z</time>
      </trkpt>
      <trkpt lat="45.94336" lon="4.83142">
        <ele>266</ele>
        <time>2018-07-25T09:35:21Z</time>
      </trkpt>
      <trkpt lat="45.94333" lon="4.83135">
        <ele>266</ele>
        <time>2018-07-25T09:35:22Z</time>
      </trkpt>
      <trkpt lat="45.94331" lon="4.83129">
        <ele>266</ele>
        <time>2018-07-25T09:35:23Z</time>
      </trkpt>
      <trkpt lat="45.9433" lon="4.83122">
        <ele>266</ele>
        <time>2018-07-25T09:35:24Z</time>
      </trkpt>
      <trkpt lat="45.94328" lon="4.83113">
        <ele>266</ele>
        <time>2018-07-25T09:35:25Z</time>
      </trkpt>
      <trkpt lat="45.94326" lon="4.83107">
        <ele>266</ele>
        <time>2018-07-25T09:35:26Z</time>
      </trkpt>
      <trkpt lat="45.94323" lon="4.83098">
        <ele>266</ele>
        <time>2018-07-25T09:35:27Z</time>
      </trkpt>
      <trkpt lat="45.9432" lon="4.83092">
        <ele>266</ele>
        <time>2018-07-25T09:35:28Z</time>
      </trkpt>
      <trkpt lat="45.94318" lon="4.83085">
        <ele>266</ele>
        <time>2018-07-25T09:35:29Z</time>
      </trkpt>
      <trkpt lat="45.94316" lon="4.8308">
        <ele>266</ele>
        <time>2018-07-25T09:35:30Z</time>
      </trkpt>
      <trkpt lat="45.94315" lon="4.83073">
        <ele>266</ele>
        <time>2018-07-25T09:35:31Z</time>
      </trkpt>
      <trkpt lat="45.94314" lon="4.83066">
        <ele>266</ele>
        <time>2018-07-25T09:35:32Z</time>
      </trkpt>
      <trkpt lat="45.9431" lon="4.83054">
        <ele>266</ele>
        <time>2018-07-25T09:35:34Z</time>
      </trkpt>
      <trkpt lat="45.94309" lon="4.83047">
        <ele>266</ele>
        <time>2018-07-25T09:35:35Z</time>
      </trkpt>
      <trkpt lat="45.94307" lon="4.83042">
        <ele>266</ele>
        <time>2018-07-25T09:35:36Z</time>
      </trkpt>
      <trkpt lat="45.94304" lon="4.83035">
        <ele>266</ele>
        <time>2018-07-25T09:35:37Z</time>
      </trkpt>
      <trkpt lat="45.94303" lon="4.83028">
        <ele>266</ele>
        <time>2018-07-25T09:35:38Z</time>
      </trkpt>
      <trkpt lat="45.94302" lon="4.83021">
        <ele>266</ele>
        <time>2018-07-25T09:35:39Z</time>
      </trkpt>
      <trkpt lat="45.94299" lon="4.83013">
        <ele>266</ele>
        <time>2018-07-25T09:35:40Z</time>
      </trkpt>
      <trkpt lat="45.94298" lon="4.83006">
        <ele>266</ele>
        <time>2018-07-25T09:35:41Z</time>
      </trkpt>
      <trkpt lat="45.94295" lon="4.83">
        <ele>265</ele>
        <time>2018-07-25T09:35:42Z</time>
      </trkpt>
      <trkpt lat="45.94294" lon="4.82993">
        <ele>265</ele>
        <time>2018-07-25T09:35:43Z</time>
      </trkpt>
      <trkpt lat="45.94292" lon="4.82987">
        <ele>265</ele>
        <time>2018-07-25T09:35:44Z</time>
      </trkpt>
      <trkpt lat="45.94291" lon="4.8298">
        <ele>265</ele>
        <time>2018-07-25T09:35:45Z</time>
      </trkpt>
      <trkpt lat="45.94288" lon="4.82968">
        <ele>265</ele>
        <time>2018-07-25T09:35:47Z</time>
      </trkpt>
      <trkpt lat="45.94286" lon="4.82964">
        <ele>265</ele>
        <time>2018-07-25T09:35:48Z</time>
      </trkpt>
      <trkpt lat="45.94287" lon="4.82954">
        <ele>265</ele>
        <time>2018-07-25T09:35:50Z</time>
      </trkpt>
      <trkpt lat="45.94285" lon="4.82948">
        <ele>265</ele>
        <time>2018-07-25T09:35:51Z</time>
      </trkpt>
      <trkpt lat="45.94284" lon="4.82942">
        <ele>265</ele>
        <time>2018-07-25T09:35:52Z</time>
      </trkpt>
      <trkpt lat="45.94288" lon="4.82936">
        <ele>265</ele>
        <time>2018-07-25T09:35:53Z</time>
      </trkpt>
      <trkpt lat="45.94292" lon="4.82929">
        <ele>265</ele>
        <time>2018-07-25T09:35:54Z</time>
      </trkpt>
      <trkpt lat="45.94294" lon="4.82924">
        <ele>265</ele>
        <time>2018-07-25T09:35:55Z</time>
      </trkpt>
      <trkpt lat="45.94295" lon="4.82916">
        <ele>265</ele>
        <time>2018-07-25T09:35:56Z</time>
      </trkpt>
      <trkpt lat="45.94296" lon="4.82909">
        <ele>265</ele>
        <time>2018-07-25T09:35:57Z</time>
      </trkpt>
      <trkpt lat="45.94297" lon="4.82902">
        <ele>265</ele>
        <time>2018-07-25T09:35:58Z</time>
      </trkpt>
      <trkpt lat="45.94298" lon="4.82895">
        <ele>265</ele>
        <time>2018-07-25T09:35:59Z</time>
      </trkpt>
      <trkpt lat="45.94298" lon="4.82888">
        <ele>265</ele>
        <time>2018-07-25T09:36:00Z</time>
      </trkpt>
      <trkpt lat="45.94298" lon="4.8288">
        <ele>265</ele>
        <time>2018-07-25T09:36:01Z</time>
      </trkpt>
      <trkpt lat="45.94298" lon="4.82873">
        <ele>265</ele>
        <time>2018-07-25T09:36:02Z</time>
      </trkpt>
      <trkpt lat="45.94297" lon="4.82864">
        <ele>265</ele>
        <time>2018-07-25T09:36:03Z</time>
      </trkpt>
      <trkpt lat="45.94295" lon="4.82854">
        <ele>265</ele>
        <time>2018-07-25T09:36:04Z</time>
      </trkpt>
      <trkpt lat="45.94295" lon="4.82845">
        <ele>265</ele>
        <time>2018-07-25T09:36:05Z</time>
      </trkpt>
      <trkpt lat="45.94295" lon="4.82838">
        <ele>265</ele>
        <time>2018-07-25T09:36:06Z</time>
      </trkpt>
      <trkpt lat="45.94296" lon="4.82829">
        <ele>265</ele>
        <time>2018-07-25T09:36:07Z</time>
      </trkpt>
      <trkpt lat="45.94296" lon="4.82821">
        <ele>265</ele>
        <time>2018-07-25T09:36:08Z</time>
      </trkpt>
      <trkpt lat="45.94296" lon="4.82812">
        <ele>265</ele>
        <time>2018-07-25T09:36:09Z</time>
      </trkpt>
      <trkpt lat="45.94297" lon="4.82805">
        <ele>265</ele>
        <time>2018-07-25T09:36:10Z</time>
      </trkpt>
      <trkpt lat="45.94298" lon="4.82797">
        <ele>265</ele>
        <time>2018-07-25T09:36:11Z</time>
      </trkpt>
      <trkpt lat="45.94297" lon="4.8279">
        <ele>265</ele>
        <time>2018-07-25T09:36:12Z</time>
      </trkpt>
      <trkpt lat="45.94297" lon="4.82781">
        <ele>265</ele>
        <time>2018-07-25T09:36:13Z</time>
      </trkpt>
      <trkpt lat="45.94296" lon="4.82774">
        <ele>265</ele>
        <time>2018-07-25T09:36:14Z</time>
      </trkpt>
      <trkpt lat="45.94297" lon="4.82766">
        <ele>265</ele>
        <time>2018-07-25T09:36:15Z</time>
      </trkpt>
      <trkpt lat="45.94298" lon="4.82758">
        <ele>265</ele>
        <time>2018-07-25T09:36:16Z</time>
      </trkpt>
      <trkpt lat="45.94298" lon="4.8275">
        <ele>265</ele>
        <time>2018-07-25T09:36:17Z</time>
      </trkpt>
      <trkpt lat="45.94298" lon="4.82741">
        <ele>265</ele>
        <time>2018-07-25T09:36:18Z</time>
      </trkpt>
      <trkpt lat="45.94296" lon="4.82732">
        <ele>265</ele>
        <time>2018-07-25T09:36:19Z</time>
      </trkpt>
      <trkpt lat="45.94295" lon="4.82723">
        <ele>265</ele>
        <time>2018-07-25T09:36:20Z</time>
      </trkpt>
      <trkpt lat="45.94295" lon="4.82714">
        <ele>265</ele>
        <time>2018-07-25T09:36:21Z</time>
      </trkpt>
      <trkpt lat="45.94296" lon="4.82705">
        <ele>265</ele>
        <time>2018-07-25T09:36:22Z</time>
      </trkpt>
      <trkpt lat="45.94296" lon="4.82696">
        <ele>265</ele>
        <time>2018-07-25T09:36:23Z</time>
      </trkpt>
      <trkpt lat="45.94295" lon="4.82686">
        <ele>265</ele>
        <time>2018-07-25T09:36:24Z</time>
      </trkpt>
      <trkpt lat="45.94296" lon="4.82677">
        <ele>265</ele>
        <time>2018-07-25T09:36:25Z</time>
      </trkpt>
      <trkpt lat="45.94296" lon="4.82668">
        <ele>265</ele>
        <time>2018-07-25T09:36:26Z</time>
      </trkpt>
      <trkpt lat="45.94298" lon="4.82661">
        <ele>265</ele>
        <time>2018-07-25T09:36:27Z</time>
      </trkpt>
      <trkpt lat="45.943" lon="4.82654">
        <ele>265</ele>
        <time>2018-07-25T09:36:28Z</time>
      </trkpt>
      <trkpt lat="45.94299" lon="4.82646">
        <ele>265</ele>
        <time>2018-07-25T09:36:29Z</time>
      </trkpt>
      <trkpt lat="45.94299" lon="4.82637">
        <ele>265</ele>
        <time>2018-07-25T09:36:30Z</time>
      </trkpt>
      <trkpt lat="45.943" lon="4.82629">
        <ele>265</ele>
        <time>2018-07-25T09:36:31Z</time>
      </trkpt>
      <trkpt lat="45.943" lon="4.82621">
        <ele>265</ele>
        <time>2018-07-25T09:36:32Z</time>
      </trkpt>
      <trkpt lat="45.943" lon="4.82612">
        <ele>265</ele>
        <time>2018-07-25T09:36:33Z</time>
      </trkpt>
      <trkpt lat="45.94299" lon="4.82603">
        <ele>265</ele>
        <time>2018-07-25T09:36:34Z</time>
      </trkpt>
      <trkpt lat="45.94299" lon="4.82593">
        <ele>265</ele>
        <time>2018-07-25T09:36:35Z</time>
      </trkpt>
      <trkpt lat="45.94299" lon="4.82585">
        <ele>265</ele>
        <time>2018-07-25T09:36:36Z</time>
      </trkpt>
      <trkpt lat="45.94298" lon="4.82577">
        <ele>264</ele>
        <time>2018-07-25T09:36:37Z</time>
      </trkpt>
      <trkpt lat="45.94298" lon="4.82568">
        <ele>264</ele>
        <time>2018-07-25T09:36:38Z</time>
      </trkpt>
      <trkpt lat="45.94299" lon="4.82559">
        <ele>264</ele>
        <time>2018-07-25T09:36:39Z</time>
      </trkpt>
      <trkpt lat="45.94299" lon="4.82551">
        <ele>264</ele>
        <time>2018-07-25T09:36:40Z</time>
      </trkpt>
      <trkpt lat="45.94299" lon="4.82543">
        <ele>264</ele>
        <time>2018-07-25T09:36:41Z</time>
      </trkpt>
      <trkpt lat="45.94299" lon="4.82535">
        <ele>264</ele>
        <time>2018-07-25T09:36:42Z</time>
      </trkpt>
      <trkpt lat="45.94299" lon="4.82526">
        <ele>264</ele>
        <time>2018-07-25T09:36:43Z</time>
      </trkpt>
      <trkpt lat="45.94299" lon="4.82518">
        <ele>264</ele>
        <time>2018-07-25T09:36:44Z</time>
      </trkpt>
      <trkpt lat="45.94299" lon="4.8251">
        <ele>264</ele>
        <time>2018-07-25T09:36:45Z</time>
      </trkpt>
      <trkpt lat="45.94298" lon="4.82502">
        <ele>264</ele>
        <time>2018-07-25T09:36:46Z</time>
      </trkpt>
      <trkpt lat="45.94298" lon="4.82494">
        <ele>264</ele>
        <time>2018-07-25T09:36:47Z</time>
      </trkpt>
      <trkpt lat="45.943" lon="4.8249">
        <ele>264</ele>
        <time>2018-07-25T09:36:48Z</time>
      </trkpt>
      <trkpt lat="45.94299" lon="4.82481">
        <ele>264</ele>
        <time>2018-07-25T09:36:49Z</time>
      </trkpt>
      <trkpt lat="45.94299" lon="4.82471">
        <ele>264</ele>
        <time>2018-07-25T09:36:50Z</time>
      </trkpt>
      <trkpt lat="45.94298" lon="4.82463">
        <ele>264</ele>
        <time>2018-07-25T09:36:51Z</time>
      </trkpt>
      <trkpt lat="45.94295" lon="4.82451">
        <ele>264</ele>
        <time>2018-07-25T09:36:52Z</time>
      </trkpt>
      <trkpt lat="45.94295" lon="4.82442">
        <ele>264</ele>
        <time>2018-07-25T09:36:53Z</time>
      </trkpt>
      <trkpt lat="45.94297" lon="4.82434">
        <ele>264</ele>
        <time>2018-07-25T09:36:54Z</time>
      </trkpt>
      <trkpt lat="45.94296" lon="4.82423">
        <ele>264</ele>
        <time>2018-07-25T09:36:55Z</time>
      </trkpt>
      <trkpt lat="45.94296" lon="4.82414">
        <ele>264</ele>
        <time>2018-07-25T09:36:56Z</time>
      </trkpt>
      <trkpt lat="45.94295" lon="4.82402">
        <ele>264</ele>
        <time>2018-07-25T09:36:57Z</time>
      </trkpt>
      <trkpt lat="45.94294" lon="4.82393">
        <ele>264</ele>
        <time>2018-07-25T09:36:58Z</time>
      </trkpt>
      <trkpt lat="45.94293" lon="4.82384">
        <ele>264</ele>
        <time>2018-07-25T09:36:59Z</time>
      </trkpt>
      <trkpt lat="45.94293" lon="4.82374">
        <ele>264</ele>
        <time>2018-07-25T09:37:00Z</time>
      </trkpt>
      <trkpt lat="45.94293" lon="4.82365">
        <ele>264</ele>
        <time>2018-07-25T09:37:01Z</time>
      </trkpt>
      <trkpt lat="45.94292" lon="4.82357">
        <ele>264</ele>
        <time>2018-07-25T09:37:02Z</time>
      </trkpt>
      <trkpt lat="45.94292" lon="4.82349">
        <ele>264</ele>
        <time>2018-07-25T09:37:03Z</time>
      </trkpt>
      <trkpt lat="45.94292" lon="4.8234">
        <ele>264</ele>
        <time>2018-07-25T09:37:04Z</time>
      </trkpt>
      <trkpt lat="45.94291" lon="4.82331">
        <ele>265</ele>
        <time>2018-07-25T09:37:05Z</time>
      </trkpt>
      <trkpt lat="45.94291" lon="4.82321">
        <ele>265</ele>
        <time>2018-07-25T09:37:06Z</time>
      </trkpt>
      <trkpt lat="45.9429" lon="4.82312">
        <ele>265</ele>
        <time>2018-07-25T09:37:07Z</time>
      </trkpt>
      <trkpt lat="45.9429" lon="4.82302">
        <ele>265</ele>
        <time>2018-07-25T09:37:08Z</time>
      </trkpt>
      <trkpt lat="45.94289" lon="4.82292">
        <ele>265</ele>
        <time>2018-07-25T09:37:09Z</time>
      </trkpt>
      <trkpt lat="45.94288" lon="4.82282">
        <ele>265</ele>
        <time>2018-07-25T09:37:10Z</time>
      </trkpt>
      <trkpt lat="45.94287" lon="4.82272">
        <ele>265</ele>
        <time>2018-07-25T09:37:11Z</time>
      </trkpt>
      <trkpt lat="45.94287" lon="4.82263">
        <ele>265</ele>
        <time>2018-07-25T09:37:12Z</time>
      </trkpt>
      <trkpt lat="45.94286" lon="4.82253">
        <ele>265</ele>
        <time>2018-07-25T09:37:13Z</time>
      </trkpt>
      <trkpt lat="45.94286" lon="4.82244">
        <ele>264</ele>
        <time>2018-07-25T09:37:14Z</time>
      </trkpt>
      <trkpt lat="45.94285" lon="4.82235">
        <ele>264</ele>
        <time>2018-07-25T09:37:15Z</time>
      </trkpt>
      <trkpt lat="45.94284" lon="4.82226">
        <ele>264</ele>
        <time>2018-07-25T09:37:16Z</time>
      </trkpt>
      <trkpt lat="45.94282" lon="4.82217">
        <ele>264</ele>
        <time>2018-07-25T09:37:17Z</time>
      </trkpt>
      <trkpt lat="45.94281" lon="4.82208">
        <ele>264</ele>
        <time>2018-07-25T09:37:18Z</time>
      </trkpt>
      <trkpt lat="45.9428" lon="4.82198">
        <ele>264</ele>
        <time>2018-07-25T09:37:19Z</time>
      </trkpt>
      <trkpt lat="45.94279" lon="4.82191">
        <ele>264</ele>
        <time>2018-07-25T09:37:20Z</time>
      </trkpt>
      <trkpt lat="45.94279" lon="4.82184">
        <ele>264</ele>
        <time>2018-07-25T09:37:21Z</time>
      </trkpt>
      <trkpt lat="45.94277" lon="4.82175">
        <ele>264</ele>
        <time>2018-07-25T09:37:22Z</time>
      </trkpt>
      <trkpt lat="45.94276" lon="4.82166">
        <ele>263</ele>
        <time>2018-07-25T09:37:23Z</time>
      </trkpt>
      <trkpt lat="45.94275" lon="4.82157">
        <ele>263</ele>
        <time>2018-07-25T09:37:24Z</time>
      </trkpt>
      <trkpt lat="45.94273" lon="4.82148">
        <ele>263</ele>
        <time>2018-07-25T09:37:25Z</time>
      </trkpt>
      <trkpt lat="45.94271" lon="4.82137">
        <ele>263</ele>
        <time>2018-07-25T09:37:26Z</time>
      </trkpt>
      <trkpt lat="45.94268" lon="4.82128">
        <ele>263</ele>
        <time>2018-07-25T09:37:27Z</time>
      </trkpt>
      <trkpt lat="45.94266" lon="4.82118">
        <ele>263</ele>
        <time>2018-07-25T09:37:28Z</time>
      </trkpt>
      <trkpt lat="45.94265" lon="4.82109">
        <ele>263</ele>
        <time>2018-07-25T09:37:29Z</time>
      </trkpt>
      <trkpt lat="45.94263" lon="4.82101">
        <ele>262</ele>
        <time>2018-07-25T09:37:30Z</time>
      </trkpt>
      <trkpt lat="45.94262" lon="4.82093">
        <ele>262</ele>
        <time>2018-07-25T09:37:31Z</time>
      </trkpt>
      <trkpt lat="45.9426" lon="4.82084">
        <ele>262</ele>
        <time>2018-07-25T09:37:32Z</time>
      </trkpt>
      <trkpt lat="45.94259" lon="4.82076">
        <ele>262</ele>
        <time>2018-07-25T09:37:33Z</time>
      </trkpt>
      <trkpt lat="45.94256" lon="4.82066">
        <ele>262</ele>
        <time>2018-07-25T09:37:34Z</time>
      </trkpt>
      <trkpt lat="45.94254" lon="4.82056">
        <ele>262</ele>
        <time>2018-07-25T09:37:35Z</time>
      </trkpt>
      <trkpt lat="45.94253" lon="4.82047">
        <ele>262</ele>
        <time>2018-07-25T09:37:36Z</time>
      </trkpt>
      <trkpt lat="45.94251" lon="4.82038">
        <ele>262</ele>
        <time>2018-07-25T09:37:37Z</time>
      </trkpt>
      <trkpt lat="45.94252" lon="4.82027">
        <ele>262</ele>
        <time>2018-07-25T09:37:38Z</time>
      </trkpt>
      <trkpt lat="45.94249" lon="4.82018">
        <ele>263</ele>
        <time>2018-07-25T09:37:39Z</time>
      </trkpt>
      <trkpt lat="45.94247" lon="4.82009">
        <ele>263</ele>
        <time>2018-07-25T09:37:40Z</time>
      </trkpt>
      <trkpt lat="45.94244" lon="4.81998">
        <ele>262</ele>
        <time>2018-07-25T09:37:41Z</time>
      </trkpt>
      <trkpt lat="45.94242" lon="4.81989">
        <ele>263</ele>
        <time>2018-07-25T09:37:42Z</time>
      </trkpt>
      <trkpt lat="45.94239" lon="4.81981">
        <ele>263</ele>
        <time>2018-07-25T09:37:43Z</time>
      </trkpt>
      <trkpt lat="45.94236" lon="4.81973">
        <ele>263</ele>
        <time>2018-07-25T09:37:44Z</time>
      </trkpt>
      <trkpt lat="45.94235" lon="4.81964">
        <ele>264</ele>
        <time>2018-07-25T09:37:45Z</time>
      </trkpt>
      <trkpt lat="45.94233" lon="4.81956">
        <ele>264</ele>
        <time>2018-07-25T09:37:46Z</time>
      </trkpt>
      <trkpt lat="45.94231" lon="4.81947">
        <ele>264</ele>
        <time>2018-07-25T09:37:47Z</time>
      </trkpt>
      <trkpt lat="45.94231" lon="4.8194">
        <ele>264</ele>
        <time>2018-07-25T09:37:48Z</time>
      </trkpt>
      <trkpt lat="45.94229" lon="4.81933">
        <ele>264</ele>
        <time>2018-07-25T09:37:49Z</time>
      </trkpt>
      <trkpt lat="45.94228" lon="4.81924">
        <ele>264</ele>
        <time>2018-07-25T09:37:50Z</time>
      </trkpt>
      <trkpt lat="45.94226" lon="4.81915">
        <ele>264</ele>
        <time>2018-07-25T09:37:51Z</time>
      </trkpt>
      <trkpt lat="45.94224" lon="4.81907">
        <ele>264</ele>
        <time>2018-07-25T09:37:52Z</time>
      </trkpt>
      <trkpt lat="45.94224" lon="4.81899">
        <ele>264</ele>
        <time>2018-07-25T09:37:53Z</time>
      </trkpt>
      <trkpt lat="45.94223" lon="4.81891">
        <ele>265</ele>
        <time>2018-07-25T09:37:54Z</time>
      </trkpt>
      <trkpt lat="45.94221" lon="4.81883">
        <ele>265</ele>
        <time>2018-07-25T09:37:55Z</time>
      </trkpt>
      <trkpt lat="45.9422" lon="4.81875">
        <ele>265</ele>
        <time>2018-07-25T09:37:56Z</time>
      </trkpt>
      <trkpt lat="45.94217" lon="4.81868">
        <ele>265</ele>
        <time>2018-07-25T09:37:57Z</time>
      </trkpt>
      <trkpt lat="45.94215" lon="4.81861">
        <ele>265</ele>
        <time>2018-07-25T09:37:58Z</time>
      </trkpt>
      <trkpt lat="45.94213" lon="4.81854">
        <ele>265</ele>
        <time>2018-07-25T09:37:59Z</time>
      </trkpt>
      <trkpt lat="45.9421" lon="4.81846">
        <ele>265</ele>
        <time>2018-07-25T09:38:00Z</time>
      </trkpt>
      <trkpt lat="45.94209" lon="4.8184">
        <ele>265</ele>
        <time>2018-07-25T09:38:01Z</time>
      </trkpt>
      <trkpt lat="45.94207" lon="4.81832">
        <ele>266</ele>
        <time>2018-07-25T09:38:02Z</time>
      </trkpt>
      <trkpt lat="45.94207" lon="4.81825">
        <ele>266</ele>
        <time>2018-07-25T09:38:03Z</time>
      </trkpt>
      <trkpt lat="45.94206" lon="4.81819">
        <ele>266</ele>
        <time>2018-07-25T09:38:04Z</time>
      </trkpt>
      <trkpt lat="45.94205" lon="4.81811">
        <ele>266</ele>
        <time>2018-07-25T09:38:05Z</time>
      </trkpt>
      <trkpt lat="45.94205" lon="4.81804">
        <ele>266</ele>
        <time>2018-07-25T09:38:06Z</time>
      </trkpt>
      <trkpt lat="45.94205" lon="4.81796">
        <ele>266</ele>
        <time>2018-07-25T09:38:07Z</time>
      </trkpt>
      <trkpt lat="45.94206" lon="4.81788">
        <ele>266</ele>
        <time>2018-07-25T09:38:08Z</time>
      </trkpt>
      <trkpt lat="45.94206" lon="4.8178">
        <ele>266</ele>
        <time>2018-07-25T09:38:09Z</time>
      </trkpt>
      <trkpt lat="45.94208" lon="4.81775">
        <ele>265</ele>
        <time>2018-07-25T09:38:10Z</time>
      </trkpt>
      <trkpt lat="45.9421" lon="4.81768">
        <ele>265</ele>
        <time>2018-07-25T09:38:11Z</time>
      </trkpt>
      <trkpt lat="45.94212" lon="4.81761">
        <ele>265</ele>
        <time>2018-07-25T09:38:12Z</time>
      </trkpt>
      <trkpt lat="45.94215" lon="4.81755">
        <ele>265</ele>
        <time>2018-07-25T09:38:13Z</time>
      </trkpt>
      <trkpt lat="45.94218" lon="4.81749">
        <ele>265</ele>
        <time>2018-07-25T09:38:14Z</time>
      </trkpt>
      <trkpt lat="45.94221" lon="4.81741">
        <ele>265</ele>
        <time>2018-07-25T09:38:15Z</time>
      </trkpt>
      <trkpt lat="45.94222" lon="4.81734">
        <ele>265</ele>
        <time>2018-07-25T09:38:16Z</time>
      </trkpt>
      <trkpt lat="45.94223" lon="4.81725">
        <ele>265</ele>
        <time>2018-07-25T09:38:17Z</time>
      </trkpt>
      <trkpt lat="45.94223" lon="4.81718">
        <ele>266</ele>
        <time>2018-07-25T09:38:18Z</time>
      </trkpt>
      <trkpt lat="45.94217" lon="4.81711">
        <ele>266</ele>
        <time>2018-07-25T09:38:19Z</time>
      </trkpt>
      <trkpt lat="45.94213" lon="4.81707">
        <ele>266</ele>
        <time>2018-07-25T09:38:20Z</time>
      </trkpt>
      <trkpt lat="45.94208" lon="4.81704">
        <ele>266</ele>
        <time>2018-07-25T09:38:21Z</time>
      </trkpt>
      <trkpt lat="45.94203" lon="4.817">
        <ele>267</ele>
        <time>2018-07-25T09:38:22Z</time>
      </trkpt>
      <trkpt lat="45.94199" lon="4.81697">
        <ele>267</ele>
        <time>2018-07-25T09:38:23Z</time>
      </trkpt>
      <trkpt lat="45.94194" lon="4.81692">
        <ele>267</ele>
        <time>2018-07-25T09:38:24Z</time>
      </trkpt>
      <trkpt lat="45.9419" lon="4.81686">
        <ele>267</ele>
        <time>2018-07-25T09:38:25Z</time>
      </trkpt>
      <trkpt lat="45.94186" lon="4.8168">
        <ele>267</ele>
        <time>2018-07-25T09:38:26Z</time>
      </trkpt>
      <trkpt lat="45.94182" lon="4.81671">
        <ele>268</ele>
        <time>2018-07-25T09:38:27Z</time>
      </trkpt>
      <trkpt lat="45.94179" lon="4.81661">
        <ele>268</ele>
        <time>2018-07-25T09:38:28Z</time>
      </trkpt>
      <trkpt lat="45.94176" lon="4.81651">
        <ele>268</ele>
        <time>2018-07-25T09:38:29Z</time>
      </trkpt>
      <trkpt lat="45.94173" lon="4.81641">
        <ele>268</ele>
        <time>2018-07-25T09:38:30Z</time>
      </trkpt>
      <trkpt lat="45.94171" lon="4.8163">
        <ele>267</ele>
        <time>2018-07-25T09:38:31Z</time>
      </trkpt>
      <trkpt lat="45.94168" lon="4.81618">
        <ele>267</ele>
        <time>2018-07-25T09:38:32Z</time>
      </trkpt>
      <trkpt lat="45.94165" lon="4.81606">
        <ele>267</ele>
        <time>2018-07-25T09:38:33Z</time>
      </trkpt>
      <trkpt lat="45.94162" lon="4.81595">
        <ele>267</ele>
        <time>2018-07-25T09:38:34Z</time>
      </trkpt>
      <trkpt lat="45.94159" lon="4.81583">
        <ele>266</ele>
        <time>2018-07-25T09:38:35Z</time>
      </trkpt>
      <trkpt lat="45.94158" lon="4.81568">
        <ele>265</ele>
        <time>2018-07-25T09:38:36Z</time>
      </trkpt>
      <trkpt lat="45.94156" lon="4.81555">
        <ele>265</ele>
        <time>2018-07-25T09:38:37Z</time>
      </trkpt>
      <trkpt lat="45.94155" lon="4.81543">
        <ele>264</ele>
        <time>2018-07-25T09:38:38Z</time>
      </trkpt>
      <trkpt lat="45.94153" lon="4.81528">
        <ele>264</ele>
        <time>2018-07-25T09:38:39Z</time>
      </trkpt>
      <trkpt lat="45.94151" lon="4.81514">
        <ele>263</ele>
        <time>2018-07-25T09:38:40Z</time>
      </trkpt>
      <trkpt lat="45.94151" lon="4.815">
        <ele>260</ele>
        <time>2018-07-25T09:38:41Z</time>
      </trkpt>
      <trkpt lat="45.9415" lon="4.81484">
        <ele>259</ele>
        <time>2018-07-25T09:38:42Z</time>
      </trkpt>
      <trkpt lat="45.94152" lon="4.8147">
        <ele>258</ele>
        <time>2018-07-25T09:38:43Z</time>
      </trkpt>
      <trkpt lat="45.94157" lon="4.81456">
        <ele>257</ele>
        <time>2018-07-25T09:38:44Z</time>
      </trkpt>
      <trkpt lat="45.94159" lon="4.81439">
        <ele>256</ele>
        <time>2018-07-25T09:38:45Z</time>
      </trkpt>
      <trkpt lat="45.94161" lon="4.81423">
        <ele>256</ele>
        <time>2018-07-25T09:38:46Z</time>
      </trkpt>
      <trkpt lat="45.94162" lon="4.8141">
        <ele>254</ele>
        <time>2018-07-25T09:38:47Z</time>
      </trkpt>
      <trkpt lat="45.94165" lon="4.81395">
        <ele>252</ele>
        <time>2018-07-25T09:38:48Z</time>
      </trkpt>
      <trkpt lat="45.94164" lon="4.81379">
        <ele>251</ele>
        <time>2018-07-25T09:38:49Z</time>
      </trkpt>
      <trkpt lat="45.9417" lon="4.81365">
        <ele>257</ele>
        <time>2018-07-25T09:38:50Z</time>
      </trkpt>
      <trkpt lat="45.94174" lon="4.81352">
        <ele>256</ele>
        <time>2018-07-25T09:38:51Z</time>
      </trkpt>
      <trkpt lat="45.94172" lon="4.81337">
        <ele>254</ele>
        <time>2018-07-25T09:38:52Z</time>
      </trkpt>
      <trkpt lat="45.94172" lon="4.81319">
        <ele>255</ele>
        <time>2018-07-25T09:38:53Z</time>
      </trkpt>
      <trkpt lat="45.94171" lon="4.81302">
        <ele>255</ele>
        <time>2018-07-25T09:38:54Z</time>
      </trkpt>
      <trkpt lat="45.9417" lon="4.81287">
        <ele>255</ele>
        <time>2018-07-25T09:38:55Z</time>
      </trkpt>
      <trkpt lat="45.94169" lon="4.81267">
        <ele>254</ele>
        <time>2018-07-25T09:38:56Z</time>
      </trkpt>
      <trkpt lat="45.94167" lon="4.81251">
        <ele>250</ele>
        <time>2018-07-25T09:38:57Z</time>
      </trkpt>
      <trkpt lat="45.94164" lon="4.81236">
        <ele>247</ele>
        <time>2018-07-25T09:38:58Z</time>
      </trkpt>
      <trkpt lat="45.94161" lon="4.81222">
        <ele>245</ele>
        <time>2018-07-25T09:38:59Z</time>
      </trkpt>
      <trkpt lat="45.94159" lon="4.81205">
        <ele>245</ele>
        <time>2018-07-25T09:39:00Z</time>
      </trkpt>
      <trkpt lat="45.94154" lon="4.81189">
        <ele>245</ele>
        <time>2018-07-25T09:39:01Z</time>
      </trkpt>
      <trkpt lat="45.94149" lon="4.81173">
        <ele>245</ele>
        <time>2018-07-25T09:39:02Z</time>
      </trkpt>
      <trkpt lat="45.94145" lon="4.81159">
        <ele>245</ele>
        <time>2018-07-25T09:39:03Z</time>
      </trkpt>
      <trkpt lat="45.94138" lon="4.81145">
        <ele>244</ele>
        <time>2018-07-25T09:39:04Z</time>
      </trkpt>
      <trkpt lat="45.94132" lon="4.81131">
        <ele>244</ele>
        <time>2018-07-25T09:39:05Z</time>
      </trkpt>
      <trkpt lat="45.94126" lon="4.81117">
        <ele>244</ele>
        <time>2018-07-25T09:39:06Z</time>
      </trkpt>
      <trkpt lat="45.94119" lon="4.81104">
        <ele>243</ele>
        <time>2018-07-25T09:39:07Z</time>
      </trkpt>
      <trkpt lat="45.94113" lon="4.81092">
        <ele>242</ele>
        <time>2018-07-25T09:39:08Z</time>
      </trkpt>
      <trkpt lat="45.94105" lon="4.81078">
        <ele>243</ele>
        <time>2018-07-25T09:39:09Z</time>
      </trkpt>
      <trkpt lat="45.94099" lon="4.81066">
        <ele>243</ele>
        <time>2018-07-25T09:39:10Z</time>
      </trkpt>
      <trkpt lat="45.94092" lon="4.81051">
        <ele>243</ele>
        <time>2018-07-25T09:39:11Z</time>
      </trkpt>
      <trkpt lat="45.94087" lon="4.81036">
        <ele>244</ele>
        <time>2018-07-25T09:39:12Z</time>
      </trkpt>
      <trkpt lat="45.94079" lon="4.81019">
        <ele>235</ele>
        <time>2018-07-25T09:39:13Z</time>
      </trkpt>
      <trkpt lat="45.94074" lon="4.81003">
        <ele>237</ele>
        <time>2018-07-25T09:39:14Z</time>
      </trkpt>
      <trkpt lat="45.9407" lon="4.80984">
        <ele>234</ele>
        <time>2018-07-25T09:39:15Z</time>
      </trkpt>
      <trkpt lat="45.94069" lon="4.80969">
        <ele>233</ele>
        <time>2018-07-25T09:39:16Z</time>
      </trkpt>
      <trkpt lat="45.94064" lon="4.80951">
        <ele>232</ele>
        <time>2018-07-25T09:39:17Z</time>
      </trkpt>
      <trkpt lat="45.94064" lon="4.80934">
        <ele>233</ele>
        <time>2018-07-25T09:39:18Z</time>
      </trkpt>
      <trkpt lat="45.94061" lon="4.80919">
        <ele>233</ele>
        <time>2018-07-25T09:39:19Z</time>
      </trkpt>
      <trkpt lat="45.9406" lon="4.809">
        <ele>231</ele>
        <time>2018-07-25T09:39:20Z</time>
      </trkpt>
      <trkpt lat="45.94057" lon="4.80884">
        <ele>231</ele>
        <time>2018-07-25T09:39:21Z</time>
      </trkpt>
      <trkpt lat="45.94054" lon="4.80867">
        <ele>230</ele>
        <time>2018-07-25T09:39:22Z</time>
      </trkpt>
      <trkpt lat="45.94053" lon="4.80851">
        <ele>230</ele>
        <time>2018-07-25T09:39:23Z</time>
      </trkpt>
      <trkpt lat="45.94051" lon="4.80834">
        <ele>230</ele>
        <time>2018-07-25T09:39:24Z</time>
      </trkpt>
      <trkpt lat="45.94049" lon="4.80818">
        <ele>229</ele>
        <time>2018-07-25T09:39:25Z</time>
      </trkpt>
      <trkpt lat="45.94047" lon="4.80801">
        <ele>229</ele>
        <time>2018-07-25T09:39:26Z</time>
      </trkpt>
      <trkpt lat="45.94045" lon="4.80786">
        <ele>228</ele>
        <time>2018-07-25T09:39:27Z</time>
      </trkpt>
      <trkpt lat="45.94043" lon="4.80769">
        <ele>228</ele>
        <time>2018-07-25T09:39:28Z</time>
      </trkpt>
      <trkpt lat="45.94041" lon="4.80752">
        <ele>228</ele>
        <time>2018-07-25T09:39:29Z</time>
      </trkpt>
      <trkpt lat="45.9404" lon="4.80736">
        <ele>227</ele>
        <time>2018-07-25T09:39:30Z</time>
      </trkpt>
      <trkpt lat="45.94039" lon="4.80715">
        <ele>226</ele>
        <time>2018-07-25T09:39:31Z</time>
      </trkpt>
      <trkpt lat="45.94035" lon="4.80703">
        <ele>226</ele>
        <time>2018-07-25T09:39:32Z</time>
      </trkpt>
      <trkpt lat="45.94035" lon="4.80685">
        <ele>225</ele>
        <time>2018-07-25T09:39:33Z</time>
      </trkpt>
      <trkpt lat="45.94033" lon="4.80669">
        <ele>225</ele>
        <time>2018-07-25T09:39:34Z</time>
      </trkpt>
      <trkpt lat="45.94031" lon="4.80652">
        <ele>225</ele>
        <time>2018-07-25T09:39:35Z</time>
      </trkpt>
      <trkpt lat="45.94029" lon="4.80636">
        <ele>225</ele>
        <time>2018-07-25T09:39:36Z</time>
      </trkpt>
      <trkpt lat="45.94027" lon="4.8062">
        <ele>225</ele>
        <time>2018-07-25T09:39:37Z</time>
      </trkpt>
      <trkpt lat="45.94028" lon="4.80604">
        <ele>225</ele>
        <time>2018-07-25T09:39:38Z</time>
      </trkpt>
      <trkpt lat="45.94029" lon="4.80589">
        <ele>225</ele>
        <time>2018-07-25T09:39:39Z</time>
      </trkpt>
      <trkpt lat="45.94028" lon="4.80573">
        <ele>225</ele>
        <time>2018-07-25T09:39:40Z</time>
      </trkpt>
      <trkpt lat="45.94027" lon="4.80556">
        <ele>225</ele>
        <time>2018-07-25T09:39:41Z</time>
      </trkpt>
      <trkpt lat="45.94026" lon="4.8054">
        <ele>225</ele>
        <time>2018-07-25T09:39:42Z</time>
      </trkpt>
      <trkpt lat="45.94023" lon="4.80524">
        <ele>225</ele>
        <time>2018-07-25T09:39:43Z</time>
      </trkpt>
      <trkpt lat="45.9402" lon="4.80509">
        <ele>223</ele>
        <time>2018-07-25T09:39:44Z</time>
      </trkpt>
      <trkpt lat="45.94019" lon="4.80493">
        <ele>222</ele>
        <time>2018-07-25T09:39:45Z</time>
      </trkpt>
      <trkpt lat="45.94023" lon="4.80478">
        <ele>223</ele>
        <time>2018-07-25T09:39:46Z</time>
      </trkpt>
      <trkpt lat="45.94022" lon="4.80462">
        <ele>223</ele>
        <time>2018-07-25T09:39:47Z</time>
      </trkpt>
      <trkpt lat="45.94021" lon="4.80447">
        <ele>223</ele>
        <time>2018-07-25T09:39:48Z</time>
      </trkpt>
      <trkpt lat="45.94018" lon="4.80431">
        <ele>222</ele>
        <time>2018-07-25T09:39:49Z</time>
      </trkpt>
      <trkpt lat="45.94015" lon="4.80416">
        <ele>218</ele>
        <time>2018-07-25T09:39:50Z</time>
      </trkpt>
      <trkpt lat="45.9401" lon="4.80401">
        <ele>217</ele>
        <time>2018-07-25T09:39:51Z</time>
      </trkpt>
      <trkpt lat="45.94006" lon="4.80385">
        <ele>217</ele>
        <time>2018-07-25T09:39:52Z</time>
      </trkpt>
      <trkpt lat="45.94002" lon="4.80368">
        <ele>215</ele>
        <time>2018-07-25T09:39:53Z</time>
      </trkpt>
      <trkpt lat="45.93997" lon="4.80351">
        <ele>206</ele>
        <time>2018-07-25T09:39:54Z</time>
      </trkpt>
      <trkpt lat="45.93992" lon="4.80334">
        <ele>206</ele>
        <time>2018-07-25T09:39:55Z</time>
      </trkpt>
      <trkpt lat="45.93987" lon="4.80316">
        <ele>204</ele>
        <time>2018-07-25T09:39:56Z</time>
      </trkpt>
      <trkpt lat="45.93983" lon="4.803">
        <ele>203</ele>
        <time>2018-07-25T09:39:57Z</time>
      </trkpt>
      <trkpt lat="45.93978" lon="4.80283">
        <ele>203</ele>
        <time>2018-07-25T09:39:58Z</time>
      </trkpt>
      <trkpt lat="45.93975" lon="4.80267">
        <ele>203</ele>
        <time>2018-07-25T09:39:59Z</time>
      </trkpt>
      <trkpt lat="45.93971" lon="4.8025">
        <ele>203</ele>
        <time>2018-07-25T09:40:00Z</time>
      </trkpt>
      <trkpt lat="45.93966" lon="4.80234">
        <ele>205</ele>
        <time>2018-07-25T09:40:01Z</time>
      </trkpt>
      <trkpt lat="45.93961" lon="4.80218">
        <ele>205</ele>
        <time>2018-07-25T09:40:02Z</time>
      </trkpt>
      <trkpt lat="45.93957" lon="4.80201">
        <ele>205</ele>
        <time>2018-07-25T09:40:03Z</time>
      </trkpt>
      <trkpt lat="45.93955" lon="4.80186">
        <ele>206</ele>
        <time>2018-07-25T09:40:04Z</time>
      </trkpt>
      <trkpt lat="45.93951" lon="4.80172">
        <ele>206</ele>
        <time>2018-07-25T09:40:05Z</time>
      </trkpt>
      <trkpt lat="45.93949" lon="4.80157">
        <ele>208</ele>
        <time>2018-07-25T09:40:06Z</time>
      </trkpt>
      <trkpt lat="45.93945" lon="4.80142">
        <ele>208</ele>
        <time>2018-07-25T09:40:07Z</time>
      </trkpt>
      <trkpt lat="45.93942" lon="4.80128">
        <ele>209</ele>
        <time>2018-07-25T09:40:08Z</time>
      </trkpt>
      <trkpt lat="45.93939" lon="4.80115">
        <ele>208</ele>
        <time>2018-07-25T09:40:09Z</time>
      </trkpt>
      <trkpt lat="45.9394" lon="4.80104">
        <ele>208</ele>
        <time>2018-07-25T09:40:10Z</time>
      </trkpt>
      <trkpt lat="45.93938" lon="4.80089">
        <ele>208</ele>
        <time>2018-07-25T09:40:11Z</time>
      </trkpt>
      <trkpt lat="45.9394" lon="4.80076">
        <ele>207</ele>
        <time>2018-07-25T09:40:12Z</time>
      </trkpt>
      <trkpt lat="45.93941" lon="4.80065">
        <ele>208</ele>
        <time>2018-07-25T09:40:13Z</time>
      </trkpt>
      <trkpt lat="45.93941" lon="4.80052">
        <ele>207</ele>
        <time>2018-07-25T09:40:14Z</time>
      </trkpt>
      <trkpt lat="45.93941" lon="4.80041">
        <ele>207</ele>
        <time>2018-07-25T09:40:15Z</time>
      </trkpt>
      <trkpt lat="45.93942" lon="4.8003">
        <ele>207</ele>
        <time>2018-07-25T09:40:16Z</time>
      </trkpt>
      <trkpt lat="45.93943" lon="4.80019">
        <ele>206</ele>
        <time>2018-07-25T09:40:17Z</time>
      </trkpt>
      <trkpt lat="45.93946" lon="4.80009">
        <ele>206</ele>
        <time>2018-07-25T09:40:18Z</time>
      </trkpt>
      <trkpt lat="45.93946" lon="4.79997">
        <ele>205</ele>
        <time>2018-07-25T09:40:19Z</time>
      </trkpt>
      <trkpt lat="45.93947" lon="4.79988">
        <ele>205</ele>
        <time>2018-07-25T09:40:20Z</time>
      </trkpt>
      <trkpt lat="45.93948" lon="4.79978">
        <ele>205</ele>
        <time>2018-07-25T09:40:21Z</time>
      </trkpt>
      <trkpt lat="45.93949" lon="4.79969">
        <ele>205</ele>
        <time>2018-07-25T09:40:22Z</time>
      </trkpt>
      <trkpt lat="45.9395" lon="4.7996">
        <ele>205</ele>
        <time>2018-07-25T09:40:23Z</time>
      </trkpt>
      <trkpt lat="45.93951" lon="4.7995">
        <ele>205</ele>
        <time>2018-07-25T09:40:24Z</time>
      </trkpt>
      <trkpt lat="45.93952" lon="4.7994">
        <ele>205</ele>
        <time>2018-07-25T09:40:25Z</time>
      </trkpt>
      <trkpt lat="45.93953" lon="4.79931">
        <ele>205</ele>
        <time>2018-07-25T09:40:26Z</time>
      </trkpt>
      <trkpt lat="45.93954" lon="4.79921">
        <ele>205</ele>
        <time>2018-07-25T09:40:27Z</time>
      </trkpt>
      <trkpt lat="45.93955" lon="4.79912">
        <ele>205</ele>
        <time>2018-07-25T09:40:28Z</time>
      </trkpt>
      <trkpt lat="45.93955" lon="4.79902">
        <ele>205</ele>
        <time>2018-07-25T09:40:29Z</time>
      </trkpt>
      <trkpt lat="45.93956" lon="4.79892">
        <ele>206</ele>
        <time>2018-07-25T09:40:30Z</time>
      </trkpt>
      <trkpt lat="45.93957" lon="4.79883">
        <ele>206</ele>
        <time>2018-07-25T09:40:31Z</time>
      </trkpt>
      <trkpt lat="45.93959" lon="4.79873">
        <ele>206</ele>
        <time>2018-07-25T09:40:32Z</time>
      </trkpt>
      <trkpt lat="45.93961" lon="4.79864">
        <ele>206</ele>
        <time>2018-07-25T09:40:33Z</time>
      </trkpt>
      <trkpt lat="45.93963" lon="4.79855">
        <ele>206</ele>
        <time>2018-07-25T09:40:34Z</time>
      </trkpt>
      <trkpt lat="45.93966" lon="4.79845">
        <ele>206</ele>
        <time>2018-07-25T09:40:35Z</time>
      </trkpt>
      <trkpt lat="45.93968" lon="4.79836">
        <ele>206</ele>
        <time>2018-07-25T09:40:36Z</time>
      </trkpt>
      <trkpt lat="45.9397" lon="4.79826">
        <ele>207</ele>
        <time>2018-07-25T09:40:37Z</time>
      </trkpt>
      <trkpt lat="45.93972" lon="4.79816">
        <ele>207</ele>
        <time>2018-07-25T09:40:38Z</time>
      </trkpt>
      <trkpt lat="45.93974" lon="4.79806">
        <ele>207</ele>
        <time>2018-07-25T09:40:39Z</time>
      </trkpt>
      <trkpt lat="45.93976" lon="4.79796">
        <ele>207</ele>
        <time>2018-07-25T09:40:40Z</time>
      </trkpt>
      <trkpt lat="45.93975" lon="4.79785">
        <ele>206</ele>
        <time>2018-07-25T09:40:41Z</time>
      </trkpt>
      <trkpt lat="45.93976" lon="4.79776">
        <ele>206</ele>
        <time>2018-07-25T09:40:42Z</time>
      </trkpt>
      <trkpt lat="45.93975" lon="4.79766">
        <ele>206</ele>
        <time>2018-07-25T09:40:43Z</time>
      </trkpt>
      <trkpt lat="45.93974" lon="4.79757">
        <ele>207</ele>
        <time>2018-07-25T09:40:44Z</time>
      </trkpt>
      <trkpt lat="45.93973" lon="4.79748">
        <ele>207</ele>
        <time>2018-07-25T09:40:45Z</time>
      </trkpt>
      <trkpt lat="45.93972" lon="4.79738">
        <ele>207</ele>
        <time>2018-07-25T09:40:46Z</time>
      </trkpt>
      <trkpt lat="45.93971" lon="4.79729">
        <ele>207</ele>
        <time>2018-07-25T09:40:47Z</time>
      </trkpt>
      <trkpt lat="45.9397" lon="4.79718">
        <ele>207</ele>
        <time>2018-07-25T09:40:48Z</time>
      </trkpt>
      <trkpt lat="45.93969" lon="4.79708">
        <ele>207</ele>
        <time>2018-07-25T09:40:49Z</time>
      </trkpt>
      <trkpt lat="45.93969" lon="4.79698">
        <ele>207</ele>
        <time>2018-07-25T09:40:50Z</time>
      </trkpt>
      <trkpt lat="45.93968" lon="4.79688">
        <ele>207</ele>
        <time>2018-07-25T09:40:51Z</time>
      </trkpt>
      <trkpt lat="45.93968" lon="4.79677">
        <ele>207</ele>
        <time>2018-07-25T09:40:52Z</time>
      </trkpt>
      <trkpt lat="45.93967" lon="4.79666">
        <ele>208</ele>
        <time>2018-07-25T09:40:53Z</time>
      </trkpt>
      <trkpt lat="45.93966" lon="4.79656">
        <ele>207</ele>
        <time>2018-07-25T09:40:54Z</time>
      </trkpt>
      <trkpt lat="45.93965" lon="4.79646">
        <ele>207</ele>
        <time>2018-07-25T09:40:55Z</time>
      </trkpt>
      <trkpt lat="45.93965" lon="4.79637">
        <ele>207</ele>
        <time>2018-07-25T09:40:56Z</time>
      </trkpt>
      <trkpt lat="45.93964" lon="4.79627">
        <ele>207</ele>
        <time>2018-07-25T09:40:57Z</time>
      </trkpt>
      <trkpt lat="45.93963" lon="4.79616">
        <ele>207</ele>
        <time>2018-07-25T09:40:58Z</time>
      </trkpt>
      <trkpt lat="45.93961" lon="4.79606">
        <ele>207</ele>
        <time>2018-07-25T09:40:59Z</time>
      </trkpt>
      <trkpt lat="45.93961" lon="4.79595">
        <ele>207</ele>
        <time>2018-07-25T09:41:00Z</time>
      </trkpt>
      <trkpt lat="45.9396" lon="4.79585">
        <ele>207</ele>
        <time>2018-07-25T09:41:01Z</time>
      </trkpt>
      <trkpt lat="45.9396" lon="4.79575">
        <ele>206</ele>
        <time>2018-07-25T09:41:02Z</time>
      </trkpt>
      <trkpt lat="45.93958" lon="4.79564">
        <ele>205</ele>
        <time>2018-07-25T09:41:03Z</time>
      </trkpt>
      <trkpt lat="45.93958" lon="4.79553">
        <ele>205</ele>
        <time>2018-07-25T09:41:04Z</time>
      </trkpt>
      <trkpt lat="45.93956" lon="4.79543">
        <ele>205</ele>
        <time>2018-07-25T09:41:05Z</time>
      </trkpt>
      <trkpt lat="45.93956" lon="4.79532">
        <ele>205</ele>
        <time>2018-07-25T09:41:06Z</time>
      </trkpt>
      <trkpt lat="45.93955" lon="4.79521">
        <ele>204</ele>
        <time>2018-07-25T09:41:07Z</time>
      </trkpt>
      <trkpt lat="45.93955" lon="4.79509">
        <ele>204</ele>
        <time>2018-07-25T09:41:08Z</time>
      </trkpt>
      <trkpt lat="45.93954" lon="4.79497">
        <ele>203</ele>
        <time>2018-07-25T09:41:09Z</time>
      </trkpt>
      <trkpt lat="45.93953" lon="4.79486">
        <ele>203</ele>
        <time>2018-07-25T09:41:10Z</time>
      </trkpt>
      <trkpt lat="45.93954" lon="4.79474">
        <ele>203</ele>
        <time>2018-07-25T09:41:11Z</time>
      </trkpt>
      <trkpt lat="45.93954" lon="4.79463">
        <ele>203</ele>
        <time>2018-07-25T09:41:12Z</time>
      </trkpt>
      <trkpt lat="45.93953" lon="4.7945">
        <ele>203</ele>
        <time>2018-07-25T09:41:13Z</time>
      </trkpt>
      <trkpt lat="45.93954" lon="4.79438">
        <ele>202</ele>
        <time>2018-07-25T09:41:14Z</time>
      </trkpt>
      <trkpt lat="45.93955" lon="4.79427">
        <ele>202</ele>
        <time>2018-07-25T09:41:15Z</time>
      </trkpt>
      <trkpt lat="45.93954" lon="4.79416">
        <ele>201</ele>
        <time>2018-07-25T09:41:16Z</time>
      </trkpt>
      <trkpt lat="45.93954" lon="4.79404">
        <ele>201</ele>
        <time>2018-07-25T09:41:17Z</time>
      </trkpt>
      <trkpt lat="45.93952" lon="4.79392">
        <ele>201</ele>
        <time>2018-07-25T09:41:18Z</time>
      </trkpt>
      <trkpt lat="45.93952" lon="4.79381">
        <ele>201</ele>
        <time>2018-07-25T09:41:19Z</time>
      </trkpt>
      <trkpt lat="45.93951" lon="4.79367">
        <ele>201</ele>
        <time>2018-07-25T09:41:20Z</time>
      </trkpt>
      <trkpt lat="45.93954" lon="4.7936">
        <ele>201</ele>
        <time>2018-07-25T09:41:21Z</time>
      </trkpt>
      <trkpt lat="45.9395" lon="4.79348">
        <ele>200</ele>
        <time>2018-07-25T09:41:22Z</time>
      </trkpt>
      <trkpt lat="45.93952" lon="4.79338">
        <ele>200</ele>
        <time>2018-07-25T09:41:23Z</time>
      </trkpt>
      <trkpt lat="45.93951" lon="4.79328">
        <ele>198</ele>
        <time>2018-07-25T09:41:24Z</time>
      </trkpt>
      <trkpt lat="45.93951" lon="4.79316">
        <ele>198</ele>
        <time>2018-07-25T09:41:25Z</time>
      </trkpt>
      <trkpt lat="45.93951" lon="4.79305">
        <ele>198</ele>
        <time>2018-07-25T09:41:26Z</time>
      </trkpt>
      <trkpt lat="45.9395" lon="4.79295">
        <ele>198</ele>
        <time>2018-07-25T09:41:27Z</time>
      </trkpt>
      <trkpt lat="45.93951" lon="4.79284">
        <ele>198</ele>
        <time>2018-07-25T09:41:28Z</time>
      </trkpt>
      <trkpt lat="45.9395" lon="4.79273">
        <ele>198</ele>
        <time>2018-07-25T09:41:29Z</time>
      </trkpt>
      <trkpt lat="45.93949" lon="4.79262">
        <ele>197</ele>
        <time>2018-07-25T09:41:30Z</time>
      </trkpt>
      <trkpt lat="45.93951" lon="4.79251">
        <ele>197</ele>
        <time>2018-07-25T09:41:31Z</time>
      </trkpt>
      <trkpt lat="45.93952" lon="4.79241">
        <ele>197</ele>
        <time>2018-07-25T09:41:32Z</time>
      </trkpt>
      <trkpt lat="45.93952" lon="4.79231">
        <ele>197</ele>
        <time>2018-07-25T09:41:33Z</time>
      </trkpt>
      <trkpt lat="45.93951" lon="4.7922">
        <ele>197</ele>
        <time>2018-07-25T09:41:34Z</time>
      </trkpt>
      <trkpt lat="45.9395" lon="4.7921">
        <ele>197</ele>
        <time>2018-07-25T09:41:35Z</time>
      </trkpt>
      <trkpt lat="45.93949" lon="4.79199">
        <ele>197</ele>
        <time>2018-07-25T09:41:36Z</time>
      </trkpt>
      <trkpt lat="45.93948" lon="4.79189">
        <ele>197</ele>
        <time>2018-07-25T09:41:37Z</time>
      </trkpt>
      <trkpt lat="45.93948" lon="4.7918">
        <ele>197</ele>
        <time>2018-07-25T09:41:38Z</time>
      </trkpt>
      <trkpt lat="45.93949" lon="4.79169">
        <ele>197</ele>
        <time>2018-07-25T09:41:39Z</time>
      </trkpt>
      <trkpt lat="45.93948" lon="4.79161">
        <ele>196</ele>
        <time>2018-07-25T09:41:40Z</time>
      </trkpt>
      <trkpt lat="45.93948" lon="4.79151">
        <ele>196</ele>
        <time>2018-07-25T09:41:41Z</time>
      </trkpt>
      <trkpt lat="45.93947" lon="4.7914">
        <ele>197</ele>
        <time>2018-07-25T09:41:42Z</time>
      </trkpt>
      <trkpt lat="45.93946" lon="4.79131">
        <ele>196</ele>
        <time>2018-07-25T09:41:43Z</time>
      </trkpt>
      <trkpt lat="45.93946" lon="4.79121">
        <ele>196</ele>
        <time>2018-07-25T09:41:44Z</time>
      </trkpt>
      <trkpt lat="45.93946" lon="4.79111">
        <ele>196</ele>
        <time>2018-07-25T09:41:45Z</time>
      </trkpt>
      <trkpt lat="45.93947" lon="4.79101">
        <ele>196</ele>
        <time>2018-07-25T09:41:46Z</time>
      </trkpt>
      <trkpt lat="45.93948" lon="4.79091">
        <ele>196</ele>
        <time>2018-07-25T09:41:47Z</time>
      </trkpt>
      <trkpt lat="45.93948" lon="4.79081">
        <ele>196</ele>
        <time>2018-07-25T09:41:48Z</time>
      </trkpt>
      <trkpt lat="45.93947" lon="4.79071">
        <ele>196</ele>
        <time>2018-07-25T09:41:49Z</time>
      </trkpt>
      <trkpt lat="45.93946" lon="4.79061">
        <ele>196</ele>
        <time>2018-07-25T09:41:50Z</time>
      </trkpt>
      <trkpt lat="45.93945" lon="4.79052">
        <ele>195</ele>
        <time>2018-07-25T09:41:51Z</time>
      </trkpt>
      <trkpt lat="45.93945" lon="4.79043">
        <ele>195</ele>
        <time>2018-07-25T09:41:52Z</time>
      </trkpt>
      <trkpt lat="45.93945" lon="4.79033">
        <ele>195</ele>
        <time>2018-07-25T09:41:53Z</time>
      </trkpt>
      <trkpt lat="45.93945" lon="4.79024">
        <ele>195</ele>
        <time>2018-07-25T09:41:54Z</time>
      </trkpt>
      <trkpt lat="45.93944" lon="4.79014">
        <ele>195</ele>
        <time>2018-07-25T09:41:55Z</time>
      </trkpt>
      <trkpt lat="45.93944" lon="4.79005">
        <ele>195</ele>
        <time>2018-07-25T09:41:56Z</time>
      </trkpt>
      <trkpt lat="45.93945" lon="4.78997">
        <ele>194</ele>
        <time>2018-07-25T09:41:57Z</time>
      </trkpt>
      <trkpt lat="45.93943" lon="4.78987">
        <ele>194</ele>
        <time>2018-07-25T09:41:58Z</time>
      </trkpt>
      <trkpt lat="45.93945" lon="4.78978">
        <ele>194</ele>
        <time>2018-07-25T09:41:59Z</time>
      </trkpt>
      <trkpt lat="45.93944" lon="4.78969">
        <ele>194</ele>
        <time>2018-07-25T09:42:00Z</time>
      </trkpt>
      <trkpt lat="45.93943" lon="4.7896">
        <ele>194</ele>
        <time>2018-07-25T09:42:01Z</time>
      </trkpt>
      <trkpt lat="45.93943" lon="4.78951">
        <ele>194</ele>
        <time>2018-07-25T09:42:02Z</time>
      </trkpt>
      <trkpt lat="45.93943" lon="4.78941">
        <ele>194</ele>
        <time>2018-07-25T09:42:03Z</time>
      </trkpt>
      <trkpt lat="45.93942" lon="4.78932">
        <ele>193</ele>
        <time>2018-07-25T09:42:04Z</time>
      </trkpt>
      <trkpt lat="45.93942" lon="4.78924">
        <ele>193</ele>
        <time>2018-07-25T09:42:05Z</time>
      </trkpt>
      <trkpt lat="45.93943" lon="4.78914">
        <ele>193</ele>
        <time>2018-07-25T09:42:06Z</time>
      </trkpt>
      <trkpt lat="45.93942" lon="4.78904">
        <ele>193</ele>
        <time>2018-07-25T09:42:07Z</time>
      </trkpt>
      <trkpt lat="45.93943" lon="4.78895">
        <ele>193</ele>
        <time>2018-07-25T09:42:08Z</time>
      </trkpt>
      <trkpt lat="45.93943" lon="4.78885">
        <ele>194</ele>
        <time>2018-07-25T09:42:09Z</time>
      </trkpt>
      <trkpt lat="45.93941" lon="4.78873">
        <ele>194</ele>
        <time>2018-07-25T09:42:10Z</time>
      </trkpt>
      <trkpt lat="45.93939" lon="4.78862">
        <ele>194</ele>
        <time>2018-07-25T09:42:11Z</time>
      </trkpt>
      <trkpt lat="45.93938" lon="4.78851">
        <ele>193</ele>
        <time>2018-07-25T09:42:12Z</time>
      </trkpt>
      <trkpt lat="45.93937" lon="4.78839">
        <ele>193</ele>
        <time>2018-07-25T09:42:13Z</time>
      </trkpt>
      <trkpt lat="45.93936" lon="4.78828">
        <ele>193</ele>
        <time>2018-07-25T09:42:14Z</time>
      </trkpt>
      <trkpt lat="45.93936" lon="4.78817">
        <ele>194</ele>
        <time>2018-07-25T09:42:15Z</time>
      </trkpt>
      <trkpt lat="45.93937" lon="4.78806">
        <ele>194</ele>
        <time>2018-07-25T09:42:16Z</time>
      </trkpt>
      <trkpt lat="45.93936" lon="4.78796">
        <ele>194</ele>
        <time>2018-07-25T09:42:17Z</time>
      </trkpt>
      <trkpt lat="45.93936" lon="4.78786">
        <ele>194</ele>
        <time>2018-07-25T09:42:18Z</time>
      </trkpt>
      <trkpt lat="45.93936" lon="4.78777">
        <ele>194</ele>
        <time>2018-07-25T09:42:19Z</time>
      </trkpt>
      <trkpt lat="45.93937" lon="4.78768">
        <ele>193</ele>
        <time>2018-07-25T09:42:20Z</time>
      </trkpt>
      <trkpt lat="45.93937" lon="4.78758">
        <ele>193</ele>
        <time>2018-07-25T09:42:21Z</time>
      </trkpt>
      <trkpt lat="45.93937" lon="4.7875">
        <ele>193</ele>
        <time>2018-07-25T09:42:22Z</time>
      </trkpt>
      <trkpt lat="45.93938" lon="4.78742">
        <ele>193</ele>
        <time>2018-07-25T09:42:23Z</time>
      </trkpt>
      <trkpt lat="45.93938" lon="4.78735">
        <ele>193</ele>
        <time>2018-07-25T09:42:24Z</time>
      </trkpt>
      <trkpt lat="45.93937" lon="4.78726">
        <ele>194</ele>
        <time>2018-07-25T09:42:25Z</time>
      </trkpt>
      <trkpt lat="45.93938" lon="4.78719">
        <ele>194</ele>
        <time>2018-07-25T09:42:26Z</time>
      </trkpt>
      <trkpt lat="45.9394" lon="4.78711">
        <ele>194</ele>
        <time>2018-07-25T09:42:27Z</time>
      </trkpt>
      <trkpt lat="45.9394" lon="4.78703">
        <ele>194</ele>
        <time>2018-07-25T09:42:28Z</time>
      </trkpt>
      <trkpt lat="45.9394" lon="4.78693">
        <ele>194</ele>
        <time>2018-07-25T09:42:29Z</time>
      </trkpt>
      <trkpt lat="45.9394" lon="4.78684">
        <ele>194</ele>
        <time>2018-07-25T09:42:30Z</time>
      </trkpt>
      <trkpt lat="45.9394" lon="4.78676">
        <ele>194</ele>
        <time>2018-07-25T09:42:31Z</time>
      </trkpt>
      <trkpt lat="45.93939" lon="4.78667">
        <ele>193</ele>
        <time>2018-07-25T09:42:32Z</time>
      </trkpt>
      <trkpt lat="45.9394" lon="4.7866">
        <ele>194</ele>
        <time>2018-07-25T09:42:33Z</time>
      </trkpt>
      <trkpt lat="45.93939" lon="4.78652">
        <ele>195</ele>
        <time>2018-07-25T09:42:34Z</time>
      </trkpt>
      <trkpt lat="45.93938" lon="4.78646">
        <ele>195</ele>
        <time>2018-07-25T09:42:35Z</time>
      </trkpt>
      <trkpt lat="45.93938" lon="4.78638">
        <ele>195</ele>
        <time>2018-07-25T09:42:36Z</time>
      </trkpt>
      <trkpt lat="45.9394" lon="4.78629">
        <ele>196</ele>
        <time>2018-07-25T09:42:37Z</time>
      </trkpt>
      <trkpt lat="45.93938" lon="4.78619">
        <ele>196</ele>
        <time>2018-07-25T09:42:38Z</time>
      </trkpt>
      <trkpt lat="45.93936" lon="4.78613">
        <ele>196</ele>
        <time>2018-07-25T09:42:39Z</time>
      </trkpt>
      <trkpt lat="45.93935" lon="4.78605">
        <ele>195</ele>
        <time>2018-07-25T09:42:40Z</time>
      </trkpt>
      <trkpt lat="45.93936" lon="4.78597">
        <ele>195</ele>
        <time>2018-07-25T09:42:41Z</time>
      </trkpt>
      <trkpt lat="45.93935" lon="4.78589">
        <ele>195</ele>
        <time>2018-07-25T09:42:42Z</time>
      </trkpt>
      <trkpt lat="45.93935" lon="4.78579">
        <ele>196</ele>
        <time>2018-07-25T09:42:44Z</time>
      </trkpt>
      <trkpt lat="45.93935" lon="4.7857">
        <ele>196</ele>
        <time>2018-07-25T09:42:45Z</time>
      </trkpt>
      <trkpt lat="45.93934" lon="4.78559">
        <ele>197</ele>
        <time>2018-07-25T09:42:47Z</time>
      </trkpt>
      <trkpt lat="45.93933" lon="4.78554">
        <ele>197</ele>
        <time>2018-07-25T09:42:48Z</time>
      </trkpt>
      <trkpt lat="45.93933" lon="4.78541">
        <ele>197</ele>
        <time>2018-07-25T09:42:50Z</time>
      </trkpt>
      <trkpt lat="45.93935" lon="4.78537">
        <ele>197</ele>
        <time>2018-07-25T09:42:51Z</time>
      </trkpt>
      <trkpt lat="45.93935" lon="4.78525">
        <ele>197</ele>
        <time>2018-07-25T09:42:53Z</time>
      </trkpt>
      <trkpt lat="45.93935" lon="4.78518">
        <ele>197</ele>
        <time>2018-07-25T09:42:54Z</time>
      </trkpt>
      <trkpt lat="45.93935" lon="4.7851">
        <ele>197</ele>
        <time>2018-07-25T09:42:55Z</time>
      </trkpt>
      <trkpt lat="45.93937" lon="4.78504">
        <ele>197</ele>
        <time>2018-07-25T09:42:56Z</time>
      </trkpt>
      <trkpt lat="45.93937" lon="4.78498">
        <ele>197</ele>
        <time>2018-07-25T09:42:57Z</time>
      </trkpt>
      <trkpt lat="45.93939" lon="4.7849">
        <ele>197</ele>
        <time>2018-07-25T09:42:58Z</time>
      </trkpt>
      <trkpt lat="45.93941" lon="4.78478">
        <ele>197</ele>
        <time>2018-07-25T09:43:00Z</time>
      </trkpt>
      <trkpt lat="45.93942" lon="4.78471">
        <ele>197</ele>
        <time>2018-07-25T09:43:01Z</time>
      </trkpt>
      <trkpt lat="45.93945" lon="4.78459">
        <ele>197</ele>
        <time>2018-07-25T09:43:03Z</time>
      </trkpt>
      <trkpt lat="45.93945" lon="4.78452">
        <ele>197</ele>
        <time>2018-07-25T09:43:04Z</time>
      </trkpt>
      <trkpt lat="45.93946" lon="4.78445">
        <ele>197</ele>
        <time>2018-07-25T09:43:05Z</time>
      </trkpt>
      <trkpt lat="45.93947" lon="4.78438">
        <ele>197</ele>
        <time>2018-07-25T09:43:06Z</time>
      </trkpt>
      <trkpt lat="45.93948" lon="4.78431">
        <ele>197</ele>
        <time>2018-07-25T09:43:07Z</time>
      </trkpt>
      <trkpt lat="45.93949" lon="4.78424">
        <ele>197</ele>
        <time>2018-07-25T09:43:08Z</time>
      </trkpt>
      <trkpt lat="45.93949" lon="4.78415">
        <ele>196</ele>
        <time>2018-07-25T09:43:09Z</time>
      </trkpt>
      <trkpt lat="45.93951" lon="4.78408">
        <ele>196</ele>
        <time>2018-07-25T09:43:10Z</time>
      </trkpt>
      <trkpt lat="45.93952" lon="4.784">
        <ele>196</ele>
        <time>2018-07-25T09:43:11Z</time>
      </trkpt>
      <trkpt lat="45.93955" lon="4.78394">
        <ele>196</ele>
        <time>2018-07-25T09:43:12Z</time>
      </trkpt>
      <trkpt lat="45.93954" lon="4.78386">
        <ele>196</ele>
        <time>2018-07-25T09:43:13Z</time>
      </trkpt>
      <trkpt lat="45.93955" lon="4.78377">
        <ele>196</ele>
        <time>2018-07-25T09:43:14Z</time>
      </trkpt>
      <trkpt lat="45.93955" lon="4.78369">
        <ele>196</ele>
        <time>2018-07-25T09:43:15Z</time>
      </trkpt>
      <trkpt lat="45.93956" lon="4.78361">
        <ele>196</ele>
        <time>2018-07-25T09:43:16Z</time>
      </trkpt>
      <trkpt lat="45.93957" lon="4.78354">
        <ele>196</ele>
        <time>2018-07-25T09:43:17Z</time>
      </trkpt>
      <trkpt lat="45.93959" lon="4.78346">
        <ele>196</ele>
        <time>2018-07-25T09:43:18Z</time>
      </trkpt>
      <trkpt lat="45.93959" lon="4.78338">
        <ele>196</ele>
        <time>2018-07-25T09:43:19Z</time>
      </trkpt>
      <trkpt lat="45.93959" lon="4.7833">
        <ele>195</ele>
        <time>2018-07-25T09:43:20Z</time>
      </trkpt>
      <trkpt lat="45.9396" lon="4.78324">
        <ele>195</ele>
        <time>2018-07-25T09:43:21Z</time>
      </trkpt>
      <trkpt lat="45.93961" lon="4.78317">
        <ele>195</ele>
        <time>2018-07-25T09:43:22Z</time>
      </trkpt>
      <trkpt lat="45.93963" lon="4.78305">
        <ele>195</ele>
        <time>2018-07-25T09:43:24Z</time>
      </trkpt>
      <trkpt lat="45.93965" lon="4.783">
        <ele>195</ele>
        <time>2018-07-25T09:43:25Z</time>
      </trkpt>
      <trkpt lat="45.93966" lon="4.78294">
        <ele>195</ele>
        <time>2018-07-25T09:43:26Z</time>
      </trkpt>
      <trkpt lat="45.93966" lon="4.78286">
        <ele>195</ele>
        <time>2018-07-25T09:43:27Z</time>
      </trkpt>
      <trkpt lat="45.93969" lon="4.78281">
        <ele>196</ele>
        <time>2018-07-25T09:43:28Z</time>
      </trkpt>
      <trkpt lat="45.9397" lon="4.78274">
        <ele>196</ele>
        <time>2018-07-25T09:43:29Z</time>
      </trkpt>
      <trkpt lat="45.93971" lon="4.78267">
        <ele>196</ele>
        <time>2018-07-25T09:43:30Z</time>
      </trkpt>
      <trkpt lat="45.93972" lon="4.78261">
        <ele>196</ele>
        <time>2018-07-25T09:43:31Z</time>
      </trkpt>
      <trkpt lat="45.93972" lon="4.78254">
        <ele>196</ele>
        <time>2018-07-25T09:43:32Z</time>
      </trkpt>
      <trkpt lat="45.93972" lon="4.78246">
        <ele>196</ele>
        <time>2018-07-25T09:43:33Z</time>
      </trkpt>
      <trkpt lat="45.93972" lon="4.78239">
        <ele>196</ele>
        <time>2018-07-25T09:43:34Z</time>
      </trkpt>
      <trkpt lat="45.93973" lon="4.78232">
        <ele>196</ele>
        <time>2018-07-25T09:43:35Z</time>
      </trkpt>
      <trkpt lat="45.93975" lon="4.78226">
        <ele>196</ele>
        <time>2018-07-25T09:43:36Z</time>
      </trkpt>
      <trkpt lat="45.93978" lon="4.78219">
        <ele>197</ele>
        <time>2018-07-25T09:43:37Z</time>
      </trkpt>
      <trkpt lat="45.93981" lon="4.78207">
        <ele>197</ele>
        <time>2018-07-25T09:43:39Z</time>
      </trkpt>
      <trkpt lat="45.93981" lon="4.782">
        <ele>197</ele>
        <time>2018-07-25T09:43:40Z</time>
      </trkpt>
      <trkpt lat="45.93984" lon="4.78189">
        <ele>198</ele>
        <time>2018-07-25T09:43:42Z</time>
      </trkpt>
      <trkpt lat="45.93987" lon="4.78186">
        <ele>198</ele>
        <time>2018-07-25T09:43:43Z</time>
      </trkpt>
      <trkpt lat="45.93991" lon="4.78175">
        <ele>199</ele>
        <time>2018-07-25T09:43:45Z</time>
      </trkpt>
      <trkpt lat="45.93993" lon="4.7817">
        <ele>200</ele>
        <time>2018-07-25T09:43:46Z</time>
      </trkpt>
      <trkpt lat="45.93996" lon="4.78159">
        <ele>199</ele>
        <time>2018-07-25T09:43:48Z</time>
      </trkpt>
      <trkpt lat="45.93997" lon="4.78154">
        <ele>199</ele>
        <time>2018-07-25T09:43:49Z</time>
      </trkpt>
      <trkpt lat="45.93996" lon="4.78146">
        <ele>198</ele>
        <time>2018-07-25T09:43:50Z</time>
      </trkpt>
      <trkpt lat="45.93995" lon="4.7814">
        <ele>198</ele>
        <time>2018-07-25T09:43:51Z</time>
      </trkpt>
      <trkpt lat="45.93997" lon="4.78134">
        <ele>198</ele>
        <time>2018-07-25T09:43:52Z</time>
      </trkpt>
      <trkpt lat="45.93997" lon="4.78126">
        <ele>197</ele>
        <time>2018-07-25T09:43:53Z</time>
      </trkpt>
      <trkpt lat="45.93997" lon="4.78119">
        <ele>197</ele>
        <time>2018-07-25T09:43:54Z</time>
      </trkpt>
      <trkpt lat="45.93998" lon="4.78112">
        <ele>197</ele>
        <time>2018-07-25T09:43:55Z</time>
      </trkpt>
      <trkpt lat="45.93999" lon="4.78104">
        <ele>197</ele>
        <time>2018-07-25T09:43:56Z</time>
      </trkpt>
      <trkpt lat="45.94" lon="4.78095">
        <ele>198</ele>
        <time>2018-07-25T09:43:57Z</time>
      </trkpt>
      <trkpt lat="45.94" lon="4.78087">
        <ele>199</ele>
        <time>2018-07-25T09:43:58Z</time>
      </trkpt>
      <trkpt lat="45.94002" lon="4.78079">
        <ele>200</ele>
        <time>2018-07-25T09:43:59Z</time>
      </trkpt>
      <trkpt lat="45.94001" lon="4.7807">
        <ele>200</ele>
        <time>2018-07-25T09:44:00Z</time>
      </trkpt>
      <trkpt lat="45.94003" lon="4.78063">
        <ele>201</ele>
        <time>2018-07-25T09:44:01Z</time>
      </trkpt>
      <trkpt lat="45.94004" lon="4.78055">
        <ele>201</ele>
        <time>2018-07-25T09:44:02Z</time>
      </trkpt>
      <trkpt lat="45.94007" lon="4.78047">
        <ele>201</ele>
        <time>2018-07-25T09:44:03Z</time>
      </trkpt>
      <trkpt lat="45.94009" lon="4.78039">
        <ele>201</ele>
        <time>2018-07-25T09:44:04Z</time>
      </trkpt>
      <trkpt lat="45.94012" lon="4.78032">
        <ele>201</ele>
        <time>2018-07-25T09:44:05Z</time>
      </trkpt>
      <trkpt lat="45.94014" lon="4.78024">
        <ele>201</ele>
        <time>2018-07-25T09:44:06Z</time>
      </trkpt>
      <trkpt lat="45.94014" lon="4.78017">
        <ele>200</ele>
        <time>2018-07-25T09:44:07Z</time>
      </trkpt>
      <trkpt lat="45.94015" lon="4.78008">
        <ele>200</ele>
        <time>2018-07-25T09:44:08Z</time>
      </trkpt>
      <trkpt lat="45.94016" lon="4.78">
        <ele>200</ele>
        <time>2018-07-25T09:44:09Z</time>
      </trkpt>
      <trkpt lat="45.94018" lon="4.77994">
        <ele>199</ele>
        <time>2018-07-25T09:44:10Z</time>
      </trkpt>
      <trkpt lat="45.94019" lon="4.77984">
        <ele>200</ele>
        <time>2018-07-25T09:44:11Z</time>
      </trkpt>
      <trkpt lat="45.94021" lon="4.77975">
        <ele>200</ele>
        <time>2018-07-25T09:44:12Z</time>
      </trkpt>
      <trkpt lat="45.94022" lon="4.77968">
        <ele>200</ele>
        <time>2018-07-25T09:44:13Z</time>
      </trkpt>
      <trkpt lat="45.94023" lon="4.77961">
        <ele>200</ele>
        <time>2018-07-25T09:44:14Z</time>
      </trkpt>
      <trkpt lat="45.94024" lon="4.77954">
        <ele>200</ele>
        <time>2018-07-25T09:44:15Z</time>
      </trkpt>
      <trkpt lat="45.94027" lon="4.77942">
        <ele>200</ele>
        <time>2018-07-25T09:44:17Z</time>
      </trkpt>
      <trkpt lat="45.94029" lon="4.77935">
        <ele>200</ele>
        <time>2018-07-25T09:44:18Z</time>
      </trkpt>
      <trkpt lat="45.94028" lon="4.77923">
        <ele>200</ele>
        <time>2018-07-25T09:44:20Z</time>
      </trkpt>
      <trkpt lat="45.94027" lon="4.77918">
        <ele>199</ele>
        <time>2018-07-25T09:44:21Z</time>
      </trkpt>
      <trkpt lat="45.94021" lon="4.77918">
        <ele>198</ele>
        <time>2018-07-25T09:44:22Z</time>
      </trkpt>
      <trkpt lat="45.94016" lon="4.77918">
        <ele>198</ele>
        <time>2018-07-25T09:44:23Z</time>
      </trkpt>
      <trkpt lat="45.9401" lon="4.77917">
        <ele>196</ele>
        <time>2018-07-25T09:44:24Z</time>
      </trkpt>
      <trkpt lat="45.94003" lon="4.77918">
        <ele>195</ele>
        <time>2018-07-25T09:44:25Z</time>
      </trkpt>
      <trkpt lat="45.93997" lon="4.77921">
        <ele>193</ele>
        <time>2018-07-25T09:44:26Z</time>
      </trkpt>
      <trkpt lat="45.93989" lon="4.77924">
        <ele>192</ele>
        <time>2018-07-25T09:44:27Z</time>
      </trkpt>
      <trkpt lat="45.93982" lon="4.77929">
        <ele>192</ele>
        <time>2018-07-25T09:44:28Z</time>
      </trkpt>
      <trkpt lat="45.93975" lon="4.77933">
        <ele>191</ele>
        <time>2018-07-25T09:44:29Z</time>
      </trkpt>
      <trkpt lat="45.93968" lon="4.77938">
        <ele>190</ele>
        <time>2018-07-25T09:44:30Z</time>
      </trkpt>
      <trkpt lat="45.9396" lon="4.77943">
        <ele>190</ele>
        <time>2018-07-25T09:44:31Z</time>
      </trkpt>
      <trkpt lat="45.93954" lon="4.77949">
        <ele>190</ele>
        <time>2018-07-25T09:44:32Z</time>
      </trkpt>
      <trkpt lat="45.93947" lon="4.77953">
        <ele>189</ele>
        <time>2018-07-25T09:44:33Z</time>
      </trkpt>
      <trkpt lat="45.93938" lon="4.77958">
        <ele>189</ele>
        <time>2018-07-25T09:44:34Z</time>
      </trkpt>
      <trkpt lat="45.93931" lon="4.77963">
        <ele>189</ele>
        <time>2018-07-25T09:44:35Z</time>
      </trkpt>
      <trkpt lat="45.93925" lon="4.77968">
        <ele>188</ele>
        <time>2018-07-25T09:44:36Z</time>
      </trkpt>
      <trkpt lat="45.93919" lon="4.77973">
        <ele>188</ele>
        <time>2018-07-25T09:44:37Z</time>
      </trkpt>
      <trkpt lat="45.93913" lon="4.77978">
        <ele>182</ele>
        <time>2018-07-25T09:44:38Z</time>
      </trkpt>
      <trkpt lat="45.93907" lon="4.77984">
        <ele>182</ele>
        <time>2018-07-25T09:44:39Z</time>
      </trkpt>
      <trkpt lat="45.93902" lon="4.77989">
        <ele>182</ele>
        <time>2018-07-25T09:44:40Z</time>
      </trkpt>
      <trkpt lat="45.93897" lon="4.77994">
        <ele>182</ele>
        <time>2018-07-25T09:44:41Z</time>
      </trkpt>
      <trkpt lat="45.93893" lon="4.78">
        <ele>184</ele>
        <time>2018-07-25T09:44:42Z</time>
      </trkpt>
      <trkpt lat="45.93888" lon="4.78005">
        <ele>184</ele>
        <time>2018-07-25T09:44:43Z</time>
      </trkpt>
      <trkpt lat="45.93884" lon="4.78009">
        <ele>184</ele>
        <time>2018-07-25T09:44:44Z</time>
      </trkpt>
      <trkpt lat="45.93876" lon="4.78011">
        <ele>183</ele>
        <time>2018-07-25T09:44:46Z</time>
      </trkpt>
      <trkpt lat="45.93872" lon="4.78003">
        <ele>183</ele>
        <time>2018-07-25T09:44:47Z</time>
      </trkpt>
      <trkpt lat="45.93867" lon="4.77998">
        <ele>180</ele>
        <time>2018-07-25T09:44:48Z</time>
      </trkpt>
      <trkpt lat="45.93862" lon="4.77993">
        <ele>179</ele>
        <time>2018-07-25T09:44:49Z</time>
      </trkpt>
      <trkpt lat="45.93857" lon="4.7799">
        <ele>179</ele>
        <time>2018-07-25T09:44:50Z</time>
      </trkpt>
      <trkpt lat="45.93853" lon="4.77985">
        <ele>179</ele>
        <time>2018-07-25T09:44:51Z</time>
      </trkpt>
      <trkpt lat="45.93849" lon="4.7798">
        <ele>178</ele>
        <time>2018-07-25T09:44:52Z</time>
      </trkpt>
      <trkpt lat="45.93844" lon="4.77975">
        <ele>178</ele>
        <time>2018-07-25T09:44:53Z</time>
      </trkpt>
      <trkpt lat="45.9384" lon="4.77969">
        <ele>178</ele>
        <time>2018-07-25T09:44:54Z</time>
      </trkpt>
      <trkpt lat="45.93837" lon="4.77963">
        <ele>177</ele>
        <time>2018-07-25T09:44:55Z</time>
      </trkpt>
      <trkpt lat="45.93834" lon="4.77958">
        <ele>176</ele>
        <time>2018-07-25T09:44:56Z</time>
      </trkpt>
      <trkpt lat="45.9383" lon="4.77954">
        <ele>170</ele>
        <time>2018-07-25T09:44:57Z</time>
      </trkpt>
      <trkpt lat="45.93825" lon="4.77949">
        <ele>169</ele>
        <time>2018-07-25T09:44:58Z</time>
      </trkpt>
      <trkpt lat="45.93821" lon="4.77945">
        <ele>169</ele>
        <time>2018-07-25T09:44:59Z</time>
      </trkpt>
      <trkpt lat="45.93817" lon="4.77941">
        <ele>169</ele>
        <time>2018-07-25T09:45:00Z</time>
      </trkpt>
      <trkpt lat="45.93812" lon="4.77937">
        <ele>169</ele>
        <time>2018-07-25T09:45:01Z</time>
      </trkpt>
      <trkpt lat="45.93808" lon="4.77931">
        <ele>168</ele>
        <time>2018-07-25T09:45:02Z</time>
      </trkpt>
      <trkpt lat="45.93803" lon="4.77927">
        <ele>168</ele>
        <time>2018-07-25T09:45:03Z</time>
      </trkpt>
      <trkpt lat="45.93799" lon="4.77921">
        <ele>168</ele>
        <time>2018-07-25T09:45:04Z</time>
      </trkpt>
      <trkpt lat="45.93795" lon="4.77915">
        <ele>166</ele>
        <time>2018-07-25T09:45:05Z</time>
      </trkpt>
      <trkpt lat="45.93791" lon="4.77909">
        <ele>166</ele>
        <time>2018-07-25T09:45:06Z</time>
      </trkpt>
      <trkpt lat="45.93787" lon="4.77904">
        <ele>166</ele>
        <time>2018-07-25T09:45:07Z</time>
      </trkpt>
      <trkpt lat="45.93783" lon="4.77898">
        <ele>166</ele>
        <time>2018-07-25T09:45:08Z</time>
      </trkpt>
      <trkpt lat="45.93779" lon="4.77894">
        <ele>166</ele>
        <time>2018-07-25T09:45:09Z</time>
      </trkpt>
      <trkpt lat="45.93775" lon="4.77887">
        <ele>166</ele>
        <time>2018-07-25T09:45:10Z</time>
      </trkpt>
      <trkpt lat="45.93771" lon="4.77882">
        <ele>166</ele>
        <time>2018-07-25T09:45:11Z</time>
      </trkpt>
      <trkpt lat="45.93768" lon="4.77877">
        <ele>166</ele>
        <time>2018-07-25T09:45:12Z</time>
      </trkpt>
      <trkpt lat="45.93765" lon="4.77872">
        <ele>166</ele>
        <time>2018-07-25T09:45:13Z</time>
      </trkpt>
      <trkpt lat="45.93761" lon="4.77868">
        <ele>166</ele>
        <time>2018-07-25T09:45:14Z</time>
      </trkpt>
      <trkpt lat="45.93757" lon="4.77863">
        <ele>166</ele>
        <time>2018-07-25T09:45:15Z</time>
      </trkpt>
      <trkpt lat="45.93753" lon="4.77858">
        <ele>166</ele>
        <time>2018-07-25T09:45:16Z</time>
      </trkpt>
      <trkpt lat="45.93749" lon="4.77853">
        <ele>167</ele>
        <time>2018-07-25T09:45:17Z</time>
      </trkpt>
      <trkpt lat="45.93745" lon="4.77847">
        <ele>166</ele>
        <time>2018-07-25T09:45:18Z</time>
      </trkpt>
      <trkpt lat="45.93741" lon="4.77841">
        <ele>166</ele>
        <time>2018-07-25T09:45:19Z</time>
      </trkpt>
      <trkpt lat="45.93736" lon="4.77836">
        <ele>167</ele>
        <time>2018-07-25T09:45:20Z</time>
      </trkpt>
      <trkpt lat="45.9373" lon="4.77831">
        <ele>168</ele>
        <time>2018-07-25T09:45:21Z</time>
      </trkpt>
      <trkpt lat="45.93725" lon="4.77825">
        <ele>168</ele>
        <time>2018-07-25T09:45:22Z</time>
      </trkpt>
      <trkpt lat="45.9372" lon="4.77818">
        <ele>169</ele>
        <time>2018-07-25T09:45:23Z</time>
      </trkpt>
      <trkpt lat="45.93715" lon="4.77812">
        <ele>169</ele>
        <time>2018-07-25T09:45:24Z</time>
      </trkpt>
      <trkpt lat="45.93708" lon="4.77806">
        <ele>169</ele>
        <time>2018-07-25T09:45:25Z</time>
      </trkpt>
      <trkpt lat="45.93703" lon="4.778">
        <ele>169</ele>
        <time>2018-07-25T09:45:26Z</time>
      </trkpt>
      <trkpt lat="45.93698" lon="4.77794">
        <ele>169</ele>
        <time>2018-07-25T09:45:27Z</time>
      </trkpt>
      <trkpt lat="45.93694" lon="4.77786">
        <ele>170</ele>
        <time>2018-07-25T09:45:28Z</time>
      </trkpt>
      <trkpt lat="45.93689" lon="4.77779">
        <ele>170</ele>
        <time>2018-07-25T09:45:29Z</time>
      </trkpt>
      <trkpt lat="45.93684" lon="4.77772">
        <ele>170</ele>
        <time>2018-07-25T09:45:30Z</time>
      </trkpt>
      <trkpt lat="45.93679" lon="4.77766">
        <ele>170</ele>
        <time>2018-07-25T09:45:31Z</time>
      </trkpt>
      <trkpt lat="45.93674" lon="4.77758">
        <ele>170</ele>
        <time>2018-07-25T09:45:32Z</time>
      </trkpt>
      <trkpt lat="45.93668" lon="4.7775">
        <ele>171</ele>
        <time>2018-07-25T09:45:33Z</time>
      </trkpt>
      <trkpt lat="45.93663" lon="4.77742">
        <ele>171</ele>
        <time>2018-07-25T09:45:34Z</time>
      </trkpt>
      <trkpt lat="45.93658" lon="4.77733">
        <ele>170</ele>
        <time>2018-07-25T09:45:35Z</time>
      </trkpt>
      <trkpt lat="45.93653" lon="4.77724">
        <ele>170</ele>
        <time>2018-07-25T09:45:36Z</time>
      </trkpt>
      <trkpt lat="45.93648" lon="4.77716">
        <ele>170</ele>
        <time>2018-07-25T09:45:37Z</time>
      </trkpt>
      <trkpt lat="45.9364" lon="4.77707">
        <ele>170</ele>
        <time>2018-07-25T09:45:38Z</time>
      </trkpt>
      <trkpt lat="45.93635" lon="4.77698">
        <ele>169</ele>
        <time>2018-07-25T09:45:39Z</time>
      </trkpt>
      <trkpt lat="45.9363" lon="4.77687">
        <ele>169</ele>
        <time>2018-07-25T09:45:40Z</time>
      </trkpt>
      <trkpt lat="45.93625" lon="4.77677">
        <ele>169</ele>
        <time>2018-07-25T09:45:41Z</time>
      </trkpt>
      <trkpt lat="45.93621" lon="4.77667">
        <ele>169</ele>
        <time>2018-07-25T09:45:42Z</time>
      </trkpt>
      <trkpt lat="45.93617" lon="4.77657">
        <ele>169</ele>
        <time>2018-07-25T09:45:43Z</time>
      </trkpt>
      <trkpt lat="45.93612" lon="4.77647">
        <ele>169</ele>
        <time>2018-07-25T09:45:44Z</time>
      </trkpt>
      <trkpt lat="45.93608" lon="4.77637">
        <ele>169</ele>
        <time>2018-07-25T09:45:45Z</time>
      </trkpt>
      <trkpt lat="45.93604" lon="4.77626">
        <ele>169</ele>
        <time>2018-07-25T09:45:46Z</time>
      </trkpt>
      <trkpt lat="45.93601" lon="4.77617">
        <ele>170</ele>
        <time>2018-07-25T09:45:47Z</time>
      </trkpt>
      <trkpt lat="45.93598" lon="4.77607">
        <ele>170</ele>
        <time>2018-07-25T09:45:48Z</time>
      </trkpt>
      <trkpt lat="45.93595" lon="4.77598">
        <ele>170</ele>
        <time>2018-07-25T09:45:49Z</time>
      </trkpt>
      <trkpt lat="45.93593" lon="4.77591">
        <ele>170</ele>
        <time>2018-07-25T09:45:50Z</time>
      </trkpt>
      <trkpt lat="45.93589" lon="4.77582">
        <ele>170</ele>
        <time>2018-07-25T09:45:51Z</time>
      </trkpt>
      <trkpt lat="45.93587" lon="4.77573">
        <ele>170</ele>
        <time>2018-07-25T09:45:52Z</time>
      </trkpt>
      <trkpt lat="45.93584" lon="4.77565">
        <ele>170</ele>
        <time>2018-07-25T09:45:53Z</time>
      </trkpt>
      <trkpt lat="45.93581" lon="4.77557">
        <ele>169</ele>
        <time>2018-07-25T09:45:54Z</time>
      </trkpt>
      <trkpt lat="45.93579" lon="4.77548">
        <ele>169</ele>
        <time>2018-07-25T09:45:55Z</time>
      </trkpt>
      <trkpt lat="45.93578" lon="4.77541">
        <ele>169</ele>
        <time>2018-07-25T09:45:56Z</time>
      </trkpt>
      <trkpt lat="45.93576" lon="4.77534">
        <ele>169</ele>
        <time>2018-07-25T09:45:57Z</time>
      </trkpt>
      <trkpt lat="45.93574" lon="4.77526">
        <ele>169</ele>
        <time>2018-07-25T09:45:58Z</time>
      </trkpt>
      <trkpt lat="45.93572" lon="4.77519">
        <ele>169</ele>
        <time>2018-07-25T09:45:59Z</time>
      </trkpt>
      <trkpt lat="45.9357" lon="4.77511">
        <ele>169</ele>
        <time>2018-07-25T09:46:00Z</time>
      </trkpt>
      <trkpt lat="45.93568" lon="4.77502">
        <ele>169</ele>
        <time>2018-07-25T09:46:01Z</time>
      </trkpt>
      <trkpt lat="45.93567" lon="4.77494">
        <ele>169</ele>
        <time>2018-07-25T09:46:02Z</time>
      </trkpt>
      <trkpt lat="45.93565" lon="4.77486">
        <ele>169</ele>
        <time>2018-07-25T09:46:03Z</time>
      </trkpt>
      <trkpt lat="45.93563" lon="4.77478">
        <ele>169</ele>
        <time>2018-07-25T09:46:04Z</time>
      </trkpt>
      <trkpt lat="45.93562" lon="4.77469">
        <ele>169</ele>
        <time>2018-07-25T09:46:05Z</time>
      </trkpt>
      <trkpt lat="45.9356" lon="4.77461">
        <ele>169</ele>
        <time>2018-07-25T09:46:06Z</time>
      </trkpt>
      <trkpt lat="45.93557" lon="4.77453">
        <ele>169</ele>
        <time>2018-07-25T09:46:07Z</time>
      </trkpt>
      <trkpt lat="45.93555" lon="4.77445">
        <ele>169</ele>
        <time>2018-07-25T09:46:08Z</time>
      </trkpt>
      <trkpt lat="45.93554" lon="4.77438">
        <ele>169</ele>
        <time>2018-07-25T09:46:09Z</time>
      </trkpt>
      <trkpt lat="45.9355" lon="4.77429">
        <ele>170</ele>
        <time>2018-07-25T09:46:10Z</time>
      </trkpt>
      <trkpt lat="45.93548" lon="4.7742">
        <ele>170</ele>
        <time>2018-07-25T09:46:11Z</time>
      </trkpt>
      <trkpt lat="45.93547" lon="4.77411">
        <ele>170</ele>
        <time>2018-07-25T09:46:12Z</time>
      </trkpt>
      <trkpt lat="45.93546" lon="4.77403">
        <ele>170</ele>
        <time>2018-07-25T09:46:13Z</time>
      </trkpt>
      <trkpt lat="45.93544" lon="4.77394">
        <ele>170</ele>
        <time>2018-07-25T09:46:14Z</time>
      </trkpt>
      <trkpt lat="45.93542" lon="4.77386">
        <ele>170</ele>
        <time>2018-07-25T09:46:15Z</time>
      </trkpt>
      <trkpt lat="45.93541" lon="4.77377">
        <ele>170</ele>
        <time>2018-07-25T09:46:16Z</time>
      </trkpt>
      <trkpt lat="45.93539" lon="4.77369">
        <ele>170</ele>
        <time>2018-07-25T09:46:17Z</time>
      </trkpt>
      <trkpt lat="45.93538" lon="4.77362">
        <ele>170</ele>
        <time>2018-07-25T09:46:18Z</time>
      </trkpt>
      <trkpt lat="45.93536" lon="4.77355">
        <ele>170</ele>
        <time>2018-07-25T09:46:19Z</time>
      </trkpt>
      <trkpt lat="45.93534" lon="4.77348">
        <ele>170</ele>
        <time>2018-07-25T09:46:20Z</time>
      </trkpt>
      <trkpt lat="45.93533" lon="4.7734">
        <ele>170</ele>
        <time>2018-07-25T09:46:21Z</time>
      </trkpt>
      <trkpt lat="45.93531" lon="4.77332">
        <ele>170</ele>
        <time>2018-07-25T09:46:22Z</time>
      </trkpt>
      <trkpt lat="45.9353" lon="4.77325">
        <ele>170</ele>
        <time>2018-07-25T09:46:23Z</time>
      </trkpt>
      <trkpt lat="45.93529" lon="4.77316">
        <ele>170</ele>
        <time>2018-07-25T09:46:24Z</time>
      </trkpt>
      <trkpt lat="45.93527" lon="4.77308">
        <ele>170</ele>
        <time>2018-07-25T09:46:25Z</time>
      </trkpt>
      <trkpt lat="45.93526" lon="4.773">
        <ele>170</ele>
        <time>2018-07-25T09:46:26Z</time>
      </trkpt>
      <trkpt lat="45.93524" lon="4.77291">
        <ele>170</ele>
        <time>2018-07-25T09:46:27Z</time>
      </trkpt>
      <trkpt lat="45.93522" lon="4.77282">
        <ele>170</ele>
        <time>2018-07-25T09:46:28Z</time>
      </trkpt>
      <trkpt lat="45.93519" lon="4.77273">
        <ele>170</ele>
        <time>2018-07-25T09:46:29Z</time>
      </trkpt>
      <trkpt lat="45.93516" lon="4.77264">
        <ele>170</ele>
        <time>2018-07-25T09:46:30Z</time>
      </trkpt>
      <trkpt lat="45.93513" lon="4.77255">
        <ele>170</ele>
        <time>2018-07-25T09:46:31Z</time>
      </trkpt>
      <trkpt lat="45.93513" lon="4.77247">
        <ele>169</ele>
        <time>2018-07-25T09:46:32Z</time>
      </trkpt>
      <trkpt lat="45.93511" lon="4.77239">
        <ele>169</ele>
        <time>2018-07-25T09:46:33Z</time>
      </trkpt>
      <trkpt lat="45.9351" lon="4.77231">
        <ele>169</ele>
        <time>2018-07-25T09:46:34Z</time>
      </trkpt>
      <trkpt lat="45.93508" lon="4.77223">
        <ele>169</ele>
        <time>2018-07-25T09:46:35Z</time>
      </trkpt>
      <trkpt lat="45.93506" lon="4.77216">
        <ele>169</ele>
        <time>2018-07-25T09:46:36Z</time>
      </trkpt>
      <trkpt lat="45.93505" lon="4.77208">
        <ele>169</ele>
        <time>2018-07-25T09:46:37Z</time>
      </trkpt>
      <trkpt lat="45.93503" lon="4.772">
        <ele>169</ele>
        <time>2018-07-25T09:46:38Z</time>
      </trkpt>
      <trkpt lat="45.93502" lon="4.77193">
        <ele>169</ele>
        <time>2018-07-25T09:46:39Z</time>
      </trkpt>
      <trkpt lat="45.935" lon="4.77184">
        <ele>169</ele>
        <time>2018-07-25T09:46:40Z</time>
      </trkpt>
      <trkpt lat="45.93497" lon="4.77174">
        <ele>169</ele>
        <time>2018-07-25T09:46:41Z</time>
      </trkpt>
      <trkpt lat="45.93495" lon="4.77167">
        <ele>169</ele>
        <time>2018-07-25T09:46:42Z</time>
      </trkpt>
      <trkpt lat="45.93493" lon="4.77158">
        <ele>169</ele>
        <time>2018-07-25T09:46:43Z</time>
      </trkpt>
      <trkpt lat="45.93492" lon="4.77149">
        <ele>169</ele>
        <time>2018-07-25T09:46:44Z</time>
      </trkpt>
      <trkpt lat="45.93489" lon="4.77142">
        <ele>169</ele>
        <time>2018-07-25T09:46:45Z</time>
      </trkpt>
      <trkpt lat="45.93489" lon="4.77134">
        <ele>169</ele>
        <time>2018-07-25T09:46:46Z</time>
      </trkpt>
      <trkpt lat="45.93487" lon="4.77126">
        <ele>169</ele>
        <time>2018-07-25T09:46:47Z</time>
      </trkpt>
      <trkpt lat="45.93485" lon="4.77118">
        <ele>169</ele>
        <time>2018-07-25T09:46:48Z</time>
      </trkpt>
      <trkpt lat="45.93483" lon="4.7711">
        <ele>169</ele>
        <time>2018-07-25T09:46:49Z</time>
      </trkpt>
      <trkpt lat="45.93482" lon="4.77102">
        <ele>169</ele>
        <time>2018-07-25T09:46:50Z</time>
      </trkpt>
      <trkpt lat="45.9348" lon="4.77093">
        <ele>169</ele>
        <time>2018-07-25T09:46:51Z</time>
      </trkpt>
      <trkpt lat="45.93478" lon="4.77084">
        <ele>169</ele>
        <time>2018-07-25T09:46:52Z</time>
      </trkpt>
      <trkpt lat="45.93476" lon="4.77077">
        <ele>170</ele>
        <time>2018-07-25T09:46:53Z</time>
      </trkpt>
      <trkpt lat="45.93475" lon="4.77068">
        <ele>170</ele>
        <time>2018-07-25T09:46:54Z</time>
      </trkpt>
      <trkpt lat="45.93473" lon="4.77059">
        <ele>170</ele>
        <time>2018-07-25T09:46:55Z</time>
      </trkpt>
      <trkpt lat="45.93471" lon="4.7705">
        <ele>170</ele>
        <time>2018-07-25T09:46:56Z</time>
      </trkpt>
      <trkpt lat="45.93469" lon="4.77041">
        <ele>170</ele>
        <time>2018-07-25T09:46:57Z</time>
      </trkpt>
      <trkpt lat="45.93468" lon="4.77031">
        <ele>170</ele>
        <time>2018-07-25T09:46:58Z</time>
      </trkpt>
      <trkpt lat="45.93467" lon="4.77023">
        <ele>170</ele>
        <time>2018-07-25T09:46:59Z</time>
      </trkpt>
      <trkpt lat="45.93466" lon="4.77014">
        <ele>170</ele>
        <time>2018-07-25T09:47:00Z</time>
      </trkpt>
      <trkpt lat="45.93464" lon="4.77007">
        <ele>170</ele>
        <time>2018-07-25T09:47:01Z</time>
      </trkpt>
      <trkpt lat="45.93463" lon="4.76998">
        <ele>170</ele>
        <time>2018-07-25T09:47:02Z</time>
      </trkpt>
      <trkpt lat="45.93461" lon="4.7699">
        <ele>170</ele>
        <time>2018-07-25T09:47:03Z</time>
      </trkpt>
      <trkpt lat="45.9346" lon="4.76983">
        <ele>170</ele>
        <time>2018-07-25T09:47:04Z</time>
      </trkpt>
      <trkpt lat="45.93459" lon="4.76975">
        <ele>170</ele>
        <time>2018-07-25T09:47:05Z</time>
      </trkpt>
      <trkpt lat="45.9346" lon="4.76967">
        <ele>170</ele>
        <time>2018-07-25T09:47:06Z</time>
      </trkpt>
      <trkpt lat="45.93459" lon="4.76958">
        <ele>170</ele>
        <time>2018-07-25T09:47:07Z</time>
      </trkpt>
      <trkpt lat="45.93457" lon="4.7695">
        <ele>170</ele>
        <time>2018-07-25T09:47:08Z</time>
      </trkpt>
      <trkpt lat="45.93457" lon="4.76941">
        <ele>170</ele>
        <time>2018-07-25T09:47:09Z</time>
      </trkpt>
      <trkpt lat="45.93455" lon="4.76933">
        <ele>170</ele>
        <time>2018-07-25T09:47:10Z</time>
      </trkpt>
      <trkpt lat="45.93453" lon="4.76924">
        <ele>170</ele>
        <time>2018-07-25T09:47:11Z</time>
      </trkpt>
      <trkpt lat="45.93451" lon="4.76916">
        <ele>170</ele>
        <time>2018-07-25T09:47:12Z</time>
      </trkpt>
      <trkpt lat="45.9345" lon="4.76909">
        <ele>170</ele>
        <time>2018-07-25T09:47:13Z</time>
      </trkpt>
      <trkpt lat="45.93449" lon="4.76901">
        <ele>170</ele>
        <time>2018-07-25T09:47:14Z</time>
      </trkpt>
      <trkpt lat="45.93449" lon="4.76894">
        <ele>170</ele>
        <time>2018-07-25T09:47:15Z</time>
      </trkpt>
      <trkpt lat="45.93447" lon="4.76888">
        <ele>170</ele>
        <time>2018-07-25T09:47:16Z</time>
      </trkpt>
      <trkpt lat="45.93444" lon="4.7688">
        <ele>170</ele>
        <time>2018-07-25T09:47:17Z</time>
      </trkpt>
      <trkpt lat="45.93441" lon="4.76874">
        <ele>171</ele>
        <time>2018-07-25T09:47:18Z</time>
      </trkpt>
      <trkpt lat="45.93439" lon="4.76866">
        <ele>171</ele>
        <time>2018-07-25T09:47:19Z</time>
      </trkpt>
      <trkpt lat="45.93436" lon="4.76858">
        <ele>171</ele>
        <time>2018-07-25T09:47:20Z</time>
      </trkpt>
      <trkpt lat="45.93432" lon="4.76851">
        <ele>171</ele>
        <time>2018-07-25T09:47:21Z</time>
      </trkpt>
      <trkpt lat="45.93429" lon="4.76844">
        <ele>171</ele>
        <time>2018-07-25T09:47:22Z</time>
      </trkpt>
      <trkpt lat="45.93425" lon="4.76837">
        <ele>171</ele>
        <time>2018-07-25T09:47:23Z</time>
      </trkpt>
      <trkpt lat="45.93421" lon="4.76829">
        <ele>172</ele>
        <time>2018-07-25T09:47:24Z</time>
      </trkpt>
      <trkpt lat="45.93416" lon="4.76822">
        <ele>172</ele>
        <time>2018-07-25T09:47:25Z</time>
      </trkpt>
      <trkpt lat="45.93412" lon="4.76814">
        <ele>172</ele>
        <time>2018-07-25T09:47:26Z</time>
      </trkpt>
      <trkpt lat="45.93407" lon="4.76808">
        <ele>172</ele>
        <time>2018-07-25T09:47:27Z</time>
      </trkpt>
      <trkpt lat="45.93402" lon="4.76801">
        <ele>172</ele>
        <time>2018-07-25T09:47:28Z</time>
      </trkpt>
      <trkpt lat="45.93397" lon="4.76795">
        <ele>172</ele>
        <time>2018-07-25T09:47:29Z</time>
      </trkpt>
      <trkpt lat="45.93392" lon="4.76788">
        <ele>172</ele>
        <time>2018-07-25T09:47:30Z</time>
      </trkpt>
      <trkpt lat="45.93387" lon="4.76783">
        <ele>172</ele>
        <time>2018-07-25T09:47:31Z</time>
      </trkpt>
      <trkpt lat="45.93382" lon="4.76777">
        <ele>172</ele>
        <time>2018-07-25T09:47:32Z</time>
      </trkpt>
      <trkpt lat="45.93378" lon="4.76772">
        <ele>172</ele>
        <time>2018-07-25T09:47:33Z</time>
      </trkpt>
      <trkpt lat="45.93373" lon="4.76767">
        <ele>172</ele>
        <time>2018-07-25T09:47:34Z</time>
      </trkpt>
      <trkpt lat="45.93368" lon="4.76762">
        <ele>172</ele>
        <time>2018-07-25T09:47:35Z</time>
      </trkpt>
      <trkpt lat="45.93363" lon="4.76757">
        <ele>172</ele>
        <time>2018-07-25T09:47:36Z</time>
      </trkpt>
      <trkpt lat="45.93358" lon="4.76752">
        <ele>172</ele>
        <time>2018-07-25T09:47:37Z</time>
      </trkpt>
      <trkpt lat="45.93352" lon="4.76746">
        <ele>172</ele>
        <time>2018-07-25T09:47:38Z</time>
      </trkpt>
      <trkpt lat="45.93347" lon="4.76741">
        <ele>172</ele>
        <time>2018-07-25T09:47:39Z</time>
      </trkpt>
      <trkpt lat="45.93342" lon="4.76736">
        <ele>172</ele>
        <time>2018-07-25T09:47:40Z</time>
      </trkpt>
      <trkpt lat="45.93336" lon="4.7673">
        <ele>172</ele>
        <time>2018-07-25T09:47:41Z</time>
      </trkpt>
      <trkpt lat="45.93331" lon="4.76725">
        <ele>172</ele>
        <time>2018-07-25T09:47:42Z</time>
      </trkpt>
      <trkpt lat="45.93326" lon="4.7672">
        <ele>172</ele>
        <time>2018-07-25T09:47:43Z</time>
      </trkpt>
      <trkpt lat="45.93321" lon="4.76716">
        <ele>172</ele>
        <time>2018-07-25T09:47:44Z</time>
      </trkpt>
      <trkpt lat="45.93317" lon="4.76711">
        <ele>172</ele>
        <time>2018-07-25T09:47:45Z</time>
      </trkpt>
      <trkpt lat="45.93313" lon="4.76708">
        <ele>172</ele>
        <time>2018-07-25T09:47:46Z</time>
      </trkpt>
      <trkpt lat="45.93308" lon="4.76703">
        <ele>172</ele>
        <time>2018-07-25T09:47:47Z</time>
      </trkpt>
      <trkpt lat="45.93304" lon="4.76699">
        <ele>172</ele>
        <time>2018-07-25T09:47:48Z</time>
      </trkpt>
      <trkpt lat="45.93299" lon="4.76695">
        <ele>172</ele>
        <time>2018-07-25T09:47:49Z</time>
      </trkpt>
      <trkpt lat="45.93295" lon="4.7669">
        <ele>172</ele>
        <time>2018-07-25T09:47:50Z</time>
      </trkpt>
      <trkpt lat="45.93292" lon="4.76684">
        <ele>172</ele>
        <time>2018-07-25T09:47:51Z</time>
      </trkpt>
      <trkpt lat="45.93287" lon="4.7668">
        <ele>172</ele>
        <time>2018-07-25T09:47:52Z</time>
      </trkpt>
      <trkpt lat="45.93282" lon="4.76675">
        <ele>172</ele>
        <time>2018-07-25T09:47:53Z</time>
      </trkpt>
      <trkpt lat="45.93277" lon="4.76671">
        <ele>172</ele>
        <time>2018-07-25T09:47:54Z</time>
      </trkpt>
      <trkpt lat="45.93272" lon="4.76666">
        <ele>171</ele>
        <time>2018-07-25T09:47:55Z</time>
      </trkpt>
      <trkpt lat="45.93268" lon="4.7666">
        <ele>171</ele>
        <time>2018-07-25T09:47:56Z</time>
      </trkpt>
      <trkpt lat="45.93264" lon="4.76656">
        <ele>171</ele>
        <time>2018-07-25T09:47:57Z</time>
      </trkpt>
      <trkpt lat="45.93258" lon="4.76651">
        <ele>171</ele>
        <time>2018-07-25T09:47:58Z</time>
      </trkpt>
      <trkpt lat="45.93253" lon="4.76646">
        <ele>170</ele>
        <time>2018-07-25T09:47:59Z</time>
      </trkpt>
      <trkpt lat="45.93248" lon="4.7664">
        <ele>171</ele>
        <time>2018-07-25T09:48:00Z</time>
      </trkpt>
      <trkpt lat="45.93243" lon="4.76636">
        <ele>171</ele>
        <time>2018-07-25T09:48:01Z</time>
      </trkpt>
      <trkpt lat="45.93239" lon="4.76631">
        <ele>170</ele>
        <time>2018-07-25T09:48:02Z</time>
      </trkpt>
      <trkpt lat="45.93233" lon="4.76626">
        <ele>170</ele>
        <time>2018-07-25T09:48:03Z</time>
      </trkpt>
      <trkpt lat="45.93229" lon="4.7662">
        <ele>170</ele>
        <time>2018-07-25T09:48:04Z</time>
      </trkpt>
      <trkpt lat="45.93224" lon="4.76615">
        <ele>170</ele>
        <time>2018-07-25T09:48:05Z</time>
      </trkpt>
      <trkpt lat="45.93218" lon="4.76609">
        <ele>170</ele>
        <time>2018-07-25T09:48:06Z</time>
      </trkpt>
      <trkpt lat="45.93213" lon="4.76605">
        <ele>170</ele>
        <time>2018-07-25T09:48:07Z</time>
      </trkpt>
      <trkpt lat="45.93207" lon="4.76601">
        <ele>170</ele>
        <time>2018-07-25T09:48:08Z</time>
      </trkpt>
      <trkpt lat="45.93201" lon="4.76598">
        <ele>170</ele>
        <time>2018-07-25T09:48:09Z</time>
      </trkpt>
      <trkpt lat="45.93197" lon="4.76595">
        <ele>170</ele>
        <time>2018-07-25T09:48:10Z</time>
      </trkpt>
      <trkpt lat="45.93193" lon="4.76591">
        <ele>170</ele>
        <time>2018-07-25T09:48:11Z</time>
      </trkpt>
      <trkpt lat="45.93189" lon="4.76585">
        <ele>170</ele>
        <time>2018-07-25T09:48:12Z</time>
      </trkpt>
      <trkpt lat="45.93186" lon="4.7658">
        <ele>170</ele>
        <time>2018-07-25T09:48:13Z</time>
      </trkpt>
      <trkpt lat="45.93182" lon="4.76575">
        <ele>170</ele>
        <time>2018-07-25T09:48:14Z</time>
      </trkpt>
      <trkpt lat="45.93178" lon="4.76571">
        <ele>170</ele>
        <time>2018-07-25T09:48:15Z</time>
      </trkpt>
      <trkpt lat="45.93173" lon="4.76566">
        <ele>170</ele>
        <time>2018-07-25T09:48:16Z</time>
      </trkpt>
      <trkpt lat="45.93169" lon="4.76561">
        <ele>170</ele>
        <time>2018-07-25T09:48:17Z</time>
      </trkpt>
      <trkpt lat="45.93163" lon="4.76556">
        <ele>170</ele>
        <time>2018-07-25T09:48:18Z</time>
      </trkpt>
      <trkpt lat="45.93158" lon="4.76551">
        <ele>170</ele>
        <time>2018-07-25T09:48:19Z</time>
      </trkpt>
      <trkpt lat="45.93153" lon="4.76546">
        <ele>170</ele>
        <time>2018-07-25T09:48:20Z</time>
      </trkpt>
      <trkpt lat="45.93148" lon="4.76541">
        <ele>170</ele>
        <time>2018-07-25T09:48:21Z</time>
      </trkpt>
      <trkpt lat="45.93144" lon="4.76536">
        <ele>170</ele>
        <time>2018-07-25T09:48:22Z</time>
      </trkpt>
      <trkpt lat="45.93139" lon="4.76529">
        <ele>170</ele>
        <time>2018-07-25T09:48:23Z</time>
      </trkpt>
      <trkpt lat="45.93134" lon="4.76524">
        <ele>170</ele>
        <time>2018-07-25T09:48:24Z</time>
      </trkpt>
      <trkpt lat="45.93129" lon="4.76519">
        <ele>170</ele>
        <time>2018-07-25T09:48:25Z</time>
      </trkpt>
      <trkpt lat="45.93124" lon="4.76515">
        <ele>170</ele>
        <time>2018-07-25T09:48:26Z</time>
      </trkpt>
      <trkpt lat="45.93118" lon="4.76511">
        <ele>170</ele>
        <time>2018-07-25T09:48:27Z</time>
      </trkpt>
      <trkpt lat="45.93113" lon="4.76505">
        <ele>170</ele>
        <time>2018-07-25T09:48:28Z</time>
      </trkpt>
      <trkpt lat="45.93108" lon="4.765">
        <ele>169</ele>
        <time>2018-07-25T09:48:29Z</time>
      </trkpt>
      <trkpt lat="45.93103" lon="4.76495">
        <ele>169</ele>
        <time>2018-07-25T09:48:30Z</time>
      </trkpt>
      <trkpt lat="45.93099" lon="4.76491">
        <ele>169</ele>
        <time>2018-07-25T09:48:31Z</time>
      </trkpt>
      <trkpt lat="45.93095" lon="4.76487">
        <ele>170</ele>
        <time>2018-07-25T09:48:32Z</time>
      </trkpt>
      <trkpt lat="45.9309" lon="4.76484">
        <ele>170</ele>
        <time>2018-07-25T09:48:33Z</time>
      </trkpt>
      <trkpt lat="45.93085" lon="4.76479">
        <ele>169</ele>
        <time>2018-07-25T09:48:34Z</time>
      </trkpt>
      <trkpt lat="45.93081" lon="4.76475">
        <ele>169</ele>
        <time>2018-07-25T09:48:35Z</time>
      </trkpt>
      <trkpt lat="45.93076" lon="4.7647">
        <ele>169</ele>
        <time>2018-07-25T09:48:36Z</time>
      </trkpt>
      <trkpt lat="45.93072" lon="4.76466">
        <ele>169</ele>
        <time>2018-07-25T09:48:37Z</time>
      </trkpt>
      <trkpt lat="45.93067" lon="4.76463">
        <ele>169</ele>
        <time>2018-07-25T09:48:38Z</time>
      </trkpt>
      <trkpt lat="45.93062" lon="4.76458">
        <ele>169</ele>
        <time>2018-07-25T09:48:39Z</time>
      </trkpt>
      <trkpt lat="45.93056" lon="4.76455">
        <ele>169</ele>
        <time>2018-07-25T09:48:40Z</time>
      </trkpt>
      <trkpt lat="45.93051" lon="4.7645">
        <ele>169</ele>
        <time>2018-07-25T09:48:41Z</time>
      </trkpt>
      <trkpt lat="45.93046" lon="4.76445">
        <ele>169</ele>
        <time>2018-07-25T09:48:42Z</time>
      </trkpt>
      <trkpt lat="45.9304" lon="4.7644">
        <ele>169</ele>
        <time>2018-07-25T09:48:43Z</time>
      </trkpt>
      <trkpt lat="45.93034" lon="4.76435">
        <ele>169</ele>
        <time>2018-07-25T09:48:44Z</time>
      </trkpt>
      <trkpt lat="45.93029" lon="4.7643">
        <ele>169</ele>
        <time>2018-07-25T09:48:45Z</time>
      </trkpt>
      <trkpt lat="45.93024" lon="4.76425">
        <ele>169</ele>
        <time>2018-07-25T09:48:46Z</time>
      </trkpt>
      <trkpt lat="45.93019" lon="4.76422">
        <ele>169</ele>
        <time>2018-07-25T09:48:47Z</time>
      </trkpt>
      <trkpt lat="45.93016" lon="4.76418">
        <ele>169</ele>
        <time>2018-07-25T09:48:48Z</time>
      </trkpt>
      <trkpt lat="45.93012" lon="4.76414">
        <ele>169</ele>
        <time>2018-07-25T09:48:49Z</time>
      </trkpt>
      <trkpt lat="45.93007" lon="4.7641">
        <ele>169</ele>
        <time>2018-07-25T09:48:50Z</time>
      </trkpt>
      <trkpt lat="45.93004" lon="4.76405">
        <ele>169</ele>
        <time>2018-07-25T09:48:51Z</time>
      </trkpt>
      <trkpt lat="45.93" lon="4.76399">
        <ele>169</ele>
        <time>2018-07-25T09:48:52Z</time>
      </trkpt>
      <trkpt lat="45.92995" lon="4.76396">
        <ele>169</ele>
        <time>2018-07-25T09:48:53Z</time>
      </trkpt>
      <trkpt lat="45.9299" lon="4.76391">
        <ele>169</ele>
        <time>2018-07-25T09:48:54Z</time>
      </trkpt>
      <trkpt lat="45.92986" lon="4.76385">
        <ele>169</ele>
        <time>2018-07-25T09:48:55Z</time>
      </trkpt>
      <trkpt lat="45.92982" lon="4.76381">
        <ele>169</ele>
        <time>2018-07-25T09:48:56Z</time>
      </trkpt>
      <trkpt lat="45.92978" lon="4.76378">
        <ele>169</ele>
        <time>2018-07-25T09:48:57Z</time>
      </trkpt>
      <trkpt lat="45.92973" lon="4.76373">
        <ele>169</ele>
        <time>2018-07-25T09:48:58Z</time>
      </trkpt>
      <trkpt lat="45.92968" lon="4.76368">
        <ele>169</ele>
        <time>2018-07-25T09:48:59Z</time>
      </trkpt>
      <trkpt lat="45.92963" lon="4.76363">
        <ele>169</ele>
        <time>2018-07-25T09:49:00Z</time>
      </trkpt>
      <trkpt lat="45.92959" lon="4.76357">
        <ele>169</ele>
        <time>2018-07-25T09:49:01Z</time>
      </trkpt>
      <trkpt lat="45.92953" lon="4.76351">
        <ele>169</ele>
        <time>2018-07-25T09:49:02Z</time>
      </trkpt>
      <trkpt lat="45.92948" lon="4.76346">
        <ele>169</ele>
        <time>2018-07-25T09:49:03Z</time>
      </trkpt>
      <trkpt lat="45.92942" lon="4.76341">
        <ele>169</ele>
        <time>2018-07-25T09:49:04Z</time>
      </trkpt>
      <trkpt lat="45.92937" lon="4.76336">
        <ele>169</ele>
        <time>2018-07-25T09:49:05Z</time>
      </trkpt>
      <trkpt lat="45.92933" lon="4.76331">
        <ele>169</ele>
        <time>2018-07-25T09:49:06Z</time>
      </trkpt>
      <trkpt lat="45.92928" lon="4.76325">
        <ele>169</ele>
        <time>2018-07-25T09:49:07Z</time>
      </trkpt>
      <trkpt lat="45.92923" lon="4.7632">
        <ele>169</ele>
        <time>2018-07-25T09:49:08Z</time>
      </trkpt>
      <trkpt lat="45.92918" lon="4.76315">
        <ele>169</ele>
        <time>2018-07-25T09:49:09Z</time>
      </trkpt>
      <trkpt lat="45.92914" lon="4.76311">
        <ele>169</ele>
        <time>2018-07-25T09:49:10Z</time>
      </trkpt>
      <trkpt lat="45.92909" lon="4.76307">
        <ele>169</ele>
        <time>2018-07-25T09:49:11Z</time>
      </trkpt>
      <trkpt lat="45.92906" lon="4.76303">
        <ele>169</ele>
        <time>2018-07-25T09:49:12Z</time>
      </trkpt>
      <trkpt lat="45.92901" lon="4.76299">
        <ele>169</ele>
        <time>2018-07-25T09:49:13Z</time>
      </trkpt>
      <trkpt lat="45.92895" lon="4.76293">
        <ele>169</ele>
        <time>2018-07-25T09:49:14Z</time>
      </trkpt>
      <trkpt lat="45.9289" lon="4.76288">
        <ele>169</ele>
        <time>2018-07-25T09:49:15Z</time>
      </trkpt>
      <trkpt lat="45.92884" lon="4.76283">
        <ele>169</ele>
        <time>2018-07-25T09:49:16Z</time>
      </trkpt>
      <trkpt lat="45.92878" lon="4.76277">
        <ele>169</ele>
        <time>2018-07-25T09:49:17Z</time>
      </trkpt>
      <trkpt lat="45.92873" lon="4.76272">
        <ele>169</ele>
        <time>2018-07-25T09:49:18Z</time>
      </trkpt>
      <trkpt lat="45.92868" lon="4.76268">
        <ele>169</ele>
        <time>2018-07-25T09:49:19Z</time>
      </trkpt>
      <trkpt lat="45.92864" lon="4.76263">
        <ele>169</ele>
        <time>2018-07-25T09:49:20Z</time>
      </trkpt>
      <trkpt lat="45.92859" lon="4.76258">
        <ele>169</ele>
        <time>2018-07-25T09:49:21Z</time>
      </trkpt>
      <trkpt lat="45.92855" lon="4.76252">
        <ele>169</ele>
        <time>2018-07-25T09:49:22Z</time>
      </trkpt>
      <trkpt lat="45.92851" lon="4.76248">
        <ele>169</ele>
        <time>2018-07-25T09:49:23Z</time>
      </trkpt>
      <trkpt lat="45.92847" lon="4.76243">
        <ele>169</ele>
        <time>2018-07-25T09:49:24Z</time>
      </trkpt>
      <trkpt lat="45.92842" lon="4.76238">
        <ele>169</ele>
        <time>2018-07-25T09:49:25Z</time>
      </trkpt>
      <trkpt lat="45.92838" lon="4.76234">
        <ele>169</ele>
        <time>2018-07-25T09:49:26Z</time>
      </trkpt>
      <trkpt lat="45.92833" lon="4.76231">
        <ele>169</ele>
        <time>2018-07-25T09:49:27Z</time>
      </trkpt>
      <trkpt lat="45.92829" lon="4.76226">
        <ele>168</ele>
        <time>2018-07-25T09:49:28Z</time>
      </trkpt>
      <trkpt lat="45.92826" lon="4.7622">
        <ele>168</ele>
        <time>2018-07-25T09:49:29Z</time>
      </trkpt>
      <trkpt lat="45.92822" lon="4.76216">
        <ele>168</ele>
        <time>2018-07-25T09:49:30Z</time>
      </trkpt>
      <trkpt lat="45.92815" lon="4.76212">
        <ele>168</ele>
        <time>2018-07-25T09:49:31Z</time>
      </trkpt>
      <trkpt lat="45.92809" lon="4.76209">
        <ele>168</ele>
        <time>2018-07-25T09:49:32Z</time>
      </trkpt>
      <trkpt lat="45.92803" lon="4.76204">
        <ele>168</ele>
        <time>2018-07-25T09:49:33Z</time>
      </trkpt>
      <trkpt lat="45.92799" lon="4.76199">
        <ele>168</ele>
        <time>2018-07-25T09:49:34Z</time>
      </trkpt>
      <trkpt lat="45.92794" lon="4.76193">
        <ele>168</ele>
        <time>2018-07-25T09:49:35Z</time>
      </trkpt>
      <trkpt lat="45.92789" lon="4.76188">
        <ele>168</ele>
        <time>2018-07-25T09:49:36Z</time>
      </trkpt>
      <trkpt lat="45.92782" lon="4.76183">
        <ele>168</ele>
        <time>2018-07-25T09:49:37Z</time>
      </trkpt>
      <trkpt lat="45.92777" lon="4.76178">
        <ele>167</ele>
        <time>2018-07-25T09:49:38Z</time>
      </trkpt>
      <trkpt lat="45.92772" lon="4.76173">
        <ele>167</ele>
        <time>2018-07-25T09:49:39Z</time>
      </trkpt>
      <trkpt lat="45.92767" lon="4.76168">
        <ele>167</ele>
        <time>2018-07-25T09:49:40Z</time>
      </trkpt>
      <trkpt lat="45.92761" lon="4.76164">
        <ele>167</ele>
        <time>2018-07-25T09:49:41Z</time>
      </trkpt>
      <trkpt lat="45.92756" lon="4.76161">
        <ele>167</ele>
        <time>2018-07-25T09:49:42Z</time>
      </trkpt>
      <trkpt lat="45.92751" lon="4.76157">
        <ele>167</ele>
        <time>2018-07-25T09:49:43Z</time>
      </trkpt>
      <trkpt lat="45.92745" lon="4.76152">
        <ele>168</ele>
        <time>2018-07-25T09:49:44Z</time>
      </trkpt>
      <trkpt lat="45.9274" lon="4.76147">
        <ele>168</ele>
        <time>2018-07-25T09:49:45Z</time>
      </trkpt>
      <trkpt lat="45.92735" lon="4.76143">
        <ele>168</ele>
        <time>2018-07-25T09:49:46Z</time>
      </trkpt>
      <trkpt lat="45.9273" lon="4.76139">
        <ele>168</ele>
        <time>2018-07-25T09:49:47Z</time>
      </trkpt>
      <trkpt lat="45.92724" lon="4.76135">
        <ele>168</ele>
        <time>2018-07-25T09:49:48Z</time>
      </trkpt>
      <trkpt lat="45.9272" lon="4.76133">
        <ele>168</ele>
        <time>2018-07-25T09:49:49Z</time>
      </trkpt>
      <trkpt lat="45.92715" lon="4.76129">
        <ele>168</ele>
        <time>2018-07-25T09:49:50Z</time>
      </trkpt>
      <trkpt lat="45.92712" lon="4.76125">
        <ele>168</ele>
        <time>2018-07-25T09:49:51Z</time>
      </trkpt>
      <trkpt lat="45.92708" lon="4.76121">
        <ele>169</ele>
        <time>2018-07-25T09:49:52Z</time>
      </trkpt>
      <trkpt lat="45.92704" lon="4.76117">
        <ele>169</ele>
        <time>2018-07-25T09:49:53Z</time>
      </trkpt>
      <trkpt lat="45.92699" lon="4.76115">
        <ele>169</ele>
        <time>2018-07-25T09:49:54Z</time>
      </trkpt>
      <trkpt lat="45.92695" lon="4.76111">
        <ele>169</ele>
        <time>2018-07-25T09:49:55Z</time>
      </trkpt>
      <trkpt lat="45.9269" lon="4.76108">
        <ele>169</ele>
        <time>2018-07-25T09:49:56Z</time>
      </trkpt>
      <trkpt lat="45.92686" lon="4.76104">
        <ele>169</ele>
        <time>2018-07-25T09:49:57Z</time>
      </trkpt>
      <trkpt lat="45.92681" lon="4.76101">
        <ele>169</ele>
        <time>2018-07-25T09:49:58Z</time>
      </trkpt>
      <trkpt lat="45.92673" lon="4.76096">
        <ele>169</ele>
        <time>2018-07-25T09:50:00Z</time>
      </trkpt>
      <trkpt lat="45.9267" lon="4.76093">
        <ele>170</ele>
        <time>2018-07-25T09:50:01Z</time>
      </trkpt>
      <trkpt lat="45.92663" lon="4.76088">
        <ele>170</ele>
        <time>2018-07-25T09:50:03Z</time>
      </trkpt>
      <trkpt lat="45.9266" lon="4.76085">
        <ele>170</ele>
        <time>2018-07-25T09:50:04Z</time>
      </trkpt>
      <trkpt lat="45.92653" lon="4.76078">
        <ele>170</ele>
        <time>2018-07-25T09:50:06Z</time>
      </trkpt>
      <trkpt lat="45.9265" lon="4.76075">
        <ele>170</ele>
        <time>2018-07-25T09:50:07Z</time>
      </trkpt>
      <trkpt lat="45.92646" lon="4.76072">
        <ele>170</ele>
        <time>2018-07-25T09:50:08Z</time>
      </trkpt>
      <trkpt lat="45.92641" lon="4.76069">
        <ele>170</ele>
        <time>2018-07-25T09:50:09Z</time>
      </trkpt>
      <trkpt lat="45.92634" lon="4.76063">
        <ele>170</ele>
        <time>2018-07-25T09:50:11Z</time>
      </trkpt>
      <trkpt lat="45.9263" lon="4.76062">
        <ele>170</ele>
        <time>2018-07-25T09:50:12Z</time>
      </trkpt>
      <trkpt lat="45.92626" lon="4.7606">
        <ele>170</ele>
        <time>2018-07-25T09:50:13Z</time>
      </trkpt>
      <trkpt lat="45.92621" lon="4.76057">
        <ele>171</ele>
        <time>2018-07-25T09:50:14Z</time>
      </trkpt>
      <trkpt lat="45.92616" lon="4.76054">
        <ele>171</ele>
        <time>2018-07-25T09:50:15Z</time>
      </trkpt>
      <trkpt lat="45.92612" lon="4.76051">
        <ele>171</ele>
        <time>2018-07-25T09:50:16Z</time>
      </trkpt>
      <trkpt lat="45.92604" lon="4.76046">
        <ele>171</ele>
        <time>2018-07-25T09:50:18Z</time>
      </trkpt>
      <trkpt lat="45.926" lon="4.76043">
        <ele>171</ele>
        <time>2018-07-25T09:50:19Z</time>
      </trkpt>
      <trkpt lat="45.92593" lon="4.76037">
        <ele>171</ele>
        <time>2018-07-25T09:50:21Z</time>
      </trkpt>
      <trkpt lat="45.92589" lon="4.76034">
        <ele>171</ele>
        <time>2018-07-25T09:50:22Z</time>
      </trkpt>
      <trkpt lat="45.92581" lon="4.76028">
        <ele>172</ele>
        <time>2018-07-25T09:50:24Z</time>
      </trkpt>
      <trkpt lat="45.92576" lon="4.76026">
        <ele>172</ele>
        <time>2018-07-25T09:50:25Z</time>
      </trkpt>
      <trkpt lat="45.92568" lon="4.7602">
        <ele>172</ele>
        <time>2018-07-25T09:50:27Z</time>
      </trkpt>
      <trkpt lat="45.92566" lon="4.76015">
        <ele>172</ele>
        <time>2018-07-25T09:50:28Z</time>
      </trkpt>
      <trkpt lat="45.92561" lon="4.76012">
        <ele>172</ele>
        <time>2018-07-25T09:50:29Z</time>
      </trkpt>
      <trkpt lat="45.92556" lon="4.76009">
        <ele>172</ele>
        <time>2018-07-25T09:50:30Z</time>
      </trkpt>
      <trkpt lat="45.92551" lon="4.76006">
        <ele>172</ele>
        <time>2018-07-25T09:50:31Z</time>
      </trkpt>
      <trkpt lat="45.92547" lon="4.76002">
        <ele>172</ele>
        <time>2018-07-25T09:50:32Z</time>
      </trkpt>
      <trkpt lat="45.92543" lon="4.75998">
        <ele>172</ele>
        <time>2018-07-25T09:50:33Z</time>
      </trkpt>
      <trkpt lat="45.92538" lon="4.75994">
        <ele>172</ele>
        <time>2018-07-25T09:50:34Z</time>
      </trkpt>
      <trkpt lat="45.92534" lon="4.7599">
        <ele>172</ele>
        <time>2018-07-25T09:50:35Z</time>
      </trkpt>
      <trkpt lat="45.9253" lon="4.75986">
        <ele>172</ele>
        <time>2018-07-25T09:50:36Z</time>
      </trkpt>
      <trkpt lat="45.92524" lon="4.75983">
        <ele>172</ele>
        <time>2018-07-25T09:50:37Z</time>
      </trkpt>
      <trkpt lat="45.92519" lon="4.75979">
        <ele>172</ele>
        <time>2018-07-25T09:50:38Z</time>
      </trkpt>
      <trkpt lat="45.92514" lon="4.75976">
        <ele>172</ele>
        <time>2018-07-25T09:50:39Z</time>
      </trkpt>
      <trkpt lat="45.92509" lon="4.75973">
        <ele>172</ele>
        <time>2018-07-25T09:50:40Z</time>
      </trkpt>
      <trkpt lat="45.92504" lon="4.75969">
        <ele>172</ele>
        <time>2018-07-25T09:50:41Z</time>
      </trkpt>
      <trkpt lat="45.925" lon="4.75966">
        <ele>172</ele>
        <time>2018-07-25T09:50:42Z</time>
      </trkpt>
      <trkpt lat="45.92495" lon="4.75963">
        <ele>172</ele>
        <time>2018-07-25T09:50:43Z</time>
      </trkpt>
      <trkpt lat="45.9249" lon="4.7596">
        <ele>172</ele>
        <time>2018-07-25T09:50:44Z</time>
      </trkpt>
      <trkpt lat="45.92485" lon="4.75956">
        <ele>172</ele>
        <time>2018-07-25T09:50:45Z</time>
      </trkpt>
      <trkpt lat="45.9248" lon="4.75953">
        <ele>172</ele>
        <time>2018-07-25T09:50:46Z</time>
      </trkpt>
      <trkpt lat="45.92474" lon="4.75951">
        <ele>172</ele>
        <time>2018-07-25T09:50:47Z</time>
      </trkpt>
      <trkpt lat="45.92469" lon="4.75948">
        <ele>172</ele>
        <time>2018-07-25T09:50:48Z</time>
      </trkpt>
      <trkpt lat="45.92463" lon="4.75944">
        <ele>172</ele>
        <time>2018-07-25T09:50:49Z</time>
      </trkpt>
      <trkpt lat="45.92457" lon="4.75941">
        <ele>172</ele>
        <time>2018-07-25T09:50:50Z</time>
      </trkpt>
      <trkpt lat="45.92451" lon="4.75936">
        <ele>172</ele>
        <time>2018-07-25T09:50:51Z</time>
      </trkpt>
      <trkpt lat="45.92446" lon="4.75931">
        <ele>172</ele>
        <time>2018-07-25T09:50:52Z</time>
      </trkpt>
      <trkpt lat="45.92439" lon="4.75927">
        <ele>172</ele>
        <time>2018-07-25T09:50:53Z</time>
      </trkpt>
      <trkpt lat="45.92433" lon="4.75923">
        <ele>172</ele>
        <time>2018-07-25T09:50:54Z</time>
      </trkpt>
      <trkpt lat="45.92427" lon="4.7592">
        <ele>172</ele>
        <time>2018-07-25T09:50:55Z</time>
      </trkpt>
      <trkpt lat="45.92422" lon="4.75916">
        <ele>172</ele>
        <time>2018-07-25T09:50:56Z</time>
      </trkpt>
      <trkpt lat="45.92416" lon="4.75912">
        <ele>172</ele>
        <time>2018-07-25T09:50:57Z</time>
      </trkpt>
      <trkpt lat="45.9241" lon="4.75908">
        <ele>172</ele>
        <time>2018-07-25T09:50:58Z</time>
      </trkpt>
      <trkpt lat="45.92403" lon="4.75903">
        <ele>173</ele>
        <time>2018-07-25T09:50:59Z</time>
      </trkpt>
      <trkpt lat="45.92393" lon="4.759">
        <ele>173</ele>
        <time>2018-07-25T09:51:00Z</time>
      </trkpt>
      <trkpt lat="45.92388" lon="4.75895">
        <ele>173</ele>
        <time>2018-07-25T09:51:01Z</time>
      </trkpt>
      <trkpt lat="45.92382" lon="4.75892">
        <ele>173</ele>
        <time>2018-07-25T09:51:02Z</time>
      </trkpt>
      <trkpt lat="45.92376" lon="4.75887">
        <ele>173</ele>
        <time>2018-07-25T09:51:03Z</time>
      </trkpt>
      <trkpt lat="45.92371" lon="4.75883">
        <ele>173</ele>
        <time>2018-07-25T09:51:04Z</time>
      </trkpt>
      <trkpt lat="45.92365" lon="4.75879">
        <ele>173</ele>
        <time>2018-07-25T09:51:05Z</time>
      </trkpt>
      <trkpt lat="45.92359" lon="4.75875">
        <ele>173</ele>
        <time>2018-07-25T09:51:06Z</time>
      </trkpt>
      <trkpt lat="45.92354" lon="4.75871">
        <ele>173</ele>
        <time>2018-07-25T09:51:07Z</time>
      </trkpt>
      <trkpt lat="45.92349" lon="4.75867">
        <ele>173</ele>
        <time>2018-07-25T09:51:08Z</time>
      </trkpt>
      <trkpt lat="45.92344" lon="4.75863">
        <ele>173</ele>
        <time>2018-07-25T09:51:09Z</time>
      </trkpt>
      <trkpt lat="45.92339" lon="4.7586">
        <ele>173</ele>
        <time>2018-07-25T09:51:10Z</time>
      </trkpt>
      <trkpt lat="45.92335" lon="4.75857">
        <ele>173</ele>
        <time>2018-07-25T09:51:11Z</time>
      </trkpt>
      <trkpt lat="45.9233" lon="4.75853">
        <ele>174</ele>
        <time>2018-07-25T09:51:12Z</time>
      </trkpt>
      <trkpt lat="45.92323" lon="4.75849">
        <ele>174</ele>
        <time>2018-07-25T09:51:13Z</time>
      </trkpt>
      <trkpt lat="45.92319" lon="4.75846">
        <ele>174</ele>
        <time>2018-07-25T09:51:14Z</time>
      </trkpt>
      <trkpt lat="45.92314" lon="4.75843">
        <ele>174</ele>
        <time>2018-07-25T09:51:15Z</time>
      </trkpt>
      <trkpt lat="45.92308" lon="4.75841">
        <ele>173</ele>
        <time>2018-07-25T09:51:16Z</time>
      </trkpt>
      <trkpt lat="45.92303" lon="4.75838">
        <ele>173</ele>
        <time>2018-07-25T09:51:17Z</time>
      </trkpt>
      <trkpt lat="45.92299" lon="4.75834">
        <ele>173</ele>
        <time>2018-07-25T09:51:18Z</time>
      </trkpt>
      <trkpt lat="45.92295" lon="4.7583">
        <ele>174</ele>
        <time>2018-07-25T09:51:19Z</time>
      </trkpt>
      <trkpt lat="45.9229" lon="4.75827">
        <ele>174</ele>
        <time>2018-07-25T09:51:20Z</time>
      </trkpt>
      <trkpt lat="45.92286" lon="4.75824">
        <ele>174</ele>
        <time>2018-07-25T09:51:21Z</time>
      </trkpt>
      <trkpt lat="45.9228" lon="4.75821">
        <ele>174</ele>
        <time>2018-07-25T09:51:22Z</time>
      </trkpt>
      <trkpt lat="45.92276" lon="4.75817">
        <ele>174</ele>
        <time>2018-07-25T09:51:23Z</time>
      </trkpt>
      <trkpt lat="45.92272" lon="4.75812">
        <ele>174</ele>
        <time>2018-07-25T09:51:24Z</time>
      </trkpt>
      <trkpt lat="45.92269" lon="4.75807">
        <ele>174</ele>
        <time>2018-07-25T09:51:25Z</time>
      </trkpt>
      <trkpt lat="45.92266" lon="4.75801">
        <ele>174</ele>
        <time>2018-07-25T09:51:26Z</time>
      </trkpt>
      <trkpt lat="45.92263" lon="4.75794">
        <ele>174</ele>
        <time>2018-07-25T09:51:27Z</time>
      </trkpt>
      <trkpt lat="45.92261" lon="4.75787">
        <ele>174</ele>
        <time>2018-07-25T09:51:28Z</time>
      </trkpt>
      <trkpt lat="45.92259" lon="4.75781">
        <ele>174</ele>
        <time>2018-07-25T09:51:29Z</time>
      </trkpt>
      <trkpt lat="45.92257" lon="4.75774">
        <ele>174</ele>
        <time>2018-07-25T09:51:30Z</time>
      </trkpt>
      <trkpt lat="45.92256" lon="4.75766">
        <ele>174</ele>
        <time>2018-07-25T09:51:31Z</time>
      </trkpt>
      <trkpt lat="45.92255" lon="4.75758">
        <ele>174</ele>
        <time>2018-07-25T09:51:32Z</time>
      </trkpt>
      <trkpt lat="45.92255" lon="4.75751">
        <ele>174</ele>
        <time>2018-07-25T09:51:33Z</time>
      </trkpt>
      <trkpt lat="45.92254" lon="4.75743">
        <ele>174</ele>
        <time>2018-07-25T09:51:34Z</time>
      </trkpt>
      <trkpt lat="45.92252" lon="4.75735">
        <ele>174</ele>
        <time>2018-07-25T09:51:35Z</time>
      </trkpt>
      <trkpt lat="45.9225" lon="4.75727">
        <ele>174</ele>
        <time>2018-07-25T09:51:36Z</time>
      </trkpt>
      <trkpt lat="45.92248" lon="4.75719">
        <ele>174</ele>
        <time>2018-07-25T09:51:37Z</time>
      </trkpt>
      <trkpt lat="45.92242" lon="4.75712">
        <ele>174</ele>
        <time>2018-07-25T09:51:38Z</time>
      </trkpt>
      <trkpt lat="45.92239" lon="4.75704">
        <ele>174</ele>
        <time>2018-07-25T09:51:39Z</time>
      </trkpt>
      <trkpt lat="45.92235" lon="4.75698">
        <ele>174</ele>
        <time>2018-07-25T09:51:40Z</time>
      </trkpt>
      <trkpt lat="45.92231" lon="4.75693">
        <ele>174</ele>
        <time>2018-07-25T09:51:41Z</time>
      </trkpt>
      <trkpt lat="45.92226" lon="4.75688">
        <ele>174</ele>
        <time>2018-07-25T09:51:42Z</time>
      </trkpt>
      <trkpt lat="45.92222" lon="4.75684">
        <ele>174</ele>
        <time>2018-07-25T09:51:43Z</time>
      </trkpt>
      <trkpt lat="45.92217" lon="4.7568">
        <ele>174</ele>
        <time>2018-07-25T09:51:44Z</time>
      </trkpt>
      <trkpt lat="45.92213" lon="4.75676">
        <ele>174</ele>
        <time>2018-07-25T09:51:45Z</time>
      </trkpt>
      <trkpt lat="45.92209" lon="4.75672">
        <ele>174</ele>
        <time>2018-07-25T09:51:46Z</time>
      </trkpt>
      <trkpt lat="45.92204" lon="4.75668">
        <ele>174</ele>
        <time>2018-07-25T09:51:47Z</time>
      </trkpt>
      <trkpt lat="45.922" lon="4.75663">
        <ele>174</ele>
        <time>2018-07-25T09:51:48Z</time>
      </trkpt>
      <trkpt lat="45.92196" lon="4.75659">
        <ele>174</ele>
        <time>2018-07-25T09:51:49Z</time>
      </trkpt>
      <trkpt lat="45.92193" lon="4.75655">
        <ele>174</ele>
        <time>2018-07-25T09:51:50Z</time>
      </trkpt>
      <trkpt lat="45.92188" lon="4.75651">
        <ele>174</ele>
        <time>2018-07-25T09:51:51Z</time>
      </trkpt>
      <trkpt lat="45.92184" lon="4.75645">
        <ele>174</ele>
        <time>2018-07-25T09:51:52Z</time>
      </trkpt>
      <trkpt lat="45.9218" lon="4.7564">
        <ele>174</ele>
        <time>2018-07-25T09:51:53Z</time>
      </trkpt>
      <trkpt lat="45.92175" lon="4.75636">
        <ele>174</ele>
        <time>2018-07-25T09:51:54Z</time>
      </trkpt>
      <trkpt lat="45.92169" lon="4.75631">
        <ele>174</ele>
        <time>2018-07-25T09:51:55Z</time>
      </trkpt>
      <trkpt lat="45.92164" lon="4.75627">
        <ele>174</ele>
        <time>2018-07-25T09:51:56Z</time>
      </trkpt>
      <trkpt lat="45.92158" lon="4.75622">
        <ele>174</ele>
        <time>2018-07-25T09:51:57Z</time>
      </trkpt>
      <trkpt lat="45.92153" lon="4.75616">
        <ele>174</ele>
        <time>2018-07-25T09:51:58Z</time>
      </trkpt>
      <trkpt lat="45.92148" lon="4.75612">
        <ele>174</ele>
        <time>2018-07-25T09:51:59Z</time>
      </trkpt>
      <trkpt lat="45.92144" lon="4.75608">
        <ele>174</ele>
        <time>2018-07-25T09:52:00Z</time>
      </trkpt>
      <trkpt lat="45.92139" lon="4.75603">
        <ele>174</ele>
        <time>2018-07-25T09:52:01Z</time>
      </trkpt>
      <trkpt lat="45.92136" lon="4.75599">
        <ele>174</ele>
        <time>2018-07-25T09:52:02Z</time>
      </trkpt>
      <trkpt lat="45.92132" lon="4.75595">
        <ele>174</ele>
        <time>2018-07-25T09:52:03Z</time>
      </trkpt>
      <trkpt lat="45.92129" lon="4.7559">
        <ele>174</ele>
        <time>2018-07-25T09:52:04Z</time>
      </trkpt>
      <trkpt lat="45.92122" lon="4.75583">
        <ele>174</ele>
        <time>2018-07-25T09:52:06Z</time>
      </trkpt>
      <trkpt lat="45.92122" lon="4.75581">
        <ele>174</ele>
        <time>2018-07-25T09:52:07Z</time>
      </trkpt>
      <trkpt lat="45.9212" lon="4.75575">
        <ele>174</ele>
        <time>2018-07-25T09:52:09Z</time>
      </trkpt>
      <trkpt lat="45.92119" lon="4.75565">
        <ele>174</ele>
        <time>2018-07-25T09:52:10Z</time>
      </trkpt>
      <trkpt lat="45.92122" lon="4.75555">
        <ele>174</ele>
        <time>2018-07-25T09:52:12Z</time>
      </trkpt>
      <trkpt lat="45.92124" lon="4.7555">
        <ele>174</ele>
        <time>2018-07-25T09:52:13Z</time>
      </trkpt>
      <trkpt lat="45.92127" lon="4.75545">
        <ele>174</ele>
        <time>2018-07-25T09:52:14Z</time>
      </trkpt>
      <trkpt lat="45.92129" lon="4.75539">
        <ele>174</ele>
        <time>2018-07-25T09:52:15Z</time>
      </trkpt>
      <trkpt lat="45.92132" lon="4.75534">
        <ele>174</ele>
        <time>2018-07-25T09:52:16Z</time>
      </trkpt>
      <trkpt lat="45.92135" lon="4.75529">
        <ele>174</ele>
        <time>2018-07-25T09:52:17Z</time>
      </trkpt>
      <trkpt lat="45.9214" lon="4.75519">
        <ele>174</ele>
        <time>2018-07-25T09:52:19Z</time>
      </trkpt>
      <trkpt lat="45.92143" lon="4.75515">
        <ele>174</ele>
        <time>2018-07-25T09:52:20Z</time>
      </trkpt>
      <trkpt lat="45.92147" lon="4.75509">
        <ele>175</ele>
        <time>2018-07-25T09:52:21Z</time>
      </trkpt>
      <trkpt lat="45.92149" lon="4.75502">
        <ele>175</ele>
        <time>2018-07-25T09:52:22Z</time>
      </trkpt>
      <trkpt lat="45.92152" lon="4.75496">
        <ele>175</ele>
        <time>2018-07-25T09:52:23Z</time>
      </trkpt>
      <trkpt lat="45.92154" lon="4.7549">
        <ele>175</ele>
        <time>2018-07-25T09:52:24Z</time>
      </trkpt>
      <trkpt lat="45.92156" lon="4.75482">
        <ele>176</ele>
        <time>2018-07-25T09:52:25Z</time>
      </trkpt>
      <trkpt lat="45.92159" lon="4.75474">
        <ele>176</ele>
        <time>2018-07-25T09:52:26Z</time>
      </trkpt>
      <trkpt lat="45.92163" lon="4.75467">
        <ele>176</ele>
        <time>2018-07-25T09:52:27Z</time>
      </trkpt>
      <trkpt lat="45.92166" lon="4.7546">
        <ele>176</ele>
        <time>2018-07-25T09:52:28Z</time>
      </trkpt>
      <trkpt lat="45.92169" lon="4.75453">
        <ele>176</ele>
        <time>2018-07-25T09:52:29Z</time>
      </trkpt>
      <trkpt lat="45.92172" lon="4.75446">
        <ele>176</ele>
        <time>2018-07-25T09:52:30Z</time>
      </trkpt>
      <trkpt lat="45.92175" lon="4.75439">
        <ele>177</ele>
        <time>2018-07-25T09:52:31Z</time>
      </trkpt>
      <trkpt lat="45.92178" lon="4.75432">
        <ele>177</ele>
        <time>2018-07-25T09:52:32Z</time>
      </trkpt>
      <trkpt lat="45.9218" lon="4.75425">
        <ele>177</ele>
        <time>2018-07-25T09:52:33Z</time>
      </trkpt>
      <trkpt lat="45.92184" lon="4.75418">
        <ele>177</ele>
        <time>2018-07-25T09:52:34Z</time>
      </trkpt>
      <trkpt lat="45.92187" lon="4.75411">
        <ele>177</ele>
        <time>2018-07-25T09:52:35Z</time>
      </trkpt>
      <trkpt lat="45.92188" lon="4.75404">
        <ele>177</ele>
        <time>2018-07-25T09:52:36Z</time>
      </trkpt>
      <trkpt lat="45.9219" lon="4.75398">
        <ele>177</ele>
        <time>2018-07-25T09:52:37Z</time>
      </trkpt>
      <trkpt lat="45.92192" lon="4.75392">
        <ele>177</ele>
        <time>2018-07-25T09:52:38Z</time>
      </trkpt>
      <trkpt lat="45.92194" lon="4.75386">
        <ele>177</ele>
        <time>2018-07-25T09:52:39Z</time>
      </trkpt>
      <trkpt lat="45.92197" lon="4.75379">
        <ele>177</ele>
        <time>2018-07-25T09:52:40Z</time>
      </trkpt>
      <trkpt lat="45.922" lon="4.75372">
        <ele>177</ele>
        <time>2018-07-25T09:52:41Z</time>
      </trkpt>
      <trkpt lat="45.92202" lon="4.75365">
        <ele>177</ele>
        <time>2018-07-25T09:52:42Z</time>
      </trkpt>
      <trkpt lat="45.92204" lon="4.75358">
        <ele>177</ele>
        <time>2018-07-25T09:52:43Z</time>
      </trkpt>
      <trkpt lat="45.92205" lon="4.7535">
        <ele>177</ele>
        <time>2018-07-25T09:52:44Z</time>
      </trkpt>
      <trkpt lat="45.92207" lon="4.75342">
        <ele>177</ele>
        <time>2018-07-25T09:52:45Z</time>
      </trkpt>
      <trkpt lat="45.92208" lon="4.75335">
        <ele>177</ele>
        <time>2018-07-25T09:52:46Z</time>
      </trkpt>
      <trkpt lat="45.9221" lon="4.75327">
        <ele>176</ele>
        <time>2018-07-25T09:52:47Z</time>
      </trkpt>
      <trkpt lat="45.92212" lon="4.75319">
        <ele>176</ele>
        <time>2018-07-25T09:52:48Z</time>
      </trkpt>
      <trkpt lat="45.92213" lon="4.75311">
        <ele>176</ele>
        <time>2018-07-25T09:52:49Z</time>
      </trkpt>
      <trkpt lat="45.92214" lon="4.75302">
        <ele>176</ele>
        <time>2018-07-25T09:52:50Z</time>
      </trkpt>
      <trkpt lat="45.92214" lon="4.75295">
        <ele>176</ele>
        <time>2018-07-25T09:52:51Z</time>
      </trkpt>
      <trkpt lat="45.92215" lon="4.75287">
        <ele>176</ele>
        <time>2018-07-25T09:52:52Z</time>
      </trkpt>
      <trkpt lat="45.92214" lon="4.75278">
        <ele>176</ele>
        <time>2018-07-25T09:52:53Z</time>
      </trkpt>
      <trkpt lat="45.92215" lon="4.7527">
        <ele>176</ele>
        <time>2018-07-25T09:52:54Z</time>
      </trkpt>
      <trkpt lat="45.92217" lon="4.75263">
        <ele>176</ele>
        <time>2018-07-25T09:52:55Z</time>
      </trkpt>
      <trkpt lat="45.92218" lon="4.75257">
        <ele>175</ele>
        <time>2018-07-25T09:52:56Z</time>
      </trkpt>
      <trkpt lat="45.92218" lon="4.75249">
        <ele>175</ele>
        <time>2018-07-25T09:52:57Z</time>
      </trkpt>
      <trkpt lat="45.92218" lon="4.7524">
        <ele>175</ele>
        <time>2018-07-25T09:52:58Z</time>
      </trkpt>
      <trkpt lat="45.92218" lon="4.75231">
        <ele>175</ele>
        <time>2018-07-25T09:52:59Z</time>
      </trkpt>
      <trkpt lat="45.92218" lon="4.75225">
        <ele>175</ele>
        <time>2018-07-25T09:53:00Z</time>
      </trkpt>
      <trkpt lat="45.92218" lon="4.75215">
        <ele>175</ele>
        <time>2018-07-25T09:53:01Z</time>
      </trkpt>
      <trkpt lat="45.92219" lon="4.75204">
        <ele>175</ele>
        <time>2018-07-25T09:53:02Z</time>
      </trkpt>
      <trkpt lat="45.92222" lon="4.75195">
        <ele>175</ele>
        <time>2018-07-25T09:53:03Z</time>
      </trkpt>
      <trkpt lat="45.92224" lon="4.75187">
        <ele>175</ele>
        <time>2018-07-25T09:53:04Z</time>
      </trkpt>
      <trkpt lat="45.92226" lon="4.75181">
        <ele>175</ele>
        <time>2018-07-25T09:53:05Z</time>
      </trkpt>
      <trkpt lat="45.92229" lon="4.75174">
        <ele>175</ele>
        <time>2018-07-25T09:53:06Z</time>
      </trkpt>
      <trkpt lat="45.92232" lon="4.75166">
        <ele>174</ele>
        <time>2018-07-25T09:53:07Z</time>
      </trkpt>
      <trkpt lat="45.92235" lon="4.75157">
        <ele>174</ele>
        <time>2018-07-25T09:53:08Z</time>
      </trkpt>
      <trkpt lat="45.92238" lon="4.75149">
        <ele>174</ele>
        <time>2018-07-25T09:53:09Z</time>
      </trkpt>
      <trkpt lat="45.92241" lon="4.75142">
        <ele>174</ele>
        <time>2018-07-25T09:53:10Z</time>
      </trkpt>
      <trkpt lat="45.92245" lon="4.75135">
        <ele>174</ele>
        <time>2018-07-25T09:53:11Z</time>
      </trkpt>
      <trkpt lat="45.92249" lon="4.75129">
        <ele>174</ele>
        <time>2018-07-25T09:53:12Z</time>
      </trkpt>
      <trkpt lat="45.92253" lon="4.75123">
        <ele>174</ele>
        <time>2018-07-25T09:53:13Z</time>
      </trkpt>
      <trkpt lat="45.92258" lon="4.7512">
        <ele>174</ele>
        <time>2018-07-25T09:53:14Z</time>
      </trkpt>
      <trkpt lat="45.92262" lon="4.75112">
        <ele>174</ele>
        <time>2018-07-25T09:53:15Z</time>
      </trkpt>
      <trkpt lat="45.92267" lon="4.75106">
        <ele>174</ele>
        <time>2018-07-25T09:53:16Z</time>
      </trkpt>
      <trkpt lat="45.92271" lon="4.75104">
        <ele>173</ele>
        <time>2018-07-25T09:53:17Z</time>
      </trkpt>
      <trkpt lat="45.92276" lon="4.75098">
        <ele>173</ele>
        <time>2018-07-25T09:53:18Z</time>
      </trkpt>
      <trkpt lat="45.92282" lon="4.75093">
        <ele>173</ele>
        <time>2018-07-25T09:53:19Z</time>
      </trkpt>
      <trkpt lat="45.92288" lon="4.75088">
        <ele>173</ele>
        <time>2018-07-25T09:53:20Z</time>
      </trkpt>
      <trkpt lat="45.92293" lon="4.75082">
        <ele>172</ele>
        <time>2018-07-25T09:53:21Z</time>
      </trkpt>
      <trkpt lat="45.92297" lon="4.75077">
        <ele>172</ele>
        <time>2018-07-25T09:53:22Z</time>
      </trkpt>
      <trkpt lat="45.92302" lon="4.75072">
        <ele>172</ele>
        <time>2018-07-25T09:53:23Z</time>
      </trkpt>
      <trkpt lat="45.92307" lon="4.75066">
        <ele>172</ele>
        <time>2018-07-25T09:53:24Z</time>
      </trkpt>
      <trkpt lat="45.92311" lon="4.75059">
        <ele>172</ele>
        <time>2018-07-25T09:53:25Z</time>
      </trkpt>
      <trkpt lat="45.92316" lon="4.75053">
        <ele>172</ele>
        <time>2018-07-25T09:53:26Z</time>
      </trkpt>
      <trkpt lat="45.9232" lon="4.75048">
        <ele>172</ele>
        <time>2018-07-25T09:53:27Z</time>
      </trkpt>
      <trkpt lat="45.92324" lon="4.75042">
        <ele>172</ele>
        <time>2018-07-25T09:53:28Z</time>
      </trkpt>
      <trkpt lat="45.92327" lon="4.75037">
        <ele>171</ele>
        <time>2018-07-25T09:53:29Z</time>
      </trkpt>
      <trkpt lat="45.92331" lon="4.75031">
        <ele>171</ele>
        <time>2018-07-25T09:53:30Z</time>
      </trkpt>
      <trkpt lat="45.92335" lon="4.75026">
        <ele>170</ele>
        <time>2018-07-25T09:53:31Z</time>
      </trkpt>
      <trkpt lat="45.92337" lon="4.75018">
        <ele>170</ele>
        <time>2018-07-25T09:53:32Z</time>
      </trkpt>
      <trkpt lat="45.92341" lon="4.75011">
        <ele>170</ele>
        <time>2018-07-25T09:53:33Z</time>
      </trkpt>
      <trkpt lat="45.92344" lon="4.75006">
        <ele>170</ele>
        <time>2018-07-25T09:53:34Z</time>
      </trkpt>
      <trkpt lat="45.92347" lon="4.74998">
        <ele>170</ele>
        <time>2018-07-25T09:53:35Z</time>
      </trkpt>
      <trkpt lat="45.92349" lon="4.7499">
        <ele>170</ele>
        <time>2018-07-25T09:53:36Z</time>
      </trkpt>
      <trkpt lat="45.92352" lon="4.74983">
        <ele>170</ele>
        <time>2018-07-25T09:53:37Z</time>
      </trkpt>
      <trkpt lat="45.92355" lon="4.74976">
        <ele>170</ele>
        <time>2018-07-25T09:53:38Z</time>
      </trkpt>
      <trkpt lat="45.92358" lon="4.74968">
        <ele>170</ele>
        <time>2018-07-25T09:53:39Z</time>
      </trkpt>
      <trkpt lat="45.92361" lon="4.7496">
        <ele>170</ele>
        <time>2018-07-25T09:53:40Z</time>
      </trkpt>
      <trkpt lat="45.92365" lon="4.74952">
        <ele>170</ele>
        <time>2018-07-25T09:53:41Z</time>
      </trkpt>
      <trkpt lat="45.92368" lon="4.74944">
        <ele>170</ele>
        <time>2018-07-25T09:53:42Z</time>
      </trkpt>
      <trkpt lat="45.92371" lon="4.74935">
        <ele>170</ele>
        <time>2018-07-25T09:53:43Z</time>
      </trkpt>
      <trkpt lat="45.92374" lon="4.74928">
        <ele>170</ele>
        <time>2018-07-25T09:53:44Z</time>
      </trkpt>
      <trkpt lat="45.92377" lon="4.74919">
        <ele>170</ele>
        <time>2018-07-25T09:53:45Z</time>
      </trkpt>
      <trkpt lat="45.9238" lon="4.74912">
        <ele>171</ele>
        <time>2018-07-25T09:53:46Z</time>
      </trkpt>
      <trkpt lat="45.92382" lon="4.74904">
        <ele>171</ele>
        <time>2018-07-25T09:53:47Z</time>
      </trkpt>
      <trkpt lat="45.92385" lon="4.74897">
        <ele>171</ele>
        <time>2018-07-25T09:53:48Z</time>
      </trkpt>
      <trkpt lat="45.92387" lon="4.7489">
        <ele>171</ele>
        <time>2018-07-25T09:53:49Z</time>
      </trkpt>
      <trkpt lat="45.92392" lon="4.74884">
        <ele>171</ele>
        <time>2018-07-25T09:53:50Z</time>
      </trkpt>
      <trkpt lat="45.92394" lon="4.74878">
        <ele>171</ele>
        <time>2018-07-25T09:53:51Z</time>
      </trkpt>
      <trkpt lat="45.92397" lon="4.7487">
        <ele>171</ele>
        <time>2018-07-25T09:53:52Z</time>
      </trkpt>
      <trkpt lat="45.92399" lon="4.74863">
        <ele>171</ele>
        <time>2018-07-25T09:53:53Z</time>
      </trkpt>
      <trkpt lat="45.92401" lon="4.74854">
        <ele>171</ele>
        <time>2018-07-25T09:53:54Z</time>
      </trkpt>
      <trkpt lat="45.92404" lon="4.74847">
        <ele>171</ele>
        <time>2018-07-25T09:53:55Z</time>
      </trkpt>
      <trkpt lat="45.92405" lon="4.7484">
        <ele>171</ele>
        <time>2018-07-25T09:53:56Z</time>
      </trkpt>
      <trkpt lat="45.92407" lon="4.74832">
        <ele>171</ele>
        <time>2018-07-25T09:53:57Z</time>
      </trkpt>
      <trkpt lat="45.92409" lon="4.74824">
        <ele>171</ele>
        <time>2018-07-25T09:53:58Z</time>
      </trkpt>
      <trkpt lat="45.92411" lon="4.74817">
        <ele>171</ele>
        <time>2018-07-25T09:53:59Z</time>
      </trkpt>
      <trkpt lat="45.92413" lon="4.74809">
        <ele>171</ele>
        <time>2018-07-25T09:54:00Z</time>
      </trkpt>
      <trkpt lat="45.92415" lon="4.74801">
        <ele>171</ele>
        <time>2018-07-25T09:54:01Z</time>
      </trkpt>
      <trkpt lat="45.92417" lon="4.74795">
        <ele>171</ele>
        <time>2018-07-25T09:54:02Z</time>
      </trkpt>
      <trkpt lat="45.92419" lon="4.74787">
        <ele>171</ele>
        <time>2018-07-25T09:54:03Z</time>
      </trkpt>
      <trkpt lat="45.9242" lon="4.74779">
        <ele>171</ele>
        <time>2018-07-25T09:54:04Z</time>
      </trkpt>
      <trkpt lat="45.92423" lon="4.74772">
        <ele>171</ele>
        <time>2018-07-25T09:54:05Z</time>
      </trkpt>
      <trkpt lat="45.92424" lon="4.74764">
        <ele>171</ele>
        <time>2018-07-25T09:54:06Z</time>
      </trkpt>
      <trkpt lat="45.92426" lon="4.74756">
        <ele>171</ele>
        <time>2018-07-25T09:54:07Z</time>
      </trkpt>
      <trkpt lat="45.92429" lon="4.74748">
        <ele>171</ele>
        <time>2018-07-25T09:54:08Z</time>
      </trkpt>
      <trkpt lat="45.9243" lon="4.7474">
        <ele>171</ele>
        <time>2018-07-25T09:54:09Z</time>
      </trkpt>
      <trkpt lat="45.92432" lon="4.74733">
        <ele>171</ele>
        <time>2018-07-25T09:54:10Z</time>
      </trkpt>
      <trkpt lat="45.92435" lon="4.74726">
        <ele>171</ele>
        <time>2018-07-25T09:54:11Z</time>
      </trkpt>
      <trkpt lat="45.92437" lon="4.74719">
        <ele>171</ele>
        <time>2018-07-25T09:54:12Z</time>
      </trkpt>
      <trkpt lat="45.92439" lon="4.74711">
        <ele>171</ele>
        <time>2018-07-25T09:54:13Z</time>
      </trkpt>
      <trkpt lat="45.92442" lon="4.74705">
        <ele>171</ele>
        <time>2018-07-25T09:54:14Z</time>
      </trkpt>
      <trkpt lat="45.92444" lon="4.74699">
        <ele>171</ele>
        <time>2018-07-25T09:54:15Z</time>
      </trkpt>
      <trkpt lat="45.92446" lon="4.74691">
        <ele>171</ele>
        <time>2018-07-25T09:54:16Z</time>
      </trkpt>
      <trkpt lat="45.92449" lon="4.74684">
        <ele>171</ele>
        <time>2018-07-25T09:54:17Z</time>
      </trkpt>
      <trkpt lat="45.92452" lon="4.74675">
        <ele>171</ele>
        <time>2018-07-25T09:54:18Z</time>
      </trkpt>
      <trkpt lat="45.92455" lon="4.74667">
        <ele>171</ele>
        <time>2018-07-25T09:54:19Z</time>
      </trkpt>
      <trkpt lat="45.92458" lon="4.7466">
        <ele>171</ele>
        <time>2018-07-25T09:54:20Z</time>
      </trkpt>
      <trkpt lat="45.92462" lon="4.74652">
        <ele>171</ele>
        <time>2018-07-25T09:54:21Z</time>
      </trkpt>
      <trkpt lat="45.92467" lon="4.74647">
        <ele>171</ele>
        <time>2018-07-25T09:54:22Z</time>
      </trkpt>
      <trkpt lat="45.92471" lon="4.74641">
        <ele>171</ele>
        <time>2018-07-25T09:54:23Z</time>
      </trkpt>
      <trkpt lat="45.92476" lon="4.74634">
        <ele>171</ele>
        <time>2018-07-25T09:54:24Z</time>
      </trkpt>
      <trkpt lat="45.92481" lon="4.7463">
        <ele>171</ele>
        <time>2018-07-25T09:54:25Z</time>
      </trkpt>
      <trkpt lat="45.92485" lon="4.74623">
        <ele>171</ele>
        <time>2018-07-25T09:54:26Z</time>
      </trkpt>
      <trkpt lat="45.92489" lon="4.74617">
        <ele>171</ele>
        <time>2018-07-25T09:54:27Z</time>
      </trkpt>
      <trkpt lat="45.92494" lon="4.74612">
        <ele>171</ele>
        <time>2018-07-25T09:54:28Z</time>
      </trkpt>
      <trkpt lat="45.92498" lon="4.74606">
        <ele>171</ele>
        <time>2018-07-25T09:54:29Z</time>
      </trkpt>
      <trkpt lat="45.92501" lon="4.746">
        <ele>171</ele>
        <time>2018-07-25T09:54:30Z</time>
      </trkpt>
      <trkpt lat="45.92506" lon="4.74595">
        <ele>171</ele>
        <time>2018-07-25T09:54:31Z</time>
      </trkpt>
      <trkpt lat="45.9251" lon="4.7459">
        <ele>171</ele>
        <time>2018-07-25T09:54:32Z</time>
      </trkpt>
      <trkpt lat="45.92515" lon="4.74585">
        <ele>171</ele>
        <time>2018-07-25T09:54:33Z</time>
      </trkpt>
      <trkpt lat="45.9252" lon="4.74579">
        <ele>171</ele>
        <time>2018-07-25T09:54:34Z</time>
      </trkpt>
      <trkpt lat="45.92524" lon="4.74574">
        <ele>171</ele>
        <time>2018-07-25T09:54:35Z</time>
      </trkpt>
      <trkpt lat="45.92529" lon="4.74567">
        <ele>171</ele>
        <time>2018-07-25T09:54:36Z</time>
      </trkpt>
      <trkpt lat="45.92533" lon="4.74561">
        <ele>171</ele>
        <time>2018-07-25T09:54:37Z</time>
      </trkpt>
      <trkpt lat="45.92538" lon="4.74557">
        <ele>171</ele>
        <time>2018-07-25T09:54:38Z</time>
      </trkpt>
      <trkpt lat="45.92542" lon="4.74548">
        <ele>170</ele>
        <time>2018-07-25T09:54:39Z</time>
      </trkpt>
      <trkpt lat="45.92546" lon="4.74541">
        <ele>170</ele>
        <time>2018-07-25T09:54:40Z</time>
      </trkpt>
      <trkpt lat="45.9255" lon="4.74533">
        <ele>170</ele>
        <time>2018-07-25T09:54:41Z</time>
      </trkpt>
      <trkpt lat="45.92555" lon="4.74528">
        <ele>170</ele>
        <time>2018-07-25T09:54:42Z</time>
      </trkpt>
      <trkpt lat="45.92558" lon="4.7452">
        <ele>170</ele>
        <time>2018-07-25T09:54:43Z</time>
      </trkpt>
      <trkpt lat="45.92561" lon="4.74514">
        <ele>170</ele>
        <time>2018-07-25T09:54:44Z</time>
      </trkpt>
      <trkpt lat="45.92565" lon="4.74508">
        <ele>170</ele>
        <time>2018-07-25T09:54:45Z</time>
      </trkpt>
      <trkpt lat="45.92568" lon="4.74501">
        <ele>170</ele>
        <time>2018-07-25T09:54:46Z</time>
      </trkpt>
      <trkpt lat="45.92571" lon="4.74494">
        <ele>170</ele>
        <time>2018-07-25T09:54:47Z</time>
      </trkpt>
      <trkpt lat="45.92575" lon="4.74488">
        <ele>170</ele>
        <time>2018-07-25T09:54:48Z</time>
      </trkpt>
      <trkpt lat="45.92577" lon="4.74483">
        <ele>170</ele>
        <time>2018-07-25T09:54:49Z</time>
      </trkpt>
      <trkpt lat="45.92581" lon="4.74477">
        <ele>170</ele>
        <time>2018-07-25T09:54:50Z</time>
      </trkpt>
      <trkpt lat="45.92584" lon="4.74471">
        <ele>170</ele>
        <time>2018-07-25T09:54:51Z</time>
      </trkpt>
      <trkpt lat="45.92587" lon="4.74465">
        <ele>170</ele>
        <time>2018-07-25T09:54:52Z</time>
      </trkpt>
      <trkpt lat="45.9259" lon="4.74459">
        <ele>170</ele>
        <time>2018-07-25T09:54:53Z</time>
      </trkpt>
      <trkpt lat="45.92594" lon="4.74453">
        <ele>170</ele>
        <time>2018-07-25T09:54:54Z</time>
      </trkpt>
      <trkpt lat="45.92598" lon="4.74447">
        <ele>170</ele>
        <time>2018-07-25T09:54:55Z</time>
      </trkpt>
      <trkpt lat="45.92601" lon="4.74441">
        <ele>170</ele>
        <time>2018-07-25T09:54:56Z</time>
      </trkpt>
      <trkpt lat="45.92605" lon="4.74434">
        <ele>170</ele>
        <time>2018-07-25T09:54:57Z</time>
      </trkpt>
      <trkpt lat="45.92609" lon="4.74427">
        <ele>170</ele>
        <time>2018-07-25T09:54:58Z</time>
      </trkpt>
      <trkpt lat="45.92612" lon="4.7442">
        <ele>170</ele>
        <time>2018-07-25T09:54:59Z</time>
      </trkpt>
      <trkpt lat="45.92615" lon="4.74413">
        <ele>170</ele>
        <time>2018-07-25T09:55:00Z</time>
      </trkpt>
      <trkpt lat="45.92619" lon="4.74407">
        <ele>170</ele>
        <time>2018-07-25T09:55:01Z</time>
      </trkpt>
      <trkpt lat="45.92623" lon="4.74401">
        <ele>170</ele>
        <time>2018-07-25T09:55:02Z</time>
      </trkpt>
      <trkpt lat="45.92626" lon="4.74395">
        <ele>170</ele>
        <time>2018-07-25T09:55:03Z</time>
      </trkpt>
      <trkpt lat="45.92629" lon="4.74388">
        <ele>170</ele>
        <time>2018-07-25T09:55:04Z</time>
      </trkpt>
      <trkpt lat="45.92632" lon="4.74379">
        <ele>170</ele>
        <time>2018-07-25T09:55:05Z</time>
      </trkpt>
      <trkpt lat="45.92635" lon="4.74372">
        <ele>171</ele>
        <time>2018-07-25T09:55:06Z</time>
      </trkpt>
      <trkpt lat="45.92639" lon="4.74366">
        <ele>171</ele>
        <time>2018-07-25T09:55:07Z</time>
      </trkpt>
      <trkpt lat="45.92643" lon="4.7436">
        <ele>171</ele>
        <time>2018-07-25T09:55:08Z</time>
      </trkpt>
      <trkpt lat="45.92647" lon="4.74354">
        <ele>171</ele>
        <time>2018-07-25T09:55:09Z</time>
      </trkpt>
      <trkpt lat="45.92652" lon="4.74348">
        <ele>171</ele>
        <time>2018-07-25T09:55:10Z</time>
      </trkpt>
      <trkpt lat="45.92655" lon="4.74341">
        <ele>171</ele>
        <time>2018-07-25T09:55:11Z</time>
      </trkpt>
      <trkpt lat="45.92659" lon="4.74334">
        <ele>171</ele>
        <time>2018-07-25T09:55:12Z</time>
      </trkpt>
      <trkpt lat="45.92663" lon="4.74328">
        <ele>171</ele>
        <time>2018-07-25T09:55:13Z</time>
      </trkpt>
      <trkpt lat="45.92666" lon="4.74321">
        <ele>171</ele>
        <time>2018-07-25T09:55:14Z</time>
      </trkpt>
      <trkpt lat="45.9267" lon="4.74314">
        <ele>171</ele>
        <time>2018-07-25T09:55:15Z</time>
      </trkpt>
      <trkpt lat="45.92673" lon="4.74308">
        <ele>171</ele>
        <time>2018-07-25T09:55:16Z</time>
      </trkpt>
      <trkpt lat="45.92676" lon="4.74303">
        <ele>171</ele>
        <time>2018-07-25T09:55:17Z</time>
      </trkpt>
      <trkpt lat="45.9268" lon="4.74296">
        <ele>171</ele>
        <time>2018-07-25T09:55:18Z</time>
      </trkpt>
      <trkpt lat="45.92684" lon="4.74288">
        <ele>171</ele>
        <time>2018-07-25T09:55:19Z</time>
      </trkpt>
      <trkpt lat="45.92687" lon="4.74281">
        <ele>171</ele>
        <time>2018-07-25T09:55:20Z</time>
      </trkpt>
      <trkpt lat="45.9269" lon="4.74275">
        <ele>171</ele>
        <time>2018-07-25T09:55:21Z</time>
      </trkpt>
      <trkpt lat="45.92694" lon="4.74268">
        <ele>171</ele>
        <time>2018-07-25T09:55:22Z</time>
      </trkpt>
      <trkpt lat="45.92698" lon="4.7426">
        <ele>171</ele>
        <time>2018-07-25T09:55:23Z</time>
      </trkpt>
      <trkpt lat="45.92702" lon="4.74253">
        <ele>171</ele>
        <time>2018-07-25T09:55:24Z</time>
      </trkpt>
      <trkpt lat="45.92706" lon="4.74247">
        <ele>171</ele>
        <time>2018-07-25T09:55:25Z</time>
      </trkpt>
      <trkpt lat="45.9271" lon="4.7424">
        <ele>171</ele>
        <time>2018-07-25T09:55:26Z</time>
      </trkpt>
      <trkpt lat="45.92714" lon="4.74233">
        <ele>171</ele>
        <time>2018-07-25T09:55:27Z</time>
      </trkpt>
      <trkpt lat="45.92719" lon="4.74225">
        <ele>171</ele>
        <time>2018-07-25T09:55:28Z</time>
      </trkpt>
      <trkpt lat="45.92723" lon="4.74219">
        <ele>171</ele>
        <time>2018-07-25T09:55:29Z</time>
      </trkpt>
      <trkpt lat="45.92728" lon="4.74213">
        <ele>171</ele>
        <time>2018-07-25T09:55:30Z</time>
      </trkpt>
      <trkpt lat="45.92732" lon="4.74207">
        <ele>171</ele>
        <time>2018-07-25T09:55:31Z</time>
      </trkpt>
      <trkpt lat="45.92737" lon="4.74202">
        <ele>171</ele>
        <time>2018-07-25T09:55:32Z</time>
      </trkpt>
      <trkpt lat="45.92742" lon="4.74196">
        <ele>171</ele>
        <time>2018-07-25T09:55:33Z</time>
      </trkpt>
      <trkpt lat="45.92746" lon="4.74189">
        <ele>172</ele>
        <time>2018-07-25T09:55:34Z</time>
      </trkpt>
      <trkpt lat="45.92751" lon="4.74187">
        <ele>172</ele>
        <time>2018-07-25T09:55:35Z</time>
      </trkpt>
      <trkpt lat="45.92757" lon="4.74179">
        <ele>172</ele>
        <time>2018-07-25T09:55:36Z</time>
      </trkpt>
      <trkpt lat="45.92763" lon="4.74173">
        <ele>172</ele>
        <time>2018-07-25T09:55:37Z</time>
      </trkpt>
      <trkpt lat="45.92768" lon="4.74166">
        <ele>172</ele>
        <time>2018-07-25T09:55:38Z</time>
      </trkpt>
      <trkpt lat="45.92773" lon="4.74161">
        <ele>172</ele>
        <time>2018-07-25T09:55:39Z</time>
      </trkpt>
      <trkpt lat="45.92778" lon="4.74156">
        <ele>172</ele>
        <time>2018-07-25T09:55:40Z</time>
      </trkpt>
      <trkpt lat="45.92784" lon="4.74151">
        <ele>172</ele>
        <time>2018-07-25T09:55:41Z</time>
      </trkpt>
      <trkpt lat="45.92789" lon="4.74146">
        <ele>172</ele>
        <time>2018-07-25T09:55:42Z</time>
      </trkpt>
      <trkpt lat="45.92794" lon="4.74142">
        <ele>172</ele>
        <time>2018-07-25T09:55:43Z</time>
      </trkpt>
      <trkpt lat="45.92799" lon="4.74134">
        <ele>172</ele>
        <time>2018-07-25T09:55:44Z</time>
      </trkpt>
      <trkpt lat="45.92804" lon="4.74129">
        <ele>172</ele>
        <time>2018-07-25T09:55:45Z</time>
      </trkpt>
      <trkpt lat="45.92808" lon="4.74122">
        <ele>172</ele>
        <time>2018-07-25T09:55:46Z</time>
      </trkpt>
      <trkpt lat="45.92813" lon="4.74116">
        <ele>172</ele>
        <time>2018-07-25T09:55:47Z</time>
      </trkpt>
      <trkpt lat="45.92817" lon="4.74111">
        <ele>172</ele>
        <time>2018-07-25T09:55:48Z</time>
      </trkpt>
      <trkpt lat="45.92821" lon="4.74106">
        <ele>171</ele>
        <time>2018-07-25T09:55:49Z</time>
      </trkpt>
      <trkpt lat="45.92826" lon="4.74101">
        <ele>171</ele>
        <time>2018-07-25T09:55:50Z</time>
      </trkpt>
      <trkpt lat="45.92831" lon="4.74096">
        <ele>171</ele>
        <time>2018-07-25T09:55:51Z</time>
      </trkpt>
      <trkpt lat="45.92835" lon="4.74092">
        <ele>171</ele>
        <time>2018-07-25T09:55:52Z</time>
      </trkpt>
      <trkpt lat="45.92838" lon="4.74087">
        <ele>171</ele>
        <time>2018-07-25T09:55:53Z</time>
      </trkpt>
      <trkpt lat="45.92842" lon="4.74083">
        <ele>171</ele>
        <time>2018-07-25T09:55:54Z</time>
      </trkpt>
      <trkpt lat="45.92846" lon="4.74077">
        <ele>172</ele>
        <time>2018-07-25T09:55:55Z</time>
      </trkpt>
      <trkpt lat="45.9285" lon="4.74073">
        <ele>172</ele>
        <time>2018-07-25T09:55:56Z</time>
      </trkpt>
      <trkpt lat="45.92855" lon="4.74067">
        <ele>172</ele>
        <time>2018-07-25T09:55:57Z</time>
      </trkpt>
      <trkpt lat="45.92859" lon="4.74061">
        <ele>172</ele>
        <time>2018-07-25T09:55:58Z</time>
      </trkpt>
      <trkpt lat="45.92863" lon="4.74055">
        <ele>172</ele>
        <time>2018-07-25T09:55:59Z</time>
      </trkpt>
      <trkpt lat="45.92868" lon="4.74051">
        <ele>172</ele>
        <time>2018-07-25T09:56:00Z</time>
      </trkpt>
      <trkpt lat="45.92872" lon="4.74047">
        <ele>172</ele>
        <time>2018-07-25T09:56:01Z</time>
      </trkpt>
      <trkpt lat="45.92876" lon="4.74043">
        <ele>172</ele>
        <time>2018-07-25T09:56:02Z</time>
      </trkpt>
      <trkpt lat="45.92882" lon="4.7404">
        <ele>172</ele>
        <time>2018-07-25T09:56:03Z</time>
      </trkpt>
      <trkpt lat="45.92887" lon="4.7404">
        <ele>172</ele>
        <time>2018-07-25T09:56:04Z</time>
      </trkpt>
      <trkpt lat="45.92893" lon="4.74039">
        <ele>172</ele>
        <time>2018-07-25T09:56:05Z</time>
      </trkpt>
      <trkpt lat="45.92898" lon="4.74038">
        <ele>172</ele>
        <time>2018-07-25T09:56:06Z</time>
      </trkpt>
      <trkpt lat="45.92904" lon="4.74037">
        <ele>172</ele>
        <time>2018-07-25T09:56:07Z</time>
      </trkpt>
      <trkpt lat="45.92909" lon="4.74032">
        <ele>172</ele>
        <time>2018-07-25T09:56:08Z</time>
      </trkpt>
      <trkpt lat="45.92913" lon="4.74028">
        <ele>172</ele>
        <time>2018-07-25T09:56:09Z</time>
      </trkpt>
      <trkpt lat="45.92915" lon="4.74022">
        <ele>172</ele>
        <time>2018-07-25T09:56:10Z</time>
      </trkpt>
      <trkpt lat="45.92917" lon="4.74014">
        <ele>172</ele>
        <time>2018-07-25T09:56:11Z</time>
      </trkpt>
      <trkpt lat="45.92918" lon="4.74006">
        <ele>172</ele>
        <time>2018-07-25T09:56:12Z</time>
      </trkpt>
      <trkpt lat="45.92915" lon="4.74">
        <ele>172</ele>
        <time>2018-07-25T09:56:13Z</time>
      </trkpt>
      <trkpt lat="45.92913" lon="4.73994">
        <ele>172</ele>
        <time>2018-07-25T09:56:14Z</time>
      </trkpt>
      <trkpt lat="45.92906" lon="4.73985">
        <ele>172</ele>
        <time>2018-07-25T09:56:16Z</time>
      </trkpt>
      <trkpt lat="45.92902" lon="4.73983">
        <ele>172</ele>
        <time>2018-07-25T09:56:17Z</time>
      </trkpt>
      <trkpt lat="45.92896" lon="4.73977">
        <ele>172</ele>
        <time>2018-07-25T09:56:20Z</time>
      </trkpt>
      <trkpt lat="45.92896" lon="4.73969">
        <ele>172</ele>
        <time>2018-07-25T09:56:21Z</time>
      </trkpt>
      <trkpt lat="45.9289" lon="4.73964">
        <ele>172</ele>
        <time>2018-07-25T09:56:22Z</time>
      </trkpt>
      <trkpt lat="45.92891" lon="4.73958">
        <ele>172</ele>
        <time>2018-07-25T09:56:23Z</time>
      </trkpt>
      <trkpt lat="45.9289" lon="4.73951">
        <ele>172</ele>
        <time>2018-07-25T09:56:24Z</time>
      </trkpt>
      <trkpt lat="45.9289" lon="4.73943">
        <ele>172</ele>
        <time>2018-07-25T09:56:25Z</time>
      </trkpt>
      <trkpt lat="45.9289" lon="4.73935">
        <ele>172</ele>
        <time>2018-07-25T09:56:26Z</time>
      </trkpt>
      <trkpt lat="45.92889" lon="4.73925">
        <ele>172</ele>
        <time>2018-07-25T09:56:27Z</time>
      </trkpt>
      <trkpt lat="45.92888" lon="4.73916">
        <ele>173</ele>
        <time>2018-07-25T09:56:28Z</time>
      </trkpt>
      <trkpt lat="45.92886" lon="4.73906">
        <ele>173</ele>
        <time>2018-07-25T09:56:29Z</time>
      </trkpt>
      <trkpt lat="45.92884" lon="4.73896">
        <ele>173</ele>
        <time>2018-07-25T09:56:30Z</time>
      </trkpt>
      <trkpt lat="45.92882" lon="4.73886">
        <ele>173</ele>
        <time>2018-07-25T09:56:31Z</time>
      </trkpt>
      <trkpt lat="45.9288" lon="4.73877">
        <ele>173</ele>
        <time>2018-07-25T09:56:32Z</time>
      </trkpt>
      <trkpt lat="45.92878" lon="4.73867">
        <ele>173</ele>
        <time>2018-07-25T09:56:33Z</time>
      </trkpt>
      <trkpt lat="45.92875" lon="4.73859">
        <ele>173</ele>
        <time>2018-07-25T09:56:34Z</time>
      </trkpt>
      <trkpt lat="45.92874" lon="4.73851">
        <ele>173</ele>
        <time>2018-07-25T09:56:35Z</time>
      </trkpt>
      <trkpt lat="45.92872" lon="4.73842">
        <ele>173</ele>
        <time>2018-07-25T09:56:36Z</time>
      </trkpt>
      <trkpt lat="45.92871" lon="4.73834">
        <ele>173</ele>
        <time>2018-07-25T09:56:37Z</time>
      </trkpt>
      <trkpt lat="45.9287" lon="4.73826">
        <ele>173</ele>
        <time>2018-07-25T09:56:38Z</time>
      </trkpt>
      <trkpt lat="45.92867" lon="4.73817">
        <ele>173</ele>
        <time>2018-07-25T09:56:39Z</time>
      </trkpt>
      <trkpt lat="45.92864" lon="4.73808">
        <ele>173</ele>
        <time>2018-07-25T09:56:40Z</time>
      </trkpt>
      <trkpt lat="45.92862" lon="4.73802">
        <ele>173</ele>
        <time>2018-07-25T09:56:41Z</time>
      </trkpt>
      <trkpt lat="45.92858" lon="4.73796">
        <ele>173</ele>
        <time>2018-07-25T09:56:42Z</time>
      </trkpt>
      <trkpt lat="45.92854" lon="4.73789">
        <ele>173</ele>
        <time>2018-07-25T09:56:43Z</time>
      </trkpt>
      <trkpt lat="45.92849" lon="4.73784">
        <ele>173</ele>
        <time>2018-07-25T09:56:44Z</time>
      </trkpt>
      <trkpt lat="45.92844" lon="4.7378">
        <ele>172</ele>
        <time>2018-07-25T09:56:45Z</time>
      </trkpt>
      <trkpt lat="45.92839" lon="4.73776">
        <ele>172</ele>
        <time>2018-07-25T09:56:46Z</time>
      </trkpt>
      <trkpt lat="45.92832" lon="4.73773">
        <ele>173</ele>
        <time>2018-07-25T09:56:47Z</time>
      </trkpt>
      <trkpt lat="45.92825" lon="4.73771">
        <ele>173</ele>
        <time>2018-07-25T09:56:48Z</time>
      </trkpt>
      <trkpt lat="45.9282" lon="4.73768">
        <ele>173</ele>
        <time>2018-07-25T09:56:49Z</time>
      </trkpt>
      <trkpt lat="45.92815" lon="4.73765">
        <ele>173</ele>
        <time>2018-07-25T09:56:50Z</time>
      </trkpt>
      <trkpt lat="45.92811" lon="4.73761">
        <ele>173</ele>
        <time>2018-07-25T09:56:51Z</time>
      </trkpt>
      <trkpt lat="45.92804" lon="4.73758">
        <ele>173</ele>
        <time>2018-07-25T09:56:52Z</time>
      </trkpt>
      <trkpt lat="45.92799" lon="4.73756">
        <ele>173</ele>
        <time>2018-07-25T09:56:53Z</time>
      </trkpt>
      <trkpt lat="45.92795" lon="4.73752">
        <ele>173</ele>
        <time>2018-07-25T09:56:54Z</time>
      </trkpt>
      <trkpt lat="45.92791" lon="4.73748">
        <ele>172</ele>
        <time>2018-07-25T09:56:55Z</time>
      </trkpt>
      <trkpt lat="45.92787" lon="4.73744">
        <ele>172</ele>
        <time>2018-07-25T09:56:56Z</time>
      </trkpt>
      <trkpt lat="45.92784" lon="4.73737">
        <ele>172</ele>
        <time>2018-07-25T09:56:57Z</time>
      </trkpt>
      <trkpt lat="45.92781" lon="4.73732">
        <ele>172</ele>
        <time>2018-07-25T09:56:58Z</time>
      </trkpt>
      <trkpt lat="45.92777" lon="4.73727">
        <ele>172</ele>
        <time>2018-07-25T09:56:59Z</time>
      </trkpt>
      <trkpt lat="45.92772" lon="4.73726">
        <ele>172</ele>
        <time>2018-07-25T09:57:00Z</time>
      </trkpt>
      <trkpt lat="45.92767" lon="4.73723">
        <ele>172</ele>
        <time>2018-07-25T09:57:01Z</time>
      </trkpt>
      <trkpt lat="45.92762" lon="4.73719">
        <ele>172</ele>
        <time>2018-07-25T09:57:02Z</time>
      </trkpt>
      <trkpt lat="45.92758" lon="4.73716">
        <ele>172</ele>
        <time>2018-07-25T09:57:03Z</time>
      </trkpt>
      <trkpt lat="45.92752" lon="4.73715">
        <ele>172</ele>
        <time>2018-07-25T09:57:04Z</time>
      </trkpt>
      <trkpt lat="45.92747" lon="4.73715">
        <ele>173</ele>
        <time>2018-07-25T09:57:05Z</time>
      </trkpt>
      <trkpt lat="45.92741" lon="4.73714">
        <ele>173</ele>
        <time>2018-07-25T09:57:06Z</time>
      </trkpt>
      <trkpt lat="45.92735" lon="4.73712">
        <ele>173</ele>
        <time>2018-07-25T09:57:07Z</time>
      </trkpt>
      <trkpt lat="45.9273" lon="4.73709">
        <ele>173</ele>
        <time>2018-07-25T09:57:08Z</time>
      </trkpt>
      <trkpt lat="45.92724" lon="4.73707">
        <ele>173</ele>
        <time>2018-07-25T09:57:09Z</time>
      </trkpt>
      <trkpt lat="45.92716" lon="4.73706">
        <ele>173</ele>
        <time>2018-07-25T09:57:10Z</time>
      </trkpt>
      <trkpt lat="45.92711" lon="4.73707">
        <ele>173</ele>
        <time>2018-07-25T09:57:11Z</time>
      </trkpt>
      <trkpt lat="45.92705" lon="4.73705">
        <ele>173</ele>
        <time>2018-07-25T09:57:12Z</time>
      </trkpt>
      <trkpt lat="45.927" lon="4.73703">
        <ele>173</ele>
        <time>2018-07-25T09:57:13Z</time>
      </trkpt>
      <trkpt lat="45.92695" lon="4.73702">
        <ele>173</ele>
        <time>2018-07-25T09:57:14Z</time>
      </trkpt>
      <trkpt lat="45.92689" lon="4.73699">
        <ele>173</ele>
        <time>2018-07-25T09:57:15Z</time>
      </trkpt>
      <trkpt lat="45.92683" lon="4.73697">
        <ele>173</ele>
        <time>2018-07-25T09:57:16Z</time>
      </trkpt>
      <trkpt lat="45.92677" lon="4.73696">
        <ele>174</ele>
        <time>2018-07-25T09:57:17Z</time>
      </trkpt>
      <trkpt lat="45.92673" lon="4.73694">
        <ele>174</ele>
        <time>2018-07-25T09:57:18Z</time>
      </trkpt>
      <trkpt lat="45.92667" lon="4.73691">
        <ele>174</ele>
        <time>2018-07-25T09:57:19Z</time>
      </trkpt>
      <trkpt lat="45.92662" lon="4.73687">
        <ele>173</ele>
        <time>2018-07-25T09:57:20Z</time>
      </trkpt>
      <trkpt lat="45.92657" lon="4.73683">
        <ele>173</ele>
        <time>2018-07-25T09:57:21Z</time>
      </trkpt>
      <trkpt lat="45.92653" lon="4.73678">
        <ele>173</ele>
        <time>2018-07-25T09:57:22Z</time>
      </trkpt>
      <trkpt lat="45.92649" lon="4.73673">
        <ele>173</ele>
        <time>2018-07-25T09:57:23Z</time>
      </trkpt>
      <trkpt lat="45.92644" lon="4.73667">
        <ele>173</ele>
        <time>2018-07-25T09:57:24Z</time>
      </trkpt>
      <trkpt lat="45.9264" lon="4.73661">
        <ele>173</ele>
        <time>2018-07-25T09:57:25Z</time>
      </trkpt>
      <trkpt lat="45.92637" lon="4.73655">
        <ele>173</ele>
        <time>2018-07-25T09:57:26Z</time>
      </trkpt>
      <trkpt lat="45.92634" lon="4.73649">
        <ele>173</ele>
        <time>2018-07-25T09:57:27Z</time>
      </trkpt>
      <trkpt lat="45.92631" lon="4.73643">
        <ele>173</ele>
        <time>2018-07-25T09:57:28Z</time>
      </trkpt>
      <trkpt lat="45.92626" lon="4.73636">
        <ele>173</ele>
        <time>2018-07-25T09:57:29Z</time>
      </trkpt>
      <trkpt lat="45.92622" lon="4.73629">
        <ele>173</ele>
        <time>2018-07-25T09:57:30Z</time>
      </trkpt>
      <trkpt lat="45.92617" lon="4.73625">
        <ele>173</ele>
        <time>2018-07-25T09:57:31Z</time>
      </trkpt>
      <trkpt lat="45.92611" lon="4.73621">
        <ele>173</ele>
        <time>2018-07-25T09:57:32Z</time>
      </trkpt>
      <trkpt lat="45.92603" lon="4.73621">
        <ele>173</ele>
        <time>2018-07-25T09:57:33Z</time>
      </trkpt>
      <trkpt lat="45.92597" lon="4.73621">
        <ele>173</ele>
        <time>2018-07-25T09:57:34Z</time>
      </trkpt>
      <trkpt lat="45.92594" lon="4.73621">
        <ele>173</ele>
        <time>2018-07-25T09:57:35Z</time>
      </trkpt>
      <trkpt lat="45.92589" lon="4.73622">
        <ele>173</ele>
        <time>2018-07-25T09:57:36Z</time>
      </trkpt>
      <trkpt lat="45.92584" lon="4.73623">
        <ele>172</ele>
        <time>2018-07-25T09:57:37Z</time>
      </trkpt>
      <trkpt lat="45.92578" lon="4.73626">
        <ele>173</ele>
        <time>2018-07-25T09:57:38Z</time>
      </trkpt>
      <trkpt lat="45.92572" lon="4.73628">
        <ele>173</ele>
        <time>2018-07-25T09:57:39Z</time>
      </trkpt>
      <trkpt lat="45.92565" lon="4.7363">
        <ele>173</ele>
        <time>2018-07-25T09:57:40Z</time>
      </trkpt>
      <trkpt lat="45.92558" lon="4.73632">
        <ele>173</ele>
        <time>2018-07-25T09:57:41Z</time>
      </trkpt>
      <trkpt lat="45.92553" lon="4.73635">
        <ele>173</ele>
        <time>2018-07-25T09:57:42Z</time>
      </trkpt>
      <trkpt lat="45.92547" lon="4.73636">
        <ele>173</ele>
        <time>2018-07-25T09:57:43Z</time>
      </trkpt>
      <trkpt lat="45.92542" lon="4.73638">
        <ele>173</ele>
        <time>2018-07-25T09:57:44Z</time>
      </trkpt>
      <trkpt lat="45.92535" lon="4.73639">
        <ele>173</ele>
        <time>2018-07-25T09:57:45Z</time>
      </trkpt>
      <trkpt lat="45.9253" lon="4.73639">
        <ele>173</ele>
        <time>2018-07-25T09:57:46Z</time>
      </trkpt>
      <trkpt lat="45.92524" lon="4.7364">
        <ele>173</ele>
        <time>2018-07-25T09:57:47Z</time>
      </trkpt>
      <trkpt lat="45.92519" lon="4.73641">
        <ele>173</ele>
        <time>2018-07-25T09:57:48Z</time>
      </trkpt>
      <trkpt lat="45.92514" lon="4.73639">
        <ele>174</ele>
        <time>2018-07-25T09:57:49Z</time>
      </trkpt>
      <trkpt lat="45.9251" lon="4.73639">
        <ele>174</ele>
        <time>2018-07-25T09:57:50Z</time>
      </trkpt>
      <trkpt lat="45.92504" lon="4.73639">
        <ele>174</ele>
        <time>2018-07-25T09:57:51Z</time>
      </trkpt>
      <trkpt lat="45.925" lon="4.73638">
        <ele>174</ele>
        <time>2018-07-25T09:57:52Z</time>
      </trkpt>
      <trkpt lat="45.92494" lon="4.73638">
        <ele>174</ele>
        <time>2018-07-25T09:57:53Z</time>
      </trkpt>
      <trkpt lat="45.92489" lon="4.73639">
        <ele>174</ele>
        <time>2018-07-25T09:57:54Z</time>
      </trkpt>
      <trkpt lat="45.92485" lon="4.73639">
        <ele>174</ele>
        <time>2018-07-25T09:57:55Z</time>
      </trkpt>
      <trkpt lat="45.92476" lon="4.7364">
        <ele>174</ele>
        <time>2018-07-25T09:57:57Z</time>
      </trkpt>
      <trkpt lat="45.92473" lon="4.73642">
        <ele>174</ele>
        <time>2018-07-25T09:57:58Z</time>
      </trkpt>
      <trkpt lat="45.92469" lon="4.73649">
        <ele>174</ele>
        <time>2018-07-25T09:58:00Z</time>
      </trkpt>
      <trkpt lat="45.92468" lon="4.73657">
        <ele>174</ele>
        <time>2018-07-25T09:58:01Z</time>
      </trkpt>
      <trkpt lat="45.92468" lon="4.73662">
        <ele>174</ele>
        <time>2018-07-25T09:58:03Z</time>
      </trkpt>
      <trkpt lat="45.92468" lon="4.73671">
        <ele>174</ele>
        <time>2018-07-25T09:58:04Z</time>
      </trkpt>
      <trkpt lat="45.92467" lon="4.73683">
        <ele>174</ele>
        <time>2018-07-25T09:58:06Z</time>
      </trkpt>
      <trkpt lat="45.92467" lon="4.73685">
        <ele>174</ele>
        <time>2018-07-25T09:58:07Z</time>
      </trkpt>
      <trkpt lat="45.92466" lon="4.73695">
        <ele>174</ele>
        <time>2018-07-25T09:58:10Z</time>
      </trkpt>
      <trkpt lat="45.92466" lon="4.73698">
        <ele>174</ele>
        <time>2018-07-25T09:58:11Z</time>
      </trkpt>
      <trkpt lat="45.92461" lon="4.73706">
        <ele>174</ele>
        <time>2018-07-25T09:58:56.899Z</time>
      </trkpt>
    </trkseg>
  </trk>
</gpx>